Data from Weather Station test

Home
 
SELECT temp_in/10, temp_out/10, humid, atmos, rain, time FROM wx_data WHERE device_id = 3 AND Date(time) > '2020-12-31'
 
TEMP_IN/10
TEMP_OUT/10
HUMID
ATMOS
RAIN
TIME
23.1000  18.1000  64  1020  2021-01-01 00:02:59 
22.6000  18.1000  63  1021  2021-01-01 01:03:01 
22.6000  18.1000  63  1020  2021-01-01 02:02:59 
22.1000  17.8000  63  1019  2021-01-01 03:03:01 
22.1000  17.6000  62  1020  2021-01-01 04:03:03 
21.6000  17.1000  62  1021  2021-01-01 05:03:01 
21.6000  17.1000  61  1022  2021-01-01 06:03:02 
21.5000  18.1000  61  1022  2021-01-01 07:03:00 
21.8000  19.6000  61  1023  2021-01-01 08:03:02 
22.1000  21.1000  62  1022  2021-01-01 09:03:00 
22.6000  22.1000  61  1024  2021-01-01 10:03:02 
22.8000  23.1000  62  1023  2021-01-01 11:03:00 
23.0000  23.1000  62  1023  2021-01-01 12:03:02 
23.1000  23.1000  63  1022  2021-01-01 13:03:00 
23.5000  22.6000  63  1021  2021-01-01 14:03:02 
23.7000  23.1000  64  1022  2021-01-01 15:03:00 
24.1000  22.6000  65  1021  2021-01-01 16:03:02 
24.2000  21.3000  64  1020  2021-01-01 17:03:00 
24.3000  20.6000  63  1021  2021-01-01 18:03:02 
23.6000  19.8000  63  1020  2021-01-01 19:03:00 
23.6000  18.8000  63  1020  2021-01-01 20:03:02 
23.3000  18.6000  63  1020  2021-01-01 21:03:00 
23.3000  18.1000  62  1021  2021-01-01 22:03:02 
22.6000  18.1000  61  1021  2021-01-01 23:03:00 
22.3000  18.1000  61  1021  2021-01-02 00:03:02 
22.1000  18.1000  61  1019  2021-01-02 01:03:00 
22.1000  18.0000  61  1018  2021-01-02 02:03:02 
21.6000  17.1000  61  1018  2021-01-02 03:03:00 
21.4000  16.3000  61  1018  2021-01-02 04:03:29 
21.1000  16.4000  62  1017  2021-01-02 05:03:00 
21.1000  16.6000  62  1018  2021-01-02 06:03:02 
21.1000  18.1000  63  1017  2021-01-02 07:02:59 
21.6000  19.1000  64  1016  2021-01-02 08:03:01 
22.1000  20.6000  66  1018  2021-01-02 09:02:59 
22.3000  21.8000  67  1017  2021-01-02 10:03:01 
22.9000  24.0000  70  1016  2021-01-02 11:02:59 
23.6000  24.6000  73  1016  2021-01-02 12:03:01 
23.6000  25.5000  75  1016  2021-01-02 13:02:59 
24.2000  25.1000  76  1015  2021-01-02 14:03:02 
24.6000  26.3000  76  1015  2021-01-02 15:03:00 
24.6000  26.1000  76  1014  2021-01-02 16:03:02 
24.8000  24.1000  74  1015  2021-01-02 17:03:00 
24.7000  22.4000  73  1014  2021-01-02 18:03:02 
24.6000  21.6000  73  1015  2021-01-02 19:03:00 
24.6000  20.6000  73  1015  2021-01-02 20:03:03 
24.4000  20.0000  72  1015  2021-01-02 21:03:01 
24.1000  19.6000  72  1016  2021-01-02 22:03:03 
23.6000  19.1000  71  1015  2021-01-02 23:03:01 
23.1000  18.6000  71  1014  2021-01-03 00:03:03 
23.0000  18.6000  71  1014  2021-01-03 01:03:01 
22.7000  18.4000  71  1013  2021-01-03 02:03:03 
22.6000  18.6000  71  1012  2021-01-03 03:03:02 
22.5000  18.1000  71  1012  2021-01-03 04:03:00 
22.1000  18.1000  71  1012  2021-01-03 05:03:01 
22.3000  17.9000  71  1012  2021-01-03 06:02:59 
22.1000  19.3000  71  1013  2021-01-03 07:03:01 
22.3000  20.1000  72  1013  2021-01-03 08:02:59 
23.1000  22.2000  73  1013  2021-01-03 09:03:01 
23.2000  23.1000  75  1013  2021-01-03 10:02:59 
23.5000  24.1000  77  1013  2021-01-03 11:03:01 
24.0000  24.6000  101  1013  2021-01-03 12:03:00 
24.5000  25.8000  103  1013  2021-01-03 13:03:02 
24.6000  26.0000  104  1013  2021-01-03 14:03:00 
25.1000  26.8000  105  1012  2021-01-03 15:03:02 
25.1000  27.1000  105  1012  2021-01-03 16:03:01 
25.5000  25.1000  104  1011  2021-01-03 17:03:03 
25.3000  23.6000  102  1010  2021-01-03 18:03:01 
26.1000  22.6000  103  1010  2021-01-03 19:02:59 
25.6000  21.5000  101  1011  2021-01-03 20:03:02 
25.8000  21.1000  101  1012  2021-01-03 21:03:00 
25.6000  20.6000  101  1012  2021-01-03 22:03:02 
24.2000  20.6000  100  1011  2021-01-03 23:03:00 
24.1000  20.5000  77  1010  2021-01-04 00:03:03 
23.6000  20.1000  77  1010  2021-01-04 01:03:01 
23.9000  20.1000  77  1009  2021-01-04 02:03:03 
23.6000  20.1000  77  1009  2021-01-04 03:03:01 
23.6000  20.5000  77  1009  2021-01-04 04:03:15 
23.5000  20.1000  77  1010  2021-01-04 05:03:01 
23.4000  20.1000  100  1010  2021-01-04 06:03:03 
23.6000  20.5000  100  1010  2021-01-04 07:03:01 
23.9000  21.6000  101  1010  2021-01-04 08:03:03 
24.1000  23.6000  103  1009  2021-01-04 09:03:01 
24.6000  24.7000  105  1008  2021-01-04 10:03:00 
25.1000  26.0000  106  1008  2021-01-04 11:03:02 
25.4000  27.0000  106  1009  2021-01-04 12:03:00 
25.6000  27.6000  107  1009  2021-01-04 13:03:02 
26.1000  27.6000  107  1009  2021-01-04 14:03:00 
26.6000  28.0000  107  1008  2021-01-04 15:03:02 
27.5000  28.1000  107  1008  2021-01-04 16:03:01 
26.6000  25.9000  105  1008  2021-01-04 17:03:03 
25.6000  24.1000  105  1008  2021-01-04 18:03:01 
25.1000  23.0000  105  1007  2021-01-04 19:03:03 
25.1000  22.6000  105  1008  2021-01-04 20:03:01 
26.1000  21.6000  104  1008  2021-01-04 21:03:03 
25.6000  21.6000  103  1008  2021-01-04 22:03:02 
25.1000  21.5000  103  1009  2021-01-04 23:03:00 
24.6000  20.9000  102  1009  2021-01-05 00:03:02 
24.3000  21.0000  102  1009  2021-01-05 01:03:00 
24.1000  20.6000  103  1008  2021-01-05 02:03:03 
24.1000  20.6000  103  1008  2021-01-05 03:03:01 
24.0000  20.6000  103  1008  2021-01-05 04:03:03 
24.1000  20.7000  103  1010  2021-01-05 05:03:01 
23.8000  21.1000  102  1009  2021-01-05 06:03:04 
24.1000  21.4000  102  1010  2021-01-05 07:03:02 
24.1000  22.1000  103  1010  2021-01-05 08:03:00 
23.7000  22.1000  104  1011  2021-01-05 09:03:03 
23.6000  22.3000  102  1011  2021-01-05 10:03:01 
24.2000  23.5000  102  1011  2021-01-05 11:03:03 
24.7000  25.2000  102  1011  2021-01-05 12:03:01 
25.0000  26.0000  102  1012  2021-01-05 13:03:04 
25.1000  26.0000  102  1012  2021-01-05 14:03:02 
25.1000  25.7000  101  1012  2021-01-05 15:03:00 
25.3000  25.6000  101  1011  2021-01-05 16:03:02 
25.1000  24.1000  76  1012  2021-01-05 17:03:01 
24.6000  23.6000  75  1011  2021-01-05 18:03:03 
24.9000  22.6000  76  1012  2021-01-05 19:03:01 
24.9000  21.6000  77  1012  2021-01-05 20:03:03 
24.6000  21.1000  100  1013  2021-01-05 21:03:01 
24.6000  21.1000  100  1014  2021-01-05 22:03:03 
24.3000  20.6000  100  1014  2021-01-05 23:03:01 
24.1000  20.6000  100  1014  2021-01-06 00:03:04 
24.1000  20.1000  100  1015  2021-01-06 01:03:02 
23.9000  20.1000  100  1013  2021-01-06 02:03:00 
23.8000  19.6000  100  1014  2021-01-06 03:03:03 
23.6000  19.6000  100  1014  2021-01-06 04:03:05 
23.3000  19.6000  100  1014  2021-01-06 05:03:03 
23.1000  19.1000  100  1014  2021-01-06 06:03:02 
23.1000  20.1000  100  1015  2021-01-06 07:03:04 
23.6000  21.6000  100  1015  2021-01-06 08:03:02 
23.6000  21.9000  100  1016  2021-01-06 09:03:04 
23.9000  22.6000  100  1015  2021-01-06 10:03:02 
24.1000  23.6000  100  1016  2021-01-06 11:03:04 
24.3000  24.6000  100  1016  2021-01-06 12:03:02 
24.6000  25.6000  77  1015  2021-01-06 13:03:00 
25.1000  25.6000  100  1015  2021-01-06 14:03:02 
25.5000  26.2000  100  1015  2021-01-06 15:03:00 
25.7000  27.1000  100  1015  2021-01-06 16:03:03 
25.6000  24.8000  75  1015  2021-01-06 17:03:01 
25.5000  23.6000  74  1013  2021-01-06 18:03:03 
24.9000  22.7000  72  1015  2021-01-06 19:03:01 
24.3000  21.6000  72  1014  2021-01-06 20:03:04 
24.1000  21.1000  72  1015  2021-01-06 21:03:02 
24.1000  20.6000  73  1015  2021-01-06 22:03:04 
24.1000  20.1000  73  1015  2021-01-06 23:03:02 
24.0000  20.1000  72  1015  2021-01-07 00:03:04 
23.6000  19.6000  73  1014  2021-01-07 01:03:02 
23.4000  19.3000  73  1013  2021-01-07 02:03:04 
23.2000  19.1000  73  1012  2021-01-07 03:03:02 
23.0000  19.0000  74  1012  2021-01-07 04:03:16 
22.8000  19.0000  74  1012  2021-01-07 05:03:02 
22.6000  18.6000  74  1012  2021-01-07 06:03:04 
22.9000  19.1000  74  1012  2021-01-07 07:03:02 
23.2000  20.1000  75  1012  2021-01-07 08:03:00 
23.6000  22.0000  76  1012  2021-01-07 09:03:02 
23.7000  22.6000  100  1011  2021-01-07 10:03:00 
24.1000  23.6000  102  1012  2021-01-07 11:03:03 
24.4000  24.6000  102  1012  2021-01-07 12:03:01 
24.9000  24.6000  102  1011  2021-01-07 13:03:03 
25.1000  25.7000  102  1011  2021-01-07 14:03:01 
25.4000  26.1000  102  1012  2021-01-07 15:03:04 
25.6000  26.2000  101  1012  2021-01-07 16:03:02 
25.1000  25.0000  77  1011  2021-01-07 17:03:04 
25.4000  23.6000  76  1011  2021-01-07 18:03:02 
25.3000  22.6000  76  1012  2021-01-07 19:03:01 
24.8000  21.6000  76  1013  2021-01-07 20:03:03 
26.1000  21.4000  77  1014  2021-01-07 21:03:01 
25.1000  21.1000  75  1014  2021-01-07 22:03:03 
24.6000  20.9000  75  1014  2021-01-07 23:03:01 
24.3000  20.6000  75  1014  2021-01-08 00:03:04 
24.1000  20.3000  74  1012  2021-01-08 01:03:02 
24.1000  20.1000  74  1012  2021-01-08 02:03:04 
23.6000  19.6000  74  1012  2021-01-08 03:03:04 
23.6000  19.6000  74  1012  2021-01-08 04:03:05 
23.2000  19.5000  74  1013  2021-01-08 05:03:04 
23.1000  19.1000  74  1013  2021-01-08 06:03:02 
23.1000  19.6000  75  1013  2021-01-08 07:03:04 
23.1000  20.9000  75  1013  2021-01-08 08:03:02 
23.3000  22.1000  74  1014  2021-01-08 09:03:05 
24.1000  22.9000  76  1013  2021-01-08 10:03:03 
24.5000  24.1000  77  1013  2021-01-08 11:03:01 
24.6000  24.6000  77  1012  2021-01-08 12:03:03 
25.1000  25.2000  77  1012  2021-01-08 13:03:01 
25.1000  25.6000  77  1011  2021-01-08 14:03:04 
25.5000  26.4000  100  1011  2021-01-08 15:03:02 
25.6000  26.7000  100  1010  2021-01-08 16:03:04 
25.5000  24.7000  77  1010  2021-01-08 17:03:02 
25.1000  23.6000  77  1010  2021-01-08 18:03:05 
25.9000  22.6000  77  1010  2021-01-08 19:03:03 
25.6000  21.4000  77  1010  2021-01-08 20:03:01 
25.1000  20.6000  77  1010  2021-01-08 21:03:03 
24.6000  20.6000  76  1011  2021-01-08 22:03:01 
24.4000  20.3000  76  1011  2021-01-08 23:03:03 
24.5000  20.1000  76  1010  2021-01-09 00:03:02 
24.5000  19.9000  76  1009  2021-01-09 01:03:04 
23.9000  19.6000  76  1008  2021-01-09 02:03:02 
23.7000  19.9000  76  1008  2021-01-09 03:03:05 
23.6000  19.3000  76  1008  2021-01-09 04:03:03 
23.1000  19.1000  76  1008  2021-01-09 05:03:01 
23.1000  18.6000  76  1009  2021-01-09 06:03:03 
23.1000  19.1000  76  1009  2021-01-09 07:03:01 
23.2000  20.1000  100  1009  2021-01-09 08:03:04 
24.5000  21.6000  101  1011  2021-01-09 09:03:01 
24.1000  23.6000  101  1011  2021-01-09 10:03:04 
24.6000  24.4000  102  1012  2021-01-09 11:03:02 
24.9000  25.1000  102  1012  2021-01-09 12:03:04 
25.1000  26.0000  101  1010  2021-01-09 13:03:02 
25.4000  26.3000  100  1012  2021-01-09 14:03:05 
25.7000  27.1000  77  1011  2021-01-09 15:03:03 
26.1000  26.9000  75  1011  2021-01-09 16:03:01 
25.9000  25.6000  73  1012  2021-01-09 17:03:03 
25.6000  24.6000  71  1012  2021-01-09 18:03:02 
25.0000  23.1000  71  1012  2021-01-09 19:03:04 
25.1000  22.1000  73  1012  2021-01-09 20:03:02 
25.1000  21.6000  73  1013  2021-01-09 21:03:04 
25.1000  21.8000  74  1013  2021-01-09 22:03:02 
25.1000  22.1000  74  1014  2021-01-09 23:03:05 
24.6000  19.6000  75  1014  2021-01-10 00:03:02 
24.5000  19.4000  75  1015  2021-01-10 01:03:05 
24.5000  20.1000  75  1014  2021-01-10 02:03:03 
24.1000  19.6000  74  1014  2021-01-10 03:03:05 
23.7000  19.8000  73  1014  2021-01-10 04:03:13 
23.6000  19.4000  72  1015  2021-01-10 05:03:01 
23.2000  19.1000  71  1015  2021-01-10 06:03:03 
23.1000  19.1000  70  1016  2021-01-10 07:03:01 
23.1000  20.6000  66  1016  2021-01-10 08:03:03 
23.1000  21.1000  65  1016  2021-01-10 09:03:05 
23.6000  21.7000  64  1016  2021-01-10 10:03:03 
23.8000  22.8000  65  1015  2021-01-10 11:03:01 
24.1000  23.2000  67  1015  2021-01-10 12:03:03 
24.4000  24.1000  67  1016  2021-01-10 13:03:01 
24.8000  24.3000  67  1015  2021-01-10 14:03:04 
24.9000  23.7000  70  1015  2021-01-10 15:03:02 
25.1000  24.9000  70  1014  2021-01-10 16:03:04 
25.6000  22.9000  67  1014  2021-01-10 17:03:02 
25.6000  21.6000  67  1014  2021-01-10 18:03:05 
25.6000  21.1000  65  1013  2021-01-10 19:03:02 
24.7000  20.1000  64  1013  2021-01-10 20:03:05 
24.1000  19.6000  64  1014  2021-01-10 21:03:04 
24.1000  19.1000  64  1013  2021-01-10 22:03:01 
23.6000  18.6000  64  1013  2021-01-10 23:03:04 
23.5000  18.6000  65  1013  2021-01-11 00:03:02 
23.1000  18.6000  65  1013  2021-01-11 01:03:04 
23.1000  18.6000  66  1013  2021-01-11 02:03:02 
23.1000  18.1000  66  1012  2021-01-11 03:03:04 
22.6000  18.1000  67  1011  2021-01-11 04:03:03 
22.6000  18.0000  67  1011  2021-01-11 05:03:05 
22.3000  17.7000  70  1011  2021-01-11 06:03:03 
22.2000  18.4000  70  1011  2021-01-11 07:03:05 
22.6000  19.6000  73  1011  2021-01-11 08:03:03 
22.8000  20.6000  73  1011  2021-01-11 09:03:05 
23.4000  22.1000  75  1011  2021-01-11 10:03:04 
23.8000  23.6000  76  1011  2021-01-11 11:03:02 
24.2000  24.3000  76  1011  2021-01-11 12:03:04 
24.5000  24.8000  77  1011  2021-01-11 13:03:02 
24.7000  25.1000  77  1010  2021-01-11 14:03:05 
24.9000  25.1000  77  1009  2021-01-11 15:03:03 
25.2000  25.6000  77  1009  2021-01-11 16:03:05 
25.1000  24.1000  76  1009  2021-01-11 17:03:03 
25.4000  22.6000  75  1009  2021-01-11 18:03:02 
25.1000  21.6000  74  1010  2021-01-11 19:03:04 
25.3000  20.4000  74  1011  2021-01-11 20:03:02 
24.9000  19.6000  74  1012  2021-01-11 21:03:04 
24.6000  19.3000  74  1012  2021-01-11 22:03:02 
24.1000  19.1000  74  1012  2021-01-11 23:03:04 
23.6000  19.1000  74  1012  2021-01-12 00:03:03 
23.5000  19.0000  74  1012  2021-01-12 01:03:05 
23.1000  18.8000  74  1013  2021-01-12 02:03:03 
23.1000  18.7000  74  1011  2021-01-12 03:03:05 
22.7000  18.1000  74  1011  2021-01-12 04:03:09 
22.6000  18.1000  75  1011  2021-01-12 05:03:05 
22.4000  18.5000  75  1011  2021-01-12 06:03:03 
22.6000  18.7000  75  1011  2021-01-12 07:03:05 
22.6000  19.6000  77  1012  2021-01-12 08:03:03 
23.1000  20.6000  101  1012  2021-01-12 09:03:05 
23.6000  22.1000  102  1013  2021-01-12 10:03:03 
23.6000  22.8000  103  1012  2021-01-12 11:03:06 
23.9000  24.5000  104  1013  2021-01-12 12:03:04 
24.3000  25.2000  104  1012  2021-01-12 13:03:02 
24.8000  26.1000  105  1013  2021-01-12 14:03:04 
25.0000  25.9000  104  1012  2021-01-12 15:03:02 
24.9000  25.5000  103  1012  2021-01-12 16:03:04 
25.1000  23.8000  102  1012  2021-01-12 17:03:03 
25.1000  23.0000  101  1012  2021-01-12 18:03:05 
24.4000  21.6000  101  1012  2021-01-12 19:03:03 
24.6000  20.7000  101  1013  2021-01-12 20:03:06 
24.6000  20.9000  100  1013  2021-01-12 21:03:04 
24.7000  21.1000  100  1014  2021-01-12 22:03:02 
24.1000  20.6000  100  1013  2021-01-12 23:03:04 
23.9000  20.6000  100  1013  2021-01-13 00:03:02 
23.8000  20.8000  100  1011  2021-01-13 01:03:04 
23.7000  21.0000  100  1011  2021-01-13 02:03:03 
23.6000  20.6000  100  1011  2021-01-13 03:03:05 
23.5000  19.7000  100  1011  2021-01-13 04:03:03 
23.1000  20.1000  100  1011  2021-01-13 05:03:05 
23.1000  19.6000  100  1011  2021-01-13 06:03:03 
23.3000  20.1000  100  1013  2021-01-13 07:03:05 
23.1000  21.1000  103  1012  2021-01-13 08:03:03 
23.9000  22.4000  103  1013  2021-01-13 09:03:06 
24.4000  24.1000  105  1012  2021-01-13 10:03:04 
24.8000  24.6000  106  1012  2021-01-13 11:03:06 
25.1000  26.1000  107  1012  2021-01-13 12:03:04 
25.8000  27.1000  107  1011  2021-01-13 13:03:03 
26.3000  27.6000  106  1011  2021-01-13 14:03:04 
25.8000  26.1000  104  1011  2021-01-13 15:03:02 
25.6000  27.0000  103  1009  2021-01-13 16:03:05 
25.3000  25.3000  102  1008  2021-01-13 17:03:03 
25.1000  23.6000  100  1008  2021-01-13 18:03:05 
25.1000  23.1000  100  1009  2021-01-13 19:03:03 
25.1000  22.8000  101  1009  2021-01-13 20:03:06 
25.0000  22.6000  102  1010  2021-01-13 21:03:04 
25.1000  22.6000  101  1009  2021-01-13 22:03:02 
25.0000  22.1000  101  1008  2021-01-13 23:03:05 
24.9000  22.1000  101  1008  2021-01-14 00:03:03 
24.6000  21.6000  100  1008  2021-01-14 01:03:05 
24.2000  21.1000  100  1007  2021-01-14 02:03:03 
24.1000  21.0000  100  1006  2021-01-14 03:03:06 
24.1000  20.4000  77  1005  2021-01-14 04:03:05 
24.0000  20.2000  77  1006  2021-01-14 05:03:03 
23.6000  20.1000  77  1006  2021-01-14 06:03:05 
23.6000  20.1000  101  1006  2021-01-14 07:03:03 
23.6000  21.0000  101  1008  2021-01-14 08:03:07 
24.4000  22.2000  102  1006  2021-01-14 09:03:06 
25.0000  24.1000  103  1006  2021-01-14 10:03:04 
25.5000  25.6000  105  1005  2021-01-14 11:03:06 
26.1000  28.1000  105  1005  2021-01-14 12:03:04 
26.5000  28.8000  104  1004  2021-01-14 13:03:02 
26.6000  29.6000  104  1004  2021-01-14 14:03:04 
27.1000  29.6000  104  1005  2021-01-14 15:03:03 
27.5000  31.1000  104  1003  2021-01-14 16:03:05 
27.8000  29.6000  102  1003  2021-01-14 17:03:03 
28.1000  28.1000  101  1003  2021-01-14 18:03:06 
28.5000  26.8000  77  1003  2021-01-14 19:03:05 
27.1000  25.5000  74  1004  2021-01-14 20:03:03 
25.5000  23.5000  71  1005  2021-01-14 21:03:05 
26.1000  22.6000  72  1006  2021-01-14 22:03:04 
25.6000  21.6000  72  1006  2021-01-14 23:03:06 
25.3000  21.1000  73  1007  2021-01-15 00:03:04 
25.1000  21.1000  73  1007  2021-01-15 01:03:06 
25.0000  21.1000  74  1006  2021-01-15 02:03:05 
24.9000  21.1000  74  1006  2021-01-15 03:03:03 
24.8000  21.5000  75  1006  2021-01-15 04:03:05 
24.9000  21.2000  75  1006  2021-01-15 05:03:03 
24.8000  21.3000  76  1006  2021-01-15 06:03:05 
24.2000  21.6000  100  1006  2021-01-15 07:03:04 
23.8000  22.1000  103  1006  2021-01-15 08:03:07 
24.9000  21.6000  103  1007  2021-01-15 09:03:04 
25.1000  21.6000  104  1007  2021-01-15 10:03:06 
25.2000  21.2000  103  1007  2021-01-15 11:03:06 
25.1000  21.6000  102  1008  2021-01-15 12:03:05 
25.1000  23.1000  100  1008  2021-01-15 13:03:03 
25.6000  24.1000  101  1008  2021-01-15 14:03:06 
25.7000  25.6000  101  1009  2021-01-15 15:03:04 
26.0000  25.9000  100  1009  2021-01-15 16:03:06 
25.9000  24.8000  77  1008  2021-01-15 17:03:05 
25.6000  23.6000  75  1008  2021-01-15 18:03:03 
25.1000  22.6000  74  1008  2021-01-15 19:03:05 
24.9000  22.1000  75  1008  2021-01-15 20:03:04 
24.7000  19.9000  100  1009  2021-01-15 21:03:07 
24.5000  19.6000  77  1009  2021-01-15 22:03:05 
24.6000  19.6000  76  1010  2021-01-15 23:03:03 
24.2000  19.6000  76  1010  2021-01-16 00:03:05 
24.1000  19.4000  76  1010  2021-01-16 01:03:03 
24.1000  19.4000  76  1010  2021-01-16 02:03:05 
23.7000  19.6000  76  1010  2021-01-16 03:03:04 
23.8000  19.5000  76  1009  2021-01-16 04:03:06 
23.6000  19.6000  76  1009  2021-01-16 05:03:04 
23.6000  19.3000  76  1010  2021-01-16 06:03:06 
23.6000  19.1000  76  1010  2021-01-16 07:03:04 
23.2000  20.6000  77  1012  2021-01-16 08:03:06 
23.1000  21.6000  100  1012  2021-01-16 09:03:04 
23.9000  22.7000  76  1011  2021-01-16 10:03:06 
24.3000  23.3000  76  1012  2021-01-16 11:03:06 
24.4000  23.9000  74  1012  2021-01-16 12:03:04 
24.6000  24.6000  74  1012  2021-01-16 13:03:06 
25.0000  25.0000  75  1012  2021-01-16 14:03:04 
25.1000  25.8000  76  1011  2021-01-16 15:03:06 
25.7000  24.3000  74  1010  2021-01-16 18:03:05 
25.6000  23.2000  73  1011  2021-01-16 19:03:03 
24.6000  22.1000  71  1012  2021-01-16 20:03:06 
24.3000  21.6000  73  1012  2021-01-16 21:03:04 
24.2000  20.6000  72  1013  2021-01-16 23:03:04 
23.9000  19.2000  72  1012  2021-01-17 01:03:04 
23.6000  18.9000  72  1012  2021-01-17 03:03:06 
23.1000  18.4000  72  1012  2021-01-17 05:03:07 
23.1000  19.6000  74  1013  2021-01-17 08:03:06 
23.6000  21.1000  75  1013  2021-01-17 09:03:04 
24.1000  22.6000  74  1012  2021-01-17 10:03:06 
24.2000  23.7000  75  1012  2021-01-17 11:03:04 
24.6000  24.6000  100  1013  2021-01-17 12:03:06 
25.0000  25.1000  102  1013  2021-01-17 13:03:05 
25.1000  25.1000  102  1012  2021-01-17 14:03:07 
25.3000  25.4000  101  1011  2021-01-17 15:03:05 
25.9000  25.6000  100  1011  2021-01-17 16:03:03 
25.1000  24.6000  75  1011  2021-01-17 17:03:06 
25.4000  23.2000  74  1011  2021-01-17 18:03:04 
25.6000  22.5000  74  1010  2021-01-17 19:03:06 
25.1000  21.1000  73  1012  2021-01-17 20:03:04 
24.6000  20.6000  74  1012  2021-01-17 21:03:06 
24.3000  20.2000  73  1012  2021-01-17 22:03:05 
24.1000  19.6000  73  1012  2021-01-17 23:03:07 
24.1000  19.6000  73  1012  2021-01-18 00:03:04 
23.8000  19.6000  73  1011  2021-01-18 01:03:07 
23.5000  19.1000  73  1011  2021-01-18 02:03:05 
23.5000  19.1000  74  1011  2021-01-18 03:03:08 
23.1000  19.0000  74  1010  2021-01-18 04:03:07 
22.6000  18.2000  74  1010  2021-01-18 05:03:04 
22.6000  18.0000  73  1009  2021-01-18 06:03:06 
22.6000  18.5000  74  1009  2021-01-18 07:03:04 
22.5000  19.6000  76  1010  2021-01-18 08:03:06 
23.3000  21.1000  76  1010  2021-01-18 09:03:04 
23.7000  23.1000  77  1009  2021-01-18 10:03:07 
24.2000  24.3000  77  1010  2021-01-18 11:03:05 
24.7000  25.3000  100  1009  2021-01-18 12:03:03 
25.3000  26.1000  100  1009  2021-01-18 13:03:06 
25.3000  26.3000  100  1010  2021-01-18 14:03:04 
25.6000  26.1000  100  1009  2021-01-18 15:03:06 
25.8000  25.6000  100  1009  2021-01-18 16:03:05 
25.9000  24.9000  77  1009  2021-01-18 17:03:07 
26.1000  23.6000  76  1009  2021-01-18 18:03:05 
25.6000  22.7000  75  1009  2021-01-18 19:03:07 
25.9000  21.9000  75  1009  2021-01-18 20:03:06 
25.6000  21.6000  75  1009  2021-01-18 21:03:04 
25.2000  21.6000  74  1010  2021-01-18 22:03:06 
25.0000  21.1000  74  1009  2021-01-18 23:03:04 
24.6000  20.8000  74  1009  2021-01-19 00:03:06 
24.6000  20.8000  74  1010  2021-01-19 01:03:04 
24.6000  21.1000  75  1010  2021-01-19 02:03:07 
24.1000  20.8000  75  1010  2021-01-19 03:03:05 
24.1000  20.3000  75  1010  2021-01-19 04:03:07 
24.1000  20.3000  75  1010  2021-01-19 05:03:05 
23.9000  19.6000  76  1011  2021-01-19 06:03:07 
23.6000  20.1000  76  1012  2021-01-19 07:03:05 
24.1000  21.1000  77  1012  2021-01-19 08:03:04 
24.6000  22.1000  77  1013  2021-01-19 09:03:06 
24.7000  23.6000  100  1013  2021-01-19 10:03:05 
25.1000  25.9000  75  1015  2021-01-19 13:03:07 
25.5000  26.3000  74  1015  2021-01-19 14:03:06 
25.6000  25.6000  74  1015  2021-01-19 15:03:04 
25.8000  26.1000  73  1015  2021-01-19 16:03:06 
26.0000  24.8000  72  1015  2021-01-19 17:03:04 
26.1000  23.7000  72  1015  2021-01-19 18:03:06 
26.0000  22.1000  73  1016  2021-01-19 19:03:05 
25.0000  20.8000  72  1017  2021-01-19 20:03:07 
24.6000  20.1000  72  1018  2021-01-19 21:03:05 
24.6000  19.8000  72  1018  2021-01-19 22:03:07 
24.1000  19.4000  72  1018  2021-01-19 23:03:05 
24.1000  19.4000  71  1017  2021-01-20 00:03:07 
23.6000  18.6000  71  1017  2021-01-20 01:03:05 
23.6000  18.6000  72  1017  2021-01-20 02:03:08 
23.1000  18.3000  72  1016  2021-01-20 03:03:06 
22.9000  18.1000  72  1016  2021-01-20 04:03:09 
22.9000  18.1000  71  1015  2021-01-20 05:03:07 
22.6000  17.6000  71  1014  2021-01-20 06:03:05 
22.6000  18.3000  71  1015  2021-01-20 07:03:07 
22.7000  19.1000  71  1016  2021-01-20 08:03:05 
23.1000  20.6000  71  1015  2021-01-20 09:03:07 
23.6000  21.6000  71  1014  2021-01-20 10:03:05 
24.1000  23.2000  72  1016  2021-01-20 11:03:07 
24.4000  23.2000  72  1016  2021-01-20 12:03:05 
24.1000  23.4000  72  1016  2021-01-20 13:03:07 
24.6000  24.1000  73  1014  2021-01-20 14:03:05 
24.6000  24.6000  73  1015  2021-01-20 15:03:07 
24.6000  24.9000  74  1014  2021-01-20 16:03:06 
25.0000  24.0000  73  1013  2021-01-20 17:03:08 
25.1000  22.4000  72  1014  2021-01-20 18:03:06 
25.1000  21.6000  72  1013  2021-01-20 19:03:04 
25.1000  20.1000  72  1014  2021-01-20 20:03:06 
24.0000  19.7000  72  1013  2021-01-20 21:03:04 
24.0000  19.5000  71  1014  2021-01-20 22:03:06 
23.6000  19.1000  71  1015  2021-01-20 23:03:04 
23.2000  18.7000  71  1014  2021-01-21 00:03:07 
23.0000  18.1000  71  1014  2021-01-21 01:03:05 
22.6000  18.1000  71  1013  2021-01-21 02:03:07 
22.6000  17.8000  72  1012  2021-01-21 03:03:05 
22.1000  17.6000  72  1012  2021-01-21 04:03:07 
22.1000  18.0000  72  1011  2021-01-21 05:03:06 
22.1000  17.7000  72  1011  2021-01-21 06:03:08 
21.8000  18.1000  72  1012  2021-01-21 07:03:05 
22.1000  19.1000  72  1011  2021-01-21 08:03:08 
22.7000  20.6000  74  1011  2021-01-21 09:03:05 
23.1000  22.1000  75  1011  2021-01-21 10:03:07 
23.1000  23.1000  76  1011  2021-01-21 11:03:05 
23.7000  23.7000  100  1012  2021-01-21 12:03:07 
23.8000  25.6000  101  1012  2021-01-21 13:03:05 
24.1000  25.1000  103  1012  2021-01-21 14:03:08 
24.6000  25.4000  104  1013  2021-01-21 15:03:06 
24.1000  24.0000  104  1013  2021-01-21 16:03:08 
24.1000  23.3000  103  1014  2021-01-21 17:03:06 
24.3000  22.6000  103  1016  2021-01-21 18:03:08 
24.5000  21.6000  102  1015  2021-01-21 19:03:06 
24.6000  21.6000  102  1017  2021-01-21 20:03:04 
24.6000  20.1000  101  1016  2021-01-21 21:03:07 
24.1000  19.5000  101  1015  2021-01-21 22:03:05 
24.0000  19.2000  101  1012  2021-01-21 23:03:07 
23.7000  20.0000  101  1012  2021-01-22 00:03:05 
23.6000  19.6000  100  1012  2021-01-22 01:03:08 
23.4000  19.4000  100  1010  2021-01-22 02:03:06 
23.1000  19.0000  77  1011  2021-01-22 03:03:08 
22.6000  18.6000  77  1010  2021-01-22 04:03:06 
22.6000  18.6000  77  1011  2021-01-22 05:03:08 
22.6000  18.6000  77  1011  2021-01-22 06:03:06 
22.1000  19.0000  77  1011  2021-01-22 07:03:08 
23.1000  20.6000  101  1011  2021-01-22 08:03:06 
23.2000  22.6000  105  1012  2021-01-22 09:03:08 
23.6000  23.6000  106  1011  2021-01-22 10:03:06 
24.1000  24.8000  107  1011  2021-01-22 11:03:08 
24.3000  25.1000  111  1011  2021-01-22 12:03:06 
25.1000  26.1000  113  1011  2021-01-22 13:03:04 
25.6000  26.8000  114  1010  2021-01-22 14:03:07 
25.6000  27.0000  113  1010  2021-01-22 15:03:05 
26.1000  26.8000  113  1010  2021-01-22 16:03:07 
26.1000  26.1000  112  1010  2021-01-22 17:03:05 
26.4000  24.8000  111  1010  2021-01-22 18:03:08 
26.3000  23.6000  110  1010  2021-01-22 19:03:06 
25.1000  22.9000  111  1010  2021-01-22 20:03:09 
25.1000  22.6000  110  1010  2021-01-22 21:03:06 
24.9000  22.1000  110  1011  2021-01-22 22:03:05 
25.1000  22.1000  107  1010  2021-01-22 23:03:07 
25.1000  22.1000  106  1010  2021-01-23 00:03:05 
25.0000  22.1000  106  1009  2021-01-23 01:03:07 
24.9000  21.7000  106  1008  2021-01-23 02:03:05 
24.6000  21.1000  106  1007  2021-01-23 03:03:07 
24.6000  21.1000  106  1006  2021-01-23 04:03:06 
24.2000  20.6000  106  1007  2021-01-23 05:03:07 
24.1000  20.5000  106  1008  2021-01-23 06:03:05 
23.4000  20.6000  106  1008  2021-01-23 07:03:07 
24.1000  22.1000  106  1008  2021-01-23 08:03:06 
24.6000  23.1000  105  1010  2021-01-23 09:03:08 
24.6000  24.4000  104  1010  2021-01-23 10:03:06 
25.7000  24.6000  102  1011  2021-01-23 11:03:08 
25.5000  24.6000  101  1010  2021-01-23 12:03:06 
25.6000  25.2000  100  1010  2021-01-23 13:03:08 
26.6000  25.5000  74  1009  2021-01-23 14:03:07 
26.9000  26.5000  75  1011  2021-01-23 15:03:05 
26.6000  25.6000  77  1011  2021-01-23 16:03:07 
26.3000  22.6000  77  1011  2021-01-23 17:03:05 
26.1000  20.6000  100  1011  2021-01-23 18:03:08 
25.6000  19.9000  77  1011  2021-01-23 19:03:06 
24.7000  19.0000  100  1014  2021-01-23 20:03:08 
25.7000  18.6000  77  1014  2021-01-23 21:03:06 
24.6000  18.3000  76  1016  2021-01-23 22:03:09 
24.6000  18.3000  75  1015  2021-01-23 23:03:07 
24.1000  18.1000  73  1016  2021-01-24 00:03:05 
23.6000  18.0000  71  1016  2021-01-24 01:03:07 
23.6000  18.1000  70  1016  2021-01-24 02:03:05 
23.1000  17.6000  67  1016  2021-01-24 03:03:07 
22.6000  17.1000  67  1016  2021-01-24 04:03:05 
22.6000  16.8000  67  1017  2021-01-24 05:03:07 
22.4000  17.0000  67  1017  2021-01-24 06:03:05 
22.1000  17.6000  66  1017  2021-01-24 07:03:07 
22.6000  18.5000  67  1018  2021-01-24 08:03:05 
22.9000  19.8000  67  1018  2021-01-24 09:03:07 
22.9000  20.6000  65  1018  2021-01-24 10:03:05 
23.6000  21.6000  65  1019  2021-01-24 11:03:07 
23.6000  22.1000  65  1018  2021-01-24 12:03:05 
23.8000  23.1000  65  1017  2021-01-24 13:03:07 
24.1000  23.1000  67  1016  2021-01-24 14:03:06 
24.6000  23.1000  70  1016  2021-01-24 15:03:08 
25.0000  22.6000  70  1016  2021-01-24 16:03:06 
24.6000  21.8000  67  1015  2021-01-24 17:03:08 
24.5000  20.1000  65  1015  2021-01-24 18:03:06 
24.1000  19.1000  65  1016  2021-01-24 19:03:08 
23.7000  18.2000  65  1016  2021-01-24 20:03:06 
23.6000  18.1000  65  1016  2021-01-24 21:03:09 
23.2000  17.6000  65  1016  2021-01-24 22:03:07 
23.1000  18.4000  65  1016  2021-01-24 23:03:09 
23.0000  17.8000  65  1015  2021-01-25 00:03:07 
22.6000  16.6000  66  1014  2021-01-25 01:03:09 
22.2000  17.1000  66  1014  2021-01-25 02:03:07 
22.1000  16.6000  66  1013  2021-01-25 03:03:09 
21.9000  15.8000  66  1013  2021-01-25 04:03:07 
21.6000  15.8000  67  1013  2021-01-25 05:03:09 
21.6000  14.4000  67  1012  2021-01-25 06:03:07 
21.1000  16.1000  67  1012  2021-01-25 07:03:09 
21.6000  19.1000  71  1013  2021-01-25 08:03:07 
22.6000  22.9000  72  1013  2021-01-25 09:03:09 
22.6000  26.6000  72  1012  2021-01-25 10:03:07 
23.3000  28.1000  73  1013  2021-01-25 11:03:09 
23.7000  27.2000  71  1012  2021-01-25 12:03:07 
24.1000  26.2000  73  1012  2021-01-25 13:03:09 
24.6000  26.6000  75  1011  2021-01-25 14:03:07 
25.1000  24.9000  75  1010  2021-01-25 15:03:05 
25.3000  25.6000  75  1010  2021-01-25 16:03:07 
25.2000  24.6000  73  1009  2021-01-25 17:03:06 
25.5000  24.1000  73  1009  2021-01-25 18:03:08 
25.4000  23.0000  72  1010  2021-01-25 19:03:06 
25.5000  21.5000  72  1010  2021-01-25 20:03:08 
25.1000  21.1000  74  1011  2021-01-25 21:03:06 
24.7000  20.9000  74  1012  2021-01-25 22:03:08 
24.4000  20.6000  75  1012  2021-01-25 23:03:06 
24.2000  20.6000  75  1012  2021-01-26 00:03:09 
24.1000  20.6000  75  1012  2021-01-26 01:03:07 
24.0000  20.3000  75  1012  2021-01-26 02:03:09 
23.6000  20.1000  75  1011  2021-01-26 03:03:07 
23.6000  19.6000  75  1011  2021-01-26 04:03:17 
23.3000  19.2000  75  1012  2021-01-26 05:03:07 
23.2000  19.6000  75  1013  2021-01-26 06:03:06 
23.4000  20.1000  76  1013  2021-01-26 07:03:08 
23.6000  20.6000  100  1014  2021-01-26 08:03:06 
23.6000  22.1000  101  1014  2021-01-26 09:03:09 
24.1000  23.6000  102  1014  2021-01-26 10:03:07 
24.4000  23.6000  102  1013  2021-01-26 11:03:09 
24.6000  24.3000  101  1014  2021-01-26 12:03:08 
24.7000  24.7000  100  1014  2021-01-26 13:03:06 
25.0000  24.1000  77  1013  2021-01-26 14:03:08 
25.1000  24.6000  77  1013  2021-01-26 15:03:07 
25.6000  24.3000  77  1014  2021-01-26 16:03:06 
25.6000  24.1000  76  1012  2021-01-26 17:03:08 
25.5000  22.8000  75  1014  2021-01-26 18:03:06 
25.4000  21.6000  75  1014  2021-01-26 19:03:09 
25.1000  19.6000  75  1014  2021-01-26 20:03:07 
24.7000  19.4000  76  1014  2021-01-26 21:03:09 
24.1000  19.9000  76  1015  2021-01-26 22:03:07 
24.2000  19.6000  76  1015  2021-01-26 23:03:09 
24.1000  19.7000  76  1014  2021-01-27 00:03:07 
23.9000  19.1000  76  1013  2021-01-27 01:03:09 
23.7000  19.1000  76  1014  2021-01-27 02:03:08 
23.6000  18.8000  76  1013  2021-01-27 03:03:06 
23.2000  18.4000  76  1014  2021-01-27 04:03:08 
23.1000  18.2000  76  1014  2021-01-27 05:03:06 
23.0000  18.6000  76  1014  2021-01-27 06:03:08 
23.1000  18.8000  76  1015  2021-01-27 07:03:06 
22.6000  20.0000  101  1015  2021-01-27 08:03:08 
23.1000  20.8000  100  1015  2021-01-27 09:03:06 
23.6000  22.6000  100  1016  2021-01-27 10:03:08 
23.9000  22.7000  77  1016  2021-01-27 11:03:06 
24.1000  23.8000  77  1016  2021-01-27 12:03:08 
24.1000  23.3000  74  1017  2021-01-27 13:03:07 
24.6000  23.0000  74  1017  2021-01-27 14:03:08 
24.7000  23.6000  73  1017  2021-01-27 15:03:06 
25.1000  23.1000  73  1016  2021-01-27 16:03:09 
25.1000  21.6000  72  1016  2021-01-27 17:03:07 
24.6000  21.6000  67  1017  2021-01-27 18:03:09 
24.1000  20.6000  67  1017  2021-01-27 19:03:07 
24.6000  19.6000  70  1017  2021-01-27 20:03:09 
24.2000  19.1000  67  1018  2021-01-27 21:03:07 
24.1000  18.6000  66  1018  2021-01-27 22:03:10 
23.6000  18.5000  66  1017  2021-01-27 23:03:08 
23.2000  18.1000  66  1018  2021-01-28 00:03:10 
23.1000  18.0000  66  1019  2021-01-28 01:03:08 
23.0000  17.6000  67  1018  2021-01-28 02:03:10 
22.6000  17.7000  67  1017  2021-01-28 03:03:08 
22.6000  17.7000  70  1016  2021-01-28 04:03:10 
22.3000  17.6000  70  1016  2021-01-28 05:03:08 
22.1000  17.1000  70  1016  2021-01-28 06:03:10 
22.1000  17.9000  70  1017  2021-01-28 07:03:08 
22.6000  19.2000  70  1018  2021-01-28 08:03:07 
22.2000  20.6000  71  1017  2021-01-28 09:03:09 
23.1000  22.2000  72  1017  2021-01-28 10:03:07 
23.4000  24.6000  72  1019  2021-01-28 11:03:10 
23.7000  24.1000  71  1017  2021-01-28 12:03:08 
24.1000  24.8000  71  1017  2021-01-28 13:03:06 
24.4000  24.8000  71  1017  2021-01-28 14:03:09 
24.6000  25.1000  70  1016  2021-01-28 15:03:07 
25.1000  25.1000  67  1016  2021-01-28 16:03:09 
25.1000  25.1000  65  1017  2021-01-28 17:03:08 
25.1000  23.9000  65  1017  2021-01-28 18:03:10 
24.6000  22.1000  64  1017  2021-01-28 19:03:08 
24.7000  20.9000  65  1017  2021-01-28 20:03:10 
24.6000  20.0000  64  1017  2021-01-28 21:03:08 
24.1000  20.1000  64  1017  2021-01-28 22:03:06 
23.6000  19.1000  65  1018  2021-01-28 23:03:08 
23.2000  18.6000  65  1017  2021-01-29 00:03:06 
23.1000  18.1000  65  1018  2021-01-29 01:03:08 
22.9000  17.1000  65  1017  2021-01-29 02:03:10 
22.6000  16.6000  65  1017  2021-01-29 03:03:08 
22.1000  16.0000  65  1016  2021-01-29 04:03:10 
21.9000  15.6000  65  1016  2021-01-29 05:03:08 
21.6000  15.1000  65  1016  2021-01-29 06:03:10 
21.7000  16.6000  65  1017  2021-01-29 07:03:08 
21.6000  18.9000  70  1018  2021-01-29 08:03:10 
22.2000  20.7000  67  1017  2021-01-29 09:03:08 
23.1000  23.1000  70  1018  2021-01-29 10:03:10 
23.1000  25.6000  70  1016  2021-01-29 11:03:08 
23.5000  25.6000  70  1017  2021-01-29 12:03:10 
24.0000  25.6000  70  1016  2021-01-29 13:03:08 
24.6000  26.6000  71  1016  2021-01-29 14:03:10 
25.1000  26.6000  72  1016  2021-01-29 15:03:08 
25.4000  26.8000  72  1015  2021-01-29 16:03:06 
25.8000  26.6000  72  1014  2021-01-29 17:03:08 
26.1000  25.6000  71  1014  2021-01-29 18:03:06 
25.7000  23.7000  72  1014  2021-01-29 19:03:09 
26.0000  22.6000  73  1015  2021-01-29 20:03:07 
26.4000  22.3000  73  1015  2021-01-29 21:03:09 
26.6000  21.9000  73  1016  2021-01-29 22:03:07 
26.5000  21.6000  74  1016  2021-01-29 23:03:09 
25.1000  21.6000  73  1016  2021-01-30 00:03:07 
25.1000  21.5000  73  1016  2021-01-30 01:03:10 
24.6000  21.6000  73  1015  2021-01-30 02:03:08 
24.6000  21.2000  73  1015  2021-01-30 03:03:10 
24.6000  21.6000  73  1014  2021-01-30 04:03:08 
24.5000  21.1000  73  1014  2021-01-30 05:03:10 
24.6000  21.1000  73  1015  2021-01-30 06:03:08 
24.4000  21.3000  72  1015  2021-01-30 07:03:10 
24.6000  22.1000  72  1015  2021-01-30 08:03:08 
24.7000  23.2000  73  1015  2021-01-30 09:03:10 
25.1000  24.2000  73  1014  2021-01-30 10:03:09 
25.2000  25.6000  73  1015  2021-01-30 11:03:07 
25.6000  26.1000  74  1015  2021-01-30 12:03:09 
25.6000  25.6000  73  1014  2021-01-30 13:03:07 
26.5000  27.6000  73  1013  2021-01-30 14:03:09 
26.6000  28.1000  73  1013  2021-01-30 15:03:07 
26.9000  28.1000  72  1012  2021-01-30 16:03:09 
27.1000  27.6000  72  1012  2021-01-30 17:03:08 
26.6000  25.6000  72  1012  2021-01-30 18:03:10 
25.9000  24.1000  71  1012  2021-01-30 19:03:08 
26.1000  22.8000  72  1013  2021-01-30 20:03:10 
26.1000  22.9000  72  1013  2021-01-30 21:03:08 
26.1000  22.4000  73  1013  2021-01-30 22:03:07 
25.6000  22.6000  73  1013  2021-01-30 23:03:09 
25.3000  22.6000  73  1013  2021-01-31 00:03:07 
25.1000  22.6000  73  1012  2021-01-31 01:03:09 
25.1000  22.6000  73  1011  2021-01-31 02:03:07 
24.9000  22.1000  73  1010  2021-01-31 03:03:09 
24.7000  22.1000  73  1010  2021-01-31 04:03:08 
24.6000  21.7000  73  1010  2021-01-31 05:03:10 
24.6000  21.6000  73  1010  2021-01-31 06:03:08 
24.6000  21.6000  74  1010  2021-01-31 07:03:10 
24.6000  22.6000  75  1010  2021-01-31 08:03:08 
25.0000  23.6000  76  1010  2021-01-31 09:03:10 
24.6000  23.3000  100  1010  2021-01-31 10:03:09 
24.7000  23.1000  101  1010  2021-01-31 11:03:07 
25.1000  23.7000  100  1009  2021-01-31 12:03:09 
25.6000  24.7000  101  1009  2021-01-31 13:03:07 
25.6000  25.6000  102  1008  2021-01-31 14:03:10 
25.9000  26.1000  102  1008  2021-01-31 14:07:57 
26.2000  26.6000  102  1009  2021-01-31 15:03:08 
26.6000  26.6000  102  1009  2021-01-31 16:03:10 
26.2000  25.8000  101  1009  2021-01-31 17:03:09 
25.9000  24.6000  102  1009  2021-01-31 18:03:07 
25.6000  23.1000  103  1009  2021-01-31 19:03:10 
25.1000  21.6000  102  1011  2021-01-31 20:03:08 
24.6000  21.5000  102  1011  2021-01-31 21:03:07 
24.7000  20.1000  100  1012  2021-01-31 22:03:09 
24.6000  19.6000  77  1012  2021-01-31 23:03:08 
24.6000  19.1000  75  1015  2021-02-01 00:03:10 
24.0000  18.7000  74  1014  2021-02-01 01:03:08 
23.6000  18.1000  73  1015  2021-02-01 02:03:11 
23.3000  18.1000  72  1015  2021-02-01 03:03:09 
23.1000  17.6000  70  1014  2021-02-01 04:03:07 
22.6000  17.9000  67  1014  2021-02-01 05:03:09 
22.4000  17.6000  66  1015  2021-02-01 06:03:07 
22.5000  17.6000  66  1016  2021-02-01 07:03:10 
22.1000  18.1000  64  1016  2021-02-01 08:03:08 
22.1000  19.1000  63  1017  2021-02-01 09:03:10 
22.8000  20.6000  64  1018  2021-02-01 10:03:08 
22.8000  20.6000  63  1018  2021-02-01 11:03:10 
23.6000  22.6000  64  1018  2021-02-01 12:03:08 
23.8000  22.6000  67  1017  2021-02-01 13:03:11 
24.1000  22.7000  70  1017  2021-02-01 14:03:09 
24.1000  22.7000  67  1017  2021-02-01 15:03:11 
24.6000  21.6000  67  1016  2021-02-01 16:03:09 
24.6000  22.1000  67  1016  2021-02-01 17:03:08 
24.5000  20.6000  66  1015  2021-02-01 18:03:10 
24.6000  20.1000  66  1015  2021-02-01 19:03:08 
24.6000  19.3000  66  1016  2021-02-01 20:03:11 
24.2000  19.1000  67  1016  2021-02-01 21:03:09 
24.4000  19.1000  66  1017  2021-02-01 22:03:11 
23.6000  18.9000  66  1016  2021-02-01 23:03:09 
23.4000  18.6000  67  1016  2021-02-02 00:03:08 
23.0000  18.6000  66  1016  2021-02-02 01:03:10 
22.6000  18.2000  65  1016  2021-02-02 02:03:08 
22.3000  18.1000  65  1015  2021-02-02 03:03:10 
22.6000  18.2000  65  1014  2021-02-02 04:03:09 
22.1000  18.0000  66  1014  2021-02-02 05:03:10 
22.1000  17.1000  66  1014  2021-02-02 06:03:08 
22.1000  17.1000  70  1014  2021-02-02 07:03:11 
22.6000  19.5000  70  1014  2021-02-02 08:03:09 
23.1000  22.8000  70  1014  2021-02-02 09:03:11 
23.2000  25.6000  70  1014  2021-02-02 10:03:09 
23.7000  27.9000  72  1014  2021-02-02 11:03:11 
24.6000  29.3000  73  1013  2021-02-02 12:03:09 
25.3000  30.2000  71  1013  2021-02-02 13:03:08 
25.2000  30.2000  72  1013  2021-02-02 14:03:10 
25.9000  30.2000  71  1012  2021-02-02 15:03:08 
26.4000  30.8000  72  1012  2021-02-02 16:03:11 
27.0000  30.1000  72  1012  2021-02-02 17:03:09 
27.1000  28.3000  71  1012  2021-02-02 18:03:07 
26.6000  25.1000  73  1012  2021-02-02 19:03:10 
26.1000  22.6000  75  1012  2021-02-02 20:03:08 
25.7000  21.8000  76  1014  2021-02-02 21:03:11 
26.2000  21.1000  75  1014  2021-02-02 22:03:10 
26.0000  20.6000  74  1014  2021-02-02 23:03:09 
25.3000  20.4000  73  1013  2021-02-03 00:03:11 
25.1000  20.3000  73  1014  2021-02-03 01:03:10 
24.9000  20.1000  73  1013  2021-02-03 02:03:08 
24.5000  19.8000  74  1012  2021-02-03 03:03:10 
24.5000  19.6000  74  1012  2021-02-03 04:03:10 
24.1000  19.6000  74  1012  2021-02-03 05:03:09 
24.1000  19.6000  74  1012  2021-02-03 06:03:11 
23.9000  19.6000  74  1013  2021-02-03 07:03:09 
23.9000  20.6000  76  1013  2021-02-03 08:03:08 
24.1000  21.6000  76  1014  2021-02-03 09:03:10 
24.6000  23.1000  76  1014  2021-02-03 10:03:08 
25.0000  24.6000  77  1013  2021-02-03 11:03:11 
25.1000  24.6000  77  1014  2021-02-03 12:03:09 
25.6000  25.2000  77  1014  2021-02-03 13:03:11 
26.0000  25.6000  76  1014  2021-02-03 14:03:10 
26.1000  26.0000  74  1013  2021-02-03 15:03:08 
26.1000  25.1000  73  1013  2021-02-03 16:03:11 
26.1000  24.3000  74  1013  2021-02-03 17:03:09 
26.1000  23.9000  74  1013  2021-02-03 18:03:12 
25.9000  23.1000  75  1014  2021-02-03 19:03:10 
25.3000  21.9000  77  1014  2021-02-03 20:03:08 
25.0000  21.6000  77  1014  2021-02-03 21:03:11 
25.1000  21.1000  77  1015  2021-02-03 22:03:09 
25.1000  21.1000  76  1015  2021-02-03 23:03:12 
24.8000  20.6000  76  1014  2021-02-04 00:03:10 
24.7000  20.6000  76  1014  2021-02-04 01:03:08 
24.6000  20.5000  76  1013  2021-02-04 02:03:10 
24.1000  20.4000  76  1013  2021-02-04 03:03:09 
24.2000  20.6000  76  1013  2021-02-04 04:03:41 
24.1000  20.1000  77  1015  2021-02-04 05:03:09 
24.1000  19.6000  77  1014  2021-02-04 06:03:12 
24.1000  19.6000  100  1014  2021-02-04 07:03:10 
23.6000  20.1000  101  1015  2021-02-04 08:03:08 
24.0000  21.1000  102  1015  2021-02-04 09:03:11 
24.4000  22.1000  102  1015  2021-02-04 10:03:09 
24.7000  23.6000  101  1015  2021-02-04 11:03:12 
25.1000  24.1000  102  1016  2021-02-04 12:03:10 
25.1000  25.0000  101  1016  2021-02-04 13:03:08 
25.6000  24.9000  101  1015  2021-02-04 14:03:11 
26.1000  24.8000  101  1015  2021-02-04 15:03:09 
26.1000  24.6000  102  1016  2021-02-04 16:03:12 
26.1000  23.6000  100  1015  2021-02-04 17:03:10 
25.6000  22.6000  76  1014  2021-02-04 18:03:09 
25.6000  21.9000  76  1015  2021-02-04 19:03:11 
25.4000  21.1000  76  1016  2021-02-04 20:03:09 
25.4000  20.6000  76  1015  2021-02-04 21:03:12 
25.5000  20.6000  76  1016  2021-02-04 22:03:10 
24.6000  20.1000  75  1017  2021-02-04 23:03:09 
24.6000  20.0000  75  1016  2021-02-05 00:03:11 
24.1000  19.6000  75  1016  2021-02-05 01:03:09 
24.1000  19.7000  76  1015  2021-02-05 02:03:12 
24.1000  19.5000  76  1015  2021-02-05 03:03:10 
23.8000  19.3000  77  1014  2021-02-05 04:03:08 
23.6000  19.1000  77  1014  2021-02-05 05:03:11 
23.5000  19.4000  100  1016  2021-02-05 06:03:09 
23.6000  20.1000  100  1016  2021-02-05 07:03:11 
23.6000  20.6000  102  1016  2021-02-05 08:03:09 
24.4000  22.1000  103  1016  2021-02-05 09:03:12 
24.6000  23.5000  103  1017  2021-02-05 10:03:10 
24.6000  24.6000  105  1016  2021-02-05 11:03:08 
25.1000  25.0000  105  1017  2021-02-05 12:03:11 
25.3000  25.6000  105  1016  2021-02-05 13:03:09 
25.6000  25.6000  106  1016  2021-02-05 14:03:11 
25.6000  24.8000  105  1016  2021-02-05 15:03:09 
26.1000  25.4000  105  1016  2021-02-05 16:03:12 
26.2000  23.9000  103  1016  2021-02-05 17:03:10 
26.1000  23.2000  101  1015  2021-02-05 18:03:09 
25.6000  22.1000  100  1017  2021-02-05 19:03:11 
25.3000  21.1000  101  1017  2021-02-05 21:03:09 
25.1000  21.1000  100  1016  2021-02-05 22:03:11 
25.1000  20.7000  100  1016  2021-02-05 23:03:10 
24.6000  20.9000  100  1016  2021-02-06 00:03:12 
24.9000  20.9000  100  1016  2021-02-06 01:03:10 
24.6000  20.6000  100  1015  2021-02-06 02:03:09 
24.6000  20.6000  100  1014  2021-02-06 03:03:11 
24.1000  20.6000  100  1014  2021-02-06 04:03:10 
24.1000  20.2000  100  1014  2021-02-06 05:03:12 
23.8000  20.1000  100  1014  2021-02-06 06:03:10 
24.0000  20.2000  101  1014  2021-02-06 07:03:09 
24.1000  21.1000  103  1014  2021-02-06 08:03:11 
24.6000  23.1000  103  1015  2021-02-06 09:03:09 
24.8000  24.7000  103  1015  2021-02-06 10:03:12 
25.1000  25.6000  103  1015  2021-02-06 11:03:10 
25.6000  26.1000  103  1015  2021-02-06 12:03:08 
25.8000  26.6000  104  1015  2021-02-06 13:03:11 
26.5000  28.0000  106  1014  2021-02-06 14:03:09 
27.6000  27.6000  105  1013  2021-02-06 15:03:11 
27.1000  27.4000  104  1013  2021-02-06 16:03:10 
27.3000  26.5000  103  1013  2021-02-06 17:03:12 
27.5000  25.6000  102  1013  2021-02-06 18:03:11 
26.6000  23.8000  77  1015  2021-02-06 19:03:09 
27.6000  23.1000  76  1014  2021-02-06 20:03:11 
27.1000  22.6000  76  1016  2021-02-06 21:03:09 
27.1000  22.6000  75  1016  2021-02-06 22:03:12 
26.0000  22.6000  75  1015  2021-02-06 23:03:10 
26.0000  22.4000  76  1015  2021-02-07 00:03:12 
25.6000  21.6000  77  1015  2021-02-07 01:03:11 
25.6000  21.5000  77  1015  2021-02-07 02:03:09 
25.1000  21.1000  100  1014  2021-02-07 03:03:11 
25.1000  20.6000  100  1014  2021-02-07 04:03:10 
24.8000  20.6000  100  1015  2021-02-07 05:03:12 
24.6000  20.3000  77  1015  2021-02-07 06:03:10 
24.8000  20.6000  76  1014  2021-02-07 07:03:12 
24.6000  21.0000  76  1015  2021-02-07 08:03:10 
24.2000  21.6000  73  1015  2021-02-07 09:03:13 
24.7000  22.6000  74  1016  2021-02-07 10:03:11 
25.0000  23.1000  72  1015  2021-02-07 11:03:09 
24.7000  23.6000  70  1015  2021-02-07 12:03:11 
25.1000  24.3000  70  1015  2021-02-07 13:03:09 
25.2000  23.9000  66  1015  2021-02-07 14:03:11 
25.6000  23.8000  65  1014  2021-02-07 15:03:10 
25.6000  23.7000  65  1014  2021-02-07 16:03:12 
25.5000  23.6000  65  1014  2021-02-07 17:03:10 
25.0000  23.0000  65  1014  2021-02-07 18:03:12 
24.1000  21.1000  65  1014  2021-02-07 19:03:11 
23.5000  20.6000  65  1015  2021-02-07 20:03:13 
23.2000  20.1000  65  1016  2021-02-07 21:03:11 
23.1000  19.6000  65  1017  2021-02-07 22:03:09 
23.8000  19.6000  66  1017  2021-02-07 23:03:11 
23.6000  19.6000  65  1017  2021-02-08 00:03:09 
23.6000  19.4000  66  1016  2021-02-08 01:03:11 
23.2000  19.1000  66  1016  2021-02-08 02:03:09 
23.1000  18.9000  67  1016  2021-02-08 03:03:12 
23.1000  18.9000  67  1016  2021-02-08 04:03:10 
23.1000  19.1000  70  1016  2021-02-08 05:03:12 
23.1000  19.8000  70  1016  2021-02-08 06:03:10 
23.2000  20.0000  71  1017  2021-02-08 07:03:12 
23.1000  20.4000  73  1017  2021-02-08 08:03:10 
23.1000  21.4000  74  1017  2021-02-08 09:03:12 
24.1000  23.5000  74  1016  2021-02-08 10:03:11 
24.5000  25.4000  77  1016  2021-02-08 11:03:13 
24.8000  26.2000  77  1015  2021-02-08 12:03:11 
25.4000  27.1000  101  1015  2021-02-08 13:03:09 
25.9000  26.3000  101  1015  2021-02-08 14:03:12 
26.0000  28.1000  67  1009  2021-02-17 13:37:46 
26.0000  28.5000  64  1009  2021-02-17 13:40:43 
26.3000  28.1000  70  1009  2021-02-17 14:04:11 
26.1000  27.5000  73  1009  2021-02-17 15:04:12 
26.1000  26.1000  73  1009  2021-02-17 16:04:14 
26.1000  25.8000  75  1009  2021-02-17 17:04:11 
25.7000  24.1000  74  1010  2021-02-17 18:04:12 
26.1000  22.8000  73  1011  2021-02-17 19:04:14 
25.6000  22.0000  73  1011  2021-02-17 20:04:11 
25.2000  20.6000  71  1012  2021-02-17 22:04:14 
25.1000  20.7000  71  1012  2021-02-17 23:04:11 
24.6000  20.1000  70  1013  2021-02-18 00:04:12 
24.6000  19.6000  67  1013  2021-02-18 01:04:14 
24.1000  19.1000  67  1013  2021-02-18 02:04:11 
23.8000  19.1000  66  1012  2021-02-18 03:04:12 
23.6000  17.8000  66  1012  2021-02-18 04:04:14 
23.3000  18.1000  66  1013  2021-02-18 05:04:15 
23.4000  18.6000  67  1013  2021-02-18 06:04:12 
23.4000  18.6000  67  1014  2021-02-18 07:04:13 
22.6000  19.6000  74  1014  2021-02-18 08:04:14 
23.2000  20.1000  74  1015  2021-02-18 09:04:11 
23.6000  21.1000  67  1016  2021-02-18 10:04:13 
24.1000  22.0000  70  1016  2021-02-18 11:04:14 
24.1000  23.6000  70  1015  2021-02-18 12:04:12 
24.6000  24.2000  66  1015  2021-02-18 13:04:14 
25.0000  25.1000  66  1015  2021-02-18 14:04:15 
25.1000  25.1000  66  1015  2021-02-18 15:04:12 
25.1000  25.1000  66  1014  2021-02-18 16:04:13 
25.6000  24.1000  66  1015  2021-02-18 17:04:15 
25.7000  23.2000  65  1015  2021-02-18 18:04:12 
25.2000  21.5000  61  1016  2021-02-18 19:04:13 
24.6000  20.1000  61  1016  2021-02-18 20:04:14 
24.7000  19.6000  62  1016  2021-02-18 21:04:12 
25.1000  19.6000  62  1017  2021-02-18 22:04:14 
24.6000  19.6000  64  1016  2021-02-18 23:04:12 
24.1000  19.1000  64  1017  2021-02-19 00:04:12 
23.9000  19.1000  64  1016  2021-02-19 01:04:14 
23.7000  19.1000  65  1015  2021-02-19 02:04:15 
23.6000  18.6000  66  1014  2021-02-19 03:04:13 
23.3000  18.6000  67  1014  2021-02-19 04:04:13 
23.1000  18.5000  67  1014  2021-02-19 05:04:14 
23.1000  18.1000  67  1014  2021-02-19 06:04:12 
23.1000  18.6000  67  1015  2021-02-19 07:04:13 
22.6000  19.1000  71  1015  2021-02-19 08:04:14 
23.2000  21.9000  74  1015  2021-02-19 10:04:12 
23.7000  22.5000  74  1014  2021-02-19 11:04:14 
24.1000  23.5000  75  1014  2021-02-19 12:04:15 
24.6000  23.6000  75  1013  2021-02-19 13:04:12 
24.9000  24.1000  75  1012  2021-02-19 14:04:15 
25.0000  24.1000  74  1012  2021-02-19 15:04:12 
25.4000  23.5000  74  1013  2021-02-19 16:04:13 
25.0000  22.1000  74  1012  2021-02-19 17:04:14 
24.1000  21.1000  71  1012  2021-02-19 18:04:12 
24.1000  20.7000  71  1013  2021-02-19 19:04:13 
24.1000  20.1000  71  1014  2021-02-19 20:04:14 
24.1000  20.1000  67  1015  2021-02-19 21:04:12 
24.1000  19.3000  70  1014  2021-02-19 22:04:13 
24.0000  19.5000  70  1014  2021-02-19 23:04:14 
23.6000  19.2000  67  1015  2021-02-20 00:04:11 
23.4000  19.1000  66  1015  2021-02-20 01:04:13 
23.5000  18.8000  66  1015  2021-02-20 02:04:14 
23.1000  18.5000  66  1014  2021-02-20 03:04:15 
22.8000  18.1000  66  1014  2021-02-20 04:04:12 
22.6000  17.6000  66  1015  2021-02-20 05:04:13 
22.6000  17.6000  67  1015  2021-02-20 06:04:15 
21.7000  17.1000  66  1014  2021-02-20 07:04:12 
22.4000  18.1000  66  1015  2021-02-20 08:04:13 
23.0000  20.1000  65  1015  2021-02-20 09:04:14 
23.6000  21.6000  66  1015  2021-02-20 10:04:15 
23.4000  22.6000  65  1016  2021-02-20 11:04:12 
23.6000  23.1000  65  1016  2021-02-20 12:04:14 
24.1000  24.1000  65  1015  2021-02-20 13:04:15 
24.1000  24.3000  66  1014  2021-02-20 14:04:12 
24.2000  24.1000  67  1015  2021-02-20 15:04:13 
24.6000  24.8000  67  1013  2021-02-20 16:04:14 
25.1000  24.1000  67  1014  2021-02-20 17:04:12 
25.0000  22.6000  67  1014  2021-02-20 18:04:13 
24.7000  21.8000  66  1014  2021-02-20 19:04:14 
23.5000  23.1000  72  1018  2021-02-21 13:04:15 
23.6000  21.1000  71  1019  2021-02-21 14:04:12 
23.6000  20.9000  71  1018  2021-02-21 15:04:13 
23.9000  20.8000  70  1019  2021-02-21 16:04:14 
23.9000  20.6000  67  1019  2021-02-21 17:04:12 
23.6000  19.6000  66  1018  2021-02-21 18:04:13 
23.6000  18.9000  66  1018  2021-02-21 19:04:14 
23.6000  18.4000  65  1018  2021-02-21 20:04:15 
23.3000  17.7000  65  1019  2021-02-21 21:04:12 
22.6000  17.6000  62  1018  2021-02-21 22:04:14 
22.6000  17.6000  62  1019  2021-02-21 23:04:15 
22.1000  17.6000  61  1019  2021-02-22 00:04:12 
21.9000  17.5000  62  1018  2021-02-22 01:04:13 
21.6000  17.0000  62  1017  2021-02-22 02:04:14 
21.5000  16.6000  63  1016  2021-02-22 03:04:15 
21.1000  16.6000  63  1017  2021-02-22 04:04:12 
21.1000  16.1000  63  1016  2021-02-22 05:04:13 
21.1000  16.1000  64  1017  2021-02-22 06:04:14 
20.7000  15.6000  65  1017  2021-02-22 07:04:15 
21.1000  16.6000  66  1017  2021-02-22 08:04:13 
21.6000  19.1000  66  1016  2021-02-22 09:04:14 
21.6000  20.6000  67  1017  2021-02-22 10:04:15 
22.1000  21.1000  70  1018  2021-02-22 11:04:12 
22.6000  22.6000  71  1017  2021-02-22 12:04:13 
23.1000  22.6000  72  1016  2021-02-22 13:04:14 
23.6000  23.4000  71  1015  2021-02-22 14:04:12 
23.6000  23.1000  70  1016  2021-02-22 15:04:13 
24.1000  22.7000  70  1015  2021-02-22 16:04:14 
24.1000  22.1000  70  1015  2021-02-22 17:04:15 
24.1000  21.6000  67  1015  2021-02-22 18:04:13 
24.3000  20.1000  67  1015  2021-02-22 19:04:14 
24.1000  19.1000  67  1015  2021-02-22 20:04:15 
24.1000  18.8000  67  1016  2021-02-22 21:04:12 
23.6000  18.6000  66  1018  2021-02-22 22:04:13 
23.3000  18.5000  66  1016  2021-02-22 23:04:15 
23.1000  18.3000  66  1016  2021-02-23 00:04:12 
22.6000  18.1000  66  1016  2021-02-23 01:04:13 
22.6000  17.6000  66  1016  2021-02-23 02:04:14 
22.1000  17.3000  66  1015  2021-02-23 03:04:15 
22.0000  16.6000  66  1015  2021-02-23 04:04:14 
21.6000  16.2000  66  1015  2021-02-23 05:04:14 
21.5000  16.1000  66  1015  2021-02-23 06:04:15 
21.5000  16.2000  71  1017  2021-02-23 07:04:12 
21.2000  17.5000  71  1018  2021-02-23 08:04:13 
22.1000  20.2000  71  1018  2021-02-23 09:04:14 
22.6000  22.4000  73  1018  2021-02-23 10:04:16 
22.9000  24.1000  73  1017  2021-02-23 11:04:13 
23.5000  25.1000  74  1017  2021-02-23 12:04:14 
24.3000  26.1000  74  1018  2021-02-23 14:04:13 
24.6000  26.5000  74  1016  2021-02-23 15:04:14 
25.1000  25.6000  75  1016  2021-02-23 16:04:16 
25.1000  24.6000  75  1017  2021-02-23 17:04:13 
25.1000  24.6000  75  1016  2021-02-23 18:04:14 
25.0000  22.6000  76  1016  2021-02-23 19:04:16 
24.6000  21.7000  76  1018  2021-02-23 20:04:13 
24.1000  21.6000  77  1018  2021-02-23 21:04:14 
24.5000  21.1000  77  1018  2021-02-23 22:04:16 
24.6000  20.6000  76  1017  2021-02-23 23:04:13 
24.4000  20.6000  76  1018  2021-02-24 00:04:14 
24.1000  20.6000  76  1018  2021-02-24 01:04:15 
24.1000  20.2000  76  1016  2021-02-24 02:04:12 
24.1000  19.7000  76  1016  2021-02-24 03:04:14 
23.8000  19.6000  76  1017  2021-02-24 04:04:15 
23.6000  19.1000  76  1017  2021-02-24 05:04:12 
23.6000  19.1000  76  1017  2021-02-24 06:04:14 
22.9000  19.6000  101  1017  2021-02-24 07:04:15 
23.6000  20.1000  101  1017  2021-02-24 08:04:13 
24.1000  21.6000  101  1018  2021-02-24 09:04:15 
24.0000  22.1000  101  1017  2021-02-24 10:04:12 
24.0000  23.5000  101  1017  2021-02-24 11:04:14 
24.1000  23.6000  101  1018  2021-02-24 12:04:16 
24.6000  24.4000  100  1016  2021-02-24 13:04:13 
24.6000  24.6000  100  1015  2021-02-24 14:04:15 
25.1000  24.6000  100  1016  2021-02-24 15:04:13 
25.1000  23.6000  76  1015  2021-02-24 16:04:15 
25.2000  23.6000  75  1015  2021-02-24 17:04:12 
25.5000  22.6000  75  1016  2021-02-24 18:04:14 
25.6000  21.6000  76  1016  2021-02-24 19:04:16 
24.9000  21.0000  75  1016  2021-02-24 20:04:13 
25.1000  20.6000  75  1015  2021-02-24 21:04:15 
25.0000  20.6000  75  1017  2021-02-24 22:04:13 
24.6000  20.2000  75  1016  2021-02-24 23:04:14 
24.3000  20.1000  74  1016  2021-02-25 00:04:12 
24.2000  19.9000  74  1017  2021-02-25 01:04:13 
24.1000  19.6000  74  1017  2021-02-25 02:04:15 
23.8000  19.6000  74  1016  2021-02-25 03:04:15 
23.6000  19.4000  74  1017  2021-02-25 04:04:12 
23.6000  19.2000  74  1016  2021-02-25 05:04:16 
23.6000  19.4000  75  1016  2021-02-25 06:04:14 
23.0000  19.5000  74  1016  2021-02-25 07:04:15 
23.6000  20.1000  75  1016  2021-02-25 08:04:16 
23.9000  21.2000  76  1017  2021-02-25 09:04:13 
23.6000  22.6000  76  1016  2021-02-25 10:04:14 
24.0000  23.8000  75  1016  2021-02-25 11:04:15 
24.1000  25.0000  73  1016  2021-02-25 12:04:12 
24.6000  24.9000  72  1016  2021-02-25 13:04:13 
24.1000  24.5000  72  1015  2021-02-25 14:04:14 
24.8000  24.4000  74  1015  2021-02-25 15:04:15 
25.2000  23.6000  76  1016  2021-02-25 16:04:12 
25.1000  22.8000  75  1015  2021-02-25 17:04:14 
25.5000  22.1000  74  1015  2021-02-25 18:04:15 
25.6000  21.1000  73  1016  2021-02-25 19:04:16 
25.1000  20.6000  73  1016  2021-02-25 20:04:13 
25.1000  20.6000  73  1017  2021-02-25 21:04:14 
24.6000  20.1000  74  1017  2021-02-25 22:04:15 
24.6000  20.2000  74  1016  2021-02-25 23:04:16 
24.2000  20.1000  74  1017  2021-02-26 00:04:13 
24.1000  19.7000  74  1018  2021-02-26 01:04:14 
24.1000  19.6000  74  1017  2021-02-26 02:04:16 
24.0000  19.6000  74  1016  2021-02-26 03:04:16 
23.8000  19.6000  74  1017  2021-02-26 04:04:13 
23.6000  19.6000  74  1016  2021-02-26 05:04:14 
23.5000  19.5000  74  1016  2021-02-26 06:04:16 
23.3000  19.6000  74  1015  2021-02-26 07:04:13 
23.6000  20.3000  75  1016  2021-02-26 08:04:14 
23.8000  22.1000  76  1016  2021-02-26 09:04:15 
23.9000  23.6000  76  1016  2021-02-26 10:04:12 
24.1000  24.6000  77  1016  2021-02-26 11:04:13 
24.4000  24.7000  101  1016  2021-02-26 12:04:14 
24.6000  24.6000  102  1014  2021-02-26 13:04:16 
24.8000  25.1000  103  1015  2021-02-26 14:04:13 
25.1000  24.5000  102  1014  2021-02-26 15:04:14 
25.1000  23.6000  102  1014  2021-02-26 16:04:15 
25.3000  22.9000  101  1013  2021-02-26 17:04:12 
25.6000  22.1000  100  1013  2021-02-26 18:04:14 
25.5000  21.1000  77  1014  2021-02-26 19:04:15 
25.3000  20.6000  77  1014  2021-02-26 20:04:16 
25.4000  20.2000  76  1015  2021-02-26 21:04:13 
25.1000  20.4000  76  1014  2021-02-26 22:04:14 
25.0000  20.1000  76  1014  2021-02-26 23:04:15 
24.6000  19.8000  76  1014  2021-02-27 00:04:16 
24.6000  19.6000  75  1015  2021-02-27 01:04:13 
24.1000  18.9000  75  1014  2021-02-27 02:04:15 
24.1000  18.6000  75  1013  2021-02-27 03:04:16 
23.8000  18.6000  74  1012  2021-02-27 04:04:13 
23.6000  18.1000  74  1012  2021-02-27 05:04:14 
23.3000  18.1000  74  1012  2021-02-27 06:04:15 
23.1000  18.8000  74  1013  2021-02-27 07:04:16 
23.5000  20.1000  75  1013  2021-02-27 08:04:13 
23.8000  21.6000  77  1014  2021-02-27 09:04:14 
23.7000  23.6000  77  1013  2021-02-27 10:04:15 
24.1000  24.9000  100  1014  2021-02-27 11:04:16 
24.6000  26.5000  100  1013  2021-02-27 12:04:13 
24.8000  25.6000  100  1014  2021-02-27 13:04:14 
24.9000  24.8000  100  1013  2021-02-27 14:04:15 
24.9000  24.6000  100  1012  2021-02-27 15:04:17 
24.7000  24.1000  100  1012  2021-02-27 16:04:14 
24.9000  22.6000  100  1011  2021-02-27 17:04:15 
25.1000  22.6000  77  1012  2021-02-27 18:04:16 
24.6000  21.6000  76  1012  2021-02-27 19:04:13 
25.1000  20.8000  77  1012  2021-02-27 20:04:14 
25.4000  20.6000  77  1012  2021-02-27 21:04:15 
24.7000  20.6000  77  1014  2021-02-27 22:04:16 
25.0000  20.8000  77  1013  2021-02-27 23:04:13 
24.8000  20.2000  77  1013  2021-02-28 00:04:14 
24.5000  20.6000  76  1013  2021-02-28 01:04:15 
24.4000  21.3000  76  1012  2021-02-28 02:04:17 
24.1000  21.6000  76  1012  2021-02-28 03:04:14 
24.1000  21.6000  76  1011  2021-02-28 04:04:15 
24.1000  22.1000  76  1010  2021-02-28 05:04:16 
24.1000  21.6000  77  1009  2021-02-28 06:04:14 
24.0000  20.7000  76  1010  2021-02-28 07:04:15 
24.1000  22.1000  77  1011  2021-02-28 08:04:16 
24.1000  23.6000  100  1010  2021-02-28 09:04:13 
24.2000  26.2000  77  1011  2021-02-28 10:04:14 
25.1000  28.3000  75  1011  2021-02-28 11:04:15 
25.6000  30.7000  74  1010  2021-02-28 12:04:17 
26.9000  32.2000  73  1010  2021-02-28 13:04:14 
27.3000  30.1000  74  1009  2021-02-28 14:04:15 
27.2000  28.1000  75  1009  2021-02-28 15:04:16 
27.6000  28.1000  75  1008  2021-02-28 16:04:13 
27.6000  27.0000  76  1007  2021-02-28 17:04:15 
27.1000  25.6000  75  1009  2021-02-28 18:04:16 
26.8000  25.3000  75  1008  2021-02-28 19:04:13 
26.6000  24.6000  75  1008  2021-02-28 20:04:15 
26.5000  23.8000  75  1008  2021-02-28 21:04:16 
26.1000  23.6000  76  1008  2021-02-28 22:04:14 
26.0000  22.9000  76  1008  2021-02-28 23:04:14 
25.6000  22.1000  77  1007  2021-03-01 00:04:16 
25.4000  22.6000  77  1008  2021-03-01 01:04:13 
24.8000  21.4000  76  1009  2021-03-01 02:04:15 
24.6000  21.2000  75  1009  2021-03-01 03:04:15 
24.1000  20.6000  75  1009  2021-03-01 04:04:19 
23.6000  19.6000  75  1009  2021-03-01 05:04:13 
23.6000  19.6000  75  1009  2021-03-01 06:04:14 
23.1000  19.1000  75  1010  2021-03-01 07:04:16 
22.8000  19.6000  74  1010  2021-03-01 08:04:17 
23.8000  21.5000  75  1009  2021-03-01 09:04:14 
24.4000  23.1000  74  1010  2021-03-01 10:04:15 
24.6000  27.4000  73  1010  2021-03-01 11:04:16 
25.1000  26.6000  75  1011  2021-03-01 12:04:17 
25.5000  25.4000  75  1011  2021-03-01 13:04:14 
25.6000  25.8000  74  1010  2021-03-01 14:04:15 
25.3000  24.6000  76  1011  2021-03-01 15:04:16 
25.6000  26.1000  75  1009  2021-03-01 16:04:13 
25.9000  29.8000  76  1008  2021-03-01 17:04:15 
26.6000  30.2000  73  1007  2021-03-01 18:04:16 
26.2000  24.5000  73  1009  2021-03-01 19:04:13 
27.1000  25.3000  73  1009  2021-03-01 20:04:14 
25.6000  24.1000  71  1011  2021-03-01 21:04:15 
25.9000  21.6000  72  1011  2021-03-01 22:04:18 
25.8000  22.1000  72  1010  2021-03-01 23:04:15 
25.6000  22.1000  73  1011  2021-03-02 00:04:16 
25.4000  21.4000  73  1012  2021-03-02 01:04:17 
25.1000  20.4000  73  1011  2021-03-02 02:04:14 
25.1000  20.7000  73  1011  2021-03-02 03:04:16 
24.8000  20.6000  74  1011  2021-03-02 04:04:17 
24.9000  20.1000  74  1011  2021-03-02 05:04:14 
24.3000  20.0000  74  1012  2021-03-02 06:04:15 
24.2000  19.3000  75  1012  2021-03-02 07:04:16 
23.6000  19.8000  76  1012  2021-03-02 08:04:13 
24.1000  21.1000  76  1013  2021-03-02 09:04:14 
24.6000  22.6000  77  1013  2021-03-02 10:04:15 
24.6000  24.9000  77  1012  2021-03-02 11:04:17 
25.1000  25.9000  76  1013  2021-03-02 12:04:14 
25.6000  26.6000  75  1013  2021-03-02 13:04:15 
25.6000  27.5000  76  1012  2021-03-02 14:04:16 
25.9000  27.8000  76  1012  2021-03-02 15:04:13 
25.9000  27.2000  73  1013  2021-03-02 16:04:14 
26.1000  26.6000  76  1011  2021-03-02 17:04:16 
26.1000  25.8000  74  1012  2021-03-02 18:04:17 
26.1000  24.0000  73  1012  2021-03-02 19:04:14 
25.2000  23.4000  73  1012  2021-03-02 20:04:15 
25.1000  22.6000  73  1012  2021-03-02 21:04:16 
24.6000  21.5000  75  1014  2021-03-02 22:04:13 
25.1000  20.7000  74  1014  2021-03-02 23:04:14 
25.1000  20.0000  74  1014  2021-03-03 00:04:15 
25.1000  19.1000  73  1013  2021-03-03 01:04:17 
24.7000  18.6000  73  1013  2021-03-03 02:04:14 
24.4000  17.6000  73  1013  2021-03-03 03:04:15 
24.2000  18.1000  73  1014  2021-03-03 04:04:16 
24.1000  17.6000  73  1014  2021-03-03 05:04:16 
23.8000  17.0000  73  1013  2021-03-03 06:04:13 
24.0000  17.1000  74  1014  2021-03-03 07:04:14 
22.9000  19.1000  100  1015  2021-03-03 08:04:16 
23.2000  20.6000  101  1015  2021-03-03 09:04:17 
24.1000  23.0000  102  1015  2021-03-03 10:04:14 
24.3000  23.7000  101  1014  2021-03-03 11:04:15 
24.6000  25.6000  100  1014  2021-03-03 12:04:16 
25.1000  27.1000  100  1013  2021-03-03 13:04:17 
25.0000  25.7000  77  1013  2021-03-03 14:04:15 
25.1000  28.1000  100  1013  2021-03-03 15:04:17 
25.5000  27.6000  100  1013  2021-03-03 16:04:14 
25.8000  27.1000  100  1012  2021-03-03 17:04:15 
25.9000  24.8000  100  1014  2021-03-03 18:04:16 
25.7000  22.9000  100  1014  2021-03-03 19:04:13 
25.8000  20.1000  77  1014  2021-03-03 22:04:14 
25.6000  19.6000  77  1014  2021-03-03 23:04:15 
25.4000  19.7000  77  1015  2021-03-04 00:04:17 
25.2000  20.0000  77  1015  2021-03-04 01:04:14 
25.1000  19.6000  77  1013  2021-03-04 02:04:15 
24.9000  19.3000  77  1014  2021-03-04 03:04:16 
24.8000  19.6000  77  1013  2021-03-04 04:04:18 
24.8000  19.0000  77  1013  2021-03-04 05:04:16 
24.7000  19.1000  77  1012  2021-03-04 06:04:16 
24.6000  19.1000  77  1013  2021-03-04 07:04:13 
23.7000  18.9000  77  1014  2021-03-04 08:04:15 
23.7000  19.6000  77  1015  2021-03-04 09:04:16 
24.1000  21.1000  77  1015  2021-03-04 10:04:17 
24.5000  22.6000  77  1015  2021-03-04 11:04:14 
24.3000  22.1000  77  1014  2021-03-04 12:04:15 
24.6000  22.6000  77  1015  2021-03-04 13:04:16 
24.6000  23.1000  76  1014  2021-03-04 14:04:17 
24.8000  23.5000  75  1015  2021-03-04 15:04:15 
25.0000  22.6000  75  1014  2021-03-04 16:04:16 
25.1000  22.1000  74  1014  2021-03-04 17:04:17 
25.1000  21.1000  73  1014  2021-03-04 18:04:14 
24.6000  20.6000  73  1014  2021-03-04 19:04:15 
24.7000  19.6000  73  1015  2021-03-04 20:04:16 
25.0000  19.3000  74  1015  2021-03-04 21:04:17 
24.6000  19.5000  73  1015  2021-03-04 22:04:14 
24.6000  19.1000  73  1015  2021-03-04 23:04:15 
24.3000  18.7000  72  1016  2021-03-05 00:04:16 
24.1000  18.6000  72  1015  2021-03-05 01:04:17 
24.0000  18.5000  72  1014  2021-03-05 02:04:14 
23.7000  18.1000  72  1014  2021-03-05 03:04:15 
23.6000  18.1000  72  1014  2021-03-05 04:04:16 
23.2000  17.6000  72  1013  2021-03-05 05:04:17 
23.1000  17.6000  72  1013  2021-03-05 06:04:14 
22.6000  17.6000  73  1014  2021-03-05 07:04:15 
23.1000  18.6000  74  1014  2021-03-05 08:04:16 
23.4000  20.1000  74  1015  2021-03-05 09:04:18 
23.4000  22.9000  74  1015  2021-03-05 10:04:19 
23.6000  23.6000  74  1013  2021-03-05 11:04:15 
23.9000  25.1000  75  1013  2021-03-05 12:04:17 
24.1000  24.1000  76  1013  2021-03-05 13:04:17 
24.2000  23.9000  77  1012  2021-03-05 14:04:14 
24.6000  24.1000  77  1012  2021-03-05 15:04:15 
24.5000  23.1000  77  1012  2021-03-05 16:04:17 
24.6000  23.1000  76  1012  2021-03-05 17:04:14 
24.8000  22.1000  76  1013  2021-03-05 18:04:15 
24.6000  21.1000  76  1012  2021-03-05 19:04:16 
25.0000  19.6000  76  1012  2021-03-05 22:04:16 
24.6000  19.2000  75  1012  2021-03-05 23:04:18 
24.3000  18.4000  75  1012  2021-03-06 00:04:14 
24.1000  18.1000  74  1011  2021-03-06 01:04:16 
23.8000  17.6000  74  1011  2021-03-06 02:04:17 
23.6000  17.2000  74  1010  2021-03-06 03:04:18 
23.1000  16.5000  73  1011  2021-03-06 05:04:17 
22.6000  16.6000  73  1012  2021-03-06 06:04:18 
22.7000  16.6000  73  1012  2021-03-06 07:04:15 
22.6000  17.6000  74  1014  2021-03-06 08:04:15 
22.6000  19.1000  77  1015  2021-03-06 09:04:16 
23.4000  21.1000  101  1015  2021-03-06 10:04:18 
23.6000  22.3000  104  1015  2021-03-06 11:04:29 
23.6000  22.3000  104  1015  2021-03-06 11:04:41 
23.7000  25.0000  103  1015  2021-03-06 12:04:14 
24.1000  25.5000  103  1015  2021-03-06 13:04:15 
24.1000  24.3000  101  1015  2021-03-06 14:04:17 
24.2000  24.7000  76  1015  2021-03-06 15:04:14 
24.6000  25.9000  76  1014  2021-03-06 16:04:15 
24.6000  25.1000  76  1015  2021-03-06 17:04:17 
24.6000  25.1000  77  1015  2021-03-06 18:04:14 
24.6000  23.9000  76  1016  2021-03-06 19:04:15 
24.6000  23.0000  76  1016  2021-03-06 20:04:17 
24.6000  22.1000  75  1018  2021-03-06 21:04:14 
24.6000  21.8000  75  1018  2021-03-06 22:04:15 
24.3000  21.1000  75  1017  2021-03-06 23:04:17 
24.3000  20.8000  74  1018  2021-03-07 00:04:18 
24.1000  20.6000  74  1018  2021-03-07 01:04:15 
23.9000  18.6000  73  1017  2021-03-07 02:04:16 
23.6000  18.6000  73  1017  2021-03-07 03:04:17 
23.6000  18.7000  73  1016  2021-03-07 04:04:15 
23.6000  18.9000  73  1016  2021-03-07 05:04:16 
23.5000  19.2000  74  1016  2021-03-07 06:04:17 
23.3000  19.6000  74  1016  2021-03-07 07:04:14 
23.1000  20.1000  76  1017  2021-03-07 08:04:15 
23.1000  20.9000  100  1017  2021-03-07 09:04:17 
23.6000  21.4000  101  1017  2021-03-07 10:04:18 
23.6000  19.6000  103  1017  2021-03-07 11:04:15 
23.6000  20.1000  103  1018  2021-03-07 12:04:17 
23.6000  20.1000  101  1018  2021-03-07 13:04:18 
23.6000  19.8000  100  1018  2021-03-07 14:04:16 
23.6000  19.7000  77  1018  2021-03-07 15:04:17 
23.6000  19.6000  76  1017  2021-03-07 16:04:15 
23.6000  19.2000  75  1017  2021-03-07 17:04:16 
23.5000  19.1000  73  1017  2021-03-07 18:04:17 
23.6000  18.6000  74  1017  2021-03-07 19:04:14 
23.6000  18.1000  74  1017  2021-03-07 20:04:15 
23.6000  17.6000  75  1018  2021-03-07 21:04:17 
23.6000  17.6000  75  1018  2021-03-07 22:04:15 
23.1000  17.5000  74  1016  2021-03-07 23:04:16 
22.7000  16.8000  74  1015  2021-03-08 00:04:17 
22.6000  16.6000  72  1015  2021-03-08 01:04:14 
22.5000  16.9000  73  1014  2021-03-08 02:04:15 
22.4000  16.6000  73  1013  2021-03-08 03:04:16 
22.1000  21.2000  70  1014  2021-03-08 12:04:16 
22.3000  21.6000  70  1014  2021-03-08 13:04:17 
22.4000  22.1000  66  1012  2021-03-08 14:04:18 
22.8000  22.6000  64  1011  2021-03-08 15:04:15 
22.6000  22.1000  61  1012  2021-03-08 16:04:16 
23.1000  20.6000  63  1011  2021-03-08 17:04:18 
23.1000  19.6000  64  1011  2021-03-08 18:04:15 
23.1000  18.6000  66  1012  2021-03-08 19:04:16 
23.1000  18.2000  65  1012  2021-03-08 20:04:17 
23.1000  17.6000  65  1012  2021-03-08 21:04:18 
23.0000  17.1000  66  1012  2021-03-08 22:04:15 
22.6000  16.6000  64  1011  2021-03-08 23:04:17 
22.3000  15.6000  64  1012  2021-03-09 00:04:14 
22.1000  15.1000  64  1012  2021-03-09 01:04:16 
21.7000  15.1000  64  1011  2021-03-09 02:04:17 
21.6000  15.6000  64  1010  2021-03-09 03:04:18 
21.6000  16.0000  64  1009  2021-03-09 04:04:15 
21.6000  16.1000  64  1010  2021-03-09 05:04:17 
21.4000  16.4000  64  1010  2021-03-09 06:04:14 
21.1000  16.6000  66  1010  2021-03-09 07:04:15 
20.9000  17.4000  65  1011  2021-03-09 08:04:17 
21.3000  18.6000  70  1008  2021-03-09 09:04:18 
21.5000  19.6000  72  1010  2021-03-09 10:04:15 
22.1000  20.3000  73  1008  2021-03-09 11:04:17 
22.1000  20.6000  73  1009  2021-03-09 12:04:18 
22.1000  21.1000  73  1007  2021-03-09 13:04:15 
22.3000  22.6000  75  1008  2021-03-09 14:04:16 
22.6000  22.3000  76  1006  2021-03-09 15:04:18 
22.9000  22.8000  77  1008  2021-03-09 16:04:15 
23.1000  21.8000  77  1007  2021-03-09 17:04:16 
23.1000  20.8000  100  1006  2021-03-09 18:04:18 
23.4000  20.6000  100  1007  2021-03-09 19:04:15 
23.2000  20.6000  100  1007  2021-03-09 20:04:16 
23.4000  19.6000  101  1007  2021-03-09 21:04:17 
23.1000  19.6000  101  1007  2021-03-09 22:04:16 
23.1000  19.1000  102  1006  2021-03-09 23:04:17 
23.1000  19.1000  103  1005  2021-03-10 00:04:18 
22.9000  19.1000  104  1005  2021-03-10 01:04:15 
22.6000  18.6000  105  1006  2021-03-10 02:04:17 
22.6000  18.8000  106  1005  2021-03-10 03:04:18 
22.6000  18.9000  106  1005  2021-03-10 04:04:15 
22.2000  19.1000  107  1004  2021-03-10 05:04:17 
22.1000  18.9000  110  1004  2021-03-10 06:04:18 
22.1000  18.8000  110  1005  2021-03-10 07:04:15 
22.1000  19.1000  110  1004  2021-03-10 08:04:16 
22.5000  19.1000  111  1005  2021-03-10 08:47:31 
22.1000  19.1000  112  1005  17  2021-03-10 09:04:17 
22.2000  19.1000  112  1005  2021-03-10 10:04:15 
22.3000  19.3000  113  1006  2021-03-10 11:04:18 
22.6000  19.6000  114  1006  2021-03-10 11:44:51 
23.1000  20.1000  114  1007  2021-03-10 12:04:17 
23.1000  20.4000  115  1006  2021-03-10 13:04:19 
23.1000  20.6000  116  1006  2021-03-10 14:04:17 
23.5000  21.0000  117  1007  2021-03-10 15:04:15 
23.6000  20.6000  117  1008  2021-03-10 16:04:17 
23.6000  20.1000  117  1007  2021-03-10 17:04:16 
24.1000  20.1000  116  1008  2021-03-10 18:04:18 
23.6000  19.6000  116  1008  2021-03-10 19:04:16 
24.0000  19.6000  115  1008  2021-03-10 20:04:15 
23.6000  19.6000  114  1009  2021-03-10 21:04:18 
23.8000  19.1000  114  1010  12  2021-03-10 22:04:20 
23.7000  19.1000  114  1011  2021-03-10 23:04:18 
23.6000  18.6000  113  1012  2021-03-11 00:04:16 
23.1000  18.1000  113  1012  2021-03-11 01:04:18 
22.7000  17.3000  112  1012  2021-03-11 03:04:15 
22.6000  16.6000  111  1013  2021-03-11 04:04:17 
22.1000  16.1000  110  1014  2021-03-11 05:04:19 
22.1000  15.6000  107  1014  2021-03-11 06:04:16 
22.1000  15.6000  107  1014  2021-03-11 07:04:18 
22.1000  16.7000  107  1014  2021-03-11 08:04:16 
22.1000  17.9000  110  1014  2021-03-11 09:04:18 
22.1000  19.2000  110  1015  2021-03-11 10:04:16 
22.4000  19.1000  106  1015  2021-03-11 11:04:18 
22.9000  21.6000  106  1013  2021-03-11 12:04:16 
23.1000  23.1000  105  1013  2021-03-11 13:04:17 
23.5000  23.6000  106  1014  2021-03-11 14:04:15 
23.6000  24.1000  106  1012  2021-03-11 15:04:17 
24.1000  23.1000  110  1012  2021-03-11 16:04:15 
24.1000  22.6000  107  1012  2021-03-11 17:04:17 
24.1000  21.1000  110  1012  2021-03-11 18:04:15 
24.1000  20.6000  107  1013  2021-03-11 19:04:17 
24.0000  20.4000  107  1012  2021-03-11 20:04:19 
24.1000  19.7000  107  1013  2021-03-11 21:04:16 
24.1000  18.9000  107  1012  2021-03-11 22:04:19 
24.0000  17.9000  106  1011  2021-03-11 23:04:16 
23.6000  17.5000  106  1011  2021-03-12 00:04:18 
23.3000  16.8000  104  1011  2021-03-12 01:04:16 
23.1000  16.6000  104  1010  2021-03-12 02:04:17 
22.7000  16.1000  103  1009  2021-03-12 03:04:15 
22.6000  15.6000  102  1009  2021-03-12 04:04:17 
22.6000  15.6000  102  1009  2021-03-12 05:04:15 
22.1000  15.6000  101  1010  2021-03-12 06:04:17 
22.1000  15.1000  101  1010  2021-03-12 07:04:19 
22.1000  16.1000  101  1010  2021-03-12 08:04:16 
22.1000  18.1000  101  1011  2021-03-12 09:04:18 
22.6000  21.9000  102  1010  2021-03-12 11:04:19 
23.0000  23.9000  102  1009  2021-03-12 12:04:16 
23.3000  24.6000  102  1009  2021-03-12 13:04:18 
23.6000  24.1000  103  1009  2021-03-12 14:04:16 
23.7000  25.1000  103  1007  2021-03-12 15:04:18 
24.0000  25.1000  101  1007  2021-03-12 16:04:16 
24.1000  24.6000  102  1007  2021-03-12 17:04:18 
24.1000  23.9000  103  1007  2021-03-12 18:04:16 
24.1000  22.7000  102  1008  2021-03-12 19:04:18 
24.1000  21.5000  104  1008  2021-03-12 20:04:15 
24.1000  21.1000  105  1009  2021-03-12 21:04:17 
24.4000  20.1000  105  1010  2021-03-12 22:04:15 
24.1000  19.1000  104  1011  2021-03-12 23:04:17 
24.1000  18.6000  104  1009  2021-03-13 00:04:19 
23.6000  17.5000  103  1009  2021-03-13 01:04:17 
23.5000  17.1000  101  1010  2021-03-13 02:04:19 
23.1000  16.5000  101  1009  2021-03-13 03:04:16 
23.1000  16.1000  100  1008  2021-03-13 04:04:18 
22.6000  15.9000  100  1008  2021-03-13 05:04:16 
22.5000  15.6000  100  1008  2021-03-13 06:04:18 
22.6000  17.6000  100  1010  2021-03-13 07:04:15 
22.6000  19.1000  102  1010  2021-03-13 08:04:17 
22.8000  20.1000  105  1010  2021-03-13 09:04:15 
22.8000  21.6000  105  1011  2021-03-13 10:04:17 
23.0000  21.8000  106  1011  2021-03-13 11:04:15 
23.1000  23.1000  106  1011  2021-03-13 12:04:17 
23.6000  24.6000  107  1010  2021-03-13 13:04:19 
24.1000  25.6000  107  1010  2021-03-13 14:04:17 
24.1000  25.3000  107  1009  2021-03-13 15:04:19 
24.7000  24.3000  107  1011  2021-03-13 17:04:16 
24.6000  23.6000  107  1011  2021-03-13 18:04:18 
24.6000  23.1000  107  1011  2021-03-13 19:04:15 
24.9000  22.6000  107  1012  2021-03-13 20:04:17 
24.8000  22.4000  107  1014  2021-03-13 21:04:19 
24.6000  21.8000  107  1014  2021-03-13 22:04:19 
24.6000  21.6000  107  1015  2021-03-13 23:04:19 
24.6000  21.1000  107  1015  2021-03-14 00:04:17 
24.6000  20.1000  107  1015  2021-03-14 01:04:18 
24.4000  20.1000  106  1016  2021-03-14 02:04:16 
24.1000  19.6000  106  1015  2021-03-14 03:04:18 
24.1000  19.6000  105  1015  2021-03-14 04:04:16 
24.0000  19.6000  105  1016  2021-03-14 05:04:18 
23.7000  19.6000  104  1016  2021-03-14 06:04:15 
23.6000  19.6000  104  1017  2021-03-14 07:04:17 
23.6000  19.6000  103  1017  2021-03-14 08:04:15 
23.6000  20.1000  102  1017  2021-03-14 09:04:17 
24.0000  20.6000  102  1017  2021-03-14 10:04:19 
23.8000  21.8000  102  1017  2021-03-14 11:04:17 
23.9000  21.8000  103  1016  2021-03-14 12:04:19 
23.8000  20.6000  103  1017  2021-03-14 13:04:16 
24.1000  20.7000  103  1015  2021-03-14 15:04:16 
24.1000  20.1000  104  1013  2021-03-14 16:04:19 
24.1000  20.6000  103  1013  2021-03-14 17:04:17 
24.1000  19.7000  104  1013  2021-03-14 18:04:19 
24.2000  19.6000  105  1012  2021-03-14 19:04:17 
23.8000  19.1000  105  1011  2021-03-14 20:04:19 
24.1000  19.2000  105  1011  2021-03-14 21:04:17 
24.1000  19.1000  105  1011  2021-03-14 22:04:18 
23.6000  19.2000  105  1012  2021-03-14 23:04:16 
23.3000  19.1000  106  1013  2021-03-15 01:04:17 
23.1000  18.4000  106  1014  2021-03-15 02:04:18 
23.1000  17.0000  105  1014  2021-03-15 03:04:16 
22.9000  15.8000  105  1013  2021-03-15 04:04:19 
22.4000  15.6000  103  1014  2021-03-15 05:04:17 
22.1000  15.6000  104  1014  11  2021-03-15 06:04:15 
22.1000  15.6000  104  1016  2021-03-15 07:04:18 
22.1000  15.6000  105  1015  2021-03-15 08:04:16 
22.3000  16.4000  106  1015  2021-03-15 09:04:19 
22.1000  17.0000  107  1016  2021-03-15 10:04:17 
22.4000  16.6000  107  1016  2021-03-15 11:04:16 
22.2000  17.6000  107  1016  2021-03-15 12:04:18 
22.5000  18.9000  107  1016  2021-03-15 13:04:17 
22.6000  19.6000  106  1016  2021-03-15 14:04:15 
22.6000  19.8000  106  1015  2021-03-15 15:04:18 
22.6000  19.2000  105  1016  2021-03-15 16:04:16 
22.6000  18.6000  106  1016  2021-03-15 17:04:19 
22.6000  19.1000  105  1016  2021-03-15 18:04:17 
22.6000  18.6000  106  1017  2021-03-15 19:04:16 
22.6000  18.5000  106  1017  2021-03-15 20:04:18 
22.7000  18.1000  106  1017  2021-03-15 21:04:16 
22.7000  17.6000  106  1017  2021-03-15 22:04:19 
22.6000  17.6000  106  1017  2021-03-15 23:04:17 
22.3000  17.8000  105  1016  2021-03-16 00:04:16 
22.1000  17.6000  104  1017  2021-03-16 03:04:18 
21.8000  17.6000  104  1016  2021-03-16 04:04:16 
21.6000  17.1000  104  1015  2021-03-16 05:04:18 
21.2000  17.0000  104  1016  2021-03-16 06:04:19 
21.6000  19.1000  106  1016  2021-03-16 09:04:19 
21.6000  20.1000  107  1016  2021-03-16 10:04:17 
21.6000  20.7000  107  1016  2021-03-16 11:04:19 
22.1000  21.6000  107  1016  2021-03-16 12:04:17 
22.2000  21.6000  110  1015  2021-03-16 13:04:19 
22.3000  22.1000  111  1014  2021-03-16 14:04:17 
22.5000  22.6000  111  1013  2021-03-16 15:04:19 
22.6000  21.6000  110  1013  2021-03-16 16:04:17 
22.8000  21.1000  107  1014  2021-03-16 17:04:19 
23.1000  20.2000  106  1013  2021-03-16 18:04:17 
23.1000  19.6000  106  1014  2021-03-16 19:04:18 
23.1000  19.1000  106  1014  2021-03-16 20:04:16 
23.0000  19.0000  106  1014  2021-03-16 21:04:18 
22.7000  18.6000  105  1016  2021-03-16 22:04:16 
22.2000  18.1000  103  1015  2021-03-16 23:04:18 
22.0000  18.1000  103  1014  2021-03-17 00:04:16 
22.1000  17.9000  103  1013  2021-03-17 01:04:17 
21.7000  17.6000  103  1013  2021-03-17 04:04:16 
21.5000  17.3000  103  1012  2021-03-17 05:04:17 
21.3000  17.2000  103  1012  2021-03-17 06:04:19 
21.5000  17.1000  103  1013  2021-03-17 07:04:17 
21.6000  18.4000  105  1012  2021-03-17 08:04:19 
21.6000  19.6000  106  1013  2021-03-17 09:04:17 
21.6000  21.1000  106  1013  2021-03-17 10:04:18 
21.9000  22.6000  107  1013  2021-03-17 11:04:16 
22.2000  24.6000  110  1012  2021-03-17 12:04:18 
22.6000  23.6000  112  1012  2021-03-17 13:04:16 
23.0000  23.8000  113  1012  2021-03-17 14:04:17 
23.1000  24.5000  113  1011  2021-03-17 15:04:19 
23.4000  24.2000  113  1011  2021-03-17 16:04:17 
23.6000  23.1000  112  1011  2021-03-17 17:04:19 
23.8000  22.1000  112  1011  2021-03-17 18:04:17 
23.6000  21.1000  111  1011  2021-03-17 19:04:19 
23.6000  20.6000  111  1011  2021-03-17 20:04:16 
23.6000  20.1000  111  1011  2021-03-17 21:04:18 
23.3000  19.6000  110  1011  2021-03-17 22:04:22 
23.3000  19.1000  110  1011  2021-03-17 23:04:17 
23.1000  18.6000  107  1011  2021-03-18 00:04:19 
23.0000  18.1000  105  1011  2021-03-18 01:04:17 
22.6000  17.6000  105  1011  2021-03-18 02:04:19 
22.6000  17.1000  104  1011  2021-03-18 03:04:16 
22.5000  17.1000  104  1010  2021-03-18 04:04:18 
22.1000  16.2000  103  1011  2021-03-18 05:04:16 
22.1000  16.1000  103  1011  2021-03-18 06:04:18 
21.6000  15.6000  103  1013  2021-03-18 07:04:20 
21.1000  16.6000  104  1012  2021-03-18 08:04:18 
21.9000  18.4000  104  1013  2021-03-18 09:04:19 
22.1000  19.2000  105  1012  2021-03-18 10:04:17 
22.4000  20.9000  105  1014  2021-03-18 11:04:19 
22.6000  22.3000  110  1013  2021-03-18 12:04:17 
23.0000  23.1000  111  1013  2021-03-18 13:04:19 
23.2000  24.1000  111  1013  2021-03-18 14:04:16 
23.5000  24.9000  112  1013  2021-03-18 15:04:19 
23.6000  23.4000  110  1014  2021-03-18 16:04:17 
23.6000  22.6000  106  1014  2021-03-18 17:04:19 
23.6000  21.8000  105  1014  2021-03-18 18:04:17 
23.6000  20.6000  105  1016  2021-03-18 19:04:19 
23.6000  20.1000  105  1017  2021-03-18 20:04:17 
23.6000  19.7000  105  1017  2021-03-18 21:04:18 
23.6000  19.1000  104  1017  2021-03-18 22:04:16 
23.6000  18.6000  104  1017  2021-03-18 23:04:18 
23.1000  17.8000  102  1017  2021-03-19 00:04:16 
23.3000  18.1000  102  1017  2021-03-19 01:04:18 
23.1000  18.3000  101  1017  2021-03-19 02:04:20 
22.7000  17.6000  102  1017  2021-03-19 03:04:18 
22.6000  17.2000  102  1017  2021-03-19 04:04:20 
22.2000  17.1000  101  1018  2021-03-19 05:04:17 
22.1000  17.1000  100  1019  2021-03-19 06:04:19 
21.6000  17.4000  77  1019  2021-03-19 07:04:17 
21.7000  18.0000  76  1019  2021-03-19 08:04:19 
22.1000  19.1000  77  1019  2021-03-19 09:04:17 
22.1000  20.1000  76  1018  2021-03-19 10:04:19 
22.1000  20.7000  76  1018  2021-03-19 11:04:16 
22.5000  21.6000  76  1018  2021-03-19 12:04:18 
22.6000  22.1000  77  1018  2021-03-19 13:04:16 
22.6000  22.1000  100  1018  2021-03-19 14:04:18 
23.0000  21.6000  77  1016  2021-03-19 15:04:20 
23.0000  21.1000  77  1017  2021-03-19 16:04:18 
23.1000  20.6000  100  1017  2021-03-19 17:04:20 
23.2000  19.3000  100  1017  2021-03-19 19:04:16 
23.1000  19.1000  100  1016  2021-03-19 20:04:19 
23.1000  19.1000  100  1017  2021-03-19 21:04:16 
23.1000  18.9000  101  1017  2021-03-19 22:04:18 
22.9000  18.8000  100  1017  2021-03-19 23:04:16 
22.8000  18.6000  100  1016  2021-03-20 00:04:18 
22.6000  18.4000  100  1016  2021-03-20 01:04:20 
22.3000  18.3000  100  1016  2021-03-20 02:04:18 
22.3000  18.2000  101  1017  2021-03-20 03:04:19 
22.1000  18.6000  102  1017  2021-03-20 04:04:17 
22.1000  18.1000  101  1017  2021-03-20 05:04:19 
21.6000  18.2000  100  1019  2021-03-20 06:04:17 
21.8000  18.1000  100  1018  2021-03-20 07:04:19 
21.6000  19.0000  100  1019  2021-03-20 08:04:16 
21.9000  19.1000  100  1019  2021-03-20 09:04:18 
21.8000  20.1000  100  1020  2021-03-20 10:04:20 
21.9000  20.5000  101  1020  2021-03-20 11:04:18 
22.1000  20.6000  102  1020  2021-03-20 12:04:20 
22.1000  21.5000  101  1021  2021-03-20 13:04:17 
22.6000  21.6000  102  1019  2021-03-20 14:04:19 
22.9000  21.6000  100  1020  2021-03-20 16:04:20 
23.0000  20.7000  100  1019  2021-03-20 17:04:18 
23.1000  19.6000  77  1018  2021-03-20 18:04:20 
23.1000  19.1000  77  1020  2021-03-20 19:04:18 
23.1000  18.6000  77  1020  2021-03-20 20:04:20 
22.9000  18.6000  77  1021  2021-03-20 21:04:17 
22.8000  18.1000  100  1022  2021-03-20 22:04:19 
22.6000  18.1000  76  1020  2021-03-20 23:04:17 
22.4000  18.1000  76  1020  2021-03-21 00:04:19 
22.1000  18.3000  76  1020  2021-03-21 01:04:17 
22.0000  18.1000  76  1019  2021-03-21 02:04:19 
22.1000  18.0000  76  1019  2021-03-21 03:04:20 
21.8000  17.6000  76  1018  2021-03-21 04:04:20 
21.6000  18.1000  76  1018  2021-03-21 05:04:17 
21.5000  18.1000  76  1018  2021-03-21 06:04:19 
21.3000  18.1000  76  1017  2021-03-21 07:04:17 
21.5000  18.8000  76  1018  2021-03-21 08:04:18 
21.6000  20.1000  100  1019  2021-03-21 09:04:20 
21.6000  21.2000  101  1019  2021-03-21 10:04:18 
22.1000  22.0000  101  1018  2021-03-21 11:04:20 
22.1000  23.6000  102  1018  2021-03-21 12:04:18 
22.3000  23.3000  103  1017  2021-03-21 13:04:19 
22.6000  23.1000  104  1018  2021-03-21 14:04:17 
22.6000  22.5000  104  1017  2021-03-21 15:04:19 
23.1000  22.1000  105  1016  2021-03-21 16:04:17 
23.1000  21.1000  103  1016  2021-03-21 17:04:19 
23.4000  20.2000  102  1016  2021-03-21 18:04:17 
23.4000  19.6000  102  1017  2021-03-21 19:04:19 
23.2000  19.1000  102  1017  2021-03-21 20:04:16 
23.3000  18.6000  101  1017  2021-03-21 21:04:18 
23.1000  18.4000  101  1018  2021-03-21 22:04:20 
22.9000  18.1000  77  1016  2021-03-21 23:04:18 
22.6000  18.1000  77  1016  2021-03-22 00:04:20 
22.1000  17.5000  76  1016  2021-03-22 01:04:18 
22.1000  17.1000  76  1015  2021-03-22 02:04:20 
21.7000  16.6000  76  1015  2021-03-22 03:04:17 
21.6000  16.0000  75  1016  2021-03-22 04:04:19 
21.6000  15.6000  75  1014  2021-03-22 05:04:17 
21.1000  15.1000  75  1014  2021-03-22 06:04:18 
20.8000  15.1000  75  1015  2021-03-22 07:04:20 
21.1000  17.1000  75  1016  2021-03-22 08:04:18 
21.3000  19.6000  100  1016  2021-03-22 09:04:19 
21.3000  21.1000  100  1016  2021-03-22 10:04:17 
21.6000  22.6000  101  1015  2021-03-22 11:04:19 
22.1000  24.1000  101  1016  2021-03-22 12:04:20 
22.1000  24.8000  102  1014  2021-03-22 13:04:18 
22.6000  24.1000  103  1015  2021-03-22 14:04:20 
23.1000  22.6000  105  1014  2021-03-22 16:04:21 
23.1000  22.6000  105  1013  2021-03-22 17:04:19 
23.1000  22.1000  104  1014  2021-03-22 18:04:16 
23.1000  20.6000  104  1015  2021-03-22 19:04:18 
23.1000  20.0000  103  1016  2021-03-22 20:04:20 
23.6000  19.6000  104  1015  2021-03-22 21:04:18 
23.4000  19.1000  103  1016  2021-03-22 22:04:21 
23.1000  17.8000  102  1014  2021-03-22 23:04:19 
22.7000  17.6000  101  1016  2021-03-23 00:04:16 
22.5000  16.6000  100  1014  2021-03-23 01:04:18 
22.1000  16.6000  77  1014  2021-03-23 02:04:20 
22.1000  16.1000  77  1013  2021-03-23 03:04:18 
21.9000  16.1000  77  1013  2021-03-23 04:04:23 
21.6000  15.6000  77  1013  2021-03-23 05:04:17 
21.1000  15.1000  77  1014  2021-03-23 06:04:19 
21.1000  14.6000  100  1014  2021-03-23 07:04:17 
20.6000  16.3000  102  1015  2021-03-23 08:04:18 
21.3000  18.8000  103  1015  2021-03-23 09:04:20 
21.6000  22.3000  105  1015  2021-03-23 10:04:18 
22.1000  24.7000  105  1016  2021-03-23 11:04:20 
22.6000  26.9000  106  1016  2021-03-23 12:04:18 
23.1000  28.1000  106  1014  2021-03-23 13:04:20 
23.1000  28.4000  107  1014  2021-03-23 14:04:18 
23.7000  27.5000  111  1013  2021-03-23 15:04:19 
23.6000  27.1000  107  1013  2021-03-23 16:04:17 
24.1000  26.1000  106  1014  2021-03-23 17:04:19 
24.4000  25.3000  106  1012  2021-03-23 18:04:17 
24.6000  24.1000  106  1014  2021-03-23 19:04:19 
24.1000  22.6000  105  1013  2021-03-23 20:04:17 
24.2000  22.5000  105  1014  2021-03-23 21:04:20 
24.1000  21.9000  105  1014  2021-03-23 22:04:17 
24.1000  21.7000  105  1015  2021-03-23 23:04:19 
24.1000  21.3000  104  1015  2021-03-24 00:04:17 
24.1000  20.8000  104  1015  2021-03-24 01:04:19 
23.6000  20.1000  103  1014  2021-03-24 02:04:21 
23.4000  19.6000  102  1014  2021-03-24 03:04:18 
23.6000  19.1000  101  1015  2021-03-24 04:04:20 
23.1000  19.1000  101  1016  2021-03-24 05:04:18 
23.1000  18.6000  101  1016  2021-03-24 06:04:20 
23.0000  18.1000  101  1016  2021-03-24 07:04:18 
22.8000  19.1000  104  1016  2021-03-24 08:04:20 
23.1000  21.1000  104  1017  2021-03-24 09:04:18 
23.2000  23.4000  104  1017  2021-03-24 10:04:19 
23.6000  24.1000  105  1017  2021-03-24 11:04:17 
23.6000  25.1000  106  1015  2021-03-24 12:04:19 
23.9000  25.1000  110  1016  2021-03-24 13:04:21 
24.1000  25.3000  107  1015  2021-03-24 14:04:19 
24.6000  26.6000  107  1014  2021-03-24 15:04:20 
24.6000  26.0000  107  1014  2021-03-24 16:04:18 
24.8000  25.9000  106  1014  2021-03-24 17:04:20 
24.9000  25.1000  106  1014  2021-03-24 18:04:18 
24.8000  23.6000  106  1013  2021-03-24 19:04:20 
24.7000  23.1000  106  1014  2021-03-24 20:04:18 
24.9000  22.6000  105  1014  2021-03-24 21:04:20 
24.6000  22.1000  105  1013  2021-03-24 22:04:18 
24.6000  21.1000  105  1012  2021-03-24 23:04:20 
24.5000  20.6000  105  1012  2021-03-25 00:04:17 
24.1000  19.9000  104  1012  2021-03-25 01:04:19 
24.1000  19.1000  103  1012  2021-03-25 02:04:17 
23.9000  18.6000  102  1010  2021-03-25 03:04:19 
23.6000  18.6000  101  1010  2021-03-25 04:04:17 
23.4000  17.9000  101  1010  2021-03-25 05:04:19 
22.9000  17.1000  101  1011  2021-03-25 06:04:21 
23.1000  17.1000  102  1010  2021-03-25 07:04:18 
22.1000  17.6000  103  1011  2021-03-25 08:04:20 
23.1000  20.3000  104  1011  2021-03-25 09:04:19 
23.6000  22.2000  105  1011  2021-03-25 10:04:18 
23.9000  25.3000  104  1011  2021-03-25 11:04:20 
24.6000  27.3000  102  1010  2021-03-25 12:04:18 
25.4000  28.8000  101  1009  2021-03-25 13:04:20 
26.2000  28.9000  100  1009  2021-03-25 14:04:18 
25.8000  29.1000  100  1008  2021-03-25 15:04:20 
26.2000  29.1000  100  1009  2021-03-25 16:04:18 
27.6000  29.1000  100  1007  2021-03-25 17:04:20 
26.4000  26.1000  101  1008  2021-03-25 18:04:18 
26.6000  25.1000  101  1009  2021-03-25 19:04:20 
27.1000  23.7000  102  1010  2021-03-25 20:04:18 
25.6000  23.6000  100  1008  2021-03-25 21:04:21 
25.3000  22.1000  101  1010  2021-03-25 22:04:18 
25.6000  20.9000  101  1008  2021-03-25 23:04:20 
25.1000  20.1000  101  1008  2021-03-26 00:04:18 
25.0000  18.8000  100  1009  2021-03-26 01:04:20 
24.7000  18.8000  100  1009  2021-03-26 02:04:18 
24.6000  19.1000  100  1008  2021-03-26 03:04:20 
24.4000  19.1000  100  1009  2021-03-26 04:04:18 
24.1000  19.3000  100  1008  2021-03-26 05:04:21 
24.1000  19.6000  100  1009  2021-03-26 06:04:19 
24.1000  19.6000  101  1009  2021-03-26 07:04:21 
23.5000  19.8000  77  1009  2021-03-26 08:04:18 
23.1000  20.6000  100  1011  2021-03-26 09:04:20 
23.6000  21.1000  100  1012  2021-03-26 10:04:18 
23.6000  21.6000  100  1012  2021-03-26 11:04:20 
23.7000  21.6000  101  1012  2021-03-26 12:04:18 
24.1000  22.1000  101  1012  2021-03-26 13:04:20 
24.1000  22.1000  102  1011  2021-03-26 14:04:17 
23.6000  21.0000  103  1012  2021-03-26 15:04:19 
23.7000  21.6000  103  1011  2021-03-26 16:04:18 
24.1000  22.1000  103  1011  2021-03-26 17:04:20 
24.2000  21.6000  103  1012  2021-03-26 18:04:18 
23.6000  20.6000  101  1013  2021-03-26 19:04:20 
24.1000  20.2000  103  1014  2021-03-26 20:04:19 
24.0000  20.1000  103  1015  2021-03-26 21:04:21 
23.7000  19.6000  103  1015  2021-03-26 22:04:19 
23.6000  19.6000  102  1016  2021-03-26 23:04:17 
23.6000  19.3000  102  1017  2021-03-27 00:04:20 
23.1000  19.1000  103  1017  2021-03-27 01:04:17 
23.0000  18.1000  102  1017  2021-03-27 02:04:19 
22.9000  18.1000  102  1017  2021-03-27 03:04:21 
22.7000  17.1000  102  1018  2021-03-27 04:04:19 
22.4000  16.6000  101  1018  2021-03-27 05:04:21 
22.1000  15.9000  100  1019  2021-03-27 06:04:19 
21.8000  15.5000  100  1019  2021-03-27 07:04:21 
21.1000  16.1000  100  1020  2021-03-27 08:04:18 
21.2000  17.6000  101  1021  2021-03-27 09:04:20 
21.9000  17.7000  102  1021  2021-03-27 10:04:18 
22.1000  19.1000  103  1021  2021-03-27 11:04:20 
22.1000  20.1000  102  1022  2021-03-27 12:04:18 
21.8000  19.6000  75  1022  2021-03-27 13:04:20 
22.1000  20.3000  74  1022  2021-03-27 14:04:18 
22.6000  20.6000  74  1021  2021-03-27 15:04:20 
22.6000  20.4000  73  1020  2021-03-27 16:04:17 
22.7000  19.6000  72  1020  2021-03-27 17:04:19 
22.6000  18.6000  72  1023  2021-03-27 18:04:21 
22.6000  17.9000  72  1022  2021-03-27 19:04:19 
22.6000  17.6000  73  1021  2021-03-27 20:04:21 
22.6000  17.1000  73  1022  2021-03-27 21:04:19 
22.4000  16.8000  73  1022  2021-03-27 22:04:20 
22.1000  16.6000  73  1021  2021-03-27 23:04:18 
21.6000  16.1000  72  1020  2021-03-28 00:04:20 
21.1000  16.3000  71  1020  2021-03-28 01:04:18 
21.1000  15.8000  71  1019  2021-03-28 02:04:20 
20.6000  16.1000  71  1019  2021-03-28 03:04:21 
20.6000  15.4000  71  1018  2021-03-28 04:04:19 
20.5000  15.1000  71  1018  2021-03-28 05:04:22 
20.1000  15.1000  71  1018  2021-03-28 06:04:19 
20.6000  14.5000  73  1017  2021-03-28 07:04:21 
20.6000  15.1000  74  1017  2021-03-28 08:04:18 
20.6000  17.8000  74  1018  2021-03-28 09:04:20 
20.9000  19.6000  74  1018  2021-03-28 10:04:18 
21.1000  21.7000  74  1017  2021-03-28 11:04:19 
21.6000  23.4000  74  1017  2021-03-28 12:04:21 
22.1000  24.6000  73  1017  2021-03-28 13:04:19 
22.3000  24.6000  72  1016  2021-03-28 14:04:21 
23.1000  25.1000  73  1015  2021-03-28 15:04:19 
22.9000  24.1000  74  1015  2021-03-28 16:04:20 
23.1000  23.1000  74  1015  2021-03-28 17:04:18 
23.1000  22.6000  75  1014  2021-03-28 18:04:20 
23.1000  21.6000  76  1016  2021-03-28 19:04:18 
23.6000  21.6000  77  1015  2021-03-28 20:04:20 
23.6000  20.6000  77  1015  2021-03-28 21:04:21 
23.4000  19.6000  77  1014  2021-03-28 22:04:19 
23.1000  19.1000  77  1014  2021-03-28 23:04:21 
22.6000  18.6000  77  1014  2021-03-29 00:04:19 
22.6000  18.1000  75  1014  2021-03-29 01:04:21 
22.1000  17.1000  75  1012  2021-03-29 02:04:19 
22.0000  16.6000  75  1012  2021-03-29 03:04:20 
21.6000  16.1000  74  1013  2021-03-29 04:04:18 
22.0000  16.1000  74  1013  2021-03-29 05:04:19 
21.6000  15.6000  74  1013  2021-03-29 06:04:21 
21.6000  15.6000  75  1012  2021-03-29 07:04:19 
21.2000  16.1000  75  1012  2021-03-29 08:04:21 
21.2000  18.6000  76  1014  2021-03-29 09:04:18 
22.0000  21.6000  102  1014  2021-03-29 10:04:20 
22.4000  23.8000  101  1014  2021-03-29 11:04:18 
22.5000  25.6000  101  1013  2021-03-29 12:04:20 
23.6000  28.3000  75  1013  2021-03-29 13:04:22 
24.1000  28.1000  102  1013  2021-03-29 14:04:19 
24.1000  27.6000  101  1013  2021-03-29 15:04:22 
24.4000  27.6000  101  1014  2021-03-29 16:04:19 
24.6000  26.6000  101  1012  2021-03-29 17:04:21 
24.4000  24.1000  100  1013  2021-03-29 18:04:19 
24.1000  23.1000  100  1013  2021-03-29 19:04:21 
23.8000  21.6000  77  1013  2021-03-29 20:04:18 
24.0000  20.1000  77  1014  2021-03-29 21:04:20 
24.0000  19.7000  77  1014  2021-03-29 22:04:18 
23.6000  18.2000  76  1015  2021-03-29 23:04:20 
23.1000  17.9000  75  1014  2021-03-30 00:04:22 
23.1000  16.8000  75  1013  2021-03-30 01:04:19 
22.6000  16.2000  74  1015  2021-03-30 02:04:21 
22.2000  15.6000  74  1015  2021-03-30 03:04:19 
22.2000  15.8000  74  1014  2021-03-30 04:04:20 
21.9000  14.2000  75  1014  2021-03-30 06:04:21 
21.6000  14.0000  74  1014  2021-03-30 07:04:18 
20.7000  15.0000  75  1016  2021-03-30 08:04:20 
21.2000  17.5000  101  1015  2021-03-30 09:04:22 
21.8000  19.5000  102  1015  2021-03-30 10:04:20 
22.1000  20.6000  102  1016  2021-03-30 11:04:21 
22.6000  21.6000  101  1016  2021-03-30 12:04:19 
22.6000  22.1000  77  1016  2021-03-30 13:04:21 
23.1000  23.6000  77  1015  2021-03-30 14:04:19 
23.1000  25.0000  100  1013  2021-03-30 15:04:21 
23.6000  25.1000  76  1014  2021-03-30 16:04:19 
23.7000  24.4000  76  1013  2021-03-30 17:04:21 
23.6000  22.7000  76  1015  2021-03-30 18:04:18 
23.6000  21.6000  76  1014  2021-03-30 19:04:20 
23.6000  20.6000  100  1015  2021-03-30 20:04:22 
23.6000  19.3000  100  1016  2021-03-30 21:04:20 
23.6000  19.1000  100  1016  2021-03-30 22:04:22 
23.5000  18.5000  77  1017  2021-03-30 23:04:19 
23.1000  17.6000  76  1017  2021-03-31 00:04:21 
22.6000  17.1000  75  1016  2021-03-31 01:04:19 
22.6000  17.1000  75  1016  2021-03-31 02:04:21 
22.2000  17.6000  75  1016  2021-03-31 03:04:19 
22.2000  18.1000  76  1015  2021-03-31 04:04:20 
22.3000  18.1000  76  1015  2021-03-31 05:04:22 
22.2000  18.6000  100  1015  2021-03-31 06:04:20 
22.1000  18.9000  101  1015  2021-03-31 07:04:22 
21.8000  18.6000  105  1016  2021-03-31 08:04:19 
21.6000  19.5000  107  1016  2021-03-31 09:04:22 
22.1000  20.1000  110  1017  2021-03-31 10:04:19 
21.6000  20.6000  110  1017  2021-03-31 11:04:21 
22.3000  20.8000  110  1017  2021-03-31 12:04:19 
22.6000  21.6000  106  1017  2021-03-31 13:04:21 
22.1000  21.4000  106  1017  2021-03-31 14:04:19 
22.4000  20.5000  104  1017  2021-03-31 15:04:22 
22.1000  20.3000  102  1017  2021-03-31 16:04:21 
22.4000  20.2000  102  1017  2021-03-31 17:04:19 
22.4000  19.8000  103  1017  2021-03-31 18:04:21 
22.7000  19.1000  103  1017  2021-03-31 19:04:19 
22.9000  18.6000  103  1018  2021-03-31 20:04:21 
22.6000  18.1000  103  1020  2021-03-31 21:04:20 
22.4000  17.6000  102  1020  2021-03-31 22:04:22 
22.1000  17.1000  102  1019  2021-03-31 23:04:20 
21.9000  16.6000  100  1019  2021-04-01 00:04:22 
21.6000  16.6000  100  1020  2021-04-01 01:04:20 
21.6000  16.1000  100  1020  2021-04-01 02:04:22 
21.1000  16.1000  100  1020  2021-04-01 03:04:19 
21.1000  16.1000  100  1020  2021-04-01 04:04:21 
20.5000  15.6000  100  1021  2021-04-01 07:04:23 
20.6000  16.8000  100  1021  2021-04-01 08:04:20 
20.7000  18.1000  100  1021  2021-04-01 09:04:22 
20.7000  18.6000  77  1021  2021-04-01 10:04:20 
21.0000  19.6000  75  1021  2021-04-01 11:04:22 
21.1000  20.5000  76  1020  2021-04-01 12:04:19 
21.1000  20.6000  75  1020  2021-04-01 13:04:21 
21.6000  21.1000  75  1020  2021-04-01 14:04:19 
21.6000  21.1000  74  1020  2021-04-01 15:04:21 
22.1000  20.9000  74  1019  2021-04-01 16:04:18 
22.1000  20.6000  75  1019  2021-04-01 17:04:20 
22.2000  19.1000  76  1020  2021-04-01 18:04:22 
22.1000  18.1000  77  1020  2021-04-01 19:04:20 
22.1000  17.8000  76  1020  2021-04-01 20:04:22 
22.1000  17.6000  76  1021  2021-04-01 21:04:20 
22.0000  17.1000  76  1019  2021-04-01 22:04:21 
21.6000  17.0000  76  1020  2021-04-01 23:04:19 
21.6000  17.0000  75  1020  2021-04-02 00:04:21 
21.6000  16.6000  76  1019  2021-04-02 01:04:19 
21.1000  16.6000  76  1019  2021-04-02 02:04:20 
20.8000  16.6000  76  1019  2021-04-02 03:04:22 
21.1000  16.9000  76  1019  2021-04-02 04:04:20 
21.1000  16.9000  77  1018  2021-04-02 05:04:21 
20.7000  16.6000  77  1019  2021-04-02 06:04:19 
20.7000  16.6000  77  1019  2021-04-02 07:04:21 
20.6000  16.7000  77  1020  2021-04-02 08:04:22 
21.0000  17.6000  101  1021  2021-04-02 09:04:20 
20.8000  19.1000  101  1021  2021-04-02 10:04:21 
21.1000  19.6000  101  1022  2021-04-02 11:04:19 
21.1000  20.1000  102  1021  2021-04-02 12:04:21 
21.6000  20.6000  103  1022  2021-04-02 13:04:18 
21.3000  21.6000  103  1020  2021-04-02 14:04:20 
21.9000  21.2000  103  1021  2021-04-02 15:04:22 
21.9000  20.6000  102  1021  2021-04-02 16:04:20 
22.1000  20.0000  102  1022  2021-04-02 17:04:22 
21.7000  18.8000  101  1022  2021-04-02 18:04:19 
22.1000  18.1000  101  1021  2021-04-02 19:04:21 
22.1000  17.7000  101  1021  2021-04-02 20:04:19 
22.5000  17.6000  101  1021  2021-04-02 21:04:21 
22.1000  17.1000  101  1021  2021-04-02 22:04:19 
22.1000  17.1000  101  1021  2021-04-02 23:04:21 
21.5000  17.0000  77  1020  2021-04-03 00:04:22 
21.3000  16.1000  76  1021  2021-04-03 01:04:20 
21.1000  15.1000  76  1020  2021-04-03 02:04:23 
20.6000  14.7000  76  1020  2021-04-03 03:04:19 
20.6000  14.5000  75  1019  2021-04-03 04:04:22 
19.6000  13.5000  75  1019  2021-04-03 07:04:23 
19.8000  14.1000  76  1020  2021-04-03 08:04:21 
20.0000  17.1000  76  1020  2021-04-03 09:04:22 
20.2000  19.4000  100  1020  2021-04-03 10:04:20 
20.7000  21.1000  77  1020  2021-04-03 11:04:22 
21.1000  22.6000  73  1021  2021-04-03 12:04:20 
23.1000  24.5000  70  1019  2021-04-03 13:04:21 
23.6000  25.7000  66  1019  2021-04-03 14:04:19 
23.1000  27.0000  67  1018  2021-04-03 15:04:21 
24.1000  27.3000  71  1018  2021-04-03 16:04:19 
24.6000  26.6000  73  1017  2021-04-03 17:04:21 
24.6000  24.6000  74  1018  2021-04-03 18:04:19 
24.2000  23.6000  76  1018  2021-04-03 19:04:21 
23.6000  21.6000  76  1019  2021-04-03 20:04:19 
23.5000  21.6000  77  1020  2021-04-03 21:04:21 
23.1000  21.0000  100  1019  2021-04-03 22:04:23 
23.1000  19.6000  100  1019  2021-04-03 23:04:21 
23.1000  19.1000  100  1019  2021-04-04 00:04:19 
22.7000  18.7000  77  1020  2021-04-04 01:04:21 
22.6000  18.6000  77  1019  2021-04-04 02:04:23 
22.6000  18.7000  77  1019  2021-04-04 03:04:20 
22.3000  19.0000  100  1018  2021-04-04 04:04:22 
22.4000  18.6000  100  1017  2021-04-04 05:04:20 
22.1000  18.1000  100  1017  2021-04-04 06:04:22 
22.1000  18.6000  100  1017  2021-04-04 07:04:19 
22.1000  19.4000  101  1017  2021-04-04 08:04:21 
22.4000  20.1000  102  1020  2021-04-04 09:04:19 
22.6000  21.4000  105  1020  2021-04-04 10:04:21 
22.6000  22.1000  107  1020  2021-04-04 11:04:23 
23.1000  22.6000  110  1020  2021-04-04 12:04:20 
23.4000  22.8000  112  1020  2021-04-04 13:04:22 
23.3000  22.6000  111  1020  2021-04-04 14:04:20 
23.6000  24.1000  113  1020  2021-04-04 15:04:22 
24.1000  23.1000  112  1019  2021-04-04 16:04:19 
23.7000  22.5000  111  1020  2021-04-04 17:04:21 
24.1000  21.5000  111  1020  2021-04-04 18:04:19 
24.1000  20.6000  111  1020  2021-04-04 19:04:21 
23.9000  20.6000  111  1021  2021-04-04 20:04:23 
23.9000  19.1000  111  1022  2021-04-04 21:04:20 
23.6000  18.6000  110  1022  2021-04-04 22:04:22 
23.2000  18.5000  107  1021  2021-04-04 23:04:20 
23.1000  18.1000  106  1020  2021-04-05 00:04:22 
22.7000  17.6000  106  1020  2021-04-05 01:04:19 
22.7000  17.6000  106  1020  2021-04-05 02:04:21 
22.5000  17.3000  105  1020  2021-04-05 03:04:23 
22.3000  17.1000  105  1020  2021-04-05 04:04:21 
22.1000  17.1000  105  1019  2021-04-05 05:04:22 
21.6000  17.2000  105  1021  2021-04-05 08:04:20 
21.8000  18.1000  106  1021  2021-04-05 09:04:22 
21.8000  18.1000  106  1021  2021-04-05 10:04:20 
21.8000  18.6000  106  1022  2021-04-05 11:04:23 
21.9000  18.1000  107  1021  2021-04-05 12:04:20 
22.1000  18.3000  106  1021  2021-04-05 13:04:22 
22.1000  18.1000  106  1021  2021-04-05 14:04:20 
22.1000  17.6000  106  1021  2021-04-05 15:04:22 
21.8000  17.6000  105  1021  2021-04-05 16:04:19 
21.8000  16.9000  105  1021  2021-04-05 17:04:21 
21.7000  16.2000  105  1021  2021-04-05 18:04:23 
21.6000  16.1000  105  1021  2021-04-05 19:04:20 
21.7000  16.1000  105  1022  2021-04-05 20:04:22 
21.6000  16.1000  104  1022  2021-04-05 21:04:20 
21.6000  15.7000  104  1022  2021-04-05 22:04:22 
21.6000  16.0000  104  1022  2021-04-05 23:04:20 
21.1000  15.6000  103  1021  2021-04-06 00:04:21 
20.6000  15.6000  102  1022  2021-04-06 01:04:19 
20.6000  15.1000  102  1020  2021-04-06 02:04:21 
20.3000  15.6000  102  1020  2021-04-06 03:04:23 
20.1000  16.6000  102  1020  2021-04-06 04:04:20 
20.1000  16.1000  102  1020  2021-04-06 05:04:22 
20.0000  16.1000  102  1020  2021-04-06 06:04:20 
19.6000  15.3000  102  1019  2021-04-06 07:04:22 
20.0000  16.1000  103  1020  2021-04-06 08:04:19 
20.0000  17.1000  103  1020  2021-04-06 09:04:21 
20.1000  18.2000  104  1020  2021-04-06 10:04:23 
20.6000  20.1000  105  1019  2021-04-06 11:04:21 
21.0000  22.1000  104  1019  2021-04-06 12:04:23 
21.1000  23.1000  104  1018  2021-04-06 13:04:20 
21.6000  23.9000  104  1017  2021-04-06 14:04:22 
22.1000  23.1000  103  1017  2021-04-06 15:04:20 
22.1000  22.5000  104  1017  2021-04-06 16:04:22 
22.4000  21.7000  104  1017  2021-04-06 17:04:20 
22.1000  20.6000  104  1017  2021-04-06 18:04:22 
22.1000  19.7000  104  1017  2021-04-06 19:04:20 
22.6000  18.8000  104  1018  2021-04-06 20:04:22 
22.6000  18.4000  104  1018  2021-04-06 21:04:20 
22.1000  17.6000  104  1018  2021-04-06 22:04:22 
22.1000  17.6000  103  1017  2021-04-06 23:04:19 
21.6000  17.1000  103  1018  2021-04-07 00:04:21 
21.6000  16.6000  103  1019  2021-04-07 01:04:19 
21.2000  16.6000  102  1019  2021-04-07 02:04:21 
21.5000  16.6000  102  1019  2021-04-07 03:04:23 
21.1000  16.6000  103  1018  2021-04-07 04:04:21 
21.1000  16.6000  103  1018  2021-04-07 05:04:23 
20.8000  18.1000  105  1019  2021-04-07 09:04:23 
21.0000  19.6000  105  1020  2021-04-07 10:04:20 
21.1000  20.6000  106  1020  2021-04-07 11:04:22 
21.5000  21.1000  106  1020  2021-04-07 12:04:20 
21.6000  20.7000  106  1020  2021-04-07 13:04:22 
21.8000  21.5000  107  1020  2021-04-07 14:04:19 
22.6000  21.5000  107  1020  2021-04-07 16:04:23 
22.3000  21.1000  107  1020  2021-04-07 17:04:21 
22.3000  20.1000  107  1022  2021-04-07 18:04:23 
22.6000  19.3000  110  1021  2021-04-07 19:04:21 
22.6000  19.1000  110  1021  2021-04-07 20:04:23 
22.3000  18.7000  107  1021  2021-04-07 21:04:21 
22.3000  19.0000  107  1022  2021-04-07 22:04:23 
21.7000  18.3000  106  1021  2021-04-07 23:04:21 
22.1000  18.1000  106  1020  2021-04-08 00:04:22 
21.6000  18.1000  106  1020  2021-04-08 01:04:20 
21.4000  18.1000  106  1019  2021-04-08 02:04:22 
21.6000  18.4000  105  1020  2021-04-08 03:04:20 
21.5000  17.6000  105  1020  2021-04-08 04:04:22 
21.2000  17.6000  105  1020  2021-04-08 05:04:23 
21.1000  17.1000  105  1021  2021-04-08 06:04:21 
21.1000  17.1000  105  1022  2021-04-08 07:04:23 
21.1000  17.6000  105  1022  2021-04-08 08:04:20 
21.1000  18.1000  106  1022  2021-04-08 09:04:22 
21.1000  18.6000  106  1021  2021-04-08 10:04:20 
21.4000  19.6000  107  1022  2021-04-08 11:04:22 
21.6000  20.6000  107  1022  2021-04-08 12:04:20 
21.6000  21.2000  107  1022  2021-04-08 13:04:22 
21.7000  21.7000  110  1021  2021-04-08 14:04:19 
22.1000  21.6000  107  1021  2021-04-08 15:04:21 
22.3000  21.6000  107  1022  2021-04-08 16:04:23 
22.6000  21.1000  107  1022  2021-04-08 17:04:21 
22.6000  19.8000  107  1021  2021-04-08 18:04:23 
22.4000  19.2000  107  1021  2021-04-08 19:04:21 
22.3000  18.6000  107  1021  2021-04-08 20:04:23 
22.4000  18.6000  107  1021  2021-04-08 21:04:21 
22.3000  18.6000  107  1021  2021-04-08 22:04:24 
22.1000  18.1000  106  1022  2021-04-08 23:04:22 
22.1000  17.8000  106  1022  2021-04-09 00:04:20 
21.6000  17.6000  106  1021  2021-04-09 01:04:22 
21.6000  17.6000  106  1020  2021-04-09 02:04:20 
21.5000  17.7000  105  1020  2021-04-09 03:04:21 
21.5000  17.6000  105  1019  2021-04-09 04:04:24 
21.3000  17.6000  105  1019  2021-04-09 05:04:21 
21.1000  19.6000  106  1022  2021-04-09 09:04:21 
21.4000  20.6000  107  1020  2021-04-09 10:04:22 
22.1000  21.6000  110  1021  2021-04-09 11:04:20 
22.3000  22.6000  111  1020  2021-04-09 12:04:22 
22.6000  23.4000  111  1018  2021-04-09 13:04:20 
23.1000  24.1000  111  1017  2021-04-09 14:04:22 
23.1000  23.6000  110  1017  2021-04-09 15:04:23 
22.9000  23.1000  110  1017  2021-04-09 16:04:21 
23.1000  22.6000  111  1017  2021-04-09 17:04:23 
22.8000  21.0000  111  1016  2021-04-09 18:04:21 
23.1000  20.1000  112  1017  2021-04-09 19:04:22 
23.1000  20.1000  112  1018  2021-04-09 20:04:20 
23.1000  19.8000  112  1018  2021-04-09 21:04:22 
23.1000  19.6000  112  1018  2021-04-09 22:04:20 
23.1000  19.1000  111  1017  2021-04-09 23:04:22 
22.7000  19.0000  111  1017  2021-04-10 00:04:20 
22.6000  18.4000  110  1017  2021-04-10 01:04:22 
22.5000  18.1000  110  1016  2021-04-10 02:04:25 
22.1000  18.1000  107  1016  2021-04-10 03:04:23 
21.7000  17.6000  107  1017  2021-04-10 04:04:20 
21.6000  17.5000  106  1016  2021-04-10 05:04:22 
21.6000  17.6000  106  1015  2021-04-10 06:04:20 
21.6000  17.1000  106  1016  2021-04-10 07:04:22 
21.6000  17.1000  107  1016  2021-04-10 08:04:20 
21.6000  18.6000  107  1017  2021-04-10 09:04:22 
21.6000  20.1000  110  1016  2021-04-10 10:04:24 
22.0000  21.6000  110  1016  2021-04-10 11:04:22 
22.1000  24.1000  111  1015  2021-04-10 12:04:23 
22.6000  22.9000  112  1015  2021-04-10 13:04:21 
22.6000  22.1000  112  1016  2021-04-10 14:04:23 
22.6000  22.1000  111  1015  2021-04-10 15:04:21 
22.2000  21.6000  112  1015  2021-04-10 16:04:23 
22.7000  20.6000  112  1016  2021-04-10 17:04:21 
22.6000  19.6000  111  1016  2021-04-10 18:04:23 
22.6000  18.6000  111  1016  2021-04-10 19:04:21 
22.6000  18.6000  111  1016  2021-04-10 20:04:22 
22.6000  18.1000  110  1016  2021-04-10 21:04:20 
22.3000  17.8000  107  1016  2021-04-10 22:04:23 
22.1000  17.1000  107  1016  2021-04-10 23:04:21 
22.1000  16.6000  106  1018  2021-04-11 00:04:23 
21.8000  16.6000  105  1018  2021-04-11 01:04:22 
21.6000  16.7000  105  1018  2021-04-11 02:04:23 
21.2000  16.1000  104  1017  2021-04-11 03:04:21 
21.1000  15.6000  104  1017  2021-04-11 04:04:23 
21.1000  15.6000  104  1016  2021-04-11 05:04:20 
21.1000  20.3000  110  1020  2021-04-11 10:04:22 
21.1000  21.1000  112  1019  2021-04-11 11:04:20 
21.6000  21.6000  113  1020  2021-04-11 12:04:22 
21.9000  22.6000  114  1019  2021-04-11 13:04:23 
22.0000  21.9000  114  1019  2021-04-11 14:04:21 
22.1000  22.2000  114  1019  2021-04-11 15:04:23 
22.6000  22.1000  115  1020  2021-04-11 16:04:21 
22.6000  21.7000  114  1020  2021-04-11 17:04:23 
22.6000  20.9000  114  1019  2021-04-11 18:04:21 
22.6000  20.6000  114  1020  2021-04-11 19:04:22 
22.8000  20.1000  114  1021  2021-04-11 20:04:20 
22.9000  19.6000  114  1021  2021-04-11 21:04:22 
22.6000  19.1000  114  1020  2021-04-11 22:04:24 
22.5000  18.6000  113  1020  2021-04-11 23:04:22 
22.1000  18.1000  112  1019  2021-04-12 00:04:23 
21.8000  17.1000  111  1020  2021-04-12 01:04:21 
21.6000  16.1000  110  1019  2021-04-12 02:04:23 
21.4000  16.6000  106  1018  2021-04-12 03:04:21 
21.1000  15.1000  106  1019  2021-04-12 04:04:23 
20.6000  15.2000  105  1020  2021-04-12 05:04:20 
20.6000  14.5000  104  1019  2021-04-12 06:04:22 
20.6000  13.5000  105  1020  2021-04-12 07:04:24 
19.6000  14.1000  103  1020  2021-04-12 08:04:22 
20.6000  16.6000  106  1021  2021-04-12 09:04:23 
20.6000  19.1000  106  1021  2021-04-12 10:04:21 
21.1000  21.1000  110  1022  2021-04-12 11:04:23 
21.2000  22.5000  110  1021  2021-04-12 12:04:21 
21.6000  22.1000  110  1020  2021-04-12 13:04:22 
21.6000  22.7000  110  1021  2021-04-12 14:04:20 
22.1000  23.1000  110  1021  2021-04-12 15:04:22 
22.3000  22.6000  111  1020  2021-04-12 16:04:24 
22.5000  21.4000  111  1020  2021-04-12 17:04:22 
22.6000  19.7000  111  1022  2021-04-12 18:04:24 
22.6000  19.5000  112  1022  2021-04-12 19:04:21 
22.6000  19.1000  112  1022  2021-04-12 20:04:23 
22.3000  17.9000  112  1021  2021-04-12 21:04:21 
22.4000  18.2000  111  1021  2021-04-12 22:04:23 
22.1000  17.8000  111  1021  2021-04-12 23:04:20 
22.1000  17.6000  111  1020  2021-04-13 00:04:22 
21.8000  17.1000  110  1021  2021-04-13 01:04:24 
21.6000  16.1000  107  1020  2021-04-13 02:04:22 
21.2000  16.1000  107  1019  2021-04-13 03:04:23 
20.9000  15.0000  106  1019  2021-04-13 04:04:21 
20.6000  14.0000  105  1018  2021-04-13 05:04:23 
21.1000  21.6000  111  1019  2021-04-13 11:04:23 
21.6000  25.3000  110  1018  2021-04-13 12:04:20 
22.3000  25.8000  111  1019  2021-04-13 13:04:22 
22.4000  23.6000  111  1018  2021-04-13 14:04:20 
22.6000  23.0000  113  1018  2021-04-13 15:04:22 
22.6000  22.9000  113  1019  2021-04-13 16:04:24 
22.1000  20.7000  112  1020  2021-04-13 17:04:22 
22.3000  19.6000  113  1019  2021-04-13 18:04:24 
22.4000  19.1000  113  1021  2021-04-13 19:04:22 
22.6000  19.1000  113  1021  2021-04-13 20:04:24 
22.5000  19.1000  113  1021  2021-04-13 21:04:21 
22.6000  18.6000  113  1021  2021-04-13 22:04:23 
22.4000  18.1000  112  1021  2021-04-13 23:04:21 
21.7000  17.4000  111  1020  2021-04-14 00:04:23 
21.9000  18.2000  111  1021  2021-04-14 02:04:22 
21.6000  18.1000  111  1020  2021-04-14 03:04:24 
21.6000  17.6000  111  1020  2021-04-14 04:04:22 
21.5000  17.1000  111  1020  2021-04-14 05:04:23 
21.1000  17.7000  110  1021  2021-04-14 07:04:23 
21.1000  19.1000  110  1021  2021-04-14 08:04:21 
21.1000  19.6000  111  1022  2021-04-14 09:04:23 
21.4000  20.6000  112  1021  2021-04-14 10:04:24 
21.5000  23.1000  111  1020  2021-04-14 11:04:22 
21.6000  22.6000  111  1020  2021-04-14 12:04:24 
21.6000  22.7000  111  1020  2021-04-14 13:04:21 
22.2000  23.2000  112  1019  2021-04-14 14:04:23 
22.4000  23.1000  113  1019  2021-04-14 15:04:21 
22.6000  22.5000  113  1019  2021-04-14 16:04:23 
22.6000  21.1000  112  1019  2021-04-14 17:04:20 
22.8000  20.6000  112  1020  2021-04-14 18:04:22 
22.6000  20.1000  112  1020  2021-04-14 19:04:24 
22.9000  19.3000  112  1021  2021-04-14 20:04:22 
22.6000  19.2000  112  1020  2021-04-14 21:04:24 
22.6000  19.4000  112  1019  2021-04-14 22:04:22 
22.5000  18.6000  112  1020  2021-04-14 23:04:24 
22.5000  18.6000  111  1019  2021-04-15 00:04:21 
21.9000  18.1000  111  1019  2021-04-15 01:04:23 
22.1000  18.1000  110  1018  2021-04-15 02:04:23 
21.6000  18.1000  110  1018  2021-04-15 03:04:22 
21.8000  18.6000  110  1017  2021-04-15 04:04:24 
21.6000  18.6000  110  1017  2021-04-15 05:04:23 
21.6000  19.1000  110  1018  2021-04-15 06:04:24 
21.6000  20.1000  112  1021  2021-04-15 11:04:22 
21.6000  21.1000  113  1022  2021-04-15 12:04:24 
22.1000  20.8000  113  1020  2021-04-15 13:04:21 
22.1000  20.6000  113  1021  2021-04-15 14:04:23 
22.2000  19.6000  113  1021  2021-04-15 15:04:21 
22.1000  19.6000  112  1021  2021-04-15 16:04:24 
22.1000  19.1000  111  1021  2021-04-15 17:04:21 
22.0000  18.1000  110  1021  2021-04-15 18:04:23 
22.1000  17.6000  110  1021  2021-04-15 19:04:25 
22.3000  17.1000  110  1022  2021-04-15 20:04:22 
22.2000  17.1000  110  1022  2021-04-15 21:04:24 
21.8000  16.7000  107  1022  2021-04-15 22:04:22 
22.1000  17.1000  107  1022  2021-04-15 23:04:24 
21.8000  17.1000  106  1021  2021-04-16 00:04:22 
21.4000  17.1000  106  1020  2021-04-16 01:04:24 
21.3000  16.4000  105  1021  2021-04-16 02:04:21 
21.2000  17.0000  105  1021  2021-04-16 03:04:23 
20.9000  16.1000  104  1020  2021-04-16 04:04:21 
20.6000  15.6000  104  1020  2021-04-16 05:04:23 
20.6000  16.2000  104  1020  2021-04-16 06:04:25 
20.5000  16.3000  103  1019  2021-04-16 07:04:22 
20.3000  16.6000  102  1019  2021-04-16 08:04:24 
20.6000  18.1000  103  1020  2021-04-16 09:04:22 
20.6000  21.1000  104  1019  2021-04-16 10:04:24 
21.1000  23.1000  105  1020  2021-04-16 11:04:21 
21.1000  25.4000  106  1018  2021-04-16 12:04:23 
21.5000  26.6000  106  1019  2021-04-16 13:04:21 
21.7000  24.6000  106  1018  2021-04-16 14:04:23 
22.2000  24.6000  105  1019  2021-04-16 15:04:25 
22.6000  24.1000  105  1019  2021-04-16 16:04:22 
22.6000  23.9000  105  1019  2021-04-16 17:04:24 
22.6000  21.6000  104  1019  2021-04-16 18:04:22 
22.6000  20.7000  104  1018  2021-04-16 19:04:24 
22.6000  20.0000  104  1019  2021-04-16 20:04:22 
22.1000  18.9000  104  1019  2021-04-16 21:04:24 
22.1000  17.6000  104  1019  2021-04-16 22:04:22 
22.1000  16.6000  103  1019  2021-04-16 23:04:24 
21.9000  16.1000  101  1018  2021-04-17 00:04:22 
21.6000  15.6000  100  1018  2021-04-17 01:04:24 
21.2000  14.5000  100  1018  2021-04-17 02:04:21 
21.1000  14.0000  100  1019  2021-04-17 03:04:24 
20.6000  13.3000  77  1018  2021-04-17 04:04:22 
20.1000  13.0000  77  1017  2021-04-17 05:04:23 
20.1000  12.7000  77  1017  2021-04-17 06:04:21 
19.6000  12.5000  77  1018  2021-04-17 07:04:23 
19.6000  12.8000  77  1018  2021-04-17 08:04:24 
19.9000  15.1000  100  1019  2021-04-17 09:04:22 
20.1000  17.6000  101  1020  2021-04-17 10:04:24 
20.2000  19.6000  102  1019  2021-04-17 11:04:21 
20.7000  22.6000  103  1019  2021-04-17 12:04:23 
21.1000  23.6000  104  1018  2021-04-17 13:04:25 
21.3000  23.1000  105  1018  2021-04-17 14:04:23 
21.6000  23.1000  105  1017  2021-04-17 15:04:25 
22.1000  22.1000  104  1017  2021-04-17 16:04:22 
22.1000  21.1000  101  1018  2021-04-17 17:04:24 
21.5000  19.2000  101  1017  2021-04-17 18:04:22 
21.4000  18.2000  102  1018  2021-04-17 19:04:24 
20.6000  16.6000  100  1017  2021-04-17 20:04:21 
20.0000  16.1000  100  1018  2021-04-17 21:04:23 
20.9000  15.6000  102  1017  2021-04-17 22:04:21 
20.6000  14.5000  100  1017  2021-04-17 23:04:23 
20.1000  14.0000  100  1016  2021-04-18 00:04:25 
20.1000  13.7000  77  1016  2021-04-18 01:04:22 
19.6000  13.5000  77  1016  2021-04-18 02:04:24 
19.6000  13.0000  77  1016  2021-04-18 03:04:21 
19.4000  12.5000  76  1015  2021-04-18 04:04:23 
19.1000  12.1000  76  1014  2021-04-18 05:04:25 
18.7000  12.1000  76  1014  2021-04-18 06:04:23 
18.6000  12.3000  76  1015  2021-04-18 07:04:24 
18.6000  12.8000  76  1015  2021-04-18 08:04:22 
19.1000  16.1000  76  1015  2021-04-18 09:04:24 
19.5000  21.5000  100  1015  2021-04-18 10:04:21 
19.9000  25.0000  102  1013  2021-04-18 11:04:23 
20.1000  28.6000  104  1013  2021-04-18 12:04:25 
20.6000  29.1000  76  1012  2021-04-18 13:04:22 
21.2000  29.1000  73  1013  2021-04-18 14:04:24 
22.9000  29.7000  67  1012  2021-04-18 15:04:22 
22.6000  29.7000  72  1012  2021-04-18 16:04:24 
23.1000  29.6000  73  1015  2021-04-18 17:04:21 
23.1000  25.1000  72  1014  2021-04-18 18:04:23 
23.6000  24.1000  77  1015  2021-04-18 19:04:25 
23.5000  22.1000  101  1017  2021-04-18 20:04:23 
23.6000  21.5000  101  1017  2021-04-18 21:04:25 
23.5000  20.9000  101  1019  2021-04-18 22:04:23 
23.4000  21.1000  102  1020  2021-04-18 23:04:25 
23.2000  21.1000  102  1021  2021-04-19 00:04:23 
23.1000  21.1000  103  1021  2021-04-19 01:04:25 
23.0000  20.5000  104  1021  2021-04-19 02:04:22 
22.6000  19.1000  105  1021  2021-04-19 04:04:23 
22.6000  18.1000  105  1022  2021-04-19 05:04:25 
22.2000  17.6000  104  1022  2021-04-19 06:04:23 
22.1000  17.1000  104  1023  2021-04-19 07:04:25 
22.1000  16.6000  104  1024  2021-04-19 08:04:23 
22.1000  16.9000  103  1024  2021-04-19 09:04:24 
22.2000  18.1000  103  1025  2021-04-19 10:04:22 
22.1000  19.6000  103  1025  2021-04-19 11:04:24 
22.3000  19.6000  103  1025  2021-04-19 12:04:22 
22.6000  20.6000  102  1023  2021-04-19 13:04:24 
22.4000  21.1000  102  1023  2021-04-19 14:04:22 
22.6000  21.0000  101  1022  2021-04-19 15:04:24 
22.7000  20.6000  101  1022  2021-04-19 16:04:22 
22.8000  19.6000  101  1022  2021-04-19 17:04:23 
22.5000  18.6000  100  1021  2021-04-19 18:04:25 
22.6000  17.6000  100  1021  2021-04-19 19:04:23 
22.6000  17.6000  100  1021  2021-04-19 20:04:25 
22.4000  17.1000  100  1020  2021-04-19 21:04:23 
22.3000  17.1000  100  1021  2021-04-19 22:04:24 
21.7000  16.6000  100  1022  2021-04-19 23:04:22 
21.6000  16.6000  100  1020  2021-04-20 00:04:24 
21.6000  16.6000  77  1020  2021-04-20 01:04:22 
21.1000  16.1000  77  1020  2021-04-20 02:04:24 
21.1000  16.0000  77  1020  2021-04-20 03:04:26 
20.9000  15.6000  77  1019  2021-04-20 04:04:24 
20.6000  15.1000  77  1017  2021-04-20 05:04:21 
20.1000  14.2000  77  1018  2021-04-20 06:04:23 
19.8000  13.5000  77  1018  2021-04-20 07:04:25 
20.0000  13.6000  77  1018  2021-04-20 08:04:23 
20.2000  16.1000  100  1019  2021-04-20 09:04:24 
20.2000  18.6000  101  1019  2021-04-20 10:04:22 
20.6000  20.1000  102  1018  2021-04-20 11:04:24 
20.8000  21.6000  103  1018  2021-04-20 12:04:21 
21.1000  22.1000  103  1018  2021-04-20 13:04:23 
21.6000  22.6000  103  1016  2021-04-20 14:04:25 
21.8000  22.1000  104  1016  2021-04-20 15:04:23 
22.1000  21.5000  104  1017  2021-04-20 16:04:25 
21.7000  20.6000  102  1016  2021-04-20 17:04:23 
22.6000  19.5000  103  1016  2021-04-20 18:04:25 
22.1000  18.6000  103  1016  2021-04-20 19:04:23 
21.6000  17.9000  102  1017  2021-04-20 20:04:24 
21.8000  17.0000  102  1017  2021-04-20 21:04:22 
21.9000  16.3000  103  1017  2021-04-20 22:04:24 
21.3000  16.1000  102  1017  2021-04-20 23:04:22 
21.1000  15.1000  101  1016  2021-04-21 00:04:24 
20.8000  14.5000  101  1016  2021-04-21 01:04:21 
20.6000  14.1000  100  1016  2021-04-21 02:04:23 
20.1000  13.8000  100  1014  2021-04-21 04:04:24 
20.1000  13.5000  77  1014  2021-04-21 05:04:25 
19.9000  13.5000  100  1015  2021-04-21 06:04:23 
19.6000  13.1000  77  1016  2021-04-21 07:04:25 
18.2000  13.5000  101  1018  2021-04-21 08:04:23 
19.1000  15.1000  104  1016  2021-04-21 09:04:24 
19.6000  17.1000  105  1018  2021-04-21 10:04:22 
20.1000  19.1000  106  1018  2021-04-21 11:04:24 
20.6000  20.1000  107  1016  2021-04-21 12:04:25 
20.8000  21.1000  110  1017  2021-04-21 13:04:24 
21.1000  21.6000  110  1016  2021-04-21 14:04:22 
21.2000  20.6000  111  1015  2021-04-21 15:04:24 
21.6000  20.6000  111  1016  2021-04-21 16:04:25 
21.9000  19.6000  111  1015  2021-04-21 17:04:23 
21.4000  18.7000  111  1016  2021-04-21 18:04:25 
21.6000  18.7000  111  1016  2021-04-21 19:04:22 
21.6000  18.1000  110  1016  2021-04-21 20:04:24 
21.6000  17.6000  110  1016  2021-04-21 21:04:22 
21.6000  17.1000  107  1016  2021-04-21 22:04:24 
21.2000  16.6000  106  1017  2021-04-21 23:04:26 
21.1000  16.6000  106  1016  2021-04-22 00:04:23 
20.8000  15.6000  105  1016  2021-04-22 01:04:25 
20.6000  15.1000  105  1016  2021-04-22 02:04:23 
20.6000  16.5000  105  1015  2021-04-22 03:04:27 
20.5000  16.6000  105  1015  2021-04-22 04:04:36 
20.1000  16.5000  104  1015  2021-04-22 05:04:24 
20.1000  16.1000  104  1014  2021-04-22 06:04:22 
20.1000  15.6000  104  1015  2021-04-22 07:04:24 
20.1000  15.6000  104  1016  2021-04-22 08:04:26 
20.0000  16.8000  105  1016  2021-04-22 09:04:23 
20.3000  18.6000  107  1016  2021-04-22 10:04:25 
20.6000  21.1000  110  1016  2021-04-22 11:04:23 
21.1000  22.9000  111  1016  2021-04-22 12:04:24 
21.6000  24.3000  112  1014  2021-04-22 13:04:22 
21.7000  25.6000  112  1015  2021-04-22 14:04:24 
22.4000  25.3000  110  1013  2021-04-22 15:04:22 
22.5000  25.1000  110  1014  2021-04-22 16:04:24 
22.6000  24.6000  110  1014  2021-04-22 17:04:26 
22.3000  22.2000  106  1015  2021-04-22 18:04:24 
22.4000  20.6000  106  1014  2021-04-22 19:04:25 
22.4000  18.6000  106  1015  2021-04-22 20:04:23 
22.5000  17.1000  105  1015  2021-04-22 21:04:25 
22.1000  15.6000  104  1016  2021-04-22 22:04:23 
21.6000  14.5000  103  1017  2021-04-22 23:04:26 
21.5000  15.1000  102  1017  2021-04-23 00:04:23 
21.1000  14.5000  100  1016  2021-04-23 01:04:24 
21.0000  13.7000  101  1016  2021-04-23 02:04:22 
20.6000  13.4000  101  1016  2021-04-23 03:04:24 
20.1000  13.5000  101  1016  2021-04-23 04:04:26 
20.1000  13.7000  101  1016  2021-04-23 05:04:23 
20.1000  13.5000  101  1015  2021-04-23 06:04:25 
20.1000  13.4000  101  1016  2021-04-23 07:04:23 
19.4000  13.0000  102  1016  2021-04-23 08:04:24 
19.6000  14.2000  103  1017  2021-04-23 09:04:22 
20.1000  16.1000  104  1017  2021-04-23 10:04:24 
20.2000  18.6000  105  1018  2021-04-23 11:04:26 
20.6000  20.1000  105  1016  2021-04-23 12:04:23 
21.1000  21.7000  103  1016  2021-04-23 13:04:25 
21.7000  23.1000  102  1016  2021-04-23 14:04:24 
22.0000  22.6000  103  1016  2021-04-23 15:04:26 
22.0000  22.6000  104  1016  2021-04-23 16:04:24 
22.1000  21.7000  103  1016  2021-04-23 17:04:26 
21.5000  20.6000  103  1017  2021-04-23 18:04:24 
21.1000  19.1000  103  1017  2021-04-23 19:04:26 
20.9000  18.1000  104  1018  2021-04-23 20:04:24 
21.1000  16.7000  103  1018  2021-04-23 21:04:26 
20.6000  15.6000  101  1017  2021-04-23 22:04:24 
20.1000  14.9000  100  1017  2021-04-23 23:04:26 
19.8000  14.5000  100  1017  2021-04-24 00:04:23 
19.3000  14.2000  100  1017  2021-04-24 01:04:25 
19.1000  14.3000  100  1016  2021-04-24 02:04:23 
19.1000  14.4000  101  1016  2021-04-24 03:04:24 
19.2000  14.5000  102  1016  2021-04-24 04:04:26 
19.2000  14.8000  102  1016  2021-04-24 05:04:24 
19.1000  14.5000  102  1015  2021-04-24 06:04:25 
18.6000  14.5000  102  1015  2021-04-24 07:04:23 
19.1000  16.1000  103  1015  2021-04-24 08:04:25 
19.1000  18.1000  104  1015  2021-04-24 09:04:23 
19.4000  18.2000  105  1015  2021-04-24 10:04:24 
19.7000  19.1000  105  1016  2021-04-24 11:04:26 
20.2000  19.6000  104  1015  2021-04-24 12:04:23 
20.1000  19.7000  105  1014  2021-04-24 13:04:25 
20.5000  20.2000  106  1014  2021-04-24 14:04:23 
20.6000  20.1000  105  1014  2021-04-24 15:04:24 
20.4000  18.6000  105  1013  2021-04-24 16:04:26 
20.6000  18.1000  106  1013  2021-04-24 17:04:24 
20.8000  17.6000  106  1014  2021-04-24 18:04:25 
21.1000  17.4000  105  1013  2021-04-24 19:04:23 
21.0000  17.1000  105  1014  2021-04-24 20:04:25 
20.9000  17.1000  105  1013  2021-04-24 21:04:23 
21.1000  16.6000  105  1014  2021-04-24 22:04:24 
20.6000  16.1000  104  1013  2021-04-24 23:04:23 
20.6000  16.1000  104  1012  2021-04-25 00:04:24 
20.3000  15.6000  103  1012  2021-04-25 01:04:26 
20.1000  15.6000  103  1011  2021-04-25 02:04:24 
20.1000  15.6000  103  1010  2021-04-25 03:04:25 
19.9000  15.4000  103  1011  2021-04-25 04:04:23 
19.7000  15.6000  103  1010  2021-04-25 05:04:25 
19.6000  15.6000  103  1011  2021-04-25 06:04:23 
19.6000  15.1000  103  1011  2021-04-25 07:04:24 
19.3000  15.1000  103  1012  2021-04-25 08:04:26 
19.6000  16.1000  104  1012  2021-04-25 09:04:24 
19.6000  17.6000  106  1012  2021-04-25 10:04:25 
20.1000  20.5000  106  1012  2021-04-25 11:04:23 
20.3000  21.8000  107  1013  2021-04-25 12:04:25 
20.4000  21.6000  105  1012  2021-04-25 13:04:22 
20.6000  22.6000  104  1012  2021-04-25 15:04:27 
21.1000  22.6000  104  1012  2021-04-25 16:04:25 
21.1000  22.1000  105  1012  2021-04-25 17:04:22 
21.1000  21.1000  105  1012  2021-04-25 18:04:24 
21.6000  20.6000  105  1013  2021-04-25 19:04:26 
21.5000  20.1000  107  1013  2021-04-25 20:04:24 
21.6000  19.6000  107  1013  2021-04-25 21:04:26 
21.6000  19.1000  107  1014  2021-04-25 22:04:23 
21.1000  18.5000  106  1014  2021-04-25 23:04:25 
21.1000  17.1000  106  1014  2021-04-26 00:04:23 
20.7000  16.1000  105  1013  2021-04-26 01:04:25 
20.5000  16.1000  104  1014  2021-04-26 02:04:26 
20.5000  16.1000  104  1013  2021-04-26 03:04:25 
20.1000  16.1000  104  1012  2021-04-26 04:04:23 
20.1000  15.8000  105  1011  2021-04-26 05:04:25 
20.1000  16.2000  105  1012  2021-04-26 06:04:22 
20.1000  16.1000  105  1012  2021-04-26 07:04:24 
19.9000  16.6000  105  1012  2021-04-26 08:04:26 
20.1000  17.1000  106  1013  2021-04-26 09:04:24 
20.1000  18.2000  107  1013  2021-04-26 10:04:25 
20.6000  19.1000  110  1013  2021-04-26 11:04:23 
20.6000  19.1000  107  1013  2021-04-26 12:04:25 
20.6000  19.6000  107  1013  2021-04-26 13:04:26 
20.6000  20.0000  107  1011  2021-04-26 14:04:24 
20.6000  21.0000  107  1011  2021-04-26 15:04:26 
21.1000  22.1000  110  1010  2021-04-26 16:04:24 
21.5000  22.1000  107  1010  2021-04-26 17:04:25 
21.4000  20.6000  107  1012  2021-04-26 18:04:23 
21.1000  20.1000  106  1012  2021-04-26 19:04:25 
21.4000  19.6000  106  1011  2021-04-26 20:04:23 
21.3000  19.1000  106  1012  2021-04-26 21:04:25 
21.3000  18.6000  106  1011  2021-04-26 22:04:22 
21.2000  18.1000  107  1012  2021-04-26 23:04:25 
21.1000  17.6000  107  1010  2021-04-27 00:04:23 
21.0000  17.6000  107  1010  2021-04-27 01:04:25 
21.0000  17.5000  107  1010  2021-04-27 02:04:23 
20.9000  17.1000  110  1010  2021-04-27 03:04:25 
20.6000  16.6000  107  1011  2021-04-27 04:04:23 
20.6000  16.6000  107  1011  2021-04-27 05:04:25 
20.6000  16.5000  107  1012  2021-04-27 06:04:23 
20.2000  15.6000  107  1014  2021-04-27 07:04:26 
20.1000  16.1000  107  1015  2021-04-27 08:04:24 
20.1000  16.6000  110  1016  2021-04-27 09:04:26 
20.4000  17.6000  111  1017  2021-04-27 10:04:24 
20.6000  18.6000  113  1017  2021-04-27 11:04:26 
20.7000  19.9000  113  1016  2021-04-27 12:04:24 
21.1000  20.6000  113  1016  2021-04-27 13:04:26 
21.5000  19.2000  112  1016  2021-04-27 15:04:27 
21.1000  19.1000  111  1017  2021-04-27 16:04:25 
21.1000  18.2000  112  1017  2021-04-27 17:04:23 
21.6000  17.6000  111  1017  2021-04-27 18:04:25 
21.2000  17.1000  111  1016  2021-04-27 19:04:23 
21.4000  17.0000  111  1018  2021-04-27 20:04:25 
21.2000  16.4000  110  1018  2021-04-27 21:04:23 
20.9000  16.1000  107  1017  2021-04-27 22:04:25 
20.6000  15.7000  107  1018  2021-04-27 23:04:23 
20.3000  14.9000  106  1018  2021-04-28 00:04:25 
20.1000  14.5000  106  1016  2021-04-28 01:04:23 
19.9000  13.5000  105  1016  2021-04-28 02:04:25 
19.6000  13.4000  105  1015  2021-04-28 03:04:26 
19.4000  13.0000  104  1015  2021-04-28 04:04:24 
19.1000  12.5000  104  1015  2021-04-28 05:04:26 
19.0000  12.4000  104  1016  2021-04-28 06:04:23 
18.6000  13.0000  104  1016  2021-04-28 07:04:25 
18.6000  14.0000  104  1017  2021-04-28 08:04:23 
19.1000  16.0000  105  1017  2021-04-28 09:04:24 
19.2000  16.8000  107  1017  2021-04-28 10:04:26 
19.1000  17.1000  106  1016  2021-04-28 11:04:24 
19.5000  17.6000  105  1016  2021-04-28 12:04:25 
19.6000  19.0000  105  1017  2021-04-28 13:04:23 
19.6000  18.6000  104  1017  2021-04-28 14:04:25 
19.6000  18.1000  104  1017  2021-04-28 15:04:23 
19.6000  18.1000  103  1018  2021-04-28 16:04:25 
19.5000  17.1000  102  1017  2021-04-28 17:04:27 
19.6000  16.1000  102  1017  2021-04-28 18:04:24 
19.7000  16.1000  105  1019  2021-04-28 19:04:26 
19.9000  15.6000  104  1019  2021-04-28 20:04:24 
19.8000  15.1000  104  1019  2021-04-28 21:04:25 
19.6000  14.3000  103  1019  2021-04-28 22:04:23 
19.1000  14.0000  102  1019  2021-04-28 23:04:25 
19.1000  14.5000  102  1019  2021-04-29 00:04:26 
19.0000  13.5000  101  1019  2021-04-29 01:04:24 
18.6000  13.5000  101  1019  2021-04-29 02:04:26 
18.6000  13.5000  101  1019  2021-04-29 03:04:24 
18.1000  13.7000  102  1020  2021-04-29 04:04:25 
18.1000  14.0000  102  1019  2021-04-29 05:04:23 
18.1000  14.0000  102  1020  2021-04-29 06:04:25 
18.1000  14.0000  103  1020  2021-04-29 07:04:27 
18.2000  14.0000  105  1022  2021-04-29 08:04:25 
18.1000  14.7000  105  1022  2021-04-29 09:04:27 
18.4000  15.6000  105  1023  2021-04-29 10:04:24 
18.5000  16.5000  104  1023  2021-04-29 11:04:26 
18.6000  17.3000  103  1023  2021-04-29 12:04:24 
18.8000  18.2000  102  1023  2021-04-29 13:04:25 
19.1000  17.7000  103  1022  2021-04-29 16:04:24 
19.1000  17.1000  102  1022  2021-04-29 17:04:26 
19.3000  16.1000  101  1023  2021-04-29 18:04:24 
19.4000  15.2000  103  1023  2021-04-29 19:04:26 
19.1000  15.1000  103  1024  2021-04-29 20:04:23 
19.4000  14.5000  102  1024  2021-04-29 21:04:25 
19.2000  14.5000  102  1023  2021-04-29 22:04:23 
19.1000  14.0000  101  1025  2021-04-29 23:04:25 
18.6000  14.0000  101  1025  2021-04-30 00:04:27 
18.6000  14.0000  100  1024  2021-04-30 01:04:24 
18.6000  15.0000  100  1024  2021-04-30 02:04:32 
18.5000  14.5000  100  1025  2021-04-30 03:04:24 
18.4000  15.1000  100  1025  2021-04-30 04:04:26 
18.2000  15.1000  100  1024  2021-04-30 05:04:23 
18.1000  14.5000  100  1025  2021-04-30 06:04:27 
18.0000  13.7000  101  1025  2021-04-30 07:04:27 
18.1000  14.0000  102  1024  2021-04-30 08:04:24 
18.9000  15.6000  102  1025  2021-04-30 09:04:26 
18.6000  16.9000  102  1025  2021-04-30 10:04:24 
19.1000  18.1000  102  1026  2021-04-30 11:04:25 
19.2000  18.3000  103  1025  2021-04-30 12:04:27 
19.4000  18.6000  100  1025  2021-04-30 13:04:25 
19.6000  18.9000  77  1024  2021-04-30 14:04:26 
20.1000  18.8000  77  1025  2021-04-30 15:04:24 
20.1000  18.5000  76  1024  2021-04-30 16:04:26 
20.1000  17.6000  75  1024  2021-04-30 17:04:23 
19.9000  16.6000  75  1025  2021-04-30 18:04:25 
20.1000  16.1000  76  1025  2021-04-30 19:04:27 
21.7000  15.5000  76  1025  2021-04-30 20:04:25 
22.1000  14.8000  76  1026  2021-04-30 21:04:27 
21.6000  14.3000  76  1026  2021-04-30 22:04:24 
20.1000  14.5000  76  1026  2021-04-30 23:04:26 
19.6000  14.5000  76  1025  2021-05-01 00:04:24 
19.1000  14.4000  76  1025  2021-05-01 01:04:25 
19.1000  14.2000  76  1025  2021-05-01 02:04:23 
18.6000  14.5000  76  1024  2021-05-01 03:04:25 
18.6000  14.5000  76  1025  2021-05-01 04:04:27 
18.4000  14.5000  76  1024  2021-05-01 05:04:24 
18.1000  14.0000  76  1025  2021-05-01 06:04:26 
18.1000  14.0000  76  1025  2021-05-01 07:04:24 
18.1000  14.4000  76  1024  2021-05-01 08:04:25 
18.1000  15.1000  76  1025  2021-05-01 09:04:27 
18.4000  16.4000  77  1025  2021-05-01 10:04:25 
18.6000  16.8000  100  1025  2021-05-01 11:04:26 
19.1000  18.1000  101  1025  2021-05-01 12:04:24 
19.1000  18.6000  101  1024  2021-05-01 13:04:26 
20.2000  17.6000  102  1023  2021-05-01 17:04:26 
21.1000  16.6000  102  1024  2021-05-01 18:04:24 
21.1000  16.1000  103  1024  2021-05-01 19:04:26 
22.6000  15.6000  104  1023  2021-05-01 20:04:23 
22.6000  14.8000  103  1023  2021-05-01 21:04:25 
20.9000  14.5000  102  1023  2021-05-01 22:04:28 
20.1000  13.2000  101  1023  2021-05-01 23:04:25 
19.5000  13.0000  101  1022  2021-05-02 00:04:27 
19.0000  12.0000  100  1022  2021-05-02 01:04:24 
18.6000  11.5000  77  1022  2021-05-02 02:04:26 
18.1000  11.4000  77  1022  2021-05-02 03:04:24 
17.8000  11.0000  77  1021  2021-05-02 04:04:25 
17.6000  10.5000  77  1020  2021-05-02 05:04:27 
17.4000  10.0000  76  1021  2021-05-02 06:04:25 
17.4000  9.5000  77  1021  2021-05-02 07:04:26 
17.4000  9.9000  77  1021  2021-05-02 08:04:24 
17.6000  12.5000  101  1021  2021-05-02 09:04:25 
18.1000  15.6000  103  1021  2021-05-02 10:04:27 
18.6000  19.1000  103  1020  2021-05-02 11:04:25 
19.5000  21.6000  104  1020  2021-05-02 12:04:27 
19.6000  23.1000  105  1020  2021-05-02 13:04:24 
20.1000  23.6000  105  1019  2021-05-02 14:04:26 
20.4000  24.1000  104  1020  2021-05-02 15:04:25 
20.6000  24.0000  103  1019  2021-05-02 16:04:27 
21.1000  23.1000  100  1019  2021-05-02 17:04:25 
21.0000  21.1000  76  1020  2021-05-02 18:04:27 
20.6000  19.1000  101  1020  2021-05-02 19:04:24 
21.1000  18.1000  103  1020  2021-05-02 20:04:26 
20.9000  16.1000  101  1019  2021-05-02 21:04:24 
20.3000  15.6000  100  1018  2021-05-02 22:04:26 
20.0000  15.6000  77  1018  2021-05-02 23:04:27 
19.6000  15.1000  76  1017  2021-05-03 00:04:25 
19.4000  14.0000  75  1016  2021-05-03 01:04:27 
19.1000  13.5000  75  1016  2021-05-03 02:04:25 
18.9000  13.5000  74  1016  2021-05-03 03:04:27 
18.8000  13.0000  73  1016  2021-05-03 04:04:25 
18.5000  12.5000  73  1015  2021-05-03 05:04:27 
18.4000  12.5000  73  1014  2021-05-03 06:04:24 
18.1000  12.0000  73  1015  2021-05-03 07:04:26 
18.1000  12.5000  73  1016  2021-05-03 08:04:28 
18.2000  15.1000  75  1015  2021-05-03 09:04:25 
18.6000  20.1000  100  1016  2021-05-03 10:04:27 
19.6000  23.1000  77  1014  2021-05-03 11:04:25 
21.6000  24.0000  64  1015  2021-05-03 12:04:26 
20.9000  26.6000  71  1013  2021-05-03 13:04:24 
21.1000  27.1000  73  1014  2021-05-03 14:04:25 
22.1000  26.1000  76  1014  2021-05-03 17:04:28 
22.5000  24.6000  77  1014  2021-05-03 18:04:25 
22.6000  24.1000  76  1014  2021-05-03 19:04:27 
22.6000  23.3000  76  1016  2021-05-03 20:04:25 
22.1000  22.1000  76  1016  2021-05-03 21:04:27 
21.9000  21.7000  76  1016  2021-05-03 22:04:24 
21.8000  20.6000  76  1016  2021-05-03 23:04:26 
22.1000  20.2000  76  1015  2021-05-04 00:04:24 
21.6000  19.4000  76  1016  2021-05-04 01:04:26 
21.6000  18.4000  76  1015  2021-05-04 02:04:28 
21.1000  18.1000  76  1014  2021-05-04 03:04:25 
21.1000  16.6000  75  1014  2021-05-04 04:04:27 
20.6000  16.1000  74  1013  2021-05-04 05:04:24 
20.6000  16.1000  74  1014  2021-05-04 07:04:24 
20.3000  15.8000  75  1016  2021-05-04 08:04:25 
20.1000  16.6000  76  1015  2021-05-04 09:04:27 
20.6000  18.6000  77  1015  2021-05-04 10:04:25 
21.1000  21.6000  100  1015  2021-05-04 11:04:26 
21.7000  22.9000  102  1015  2021-05-04 12:04:24 
22.1000  23.2000  101  1015  2021-05-04 13:04:26 
22.6000  24.2000  101  1013  2021-05-04 14:04:24 
22.7000  23.7000  101  1013  2021-05-04 15:04:26 
22.9000  22.6000  77  1014  2021-05-04 16:04:24 
23.1000  20.9000  103  1012  2021-05-04 17:04:26 
23.2000  20.1000  105  1013  2021-05-04 18:04:28 
23.0000  19.1000  105  1012  2021-05-04 19:04:26 
22.6000  18.1000  106  1013  2021-05-04 20:04:27 
22.6000  18.1000  105  1013  2021-05-04 21:04:25 
22.1000  18.1000  105  1013  2021-05-04 22:04:27 
21.6000  17.8000  104  1014  2021-05-04 23:04:27 
21.6000  17.1000  104  1014  2021-05-05 00:04:27 
21.5000  16.1000  103  1013  2021-05-05 01:04:24 
21.1000  16.6000  103  1014  2021-05-05 02:04:30 
21.1000  16.1000  103  1013  2021-05-05 03:04:24 
20.7000  15.8000  103  1013  2021-05-05 04:04:26 
20.6000  15.1000  103  1014  2021-05-05 05:04:28 
20.6000  15.6000  103  1015  2021-05-05 06:04:26 
20.2000  14.5000  103  1017  2021-05-05 07:04:27 
19.6000  15.1000  104  1015  2021-05-05 08:04:25 
19.6000  15.9000  105  1017  2021-05-05 09:04:27 
24.6000  16.1000  105  1018  2021-05-05 10:04:25 
25.1000  17.1000  106  1017  2021-05-05 11:04:26 
24.6000  17.6000  106  1017  2021-05-05 12:04:24 
22.6000  17.5000  110  1017  2021-05-05 13:04:26 
22.1000  17.1000  107  1016  2021-05-05 14:04:28 
21.3000  15.9000  107  1018  2021-05-05 18:04:28 
21.1000  15.8000  107  1018  2021-05-05 19:04:26 
21.0000  15.9000  106  1020  2021-05-05 20:04:28 
20.8000  14.5000  106  1020  2021-05-05 21:04:26 
20.6000  13.7000  107  1021  2021-05-05 22:04:28 
20.1000  14.0000  106  1021  2021-05-05 23:04:26 
19.6000  13.5000  106  1022  2021-05-06 00:04:28 
19.6000  13.5000  106  1021  2021-05-06 01:04:26 
19.4000  13.5000  106  1021  2021-05-06 02:04:27 
19.1000  13.5000  106  1021  2021-05-06 03:04:25 
19.1000  13.5000  105  1021  2021-05-06 04:04:27 
18.9000  13.5000  106  1022  2021-05-06 05:04:24 
19.1000  13.5000  105  1021  2021-05-06 06:04:26 
18.6000  13.8000  106  1021  2021-05-06 07:04:28 
18.6000  14.0000  106  1021  2021-05-06 08:04:25 
18.6000  14.4000  106  1022  2021-05-06 09:04:27 
18.6000  14.7000  110  1022  2021-05-06 10:04:25 
19.1000  15.1000  112  1022  2021-05-06 11:04:27 
19.5000  16.1000  112  1022  2021-05-06 12:04:25 
19.2000  15.1000  112  1021  2021-05-06 13:04:26 
19.1000  15.6000  112  1021  2021-05-06 14:04:24 
19.1000  15.1000  112  1021  2021-05-06 15:04:26 
19.1000  14.5000  113  1021  2021-05-06 16:04:28 
19.6000  14.5000  112  1020  2021-05-06 17:04:26 
19.1000  14.5000  112  1021  2021-05-06 18:04:28 
19.1000  14.5000  112  1021  2021-05-06 19:04:26 
19.1000  14.8000  112  1020  2021-05-06 20:04:24 
19.1000  14.5000  112  1021  2021-05-06 21:04:26 
18.7000  14.9000  111  1021  2021-05-06 22:04:25 
18.6000  15.1000  111  1022  2021-05-06 23:04:27 
18.6000  15.6000  111  1021  2021-05-07 00:04:25 
18.6000  15.6000  111  1021  2021-05-07 01:04:27 
18.6000  15.6000  112  1021  2021-05-07 02:04:25 
18.6000  15.6000  112  1021  2021-05-07 03:04:26 
18.3000  15.6000  112  1020  2021-05-07 04:04:28 
18.2000  15.5000  112  1021  2021-05-07 05:04:26 
18.4000  15.6000  112  1021  2021-05-07 06:04:28 
18.1000  15.6000  112  1021  2021-05-07 07:04:25 
18.2000  15.7000  112  1021  2021-05-07 08:04:27 
18.5000  16.1000  112  1022  2021-05-07 09:04:25 
18.6000  16.6000  113  1022  2021-05-07 10:04:27 
18.6000  16.6000  113  1022  2021-05-07 11:04:25 
19.1000  16.6000  115  1023  2021-05-07 12:04:26 
19.6000  17.3000  117  1022  2021-05-07 13:04:28 
19.9000  17.4000  120  1022  2021-05-07 14:04:26 
20.8000  16.9000  117  1024  2021-05-07 19:04:28 
21.1000  16.6000  116  1023  2021-05-07 20:04:26 
20.6000  16.1000  114  1024  2021-05-07 21:04:27 
20.3000  16.1000  114  1024  2021-05-07 22:04:25 
19.8000  15.6000  113  1024  2021-05-07 23:04:27 
19.6000  15.1000  112  1025  2021-05-08 00:04:25 
19.1000  14.6000  111  1025  2021-05-08 01:04:26 
19.1000  14.5000  111  1026  2021-05-08 02:04:28 
19.1000  15.1000  111  1025  2021-05-08 03:04:26 
19.1000  15.1000  111  1025  2021-05-08 04:04:27 
19.1000  14.1000  111  1025  2021-05-08 05:04:25 
18.6000  13.8000  110  1025  2021-05-08 06:04:27 
18.5000  13.4000  110  1026  2021-05-08 07:04:25 
18.6000  13.1000  110  1025  2021-05-08 08:04:26 
18.6000  15.1000  111  1027  2021-05-08 09:04:28 
18.7000  17.1000  112  1027  2021-05-08 10:04:26 
19.1000  18.1000  114  1027  2021-05-08 11:04:28 
19.1000  18.9000  115  1028  2021-05-08 12:04:25 
19.4000  19.6000  115  1026  2021-05-08 13:04:27 
19.6000  19.7000  116  1025  2021-05-08 14:04:25 
19.8000  19.4000  115  1025  2021-05-08 15:04:27 
20.0000  19.1000  115  1026  2021-05-08 16:04:28 
20.1000  18.6000  114  1026  2021-05-08 17:04:26 
19.8000  17.6000  114  1025  2021-05-08 18:04:27 
20.1000  17.1000  114  1026  2021-05-08 19:04:25 
19.8000  16.5000  114  1027  2021-05-08 20:04:27 
19.8000  15.6000  114  1026  2021-05-08 21:04:28 
19.6000  14.7000  112  1027  2021-05-08 22:04:26 
19.6000  14.5000  112  1026  2021-05-08 23:04:28 
19.0000  13.5000  111  1026  2021-05-09 00:04:25 
18.8000  13.0000  110  1026  2021-05-09 01:04:27 
18.6000  12.4000  110  1027  2021-05-09 02:04:25 
18.1000  12.0000  107  1026  2021-05-09 03:04:27 
18.1000  11.5000  107  1026  2021-05-09 04:04:28 
18.0000  11.3000  107  1025  2021-05-09 05:04:26 
17.6000  11.0000  106  1026  2021-05-09 06:04:28 
17.6000  11.0000  106  1026  2021-05-09 07:04:25 
17.6000  11.5000  107  1026  2021-05-09 08:04:27 
17.6000  12.5000  107  1027  2021-05-09 09:04:24 
18.0000  15.0000  111  1027  2021-05-09 10:04:26 
18.4000  16.7000  111  1026  2021-05-09 11:04:28 
18.6000  18.4000  112  1026  2021-05-09 12:04:26 
18.6000  18.8000  113  1025  2021-05-09 13:04:27 
19.1000  19.8000  114  1025  2021-05-09 14:04:25 
19.8000  18.6000  115  1026  2021-05-09 19:04:27 
20.1000  18.4000  115  1026  2021-05-09 20:04:28 
20.1000  18.1000  115  1026  2021-05-09 21:04:26 
19.6000  17.9000  114  1026  2021-05-09 22:04:28 
19.9000  17.7000  113  1026  2021-05-09 23:04:25 
19.6000  17.6000  113  1025  2021-05-10 00:04:27 
19.8000  17.2000  113  1025  2021-05-10 01:04:28 
19.6000  16.1000  113  1025  2021-05-10 02:04:26 
19.4000  15.4000  112  1024  2021-05-10 03:04:27 
19.4000  14.5000  112  1023  2021-05-10 04:04:25 
19.1000  14.0000  111  1022  2021-05-10 05:04:26 
18.9000  13.3000  111  1024  2021-05-10 06:04:28 
18.6000  12.5000  110  1024  2021-05-10 07:04:26 
18.4000  13.0000  110  1025  2021-05-10 08:04:28 
18.6000  14.5000  110  1025  2021-05-10 09:04:25 
18.8000  16.5000  111  1025  2021-05-10 10:04:27 
19.1000  18.1000  115  1025  2021-05-10 11:04:25 
19.2000  19.1000  116  1025  2021-05-10 12:04:27 
19.6000  20.5000  122  1023  2021-05-10 13:04:28 
19.6000  20.4000  121  1023  2021-05-10 14:04:26 
20.1000  20.0000  121  1022  2021-05-10 15:04:28 
20.2000  19.6000  121  1022  2021-05-10 16:04:25 
20.3000  18.6000  121  1022  2021-05-10 17:04:27 
20.3000  17.6000  120  1023  2021-05-10 18:04:29 
20.2000  17.1000  120  1023  2021-05-10 19:04:26 
20.5000  16.7000  117  1024  2021-05-10 20:04:28 
20.1000  15.9000  116  1023  2021-05-10 21:04:26 
19.6000  14.8000  115  1024  2021-05-10 22:04:27 
19.6000  14.5000  113  1024  2021-05-10 23:04:25 
19.1000  14.0000  112  1022  2021-05-11 00:04:26 
19.1000  14.0000  112  1022  2021-05-11 01:04:28 
18.7000  13.5000  111  1022  2021-05-11 02:04:26 
18.6000  12.6000  111  1022  2021-05-11 03:04:28 
18.5000  12.2000  110  1021  2021-05-11 04:04:25 
18.1000  11.7000  110  1020  2021-05-11 05:04:27 
18.0000  11.4000  107  1021  2021-05-11 06:04:25 
17.6000  11.0000  106  1022  2021-05-11 07:04:27 
17.6000  11.2000  106  1021  2021-05-11 08:04:28 
17.6000  13.0000  107  1022  2021-05-11 09:04:26 
17.6000  15.6000  110  1022  2021-05-11 10:04:28 
18.1000  17.4000  113  1022  2021-05-11 11:04:25 
18.5000  18.6000  115  1021  2021-05-11 12:04:27 
18.6000  19.6000  115  1021  2021-05-11 13:04:29 
18.7000  19.9000  116  1021  2021-05-11 14:04:27 
19.1000  15.1000  113  1021  2021-05-11 20:04:26 
19.1000  14.0000  111  1022  2021-05-11 21:04:28 
18.6000  13.5000  110  1021  2021-05-11 22:04:26 
18.5000  13.5000  107  1021  2021-05-11 23:04:28 
18.2000  12.5000  107  1022  2021-05-12 00:04:25 
18.1000  12.0000  106  1022  2021-05-12 01:04:28 
17.7000  11.0000  105  1021  2021-05-12 02:04:26 
17.6000  11.0000  105  1021  2021-05-12 03:04:28 
17.3000  10.7000  105  1021  2021-05-12 04:04:25 
17.3000  12.0000  105  1021  2021-05-12 05:04:27 
17.1000  12.5000  105  1021  2021-05-12 06:04:28 
17.1000  12.5000  106  1022  2021-05-12 07:04:26 
17.1000  12.5000  106  1022  2021-05-12 08:04:27 
17.1000  13.6000  110  1022  2021-05-12 09:04:25 
17.6000  16.1000  112  1022  2021-05-12 10:04:27 
17.7000  17.8000  113  1023  2021-05-12 11:04:28 
18.1000  18.9000  114  1021  2021-05-12 12:04:26 
18.1000  20.1000  115  1021  2021-05-12 13:04:28 
19.1000  19.6000  115  1020  2021-05-12 14:04:26 
18.9000  19.6000  115  1019  2021-05-12 15:04:27 
19.2000  19.1000  113  1019  2021-05-12 16:04:29 
19.6000  18.6000  114  1018  2021-05-12 17:04:26 
19.3000  17.1000  115  1019  2021-05-12 18:04:28 
19.2000  16.1000  114  1019  2021-05-12 19:04:26 
19.1000  15.1000  113  1018  2021-05-12 20:04:27 
19.1000  14.5000  112  1019  2021-05-12 21:04:29 
19.0000  13.5000  111  1019  2021-05-12 22:04:27 
18.6000  12.5000  110  1017  2021-05-12 23:04:29 
18.1000  12.3000  107  1018  2021-05-13 00:04:26 
18.1000  12.0000  107  1018  2021-05-13 01:04:28 
17.6000  11.6000  106  1017  2021-05-13 02:04:28 
17.6000  11.5000  106  1017  2021-05-13 03:04:27 
17.5000  10.9000  106  1017  2021-05-13 04:04:29 
17.1000  11.0000  105  1017  2021-05-13 05:04:26 
16.9000  11.0000  105  1017  2021-05-13 06:04:28 
16.9000  11.5000  105  1017  2021-05-13 07:04:26 
16.7000  12.0000  106  1019  2021-05-13 08:04:27 
16.6000  13.0000  107  1019  2021-05-13 09:04:29 
17.1000  15.0000  111  1018  2021-05-13 10:04:27 
17.6000  16.3000  114  1018  2021-05-13 11:04:28 
17.6000  17.1000  112  1017  2021-05-13 12:04:26 
18.1000  18.6000  111  1016  2021-05-13 13:04:28 
18.2000  19.3000  113  1016  2021-05-13 14:04:26 
18.6000  20.1000  113  1015  2021-05-13 15:04:27 
19.1000  16.0000  112  1015  2021-05-13 21:04:27 
18.9000  15.6000  111  1015  2021-05-13 22:04:29 
18.7000  14.5000  110  1015  2021-05-13 23:04:27 
18.6000  13.5000  107  1014  2021-05-14 00:04:29 
18.4000  12.8000  106  1013  2021-05-14 01:04:26 
18.1000  12.7000  106  1013  2021-05-14 02:04:28 
18.1000  12.0000  106  1013  2021-05-14 03:04:26 
17.6000  12.0000  105  1013  2021-05-14 04:04:44 
17.6000  11.5000  105  1012  2021-05-14 05:04:29 
17.1000  11.0000  105  1011  2021-05-14 06:04:27 
17.1000  11.1000  105  1011  2021-05-14 07:04:28 
17.1000  11.5000  105  1011  2021-05-14 08:04:26 
17.1000  13.0000  107  1011  2021-05-14 09:04:27 
17.6000  16.6000  110  1012  2021-05-14 10:04:29 
18.1000  18.1000  72  1011  2021-05-14 11:04:27 
18.1000  19.6000  100  1011  2021-05-14 12:04:28 
18.3000  20.3000  103  1010  2021-05-14 13:04:26 
18.6000  21.0000  106  1009  2021-05-14 14:04:28 
18.8000  21.1000  110  1009  2021-05-14 15:04:29 
19.1000  20.6000  111  1010  2021-05-14 16:04:27 
19.2000  19.9000  111  1009  2021-05-14 17:04:29 
19.4000  19.4000  112  1009  2021-05-14 18:04:27 
19.4000  19.1000  112  1011  2021-05-14 19:04:29 
19.6000  19.1000  112  1011  2021-05-14 20:04:27 
19.6000  19.1000  113  1010  2021-05-14 21:04:28 
19.6000  18.6000  114  1011  2021-05-14 22:04:26 
19.6000  18.6000  114  1011  2021-05-14 23:04:28 
19.6000  18.6000  114  1010  2021-05-15 00:04:26 
19.6000  18.3000  114  1011  2021-05-15 01:04:28 
19.6000  18.1000  114  1010  2021-05-15 02:04:26 
19.5000  18.1000  114  1010  2021-05-15 03:04:27 
19.6000  18.1000  114  1010  2021-05-15 04:04:29 
19.3000  18.1000  115  1010  2021-05-15 05:04:27 
19.3000  17.6000  115  1009  2021-05-15 06:04:29 
19.2000  17.6000  115  1009  2021-05-15 07:04:28 
19.4000  17.6000  115  1009  2021-05-15 08:04:26 
19.5000  17.6000  116  1009  2021-05-15 09:04:28 
19.3000  17.8000  116  1010  2021-05-15 10:04:26 
19.5000  18.6000  117  1009  2021-05-15 11:04:28 
19.4000  17.6000  117  1009  2021-05-15 12:04:27 
19.5000  17.2000  120  1008  2021-05-15 13:04:29 
19.6000  17.1000  120  1009  2021-05-15 14:04:27 
19.6000  17.1000  120  1008  2021-05-15 15:04:29 
19.1000  14.5000  116  1015  2021-05-15 21:04:27 
19.1000  14.1000  116  1015  2021-05-15 22:04:26 
19.0000  13.5000  115  1016  2021-05-15 23:04:28 
18.6000  12.9000  114  1016  2021-05-16 00:04:26 
18.6000  12.0000  113  1016  2021-05-16 01:04:28 
18.1000  11.6000  113  1017  2021-05-16 02:04:26 
17.6000  11.0000  112  1017  2021-05-16 03:04:27 
17.6000  10.9000  111  1017  2021-05-16 04:04:29 
17.1000  10.5000  110  1017  2021-05-16 05:04:27 
17.1000  10.0000  110  1017  2021-05-16 06:04:28 
16.8000  9.5000  107  1018  2021-05-16 07:04:26 
16.6000  9.5000  107  1019  2021-05-16 08:04:27 
16.6000  10.5000  107  1019  2021-05-16 09:04:29 
16.8000  12.5000  107  1019  2021-05-16 10:04:26 
17.1000  13.9000  106  1019  2021-05-16 11:04:28 
17.1000  15.0000  107  1019  2021-05-16 12:04:30 
17.4000  15.6000  111  1018  2021-05-16 13:04:27 
17.6000  15.6000  110  1018  2021-05-16 14:04:29 
18.1000  16.8000  111  1019  2021-05-16 15:04:27 
18.0000  15.1000  110  1019  2021-05-16 16:04:28 
18.1000  15.5000  111  1019  2021-05-16 17:04:26 
18.1000  14.5000  111  1020  2021-05-16 18:04:28 
17.8000  13.5000  111  1020  2021-05-16 19:04:30 
17.7000  12.5000  110  1021  2021-05-16 20:04:27 
17.6000  11.5000  107  1023  2021-05-16 21:04:29 
17.6000  10.5000  107  1022  2021-05-16 22:04:26 
17.1000  10.5000  105  1022  2021-05-16 23:04:28 
16.6000  9.7000  104  1022  2021-05-17 00:04:30 
16.6000  9.5000  104  1022  2021-05-17 01:04:27 
16.3000  9.2000  103  1022  2021-05-17 02:04:28 
16.1000  8.5000  103  1023  2021-05-17 03:04:30 
15.7000  8.0000  102  1023  2021-05-17 04:04:27 
15.6000  7.9000  102  1021  2021-05-17 05:04:29 
15.3000  7.5000  102  1022  2021-05-17 06:04:27 
15.1000  7.5000  102  1022  2021-05-17 07:04:29 
14.6000  7.5000  103  1023  2021-05-17 08:04:26 
14.5000  9.5000  103  1022  2021-05-17 09:04:27 
15.1000  12.0000  105  1023  2021-05-17 10:04:29 
15.6000  14.0000  106  1023  2021-05-17 11:04:27 
16.1000  15.1000  107  1023  2021-05-17 12:04:28 
16.4000  16.1000  110  1022  2021-05-17 13:04:30 
16.6000  16.2000  107  1021  2021-05-17 14:04:27 
16.6000  16.9000  106  1021  2021-05-17 15:04:29 
17.1000  16.8000  107  1021  2021-05-17 16:04:27 
17.1000  16.1000  106  1021  2021-05-17 17:04:28 
17.1000  14.5000  107  1021  2021-05-17 18:04:30 
17.1000  13.5000  107  1022  2021-05-17 19:04:27 
16.8000  12.0000  106  1022  2021-05-17 20:04:29 
16.6000  12.0000  105  1021  2021-05-17 21:04:26 
16.1000  10.9000  104  1021  2021-05-17 22:04:28 
16.1000  10.1000  104  1021  2021-05-17 23:04:30 
15.6000  9.5000  104  1021  2021-05-18 00:04:27 
15.6000  9.0000  103  1020  2021-05-18 01:04:29 
15.2000  8.5000  103  1019  2021-05-18 02:04:30 
15.1000  8.0000  103  1018  2021-05-18 03:04:27 
14.5000  7.7000  102  1018  2021-05-18 04:04:29 
14.5000  7.5000  102  1018  2021-05-18 05:04:26 
14.3000  7.3000  102  1017  2021-05-18 06:04:28 
14.0000  6.8000  102  1018  2021-05-18 07:04:30 
14.0000  7.0000  102  1018  2021-05-18 08:04:27 
14.0000  8.5000  103  1018  2021-05-18 09:04:29 
14.4000  11.0000  104  1018  2021-05-18 10:04:30 
15.1000  13.5000  105  1017  2021-05-18 11:04:28 
15.1000  16.6000  107  1017  2021-05-18 12:04:29 
15.6000  19.1000  110  1015  2021-05-18 13:04:27 
15.6000  20.1000  111  1015  2021-05-18 14:04:29 
16.1000  20.6000  113  1013  2021-05-18 15:04:26 
16.7000  20.0000  114  1014  2021-05-18 16:04:28 
16.8000  18.5000  104  1013  2021-05-18 17:04:30 
16.7000  17.5000  104  1014  2021-05-18 18:04:28 
16.8000  16.6000  105  1014  2021-05-18 19:04:29 
17.1000  15.1000  106  1015  2021-05-18 20:04:27 
16.8000  13.5000  106  1015  2021-05-18 21:04:29 
16.6000  12.5000  106  1015  2021-05-18 22:04:26 
16.6000  11.3000  105  1014  2021-05-18 23:04:28 
16.3000  10.0000  103  1014  2021-05-19 00:04:30 
16.0000  9.8000  103  1014  2021-05-19 01:04:27 
15.6000  9.2000  103  1015  2021-05-19 02:04:29 
15.6000  9.5000  102  1014  2021-05-19 03:04:30 
15.6000  8.6000  102  1012  2021-05-19 04:04:27 
15.1000  9.5000  102  1012  2021-05-19 05:04:28 
15.1000  10.9000  103  1012  2021-05-19 07:04:29 
15.1000  11.9000  103  1013  2021-05-19 08:04:30 
15.6000  13.5000  104  1012  2021-05-19 09:04:28 
15.6000  14.0000  111  1013  2021-05-19 10:04:30 
15.7000  15.6000  114  1012  2021-05-19 11:04:27 
16.1000  17.6000  115  1013  2021-05-19 12:04:29 
16.6000  18.5000  115  1011  2021-05-19 13:04:31 
16.6000  19.1000  115  1011  2021-05-19 14:04:28 
17.1000  19.6000  115  1011  2021-05-19 15:04:29 
17.5000  19.6000  115  1010  2021-05-19 16:04:27 
17.6000  18.6000  115  1011  2021-05-19 17:04:29 
17.6000  17.6000  114  1010  2021-05-19 18:04:30 
17.6000  17.1000  114  1010  2021-05-19 19:04:28 
17.9000  17.6000  114  1011  2021-05-19 20:04:30 
17.7000  17.6000  114  1009  2021-05-19 21:04:27 
18.0000  17.5000  114  1010  2021-05-19 22:04:29 
17.8000  17.0000  114  1009  2021-05-19 23:04:27 
17.6000  16.5000  114  1009  2021-05-20 00:04:29 
17.6000  15.3000  115  1009  2021-05-20 01:04:27 
17.6000  15.1000  115  1009  2021-05-20 02:04:29 
17.6000  15.1000  116  1008  2021-05-20 03:04:27 
17.6000  15.5000  116  1008  2021-05-20 04:04:29 
17.6000  15.2000  116  1006  2021-05-20 05:04:27 
17.6000  14.6000  117  1007  24  2021-05-20 06:04:30 
17.5000  14.4000  116  1007  2021-05-20 07:04:28 
17.6000  14.0000  116  1008  2021-05-20 08:04:30 
17.2000  12.0000  116  1010  15  2021-05-20 09:04:29 
17.1000  11.9000  115  1009  10  2021-05-20 10:04:27 
17.1000  12.0000  116  1010  2021-05-20 11:04:30 
17.1000  12.7000  116  1011  2021-05-20 12:04:28 
17.3000  13.2000  116  1011  2021-05-20 13:04:30 
17.6000  13.8000  117  1010  2021-05-20 14:04:28 
17.6000  13.2000  116  1011  2021-05-20 15:04:27 
17.6000  13.3000  116  1011  2021-05-20 16:04:29 
17.6000  12.6000  115  1013  2021-05-20 17:04:28 
17.1000  11.5000  115  1013  2021-05-20 18:04:30 
17.1000  11.4000  114  1014  2021-05-20 19:04:28 
17.1000  11.4000  114  1014  2021-05-20 20:04:30 
17.1000  11.0000  114  1015  2021-05-20 21:04:29 
16.9000  11.2000  114  1016  2021-05-20 22:04:27 
16.9000  11.5000  113  1015  2021-05-20 23:04:29 
16.6000  12.0000  113  1015  2021-05-21 00:04:28 
16.5000  11.5000  113  1016  2021-05-21 01:04:29 
16.1000  12.0000  113  1016  2021-05-21 02:04:27 
16.1000  12.0000  113  1016  2021-05-21 03:04:29 
16.1000  12.0000  113  1017  2021-05-21 04:04:28 
16.1000  11.5000  113  1018  2021-05-21 05:04:29 
16.0000  11.0000  112  1020  2021-05-21 07:04:30 
15.7000  10.5000  112  1021  2021-05-21 08:04:28 
15.6000  10.5000  111  1023  2021-05-21 09:04:30 
15.6000  11.3000  112  1023  2021-05-21 10:04:28 
16.1000  12.0000  112  1024  2021-05-21 11:04:30 
16.6000  13.0000  112  1023  2021-05-21 14:04:29 
16.7000  13.1000  113  1024  2021-05-21 15:04:27 
17.1000  13.0000  113  1026  2021-05-21 16:04:29 
17.1000  12.3000  112  1026  2021-05-21 17:04:27 
17.1000  12.0000  112  1025  2021-05-21 18:04:29 
17.1000  11.3000  113  1027  2021-05-21 19:04:27 
16.9000  11.0000  112  1027  2021-05-21 20:04:29 
16.6000  10.4000  112  1027  2021-05-21 21:04:27 
16.7000  10.5000  112  1029  2021-05-21 22:04:29 
16.2000  9.5000  110  1029  2021-05-21 23:04:27 
16.1000  9.5000  107  1029  2021-05-22 00:04:29 
15.6000  8.0000  106  1030  2021-05-22 01:04:30 
15.6000  7.5000  106  1030  2021-05-22 02:04:27 
15.1000  7.0000  106  1030  2021-05-22 03:04:29 
14.6000  6.5000  105  1029  2021-05-22 04:04:31 
14.5000  6.0000  104  1029  2021-05-22 05:04:28 
14.0000  5.5000  104  1029  2021-05-22 06:04:30 
13.8000  5.2000  104  1030  2021-05-22 07:04:27 
14.0000  5.5000  105  1029  2021-05-22 08:04:29 
15.1000  6.7000  106  1030  2021-05-22 09:04:30 
15.1000  9.5000  106  1030  2021-05-22 10:04:28 
15.9000  11.0000  107  1028  2021-05-22 11:04:29 
15.6000  12.0000  101  1028  2021-05-22 12:04:31 
16.3000  12.8000  103  1028  2021-05-22 13:04:28 
16.6000  14.0000  107  1026  2021-05-22 14:04:30 
17.0000  14.0000  110  1026  2021-05-22 15:04:28 
17.1000  13.5000  107  1024  2021-05-22 16:04:29 
17.1000  13.0000  107  1024  2021-05-22 17:04:31 
17.5000  12.1000  107  1025  2021-05-22 18:04:29 
17.4000  11.4000  110  1025  2021-05-22 19:04:30 
17.4000  10.5000  107  1025  2021-05-22 20:04:28 
16.5000  9.5000  105  1025  2021-05-22 21:04:29 
16.1000  9.0000  104  1026  2021-05-22 22:04:31 
15.6000  8.0000  103  1025  2021-05-22 23:04:28 
15.6000  8.0000  103  1023  2021-05-23 00:04:30 
15.1000  7.5000  103  1024  2021-05-23 01:04:27 
14.9000  7.0000  102  1023  2021-05-23 02:04:29 
14.5000  6.5000  102  1022  2021-05-23 03:04:30 
14.4000  6.5000  102  1021  2021-05-23 04:04:28 
14.0000  6.5000  102  1021  2021-05-23 05:04:29 
13.5000  6.0000  102  1022  2021-05-23 06:04:31 
13.8000  5.8000  102  1020  2021-05-23 08:04:31 
14.0000  7.3000  102  1021  2021-05-23 09:04:29 
14.8000  10.2000  105  1020  2021-05-23 10:04:30 
15.6000  13.5000  110  1019  2021-05-23 11:04:28 
15.6000  15.3000  107  1018  2021-05-23 12:04:29 
16.1000  20.1000  110  1018  2021-05-23 13:04:31 
16.6000  21.1000  106  1017  2021-05-23 14:04:29 
17.0000  20.4000  104  1017  2021-05-23 15:04:30 
17.1000  19.6000  103  1016  2021-05-23 16:04:28 
17.1000  18.1000  104  1015  2021-05-23 17:04:30 
17.6000  16.9000  107  1016  2021-05-23 18:04:31 
17.7000  15.6000  107  1017  2021-05-23 19:04:29 
18.1000  14.0000  110  1016  2021-05-23 20:04:31 
18.1000  13.0000  107  1015  2021-05-23 21:04:28 
17.6000  12.0000  106  1014  2021-05-23 22:04:30 
17.1000  12.0000  105  1014  2021-05-23 23:04:27 
17.0000  12.0000  104  1014  2021-05-24 00:04:29 
16.6000  11.7000  104  1015  2021-05-24 01:04:31 
16.6000  13.0000  103  1014  2021-05-24 02:04:31 
16.6000  14.4000  102  1014  2021-05-24 03:04:30 
16.6000  16.2000  101  1014  2021-05-24 04:04:27 
16.6000  16.1000  101  1014  2021-05-24 05:04:29 
16.6000  15.6000  101  1014  2021-05-24 06:04:32 
16.9000  15.6000  101  1013  2021-05-24 07:04:29 
17.3000  15.6000  100  1014  2021-05-24 08:04:31 
17.6000  16.2000  100  1013  2021-05-24 09:04:29 
17.6000  17.1000  100  1015  2021-05-24 10:04:30 
17.6000  18.7000  102  1016  2021-05-24 11:04:28 
17.9000  19.6000  105  1015  2021-05-24 12:04:30 
18.1000  19.1000  107  1016  2021-05-24 13:04:31 
18.4000  20.1000  110  1016  2021-05-24 14:04:29 
18.6000  20.2000  110  1016  2021-05-24 15:04:31 
18.6000  19.6000  110  1017  2021-05-24 16:04:28 
18.6000  19.1000  110  1016  2021-05-24 17:04:30 
18.8000  17.6000  112  1017  2021-05-24 18:04:28 
19.1000  17.6000  113  1018  2021-05-24 19:04:30 
19.4000  17.0000  114  1017  2021-05-24 20:04:31 
19.6000  17.1000  113  1019  2021-05-24 21:04:29 
19.1000  16.8000  112  1019  2021-05-24 22:04:31 
19.1000  16.6000  112  1018  2021-05-24 23:04:28 
18.6000  16.3000  111  1019  2021-05-25 00:04:30 
18.7000  16.2000  111  1019  2021-05-25 01:04:28 
18.6000  16.5000  111  1018  2021-05-25 02:04:30 
18.6000  16.2000  111  1019  2021-05-25 03:04:31 
18.6000  16.0000  111  1019  2021-05-25 04:04:29 
18.3000  15.7000  111  1018  2021-05-25 05:04:31 
18.3000  15.0000  111  1018  2021-05-25 06:04:28 
18.6000  16.1000  114  1019  2021-05-25 09:04:31 
19.1000  17.1000  116  1021  2021-05-25 10:04:28 
19.1000  17.6000  115  1020  2021-05-25 11:04:30 
19.1000  18.1000  115  1021  2021-05-25 12:04:32 
19.2000  18.9000  116  1020  2021-05-25 13:04:29 
19.4000  18.6000  113  1019  2021-05-25 14:04:31 
19.6000  18.5000  106  1020  2021-05-25 15:04:29 
20.0000  18.5000  105  1021  2021-05-25 16:04:30 
20.3000  17.9000  106  1019  2021-05-25 17:04:28 
20.2000  17.0000  106  1021  2021-05-25 18:04:30 
20.6000  16.1000  106  1022  2021-05-25 19:04:28 
20.6000  15.8000  110  1022  2021-05-25 20:04:29 
20.6000  15.6000  107  1022  2021-05-25 21:04:31 
20.6000  14.7000  107  1022  2021-05-25 22:04:29 
19.6000  14.0000  105  1022  2021-05-25 23:04:31 
19.2000  13.0000  105  1022  2021-05-26 00:04:28 
19.1000  13.0000  105  1022  2021-05-26 01:04:30 
18.6000  13.5000  105  1022  2021-05-26 02:04:32 
18.6000  13.5000  105  1022  2021-05-26 03:04:30 
18.1000  13.3000  104  1022  2021-05-26 04:04:31 
18.1000  13.5000  104  1021  2021-05-26 05:04:29 
18.1000  13.4000  104  1022  2021-05-26 06:04:31 
18.1000  13.4000  105  1022  2021-05-26 07:04:29 
18.1000  13.5000  104  1022  2021-05-26 08:04:30 
18.1000  14.0000  105  1022  2021-05-26 09:04:28 
17.9000  15.0000  104  1023  2021-05-26 10:04:30 
18.1000  16.6000  104  1022  2021-05-26 11:04:28 
18.5000  17.6000  105  1022  2021-05-26 12:04:30 
18.6000  18.1000  104  1021  2021-05-26 13:04:31 
19.1000  19.0000  106  1020  2021-05-26 14:04:29 
19.1000  18.7000  105  1020  2021-05-26 15:04:30 
19.1000  18.6000  105  1019  2021-05-26 16:04:28 
19.6000  18.1000  106  1021  2021-05-26 17:04:30 
19.7000  17.6000  106  1019  2021-05-26 18:04:31 
20.1000  16.6000  105  1020  2021-05-26 19:04:29 
20.1000  15.1000  105  1019  2021-05-26 20:04:31 
20.2000  14.5000  105  1020  2021-05-26 21:04:29 
19.4000  14.5000  104  1019  2021-05-26 22:04:31 
19.2000  13.5000  104  1018  2021-05-26 23:04:28 
18.7000  13.5000  104  1018  2021-05-27 00:04:30 
18.6000  13.0000  104  1018  2021-05-27 01:04:32 
18.5000  12.5000  104  1017  2021-05-27 02:04:30 
18.1000  12.0000  104  1016  2021-05-27 03:04:31 
18.0000  12.0000  104  1016  2021-05-27 04:04:29 
17.6000  12.5000  104  1017  2021-05-27 05:04:28 
17.4000  12.5000  104  1017  2021-05-27 06:04:30 
17.9000  14.0000  106  1016  2021-05-27 09:04:32 
18.1000  17.1000  106  1018  2021-05-27 12:04:30 
18.2000  17.1000  106  1017  2021-05-27 13:04:32 
18.6000  17.1000  105  1016  2021-05-27 14:04:29 
18.6000  17.1000  105  1016  2021-05-27 15:04:31 
18.6000  16.9000  104  1016  2021-05-27 16:04:29 
18.6000  16.7000  105  1016  2021-05-27 17:04:31 
19.1000  16.5000  114  1017  2021-05-27 18:04:28 
19.1000  16.3000  115  1018  2021-05-27 19:04:30 
19.4000  16.2000  115  1018  2021-05-27 20:04:28 
19.1000  16.1000  113  1018  2021-05-27 21:04:30 
19.1000  16.0000  113  1018  2021-05-27 22:04:31 
18.6000  15.6000  112  1017  2021-05-27 23:04:29 
18.6000  15.6000  112  1017  2021-05-28 00:04:31 
18.6000  15.4000  111  1018  2021-05-28 01:04:29 
18.4000  15.3000  111  1017  2021-05-28 02:04:31 
18.1000  15.1000  111  1016  2021-05-28 03:04:28 
18.1000  15.1000  112  1016  2021-05-28 04:04:31 
18.1000  14.5000  112  1017  2021-05-28 05:04:29 
18.0000  14.5000  113  1017  2021-05-28 06:04:31 
18.0000  14.5000  112  1017  2021-05-28 07:04:29 
18.1000  14.5000  114  1018  2021-05-28 08:04:31 
18.6000  15.1000  114  1018  2021-05-28 09:04:29 
18.6000  15.4000  116  1018  2021-05-28 10:04:31 
18.5000  15.8000  117  1019  2021-05-28 11:04:29 
18.2000  16.4000  121  1020  2021-05-28 12:04:31 
18.6000  16.6000  122  1017  2021-05-28 13:04:29 
18.6000  16.7000  121  1018  2021-05-28 14:04:31 
18.6000  17.1000  121  1017  2021-05-28 15:04:29 
19.6000  17.6000  125  1018  2021-05-28 16:04:31 
19.9000  17.1000  126  1019  2021-05-28 17:04:29 
19.6000  16.6000  123  1019  2021-05-28 18:04:32 
19.8000  16.6000  123  1021  2021-05-28 19:04:30 
20.1000  15.9000  123  1021  2021-05-28 20:04:32 
20.1000  15.6000  123  1020  2021-05-28 21:04:30 
20.2000  15.5000  122  1021  2021-05-28 22:04:28 
19.6000  15.2000  120  1021  2021-05-28 23:04:30 
19.3000  15.5000  120  1021  2021-05-29 00:04:28 
19.1000  15.3000  117  1020  2021-05-29 01:04:30 
19.1000  15.1000  116  1019  2021-05-29 02:04:32 
18.6000  15.1000  115  1020  2021-05-29 03:04:30 
18.5000  14.9000  115  1020  2021-05-29 04:04:31 
18.6000  14.5000  115  1021  2021-05-29 05:04:29 
18.1000  14.0000  115  1021  2021-05-29 06:04:31 
18.6000  14.6000  117  1022  2021-05-29 10:04:33 
18.7000  16.1000  117  1021  2021-05-29 11:04:31 
18.6000  15.7000  117  1022  2021-05-29 12:04:29 
19.1000  16.1000  116  1022  2021-05-29 13:04:31 
19.6000  16.3000  115  1021  2021-05-29 14:04:29 
19.3000  16.6000  116  1021  2021-05-29 15:04:31 
19.6000  16.6000  116  1021  2021-05-29 16:04:29 
19.9000  16.1000  117  1022  2021-05-29 17:04:31 
20.1000  15.6000  120  1023  2021-05-29 18:04:29 
20.2000  15.6000  120  1023  2021-05-29 19:04:31 
20.1000  13.8000  116  1024  2021-05-29 22:04:31 
19.6000  13.5000  114  1024  2021-05-29 23:04:29 
19.0000  12.5000  113  1023  2021-05-30 00:04:31 
18.6000  12.0000  112  1024  2021-05-30 01:04:28 
18.3000  11.5000  111  1023  2021-05-30 02:04:30 
18.1000  11.0000  110  1024  2021-05-30 03:04:32 
17.7000  10.5000  110  1024  2021-05-30 04:04:29 
17.1000  10.0000  107  1024  2021-05-30 05:04:31 
16.9000  9.4000  107  1023  2021-05-30 06:04:28 
17.5000  9.0000  110  1023  2021-05-30 07:04:30 
17.1000  8.5000  106  1024  2021-05-30 08:04:31 
17.6000  9.9000  110  1025  2021-05-30 09:04:29 
17.5000  12.5000  110  1026  2021-05-30 10:04:30 
17.6000  14.0000  112  1025  2021-05-30 11:04:32 
17.6000  15.6000  114  1023  2021-05-30 12:04:30 
17.6000  16.1000  112  1022  2021-05-30 13:04:32 
17.6000  17.1000  112  1021  2021-05-30 14:04:29 
18.1000  17.1000  113  1021  2021-05-30 15:04:31 
18.1000  16.6000  114  1021  2021-05-30 16:04:29 
18.1000  16.0000  113  1021  2021-05-30 17:04:30 
18.6000  15.1000  112  1020  2021-05-30 18:04:32 
18.7000  13.5000  114  1020  2021-05-30 19:04:30 
19.1000  12.6000  114  1021  2021-05-30 20:04:31 
19.1000  12.5000  114  1020  2021-05-30 21:04:29 
19.1000  12.5000  114  1020  2021-05-30 22:04:31 
18.3000  11.5000  110  1020  2021-05-30 23:04:32 
17.6000  11.1000  110  1020  2021-05-31 00:04:30 
17.6000  11.5000  107  1020  2021-05-31 01:04:31 
17.1000  12.0000  110  1019  2021-05-31 02:04:29 
16.8000  12.5000  110  1018  2021-05-31 05:04:32 
17.3000  12.0000  112  1019  2021-05-31 06:04:30 
17.6000  14.0000  113  1021  2021-05-31 11:04:33 
17.6000  14.5000  114  1022  2021-05-31 12:04:31 
18.0000  14.5000  115  1022  2021-05-31 13:04:29 
18.1000  15.6000  114  1021  2021-05-31 14:04:31 
18.1000  15.1000  115  1022  2021-05-31 15:04:29 
18.9000  15.6000  117  1022  2021-05-31 16:04:31 
19.0000  14.5000  116  1022  2021-05-31 17:04:29 
19.2000  14.3000  116  1022  2021-05-31 18:04:31 
19.5000  14.0000  116  1024  2021-05-31 19:04:29 
19.4000  14.0000  117  1024  2021-05-31 20:04:31 
19.6000  13.8000  116  1024  2021-05-31 21:04:29 
19.6000  13.2000  116  1025  2021-05-31 22:04:31 
18.8000  12.5000  113  1025  2021-05-31 23:04:29 
18.3000  12.0000  112  1025  2021-06-01 00:04:31 
17.8000  11.5000  111  1026  2021-06-01 01:04:29 
17.6000  10.5000  110  1025  2021-06-01 02:04:32 
17.3000  11.0000  110  1027  2021-06-01 03:04:30 
17.1000  11.5000  110  1027  2021-06-01 04:04:31 
16.6000  10.5000  110  1025  2021-06-01 05:04:32 
16.6000  10.0000  107  1026  2021-06-01 06:04:30 
16.1000  9.0000  107  1027  2021-06-01 07:04:32 
16.3000  9.5000  111  1029  2021-06-01 08:04:29 
16.1000  10.0000  110  1029  2021-06-01 09:04:30 
16.1000  12.5000  112  1029  2021-06-01 10:04:32 
16.4000  14.7000  113  1029  2021-06-01 11:04:29 
16.7000  15.9000  114  1029  2021-06-01 12:04:31 
17.0000  16.6000  115  1027  2021-06-01 13:04:33 
17.1000  17.1000  115  1027  2021-06-01 14:04:30 
17.5000  17.1000  114  1027  2021-06-01 15:04:32 
17.6000  17.1000  114  1028  2021-06-01 16:04:29 
17.6000  16.3000  115  1028  2021-06-01 17:04:31 
18.1000  15.4000  116  1028  2021-06-01 18:04:33 
18.6000  13.8000  117  1029  2021-06-01 19:04:30 
18.1000  13.0000  116  1028  2021-06-01 20:04:32 
18.1000  12.5000  114  1029  2021-06-01 21:04:30 
17.5000  12.0000  112  1028  2021-06-01 22:04:31 
17.1000  11.7000  111  1029  2021-06-01 23:04:29 
17.1000  12.0000  111  1028  2021-06-02 00:04:31 
16.8000  11.9000  111  1029  2021-06-02 01:04:32 
16.6000  12.0000  111  1029  2021-06-02 02:04:30 
16.5000  12.0000  111  1029  2021-06-02 03:04:31 
16.4000  12.0000  111  1028  2021-06-02 04:04:29 
17.1000  12.0000  114  1029  2021-06-02 05:04:31 
17.2000  11.5000  112  1030  2021-06-02 06:04:32 
17.2000  11.3000  112  1030  2021-06-02 07:04:30 
17.1000  15.6000  114  1031  2021-06-02 11:04:34 
17.1000  17.1000  114  1031  2021-06-02 12:04:32 
17.3000  18.5000  115  1029  2021-06-02 13:04:33 
17.6000  18.3000  115  1029  2021-06-02 14:04:30 
17.6000  18.1000  115  1029  2021-06-02 15:04:32 
17.6000  17.6000  115  1029  2021-06-02 16:04:30 
17.9000  16.9000  117  1030  2021-06-02 17:04:31 
18.1000  16.1000  117  1031  2021-06-02 18:04:33 
18.9000  15.7000  121  1032  2021-06-02 19:04:31 
18.6000  15.6000  117  1031  2021-06-02 20:04:32 
18.6000  15.6000  117  1032  2021-06-02 21:04:30 
18.3000  15.6000  116  1033  2021-06-02 22:04:32 
18.1000  15.1000  115  1032  2021-06-02 23:04:29 
17.7000  14.5000  114  1032  2021-06-03 00:04:31 
17.6000  14.5000  113  1034  2021-06-03 01:04:32 
17.6000  14.4000  113  1033  2021-06-03 02:04:30 
17.1000  14.0000  113  1034  2021-06-03 03:04:32 
17.2000  13.5000  112  1033  2021-06-03 04:04:29 
16.6000  14.0000  107  1032  2021-06-03 05:04:31 
16.6000  13.5000  107  1032  2021-06-03 06:04:33 
17.1000  12.9000  112  1033  2021-06-03 07:04:30 
17.1000  12.5000  111  1032  2021-06-03 08:04:32 
16.6000  12.5000  111  1034  2021-06-03 09:04:29 
17.1000  14.5000  111  1033  2021-06-03 10:04:31 
17.4000  16.6000  112  1034  2021-06-03 11:04:33 
17.1000  17.1000  113  1034  2021-06-03 12:04:30 
17.3000  18.1000  113  1034  2021-06-03 13:04:32 
17.6000  18.6000  112  1032  2021-06-03 14:04:30 
18.1000  18.6000  113  1030  2021-06-03 15:04:31 
18.1000  18.1000  114  1031  2021-06-03 16:04:33 
18.5000  17.4000  114  1030  2021-06-03 17:04:31 
18.1000  16.6000  114  1031  2021-06-03 18:04:32 
18.1000  14.2000  113  1031  2021-06-03 19:04:30 
18.6000  13.2000  114  1031  2021-06-03 20:04:32 
18.9000  12.0000  114  1031  2021-06-03 21:04:33 
18.1000  11.2000  110  1030  2021-06-03 22:04:31 
17.4000  11.0000  107  1031  2021-06-03 23:04:32 
17.1000  10.0000  106  1031  2021-06-04 00:04:30 
16.6000  9.4000  106  1031  2021-06-04 01:04:31 
16.1000  8.5000  105  1031  2021-06-04 02:04:33 
16.1000  8.6000  105  1031  2021-06-04 03:04:30 
15.7000  12.2000  106  1031  2021-06-04 04:04:31 
15.9000  12.5000  106  1030  2021-06-04 05:04:33 
15.8000  11.5000  106  1030  2021-06-04 06:04:30 
16.1000  9.5000  110  1031  2021-06-04 07:04:32 
16.6000  15.8000  113  1032  2021-06-04 12:04:32 
17.0000  16.9000  114  1030  2021-06-04 13:04:30 
17.1000  17.1000  114  1028  2021-06-04 14:04:32 
17.1000  17.2000  113  1028  2021-06-04 15:04:33 
17.6000  17.1000  115  1029  2021-06-04 16:04:31 
17.6000  15.9000  116  1029  2021-06-04 17:04:33 
18.0000  15.1000  116  1029  2021-06-04 18:04:30 
18.6000  14.5000  120  1030  2021-06-04 19:04:32 
18.8000  14.5000  120  1029  2021-06-04 20:04:29 
18.9000  14.5000  117  1029  2021-06-04 21:04:31 
18.2000  14.0000  116  1029  2021-06-04 22:04:33 
17.6000  13.5000  114  1029  2021-06-04 23:04:31 
17.4000  12.5000  112  1027  2021-06-05 00:04:32 
16.8000  10.5000  111  1027  2021-06-05 01:04:30 
16.6000  9.8000  110  1027  2021-06-05 02:04:32 
16.1000  10.0000  107  1026  2021-06-05 03:04:33 
15.6000  8.8000  107  1028  2021-06-05 04:04:30 
15.6000  8.0000  106  1026  2021-06-05 05:04:32 
15.6000  8.0000  107  1026  2021-06-05 06:04:33 
15.4000  7.5000  107  1027  2021-06-05 07:04:31 
15.0000  7.0000  107  1027  2021-06-05 08:04:32 
15.0000  7.9000  107  1027  2021-06-05 09:04:30 
15.1000  11.5000  110  1027  2021-06-05 10:04:31 
15.5000  14.1000  110  1028  2021-06-05 11:04:33 
15.6000  16.1000  111  1026  2021-06-05 12:04:31 
16.1000  17.6000  113  1025  2021-06-05 13:04:32 
16.1000  19.1000  114  1025  2021-06-05 14:04:30 
16.6000  18.6000  112  1024  2021-06-05 15:04:32 
16.6000  18.3000  112  1023  2021-06-05 16:04:34 
16.8000  17.1000  112  1024  2021-06-05 17:04:31 
16.6000  15.6000  112  1024  2021-06-05 18:04:33 
16.5000  13.0000  112  1023  2021-06-05 19:04:31 
16.6000  12.2000  113  1023  2021-06-05 20:04:33 
17.1000  11.0000  113  1023  2021-06-05 21:04:30 
16.4000  9.5000  107  1023  2021-06-05 22:04:32 
16.1000  9.0000  106  1023  2021-06-05 23:04:33 
15.6000  8.5000  105  1022  2021-06-06 00:04:30 
15.2000  8.3000  105  1022  2021-06-06 01:04:32 
15.1000  7.6000  104  1021  2021-06-06 02:04:33 
14.6000  7.3000  104  1020  2021-06-06 03:04:31 
14.5000  7.0000  104  1020  2021-06-06 04:04:32 
14.4000  7.0000  104  1020  2021-06-06 05:04:30 
14.5000  6.7000  105  1020  2021-06-06 06:04:31 
14.8000  6.3000  105  1020  2021-06-06 07:04:33 
16.6000  21.2000  67  1017  2021-06-06 13:04:31 
17.1000  22.6000  70  1016  2021-06-06 14:04:33 
18.6000  23.3000  62  1016  2021-06-06 15:04:30 
19.1000  23.7000  62  1016  2021-06-06 16:04:32 
19.6000  23.1000  57  1015  2021-06-06 17:04:34 
19.1000  22.0000  65  1015  2021-06-06 18:04:31 
19.8000  21.1000  70  1016  2021-06-06 19:04:33 
19.6000  20.6000  67  1016  2021-06-06 20:04:30 
19.6000  19.9000  70  1015  2021-06-06 21:04:32 
19.1000  19.6000  70  1016  2021-06-06 22:04:34 
19.1000  19.1000  70  1015  2021-06-06 23:04:31 
19.1000  18.6000  71  1015  2021-06-07 00:04:33 
19.0000  19.6000  71  1015  2021-06-07 01:04:31 
18.8000  19.6000  71  1014  2021-06-07 02:04:32 
18.7000  19.6000  72  1014  2021-06-07 03:04:34 
18.7000  19.5000  72  1014  2021-06-07 04:04:31 
18.7000  19.6000  72  1014  2021-06-07 05:04:33 
18.8000  19.0000  72  1014  2021-06-07 06:04:30 
18.6000  18.4000  71  1013  2021-06-07 07:04:32 
18.6000  16.6000  70  1013  2021-06-07 08:04:34 
18.7000  17.1000  71  1013  2021-06-07 09:04:31 
19.1000  20.1000  72  1014  2021-06-07 10:04:33 
19.6000  21.3000  66  1013  2021-06-07 11:04:30 
20.3000  22.6000  62  1012  2021-06-07 12:04:32 
20.9000  24.1000  61  1010  2021-06-07 13:04:34 
20.6000  25.3000  65  1011  2021-06-07 14:04:32 
20.6000  25.8000  66  1010  2021-06-07 15:04:33 
20.6000  25.2000  67  1009  2021-06-07 16:04:31 
21.6000  25.4000  62  1010  2021-06-07 17:04:33 
21.1000  24.6000  64  1011  2021-06-07 18:04:30 
21.3000  24.4000  66  1012  2021-06-07 19:04:32 
21.6000  23.6000  66  1012  2021-06-07 20:04:34 
21.4000  22.1000  66  1014  2021-06-07 21:04:31 
21.3000  21.6000  66  1015  2021-06-07 22:04:33 
21.1000  20.6000  66  1014  2021-06-07 23:04:31 
21.1000  22.0000  67  1016  2021-06-08 00:04:32 
21.1000  22.1000  67  1017  2021-06-08 01:04:34 
21.1000  21.6000  67  1015  2021-06-08 02:04:34 
21.0000  20.9000  67  1016  2021-06-08 03:04:33 
21.1000  19.6000  70  1017  2021-06-08 04:04:31 
20.8000  19.6000  70  1016  2021-06-08 05:04:32 
20.8000  18.8000  71  1016  2021-06-08 06:04:34 
20.6000  18.1000  72  1016  2021-06-08 07:04:31 
22.1000  23.2000  74  1018  2021-06-08 14:04:33 
21.9000  23.9000  74  1019  2021-06-08 15:04:30 
21.9000  20.9000  75  1020  2021-06-08 16:04:32 
21.9000  20.3000  76  1021  2021-06-08 17:04:34 
21.7000  19.1000  100  1021  2021-06-08 18:04:32 
21.9000  18.1000  102  1022  2021-06-08 19:04:34 
21.7000  17.1000  102  1022  2021-06-08 20:04:32 
21.6000  17.1000  101  1022  2021-06-08 21:04:33 
21.3000  16.1000  101  1022  2021-06-08 22:04:32 
21.1000  15.5000  100  1023  2021-06-08 23:04:33 
20.6000  15.0000  77  1023  2021-06-09 00:04:31 
20.3000  14.0000  77  1023  2021-06-09 01:04:32 
20.1000  13.5000  76  1022  2021-06-09 02:04:34 
19.8000  13.0000  76  1023  2021-06-09 03:04:32 
19.6000  12.9000  76  1023  2021-06-09 04:04:33 
19.4000  13.0000  76  1023  2021-06-09 05:04:31 
19.1000  12.4000  76  1024  2021-06-09 06:04:32 
19.1000  12.0000  77  1024  2021-06-09 07:04:34 
18.6000  12.0000  100  1024  2021-06-09 08:04:32 
18.6000  12.8000  100  1023  2021-06-09 09:04:33 
18.8000  15.9000  100  1024  2021-06-09 10:04:31 
19.1000  17.7000  101  1024  2021-06-09 11:04:33 
19.5000  19.1000  106  1023  2021-06-09 12:04:34 
19.6000  20.1000  106  1022  2021-06-09 13:04:32 
19.6000  20.1000  106  1022  2021-06-09 14:04:34 
19.7000  19.9000  107  1022  2021-06-09 15:04:32 
19.7000  19.1000  107  1022  2021-06-09 16:04:33 
19.8000  18.2000  110  1022  2021-06-09 17:04:31 
19.6000  17.3000  110  1021  2021-06-09 18:04:33 
19.6000  16.6000  110  1022  2021-06-09 19:04:34 
19.6000  15.6000  110  1021  2021-06-09 20:04:32 
19.6000  15.1000  107  1022  2021-06-09 21:04:34 
19.6000  14.4000  107  1021  2021-06-09 22:04:31 
19.1000  13.5000  105  1021  2021-06-09 23:04:33 
18.8000  13.0000  104  1022  2021-06-10 00:04:31 
18.6000  12.3000  103  1021  2021-06-10 01:04:33 
18.2000  12.0000  102  1020  2021-06-10 02:04:34 
18.1000  11.5000  102  1021  2021-06-10 03:04:32 
17.6000  11.0000  102  1021  2021-06-10 04:04:34 
17.4000  11.0000  101  1022  2021-06-10 05:04:31 
17.1000  10.5000  101  1020  2021-06-10 06:04:33 
17.1000  10.0000  103  1021  2021-06-10 07:04:30 
17.6000  16.1000  115  1019  2021-06-10 14:04:35 
18.2000  16.4000  116  1019  2021-06-10 15:04:33 
18.2000  16.1000  115  1019  2021-06-10 16:04:34 
18.6000  16.0000  115  1018  2021-06-10 17:04:32 
19.1000  15.3000  116  1019  2021-06-10 18:04:34 
19.5000  15.1000  116  1020  2021-06-10 19:04:32 
20.0000  15.0000  116  1018  2021-06-10 20:04:33 
20.1000  14.7000  116  1018  2021-06-10 21:04:31 
19.6000  14.5000  113  1018  2021-06-10 22:04:33 
19.1000  14.0000  112  1018  2021-06-10 23:04:31 
18.8000  13.5000  111  1017  2021-06-11 00:04:33 
18.5000  13.9000  111  1018  2021-06-11 01:04:34 
18.1000  13.5000  110  1016  2021-06-11 02:04:32 
18.1000  13.0000  110  1016  2021-06-11 03:04:34 
17.9000  13.0000  110  1015  2021-06-11 04:04:31 
18.1000  12.5000  111  1015  2021-06-11 05:04:33 
18.6000  12.0000  111  1015  2021-06-11 06:04:31 
18.1000  11.7000  107  1014  2021-06-11 07:04:32 
17.3000  11.0000  105  1015  2021-06-11 08:04:34 
17.6000  12.0000  106  1015  2021-06-11 09:04:32 
17.6000  14.1000  112  1015  2021-06-11 10:04:33 
17.6000  17.6000  114  1014  2021-06-11 11:04:31 
17.9000  19.1000  114  1015  2021-06-11 12:04:32 
18.1000  20.1000  114  1013  2021-06-11 13:04:34 
18.7000  21.0000  106  1013  2021-06-11 14:04:31 
19.2000  21.0000  105  1013  2021-06-11 15:04:33 
19.1000  21.5000  104  1012  2021-06-11 16:04:31 
19.1000  20.2000  106  1012  2021-06-11 17:04:33 
19.1000  18.1000  107  1012  2021-06-11 18:04:34 
19.1000  16.6000  110  1013  2021-06-11 19:04:33 
19.1000  16.1000  110  1014  2021-06-11 20:04:35 
18.9000  15.1000  110  1014  2021-06-11 21:04:32 
18.6000  14.5000  106  1014  2021-06-11 22:04:34 
18.6000  13.9000  106  1014  2021-06-11 23:04:31 
18.1000  13.0000  105  1014  2021-06-12 00:04:33 
18.1000  12.5000  105  1014  2021-06-12 01:04:35 
17.7000  12.0000  104  1015  2021-06-12 02:04:32 
17.5000  11.5000  104  1015  2021-06-12 03:04:34 
17.0000  11.0000  103  1014  2021-06-12 04:04:32 
16.7000  10.0000  103  1015  2021-06-12 05:04:33 
16.6000  10.0000  103  1016  2021-06-12 06:04:31 
16.5000  10.1000  102  1016  2021-06-12 07:04:33 
18.2000  19.1000  114  1016  2021-06-12 15:04:35 
18.4000  18.1000  115  1016  2021-06-12 16:04:33 
18.2000  17.6000  114  1018  2021-06-12 17:04:34 
18.1000  16.9000  115  1018  2021-06-12 18:04:32 
18.1000  16.1000  115  1018  2021-06-12 19:04:34 
18.5000  16.1000  116  1018  2021-06-12 20:04:31 
18.1000  16.1000  115  1018  2021-06-12 21:04:33 
18.1000  15.1000  113  1018  2021-06-12 22:04:35 
18.1000  13.4000  112  1018  2021-06-12 23:04:32 
17.6000  13.0000  111  1018  2021-06-13 00:04:34 
17.4000  12.0000  110  1019  2021-06-13 01:04:32 
17.1000  11.0000  107  1019  2021-06-13 02:04:33 
17.1000  10.5000  106  1018  2021-06-13 03:04:31 
16.6000  10.5000  106  1018  2021-06-13 04:04:33 
16.6000  12.0000  107  1019  2021-06-13 05:04:34 
16.6000  13.0000  113  1022  2021-06-13 09:04:33 
16.6000  13.0000  112  1023  2021-06-13 10:04:34 
16.9000  14.0000  111  1023  2021-06-13 11:04:32 
17.0000  15.0000  112  1023  2021-06-13 12:04:33 
17.1000  16.1000  112  1023  2021-06-13 13:04:35 
17.1000  16.4000  112  1022  2021-06-13 14:04:33 
17.6000  16.9000  113  1022  2021-06-13 15:04:34 
17.9000  17.1000  113  1022  2021-06-13 16:04:32 
17.6000  16.6000  112  1022  2021-06-13 17:04:34 
17.8000  15.6000  113  1022  2021-06-13 18:04:31 
18.1000  15.1000  114  1023  2021-06-13 19:04:33 
18.1000  13.5000  114  1022  2021-06-13 20:04:35 
18.1000  12.5000  113  1022  2021-06-13 21:04:32 
17.6000  12.0000  110  1022  2021-06-13 22:04:34 
17.4000  11.5000  110  1022  2021-06-13 23:04:32 
17.1000  12.0000  107  1023  2021-06-14 00:04:33 
17.1000  11.0000  107  1022  2021-06-14 01:04:35 
17.0000  10.5000  107  1022  2021-06-14 02:04:32 
17.0000  9.5000  107  1022  2021-06-14 03:04:34 
16.8000  9.5000  106  1021  2021-06-14 04:04:35 
16.6000  9.0000  105  1021  2021-06-14 05:04:32 
16.4000  9.5000  105  1020  2021-06-14 06:04:34 
16.2000  9.5000  104  1019  2021-06-14 07:04:35 
15.1000  9.5000  104  1020  2021-06-14 08:04:32 
17.1000  17.1000  115  1017  2021-06-14 16:04:34 
17.3000  16.2000  115  1017  2021-06-14 17:04:32 
17.4000  15.1000  114  1017  2021-06-14 18:04:33 
17.3000  14.5000  115  1018  2021-06-14 19:04:35 
17.2000  13.5000  115  1018  2021-06-14 20:04:32 
17.1000  12.1000  114  1018  2021-06-14 21:04:34 
17.1000  11.6000  112  1018  2021-06-14 22:04:32 
16.1000  9.9000  107  1017  2021-06-15 01:04:32 
16.1000  9.9000  106  1017  2021-06-15 02:04:34 
15.6000  9.5000  106  1017  2021-06-15 03:04:35 
15.6000  10.0000  106  1016  2021-06-15 04:04:32 
15.6000  10.0000  106  1016  2021-06-15 05:04:34 
15.2000  10.5000  107  1016  2021-06-15 06:04:31 
15.2000  11.0000  107  1017  2021-06-15 07:04:33 
15.6000  11.6000  113  1016  2021-06-15 08:04:35 
15.6000  12.5000  114  1016  2021-06-15 09:04:32 
15.6000  13.0000  115  1016  2021-06-15 10:04:34 
15.9000  14.5000  114  1015  2021-06-15 11:04:32 
16.1000  16.1000  114  1015  2021-06-15 12:04:34 
16.6000  16.4000  115  1014  2021-06-15 13:04:35 
16.6000  17.6000  116  1013  2021-06-15 14:04:33 
17.1000  18.4000  115  1013  2021-06-15 15:04:35 
17.1000  18.6000  115  1013  2021-06-15 16:04:32 
17.2000  18.1000  115  1013  2021-06-15 17:04:34 
17.5000  16.8000  115  1013  2021-06-15 18:04:35 
17.8000  16.1000  115  1014  2021-06-15 19:04:33 
18.1000  15.6000  115  1014  2021-06-15 20:04:35 
18.3000  15.6000  115  1015  2021-06-15 21:04:33 
18.1000  15.1000  114  1014  2021-06-15 22:04:34 
17.6000  15.1000  113  1014  2021-06-15 23:04:32 
17.6000  13.7000  112  1014  2021-06-16 00:04:34 
17.3000  13.5000  112  1014  2021-06-16 01:04:32 
17.1000  13.5000  112  1014  2021-06-16 02:04:34 
17.1000  12.5000  111  1013  2021-06-16 03:04:35 
17.1000  12.0000  112  1014  2021-06-16 04:04:33 
17.6000  11.5000  113  1014  2021-06-16 05:04:35 
17.1000  11.6000  111  1014  2021-06-16 06:04:32 
17.1000  11.5000  111  1014  2021-06-16 07:04:34 
17.1000  11.5000  110  1016  2021-06-16 08:04:36 
17.6000  17.6000  116  1017  2021-06-16 16:04:33 
18.5000  15.6000  116  1018  2021-06-16 19:04:35 
18.6000  16.1000  117  1018  2021-06-16 20:04:33 
19.1000  16.1000  117  1020  2021-06-16 21:04:35 
19.4000  16.1000  117  1020  2021-06-16 22:04:32 
18.8000  15.8000  115  1019  2021-06-16 23:04:34 
18.6000  15.6000  115  1019  2021-06-17 00:04:36 
18.1000  15.2000  114  1021  2021-06-17 01:04:33 
18.1000  15.3000  114  1020  2021-06-17 02:04:35 
18.1000  15.1000  114  1020  2021-06-17 03:04:32 
17.7000  14.5000  113  1021  2021-06-17 04:04:34 
17.6000  14.0000  113  1021  2021-06-17 05:04:36 
17.6000  13.6000  113  1021  2021-06-17 06:04:33 
17.3000  13.5000  112  1022  2021-06-17 07:04:35 
17.4000  13.6000  114  1023  2021-06-17 08:04:33 
17.3000  14.5000  115  1024  2021-06-17 09:04:34 
17.6000  15.1000  116  1024  2021-06-17 10:04:32 
17.6000  16.0000  115  1024  2021-06-17 11:04:34 
17.6000  16.6000  116  1024  2021-06-17 12:04:35 
17.6000  17.0000  117  1025  2021-06-17 13:04:33 
17.6000  17.1000  120  1025  2021-06-17 14:04:35 
18.1000  17.1000  121  1024  2021-06-17 15:04:33 
18.0000  16.6000  120  1026  2021-06-17 16:04:35 
18.1000  16.6000  120  1025  2021-06-17 17:04:33 
18.1000  16.6000  120  1026  2021-06-17 18:04:35 
18.1000  15.4000  123  1027  2021-06-17 19:04:33 
18.4000  14.5000  123  1027  2021-06-17 20:04:35 
18.6000  14.0000  122  1028  2021-06-17 21:04:33 
18.1000  13.5000  117  1029  2021-06-17 22:04:35 
17.6000  12.7000  116  1029  2021-06-17 23:04:33 
17.6000  12.5000  115  1028  2021-06-18 00:04:35 
17.4000  11.7000  114  1029  2021-06-18 01:04:32 
17.6000  11.5000  114  1029  2021-06-18 02:04:34 
17.2000  11.0000  113  1030  2021-06-18 03:04:36 
16.9000  10.0000  112  1030  2021-06-18 04:04:33 
16.6000  10.0000  112  1030  2021-06-18 05:04:35 
16.1000  9.5000  111  1030  2021-06-18 06:04:36 
16.4000  9.5000  111  1030  2021-06-18 07:04:33 
16.6000  9.5000  111  1031  2021-06-18 08:04:35 
17.2000  16.1000  115  1027  2021-06-18 17:04:34 
17.7000  15.6000  116  1027  2021-06-18 18:04:35 
17.7000  14.0000  116  1026  2021-06-18 19:04:33 
18.1000  12.5000  117  1028  2021-06-18 20:04:34 
17.9000  12.0000  114  1028  2021-06-18 21:04:36 
17.3000  11.0000  112  1027  2021-06-18 22:04:34 
16.9000  10.8000  111  1026  2021-06-18 23:04:35 
16.6000  10.0000  110  1025  2021-06-19 00:04:33 
16.6000  9.0000  107  1025  2021-06-19 01:04:34 
16.1000  9.0000  107  1025  2021-06-19 02:04:36 
15.6000  8.0000  106  1025  2021-06-19 03:04:33 
15.1000  8.0000  105  1025  2021-06-19 04:04:34 
14.5000  7.5000  105  1025  2021-06-19 05:04:36 
14.5000  7.5000  104  1023  2021-06-19 06:04:33 
15.5000  7.0000  105  1023  2021-06-19 07:04:35 
15.4000  7.0000  106  1023  2021-06-19 08:04:32 
15.0000  8.0000  106  1024  2021-06-19 09:04:34 
15.1000  11.0000  110  1024  2021-06-19 10:04:35 
15.1000  15.1000  107  1023  2021-06-19 11:04:33 
15.6000  17.6000  111  1023  2021-06-19 12:04:34 
15.9000  18.6000  113  1022  2021-06-19 13:04:36 
16.1000  20.6000  104  1021  2021-06-19 14:04:34 
16.6000  22.5000  111  1021  2021-06-19 15:04:36 
17.1000  21.6000  113  1020  2021-06-19 16:04:33 
17.1000  19.6000  112  1020  2021-06-19 17:04:35 
16.9000  17.6000  112  1021  2021-06-19 18:04:33 
17.0000  16.0000  112  1021  2021-06-19 19:04:34 
16.6000  14.0000  111  1021  2021-06-19 20:04:36 
16.6000  13.3000  110  1021  2021-06-19 21:04:34 
16.6000  12.9000  107  1020  2021-06-19 22:04:35 
16.6000  12.0000  107  1020  2021-06-19 23:04:33 
16.1000  11.9000  106  1020  2021-06-20 00:04:35 
16.1000  11.0000  106  1020  2021-06-20 01:04:36 
15.8000  11.0000  105  1020  2021-06-20 02:04:34 
15.6000  11.0000  105  1019  2021-06-20 03:04:35 
15.6000  10.9000  105  1019  2021-06-20 04:04:32 
15.6000  10.5000  105  1019  2021-06-20 05:04:34 
15.3000  10.2000  104  1019  2021-06-20 06:04:36 
15.1000  10.1000  104  1019  2021-06-20 07:04:33 
15.1000  13.0000  103  1020  2021-06-20 08:04:35 
19.1000  24.0000  74  1018  2021-06-20 18:04:36 
19.1000  23.8000  74  1017  2021-06-20 19:04:34 
19.4000  24.6000  74  1017  2021-06-20 20:04:35 
19.4000  25.1000  73  1019  2021-06-20 21:04:33 
19.6000  24.6000  73  1017  2021-06-20 22:04:35 
19.6000  23.7000  74  1017  2021-06-20 23:04:36 
19.6000  23.6000  74  1017  2021-06-21 00:04:34 
19.6000  24.5000  74  1017  2021-06-21 01:04:36 
19.8000  24.6000  74  1017  2021-06-21 02:04:33 
19.8000  24.3000  73  1017  2021-06-21 03:04:35 
20.1000  24.1000  73  1015  2021-06-21 04:04:33 
20.1000  24.6000  73  1015  2021-06-21 05:04:34 
19.9000  24.6000  73  1014  2021-06-21 06:04:36 
20.1000  24.5000  72  1014  2021-06-21 07:04:34 
20.6000  24.4000  71  1015  2021-06-21 08:04:35 
20.6000  24.6000  67  1015  2021-06-21 09:04:33 
20.9000  25.1000  67  1014  2021-06-21 10:04:35 
21.1000  25.3000  67  1015  2021-06-21 11:04:36 
21.6000  24.9000  67  1015  2021-06-21 12:04:34 
22.1000  24.6000  66  1014  2021-06-21 13:04:36 
22.0000  24.1000  72  1012  2021-06-21 14:04:33 
21.9000  23.1000  71  1011  2021-06-21 15:04:35 
21.6000  22.1000  72  1010  2021-06-21 16:04:37 
21.6000  22.1000  72  1010  2021-06-21 17:04:34 
21.7000  21.3000  72  1011  2021-06-21 18:04:36 
22.1000  20.7000  76  1013  2021-06-21 19:04:34 
22.1000  20.1000  100  1013  2021-06-21 20:04:35 
21.7000  19.6000  100  1013  2021-06-21 21:04:33 
21.8000  19.1000  100  1013  2021-06-21 22:04:35 
21.6000  19.1000  101  1014  2021-06-21 23:04:37 
21.6000  19.1000  101  1013  2021-06-22 00:04:34 
21.1000  18.6000  102  1013  2021-06-22 01:04:36 
21.1000  18.1000  103  1012  2021-06-22 02:04:34 
21.1000  18.1000  103  1013  2021-06-22 03:04:36 
20.7000  18.1000  103  1013  2021-06-22 04:04:34 
20.6000  18.1000  103  1013  2021-06-22 05:04:36 
20.6000  18.1000  103  1014  2021-06-22 06:04:33 
20.3000  17.8000  104  1013  2021-06-22 07:04:35 
20.5000  17.6000  105  1014  2021-06-22 08:04:33 
19.6000  14.7000  107  1015  2021-06-22 18:04:34 
19.6000  14.0000  111  1016  2021-06-22 19:04:36 
19.6000  13.5000  112  1016  15  2021-06-22 20:04:35 
19.6000  13.5000  111  1016  2021-06-22 21:04:33 
19.1000  13.0000  110  1017  2021-06-22 22:04:35 
18.7000  12.5000  107  1018  2021-06-22 23:04:34 
18.6000  13.0000  110  1018  2021-06-23 00:04:36 
18.5000  13.0000  107  1017  2021-06-23 01:04:34 
18.3000  13.0000  107  1017  2021-06-23 02:04:36 
18.1000  13.0000  107  1018  2021-06-23 03:04:33 
18.1000  12.9000  107  1017  2021-06-23 04:04:35 
18.1000  12.5000  107  1016  2021-06-23 05:04:37 
17.9000  12.5000  107  1016  2021-06-23 06:04:34 
17.6000  12.6000  110  1018  2021-06-23 07:04:36 
17.6000  12.0000  112  1018  2021-06-23 08:04:34 
17.6000  12.5000  111  1018  2021-06-23 09:04:36 
17.6000  13.5000  111  1019  2021-06-23 10:04:34 
17.7000  13.5000  112  1020  2021-06-23 11:04:36 
18.0000  14.0000  113  1021  2021-06-23 12:04:34 
18.0000  14.0000  112  1020  2021-06-23 13:04:36 
18.0000  13.0000  111  1020  2021-06-23 14:04:34 
18.1000  14.0000  112  1020  2021-06-23 15:04:36 
18.1000  13.5000  112  1021  2021-06-23 16:04:34 
18.0000  13.0000  110  1020  2021-06-23 17:04:36 
17.8000  13.0000  111  1020  2021-06-23 18:04:34 
17.8000  12.5000  110  1022  2021-06-23 19:04:36 
17.6000  12.0000  111  1023  2021-06-23 20:04:34 
17.8000  11.6000  111  1023  2021-06-23 21:04:36 
17.6000  11.0000  110  1022  2021-06-23 22:04:34 
17.1000  10.4000  107  1023  2021-06-23 23:04:36 
16.8000  9.7000  106  1024  2021-06-24 00:04:34 
16.5000  9.0000  106  1023  2021-06-24 01:04:35 
16.2000  9.0000  105  1022  2021-06-24 02:04:37 
16.0000  8.5000  105  1022  2021-06-24 03:04:34 
15.6000  8.4000  105  1021  2021-06-24 04:04:35 
15.6000  8.0000  105  1022  2021-06-24 05:04:37 
15.1000  8.0000  104  1023  2021-06-24 06:04:34 
15.1000  7.9000  106  1022  2021-06-24 07:04:36 
15.0000  8.0000  107  1023  2021-06-24 08:04:33 
15.1000  8.7000  107  1023  2021-06-24 09:04:35 
17.6000  12.0000  105  1020  2021-06-24 19:04:35 
17.8000  11.0000  106  1019  2021-06-24 20:04:37 
18.1000  10.0000  105  1019  2021-06-24 21:04:35 
17.6000  9.0000  103  1019  2021-06-24 22:04:36 
16.6000  8.5000  102  1018  2021-06-24 23:04:34 
16.1000  7.5000  101  1018  2021-06-25 00:04:35 
15.6000  7.0000  101  1017  2021-06-25 01:04:37 
15.2000  6.6000  100  1016  2021-06-25 02:04:34 
15.1000  6.5000  100  1015  2021-06-25 03:04:36 
15.1000  7.5000  100  1013  2021-06-25 04:04:37 
14.5000  8.6000  100  1013  2021-06-25 05:04:35 
14.2000  9.0000  100  1013  2021-06-25 06:04:36 
14.2000  9.5000  101  1013  2021-06-25 07:04:37 
14.9000  10.0000  104  1012  2021-06-25 08:04:34 
15.1000  12.0000  101  1011  2021-06-25 09:04:36 
16.1000  13.0000  105  1011  2021-06-25 10:04:34 
16.1000  12.5000  106  1012  2021-06-25 11:04:36 
16.8000  12.7000  107  1011  2021-06-25 12:04:33 
17.2000  14.0000  111  1010  2021-06-25 13:04:35 
17.4000  13.7000  111  1010  2021-06-25 14:04:34 
17.4000  14.0000  111  1010  2021-06-25 15:04:36 
17.6000  14.0000  112  1009  2021-06-25 16:04:34 
17.6000  13.5000  113  1011  2021-06-25 17:04:36 
17.7000  13.5000  113  1011  2021-06-25 18:04:34 
18.1000  13.9000  114  1013  2021-06-25 19:04:36 
18.2000  13.5000  115  1012  2021-06-25 20:04:34 
18.6000  13.4000  116  1013  2021-06-25 21:04:36 
18.0000  13.0000  114  1014  2021-06-25 22:04:34 
17.6000  12.5000  113  1013  2021-06-25 23:04:36 
17.1000  12.5000  111  1014  2021-06-26 00:04:35 
17.0000  12.5000  111  1015  2021-06-26 01:04:36 
16.8000  12.5000  111  1016  2021-06-26 02:04:34 
16.6000  12.5000  112  1014  2021-06-26 03:04:36 
16.4000  12.0000  112  1015  2021-06-26 04:04:34 
16.1000  12.0000  112  1015  2021-06-26 05:04:36 
16.1000  12.3000  111  1015  2021-06-26 06:04:34 
16.1000  11.5000  110  1016  2021-06-26 07:04:36 
16.1000  10.7000  107  1017  2021-06-26 08:04:37 
16.2000  12.0000  110  1018  2021-06-26 09:04:35 
18.6000  13.5000  112  1018  2021-06-26 20:04:38 
18.6000  13.5000  112  1018  2021-06-26 21:04:36 
18.1000  13.2000  111  1016  2021-06-26 22:04:34 
17.6000  13.0000  107  1017  2021-06-26 23:04:36 
17.6000  13.0000  107  1016  2021-06-27 00:04:34 
17.2000  12.5000  106  1014  2021-06-27 01:04:36 
17.1000  12.5000  106  1015  2021-06-27 02:04:38 
16.8000  12.5000  106  1014  2021-06-27 03:04:35 
16.8000  12.1000  105  1014  2021-06-27 04:04:34 
16.6000  12.0000  105  1013  2021-06-27 05:04:35 
16.6000  12.0000  105  1012  2021-06-27 06:04:37 
16.4000  11.9000  105  1012  2021-06-27 07:04:34 
16.1000  11.5000  105  1012  2021-06-27 08:04:36 
16.1000  12.0000  103  1012  2021-06-27 09:04:37 
16.2000  13.1000  104  1011  2021-06-27 10:04:35 
16.6000  14.0000  103  1012  2021-06-27 11:04:37 
16.6000  15.6000  104  1010  2021-06-27 12:04:34 
17.1000  16.3000  102  1010  2021-06-27 13:04:36 
17.1000  16.1000  102  1009  2021-06-27 14:04:37 
17.1000  16.1000  101  1008  2021-06-27 15:04:35 
17.4000  16.0000  102  1007  2021-06-27 16:04:36 
17.6000  15.6000  105  1008  2021-06-27 17:04:34 
17.6000  15.1000  105  1007  2021-06-27 18:04:36 
17.7000  15.1000  106  1008  2021-06-27 19:04:37 
18.1000  15.1000  107  1008  2021-06-27 20:04:35 
18.1000  15.1000  107  1008  2021-06-27 21:04:37 
17.8000  14.0000  110  1008  2021-06-27 22:04:34 
17.3000  14.3000  106  1007  2021-06-27 23:04:36 
17.6000  14.1000  106  1008  2021-06-28 00:04:38 
17.1000  14.4000  107  1006  2021-06-28 01:04:35 
17.1000  14.2000  107  1006  2021-06-28 02:04:37 
17.1000  14.3000  107  1006  2021-06-28 03:04:34 
16.9000  14.0000  111  1007  2021-06-28 04:04:36 
16.6000  13.1000  111  1008  2021-06-28 05:04:34 
16.6000  13.0000  113  1007  15  2021-06-28 06:04:36 
16.6000  12.6000  114  1008  31  2021-06-28 07:04:35 
16.6000  12.5000  114  1009  10  2021-06-28 08:04:37 
16.5000  12.0000  115  1010  2021-06-28 09:04:35 
17.5000  10.5000  116  1015  2021-06-28 20:04:37 
17.7000  10.5000  116  1016  2021-06-28 21:04:35 
17.1000  10.2000  113  1016  2021-06-28 22:04:37 
16.6000  10.0000  112  1016  2021-06-28 23:04:36 
16.6000  10.0000  112  1015  2021-06-29 00:04:38 
16.1000  10.0000  112  1015  2021-06-29 01:04:35 
15.9000  10.0000  112  1015  2021-06-29 02:04:37 
15.6000  10.0000  112  1015  2021-06-29 03:04:35 
15.6000  10.0000  112  1015  2021-06-29 04:04:36 
15.1000  10.0000  112  1014  2021-06-29 05:04:38 
15.1000  9.5000  112  1014  2021-06-29 06:04:35 
15.1000  9.8000  113  1013  2021-06-29 07:04:37 
15.6000  9.4000  114  1013  2021-06-29 08:04:34 
15.9000  9.5000  113  1013  2021-06-29 09:04:36 
15.6000  9.5000  112  1012  2021-06-29 10:04:38 
15.8000  9.5000  112  1011  2021-06-29 11:04:36 
16.1000  10.5000  112  1011  2021-06-29 12:04:38 
16.1000  10.0000  112  1010  2021-06-29 13:04:36 
16.5000  10.0000  113  1007  2021-06-29 14:04:38 
16.6000  10.5000  114  1007  2021-06-29 15:04:36 
17.1000  10.7000  113  1006  2021-06-29 16:04:38 
17.1000  10.9000  113  1005  2021-06-29 17:04:36 
17.1000  10.6000  113  1004  2021-06-29 18:04:38 
17.5000  11.0000  114  1004  2021-06-29 19:04:36 
17.5000  10.9000  115  1002  14  2021-06-29 20:04:38 
17.6000  12.0000  115  1000  23  2021-06-29 21:04:37 
17.1000  12.5000  115  1000  2021-06-29 22:04:35 
16.6000  11.5000  115  1004  2021-06-29 23:04:37 
16.1000  10.5000  114  1008  2021-06-30 00:04:36 
16.0000  11.0000  114  1012  2021-06-30 01:04:37 
15.7000  10.7000  114  1012  2021-06-30 02:04:35 
15.3000  11.0000  114  1013  2021-06-30 03:04:37 
15.1000  11.0000  114  1014  2021-06-30 04:04:34 
15.1000  11.0000  114  1014  2021-06-30 05:04:36 
15.1000  10.8000  114  1015  2021-06-30 06:04:38 
15.1000  10.7000  114  1015  2021-06-30 07:04:36 
14.9000  11.0000  115  1015  2021-06-30 08:04:38 
14.7000  10.7000  115  1015  2021-06-30 09:04:36 
18.1000  13.0000  117  1012  2021-06-30 21:04:37 
18.3000  13.0000  117  1012  12  2021-06-30 22:04:35 
17.6000  13.3000  117  1013  16  2021-06-30 23:04:37 
17.1000  12.7000  117  1014  2021-07-01 00:04:36 
16.6000  13.0000  116  1015  2021-07-01 01:04:37 
16.6000  13.0000  117  1016  2021-07-01 02:04:35 
16.5000  13.0000  116  1015  2021-07-01 03:04:36 
16.6000  12.0000  117  1017  2021-07-01 04:04:38 
16.1000  12.0000  116  1017  2021-07-01 05:04:36 
16.1000  11.5000  116  1018  2021-07-01 06:04:38 
15.6000  11.6000  115  1018  2021-07-01 07:04:36 
15.8000  11.5000  117  1019  2021-07-01 08:04:37 
15.6000  12.0000  116  1020  2021-07-01 09:04:35 
15.6000  12.2000  117  1021  2021-07-01 10:04:37 
16.1000  12.7000  117  1023  2021-07-01 11:04:35 
16.6000  13.5000  120  1023  2021-07-01 12:04:37 
17.1000  13.6000  120  1021  2021-07-01 13:04:35 
17.1000  14.0000  121  1021  2021-07-01 14:04:37 
17.1000  14.3000  121  1021  2021-07-01 15:04:35 
17.1000  14.2000  120  1022  2021-07-01 16:04:37 
17.1000  13.9000  120  1022  2021-07-01 17:04:35 
17.0000  13.5000  120  1022  2021-07-01 18:04:37 
17.6000  13.5000  121  1022  2021-07-01 19:04:35 
17.8000  13.5000  122  1022  2021-07-01 20:04:37 
17.8000  13.5000  122  1022  2021-07-01 21:04:35 
17.6000  13.5000  121  1023  2021-07-01 22:04:37 
17.3000  13.5000  120  1023  2021-07-01 23:04:35 
17.1000  13.5000  120  1023  2021-07-02 00:04:37 
17.1000  13.5000  117  1023  2021-07-02 01:04:38 
17.1000  13.5000  117  1022  2021-07-02 02:04:36 
17.1000  13.0000  116  1022  2021-07-02 03:04:37 
17.1000  13.0000  116  1021  2021-07-02 04:04:35 
16.8000  12.7000  115  1022  2021-07-02 05:04:37 
16.6000  12.5000  115  1021  2021-07-02 06:04:38 
16.6000  12.5000  115  1020  2021-07-02 07:04:36 
16.6000  12.5000  114  1021  2021-07-02 08:04:37 
16.6000  12.5000  114  1021  2021-07-02 09:04:39 
18.6000  14.5000  115  1015  2021-07-02 22:04:37 
18.1000  14.0000  114  1015  2021-07-02 23:04:39 
18.1000  14.4000  113  1015  2021-07-03 00:04:36 
18.1000  14.5000  113  1014  2021-07-03 01:04:38 
17.7000  14.5000  113  1015  2021-07-03 02:04:36 
17.6000  14.2000  114  1014  2021-07-03 03:04:38 
17.5000  14.2000  115  1013  2021-07-03 04:04:35 
17.4000  14.5000  115  1013  2021-07-03 05:04:37 
17.1000  14.5000  115  1013  2021-07-03 06:04:39 
17.1000  14.5000  116  1013  2021-07-03 07:04:36 
17.1000  13.5000  117  1015  12  2021-07-03 08:04:38 
16.7000  13.4000  120  1014  2021-07-03 09:04:36 
17.1000  13.5000  120  1016  2021-07-03 10:04:38 
16.7000  13.5000  120  1017  2021-07-03 11:04:37 
17.1000  14.5000  120  1016  2021-07-03 12:04:39 
17.1000  14.0000  120  1016  2021-07-03 13:04:37 
17.3000  14.2000  120  1016  2021-07-03 14:04:35 
17.5000  13.8000  117  1017  2021-07-03 15:04:38 
17.6000  13.5000  120  1018  2021-07-03 16:04:36 
17.6000  12.5000  122  1018  2021-07-03 17:04:38 
17.6000  11.8000  117  1019  2021-07-03 18:04:37 
17.6000  12.5000  120  1020  2021-07-03 19:04:39 
17.4000  12.0000  117  1022  2021-07-03 20:04:37 
17.6000  12.0000  116  1023  2021-07-03 21:04:35 
17.2000  11.8000  116  1023  2021-07-03 22:04:38 
17.6000  11.5000  116  1024  2021-07-03 23:04:36 
17.1000  11.5000  114  1023  2021-07-04 00:04:38 
17.1000  11.5000  114  1024  2021-07-04 01:04:36 
16.6000  11.1000  114  1024  2021-07-04 02:04:37 
16.6000  11.3000  114  1024  2021-07-04 03:04:39 
16.6000  11.5000  113  1024  2021-07-04 04:04:37 
16.2000  11.0000  112  1024  2021-07-04 05:04:38 
16.1000  11.0000  112  1024  2021-07-04 06:04:36 
16.1000  11.0000  112  1024  2021-07-04 07:04:37 
16.1000  11.0000  112  1026  2021-07-04 08:04:39 
15.7000  11.5000  113  1027  2021-07-04 09:04:37 
16.1000  11.9000  115  1030  2021-07-04 10:04:38 
18.6000  10.5000  113  1031  2021-07-04 22:04:40 
17.6000  9.0000  111  1030  2021-07-04 23:04:37 
16.7000  9.5000  107  1030  2021-07-05 00:04:39 
16.6000  8.5000  107  1032  2021-07-05 01:04:36 
16.1000  8.0000  106  1031  2021-07-05 02:04:37 
15.8000  7.5000  106  1032  2021-07-05 03:04:39 
15.2000  7.0000  106  1032  2021-07-05 04:04:36 
15.1000  8.0000  106  1032  2021-07-05 05:04:38 
15.1000  8.5000  106  1031  2021-07-05 06:04:39 
15.0000  8.0000  107  1031  2021-07-05 07:04:37 
14.6000  7.5000  107  1032  2021-07-05 08:04:38 
14.6000  8.0000  107  1032  2021-07-05 09:04:35 
14.5000  10.0000  111  1032  2021-07-05 10:04:37 
14.5000  11.5000  113  1033  2021-07-05 11:04:38 
15.1000  13.0000  112  1031  2021-07-05 12:04:36 
15.3000  14.5000  113  1031  2021-07-05 13:04:38 
15.6000  15.1000  113  1030  2021-07-05 14:04:39 
15.6000  15.1000  111  1029  2021-07-05 15:04:37 
15.8000  15.1000  112  1029  2021-07-05 16:04:39 
15.9000  14.3000  113  1030  2021-07-05 17:04:36 
15.6000  13.5000  113  1029  2021-07-05 18:04:38 
16.1000  12.0000  115  1029  2021-07-05 19:04:39 
16.6000  11.0000  117  1029  2021-07-05 20:04:37 
16.9000  10.8000  116  1028  2021-07-05 21:04:39 
16.8000  10.0000  115  1028  2021-07-05 22:04:36 
16.1000  9.5000  111  1028  2021-07-05 23:04:37 
15.6000  9.5000  110  1027  2021-07-06 00:04:39 
15.4000  9.4000  110  1027  2021-07-06 01:04:36 
15.1000  9.0000  110  1027  2021-07-06 02:04:39 
15.1000  8.9000  110  1027  2021-07-06 03:04:39 
15.1000  8.5000  107  1026  2021-07-06 04:04:36 
14.5000  8.5000  107  1026  2021-07-06 05:04:38 
14.3000  8.0000  107  1026  2021-07-06 06:04:39 
14.1000  7.8000  107  1026  2021-07-06 07:04:36 
14.5000  7.5000  111  1025  2021-07-06 08:04:38 
15.1000  8.0000  111  1026  2021-07-06 09:04:39 
15.6000  11.5000  112  1027  2021-07-06 10:04:37 
16.1000  10.0000  111  1025  2021-07-06 23:04:39 
16.0000  10.0000  110  1024  2021-07-07 00:04:36 
15.6000  9.6000  110  1023  2021-07-07 01:04:38 
15.6000  9.8000  107  1022  2021-07-07 02:04:39 
15.1000  9.5000  107  1021  2021-07-07 03:04:36 
15.1000  9.5000  107  1021  2021-07-07 04:04:38 
14.6000  9.0000  107  1021  2021-07-07 06:04:36 
14.5000  9.0000  107  1020  2021-07-07 07:04:37 
14.4000  8.0000  106  1020  2021-07-07 08:04:39 
14.3000  8.5000  110  1020  2021-07-07 09:04:40 
14.5000  11.0000  112  1020  2021-07-07 10:04:37 
15.0000  13.5000  112  1021  2021-07-07 11:04:39 
15.1000  14.5000  111  1019  2021-07-07 12:04:37 
15.1000  15.1000  110  1018  2021-07-07 13:04:38 
15.6000  16.6000  110  1016  2021-07-07 14:04:40 
15.6000  16.7000  111  1016  2021-07-07 15:04:37 
15.6000  16.6000  112  1015  2021-07-07 16:04:39 
16.0000  15.6000  113  1014  2021-07-07 17:04:36 
15.9000  14.4000  112  1014  2021-07-07 18:04:38 
16.1000  12.5000  114  1015  2021-07-07 19:04:40 
16.5000  11.1000  115  1015  2021-07-07 20:04:37 
16.6000  10.5000  113  1014  2021-07-07 21:04:39 
16.6000  9.1000  112  1014  2021-07-07 22:04:36 
15.9000  8.5000  107  1014  2021-07-07 23:04:38 
15.5000  8.0000  106  1013  2021-07-08 00:04:39 
15.1000  7.7000  105  1012  2021-07-08 01:04:37 
14.9000  7.0000  105  1013  2021-07-08 02:04:38 
14.5000  8.0000  105  1012  2021-07-08 03:04:40 
14.5000  8.0000  105  1011  2021-07-08 04:04:37 
14.5000  10.0000  105  1011  2021-07-08 05:04:38 
14.5000  10.7000  106  1011  2021-07-08 06:04:40 
14.0000  11.5000  110  1012  2021-07-08 07:04:37 
14.5000  12.0000  111  1012  2021-07-08 08:04:38 
15.2000  12.0000  113  1011  2021-07-08 09:04:40 
16.1000  12.5000  112  1012  2021-07-08 10:04:38 
16.1000  13.0000  113  1012  2021-07-08 11:04:41 
16.6000  13.5000  113  1011  2021-07-08 12:04:39 
16.6000  13.9000  112  1010  2021-07-08 13:04:37 
17.1000  13.5000  113  1009  2021-07-08 14:04:39 
16.6000  11.2000  114  1010  19  2021-07-08 15:04:37 
16.7000  10.5000  114  1012  16  2021-07-08 16:04:40 
16.6000  10.0000  113  1014  2021-07-08 17:04:38 
16.6000  9.0000  112  1015  2021-07-08 18:04:40 
16.4000  9.5000  111  1018  2021-07-08 19:04:38 
16.6000  9.1000  112  1019  2021-07-08 20:04:40 
16.6000  9.5000  112  1019  2021-07-08 21:04:38 
16.6000  9.2000  112  1022  2021-07-08 22:04:40 
16.1000  9.0000  111  1023  2021-07-08 23:04:38 
15.6000  9.2000  111  1024  2021-07-09 00:04:40 
15.3000  9.3000  111  1025  2021-07-09 01:04:37 
15.1000  9.0000  111  1024  2021-07-09 02:04:38 
14.8000  9.5000  111  1025  2021-07-09 03:04:40 
14.5000  9.0000  110  1026  2021-07-09 04:04:37 
14.4000  8.7000  110  1025  2021-07-09 05:04:38 
14.0000  8.4000  110  1025  2021-07-09 06:04:40 
13.9000  7.6000  110  1026  2021-07-09 07:04:37 
14.5000  7.5000  111  1026  2021-07-09 08:04:38 
14.5000  7.6000  112  1025  2021-07-09 09:04:40 
14.5000  10.0000  112  1027  2021-07-09 10:04:37 
15.0000  10.6000  114  1027  2021-07-09 11:04:39 
15.9000  12.5000  114  1026  2021-07-09 12:04:37 
15.6000  11.9000  113  1027  2021-07-09 13:04:38 
15.5000  12.0000  107  1025  2021-07-09 14:04:40 
15.3000  12.0000  110  1024  2021-07-09 15:04:38 
16.2000  12.0000  112  1024  2021-07-09 16:04:39 
16.4000  12.0000  111  1024  2021-07-09 17:04:37 
16.7000  11.5000  113  1024  2021-07-09 18:04:39 
16.7000  11.3000  113  1025  2021-07-09 19:04:36 
17.1000  11.0000  114  1025  2021-07-09 20:04:38 
17.1000  10.9000  113  1024  2021-07-09 21:04:40 
17.6000  10.0000  113  1025  2021-07-09 22:04:38 
16.6000  10.0000  111  1025  2021-07-09 23:04:39 
16.1000  9.5000  107  1024  2021-07-10 00:04:37 
16.0000  9.5000  107  1024  2021-07-10 01:04:38 
15.8000  9.5000  107  1023  2021-07-10 02:04:39 
15.6000  9.5000  106  1024  2021-07-10 03:04:37 
15.6000  8.5000  106  1023  2021-07-10 04:04:38 
15.2000  9.0000  106  1024  2021-07-10 05:04:39 
15.1000  9.0000  105  1025  2021-07-10 06:04:40 
15.1000  9.0000  105  1025  2021-07-10 07:04:37 
14.5000  9.0000  105  1025  2021-07-10 08:04:39 
14.5000  9.0000  106  1026  2021-07-10 09:04:40 
14.4000  9.9000  107  1025  2021-07-10 10:04:37 
15.1000  12.0000  107  1023  2021-07-10 12:04:41 
15.1000  13.5000  110  1024  2021-07-10 13:04:38 
15.1000  15.1000  112  1023  2021-07-10 14:04:40 
15.5000  15.0000  112  1023  2021-07-10 15:04:38 
15.6000  15.1000  113  1022  2021-07-10 16:04:39 
15.6000  14.2000  112  1023  2021-07-10 17:04:37 
15.8000  13.5000  112  1022  2021-07-10 18:04:38 
16.6000  12.5000  114  1023  2021-07-10 19:04:40 
17.1000  12.5000  115  1024  2021-07-10 20:04:38 
17.3000  12.5000  114  1023  2021-07-10 21:04:39 
17.6000  11.5000  115  1022  2021-07-10 22:04:37 
17.6000  11.1000  114  1023  2021-07-10 23:04:39 
17.1000  10.0000  113  1022  2021-07-11 00:04:40 
16.3000  9.3000  110  1023  2021-07-11 01:04:38 
15.9000  9.0000  107  1022  2021-07-11 02:04:39 
15.4000  9.0000  107  1021  2021-07-11 03:04:40 
14.9000  8.0000  106  1020  2021-07-11 04:04:38 
14.5000  8.5000  106  1021  2021-07-11 05:04:39 
14.0000  8.0000  105  1021  2021-07-11 06:04:40 
14.0000  7.5000  105  1020  2021-07-11 07:04:38 
13.7000  7.0000  105  1020  2021-07-11 08:04:39 
13.9000  8.0000  107  1020  2021-07-11 09:04:41 
14.0000  10.5000  112  1021  2021-07-11 10:04:38 
14.5000  12.0000  114  1022  2021-07-11 11:04:39 
15.1000  13.5000  114  1020  2021-07-11 12:04:37 
15.1000  14.0000  114  1019  2021-07-11 13:04:39 
15.1000  14.5000  114  1018  2021-07-11 14:04:40 
15.6000  15.5000  116  1017  2021-07-11 15:04:38 
15.6000  15.6000  116  1017  2021-07-11 16:04:39 
16.1000  15.1000  115  1017  2021-07-11 17:04:41 
16.1000  14.0000  115  1017  2021-07-11 18:04:39 
16.7000  14.0000  117  1017  2021-07-11 19:04:40 
17.1000  13.5000  117  1016  2021-07-11 20:04:38 
17.1000  13.5000  117  1016  2021-07-11 21:04:39 
17.6000  13.2000  117  1015  2021-07-11 22:04:37 
17.1000  13.0000  116  1016  2021-07-11 23:04:39 
16.6000  13.0000  115  1016  2021-07-12 00:04:40 
16.1000  12.5000  114  1015  2021-07-12 01:04:38 
16.3000  13.0000  114  1015  2021-07-12 02:04:39 
16.1000  13.4000  113  1014  2021-07-12 03:04:37 
16.1000  13.1000  113  1013  2021-07-12 04:04:39 
16.0000  13.1000  113  1012  2021-07-12 05:04:40 
15.8000  12.9000  113  1010  2021-07-12 06:04:38 
15.6000  12.5000  113  1011  2021-07-12 07:04:39 
15.8000  12.5000  114  1010  2021-07-12 08:04:37 
15.6000  12.0000  116  1012  15  2021-07-12 09:04:39 
15.6000  10.5000  116  1013  13  2021-07-12 10:04:37 
20.7000  9.8000  100  1014  2021-07-12 13:04:41 
20.4000  10.0000  76  1014  2021-07-12 14:04:39 
20.6000  9.3000  74  1015  2021-07-12 15:04:37 
19.1000  8.9000  72  1015  2021-07-12 15:33:10 
19.7000  9.0000  73  1014  2021-07-12 15:42:00 
19.9000  9.0000  72  1014  2021-07-12 15:54:30 
20.1000  9.0000  72  1015  2021-07-12 16:04:41 
20.0000  9.0000  71  1016  2021-07-12 17:04:39 
19.8000  8.5000  67  1018  2021-07-12 18:04:41 
20.4000  8.5000  66  1018  2021-07-12 19:04:39 
19.1000  7.0000  64  1020  2021-07-12 20:04:41 
16.5000  8.5000  67  1020  2021-07-12 21:04:39 
15.5000  7.0000  72  1021  2021-07-12 22:04:37 
15.0000  7.0000  74  1023  2021-07-12 23:04:39 
14.5000  7.0000  75  1023  2021-07-13 00:04:37 
14.4000  7.5000  75  1024  2021-07-13 01:04:40 
14.0000  7.5000  76  1025  2021-07-13 02:04:37 
13.7000  7.5000  76  1025  2021-07-13 03:04:40 
13.5000  7.0000  76  1027  2021-07-13 04:04:38 
13.5000  7.0000  77  1027  2021-07-13 05:04:40 
13.0000  7.0000  77  1028  2021-07-13 06:04:38 
13.0000  6.3000  100  1028  2021-07-13 07:04:40 
13.8000  6.3000  101  1029  2021-07-13 08:04:38 
16.0000  7.0000  74  1029  2021-07-13 09:04:40 
17.6000  8.0000  73  1031  2021-07-13 10:04:38 
18.1000  9.5000  73  1031  2021-07-13 11:04:40 
18.1000  10.6000  71  1032  2021-07-13 12:04:38 
18.6000  10.5000  70  1031  2021-07-13 13:04:41 
19.6000  11.5000  65  1032  2021-07-13 14:04:39 
19.5000  12.0000  65  1031  2021-07-13 15:04:37 
20.3000  11.5000  66  1032  2021-07-13 16:04:40 
20.1000  11.0000  66  1032  2021-07-13 17:04:38 
19.1000  10.3000  70  1032  2021-07-13 18:04:40 
20.0000  9.7000  71  1032  2021-07-13 19:04:39 
20.1000  9.0000  74  1032  2021-07-13 20:04:41 
20.1000  9.0000  73  1033  2021-07-13 21:04:39 
20.7000  8.0000  72  1034  2021-07-13 22:04:41 
17.5000  7.5000  72  1033  2021-07-13 23:04:39 
15.5000  6.1000  75  1033  2021-07-14 00:04:41 
14.7000  6.0000  77  1032  2021-07-14 01:04:39 
14.4000  6.0000  77  1032  2021-07-14 02:04:41 
14.0000  7.0000  100  1033  2021-07-14 03:04:39 
13.8000  7.5000  101  1033  2021-07-14 04:04:38 
13.5000  7.5000  101  1034  2021-07-14 05:04:40 
13.5000  7.5000  102  1033  2021-07-14 06:04:38 
13.3000  7.5000  102  1033  2021-07-14 07:04:40 
15.5000  7.7000  103  1034  2021-07-14 08:04:38 
17.6000  7.6000  76  1033  2021-07-14 09:04:40 
16.8000  8.9000  77  1033  2021-07-14 10:04:38 
17.6000  9.5000  73  1032  2021-07-14 11:04:40 
20.5000  12.1000  67  1031  2021-07-14 17:04:39 
20.6000  11.7000  67  1031  2021-07-14 18:04:41 
21.1000  11.0000  71  1031  2021-07-14 19:04:39 
20.1000  10.5000  72  1030  2021-07-14 20:04:38 
19.6000  10.5000  73  1031  2021-07-14 21:04:40 
18.2000  9.5000  75  1030  2021-07-14 22:04:38 
16.5000  8.7000  76  1030  2021-07-14 23:04:40 
15.5000  8.0000  77  1030  2021-07-15 00:04:38 
14.9000  7.0000  77  1029  2021-07-15 01:04:40 
14.5000  7.0000  77  1030  2021-07-15 02:04:39 
14.0000  7.0000  100  1029  2021-07-15 03:04:41 
13.5000  6.3000  100  1028  2021-07-15 04:04:39 
13.1000  6.0000  100  1028  2021-07-15 05:04:41 
12.9000  5.7000  100  1028  2021-07-15 06:04:39 
12.6000  5.5000  100  1029  2021-07-15 07:04:41 
12.5000  5.5000  100  1030  2021-07-15 08:04:39 
12.5000  6.5000  103  1031  2021-07-15 09:04:41 
13.0000  8.5000  104  1030  2021-07-15 10:04:39 
14.5000  11.0000  102  1030  2021-07-15 11:04:41 
15.0000  13.5000  101  1029  2021-07-15 12:04:39 
16.1000  15.0000  102  1030  2021-07-15 13:04:41 
17.3000  15.0000  101  1029  2021-07-15 14:04:40 
17.6000  15.7000  77  1028  2021-07-15 15:04:38 
17.8000  16.0000  76  1029  2021-07-15 16:04:40 
17.6000  15.0000  74  1029  2021-07-15 17:04:38 
16.6000  14.0000  76  1029  2021-07-15 18:04:41 
19.1000  12.3000  75  1031  2021-07-15 19:04:39 
20.4000  11.0000  74  1029  2021-07-15 20:04:41 
19.6000  10.0000  74  1029  2021-07-15 21:04:39 
20.2000  9.0000  72  1029  2021-07-15 22:04:41 
18.5000  7.7000  71  1029  2021-07-15 23:04:39 
16.0000  7.5000  75  1028  2021-07-16 00:04:42 
15.0000  6.5000  76  1029  2021-07-16 01:04:40 
14.0000  6.3000  77  1028  2021-07-16 02:04:38 
13.5000  5.5000  77  1028  2021-07-16 03:04:41 
13.2000  5.2000  77  1028  2021-07-16 04:04:39 
13.0000  4.5000  100  1027  2021-07-16 05:04:41 
12.5000  4.5000  100  1026  2021-07-16 06:04:39 
12.1000  4.5000  100  1026  2021-07-16 07:04:41 
15.0000  4.0000  76  1027  2021-07-16 08:04:39 
18.1000  5.5000  71  1027  2021-07-16 09:04:41 
15.0000  8.9000  75  1026  2021-07-16 10:04:39 
14.5000  12.0000  76  1027  2021-07-16 11:04:41 
21.1000  15.0000  76  1025  2021-07-16 18:04:42 
21.1000  10.0000  67  1025  2021-07-16 21:04:42 
19.4000  10.0000  66  1026  2021-07-16 22:04:40 
16.5000  9.5000  73  1027  2021-07-16 23:04:42 
15.8000  9.0000  75  1026  2021-07-17 00:04:40 
15.1000  8.0000  76  1027  2021-07-17 01:04:42 
14.5000  7.6000  77  1026  2021-07-17 02:04:40 
14.0000  7.0000  77  1027  2021-07-17 03:04:39 
13.5000  6.5000  77  1027  2021-07-17 04:04:41 
13.5000  7.0000  100  1027  2021-07-17 05:04:39 
13.0000  6.5000  100  1027  2021-07-17 06:04:41 
13.0000  6.5000  101  1027  2021-07-17 07:04:39 
12.7000  7.0000  101  1028  2021-07-17 08:04:41 
13.0000  8.5000  102  1028  2021-07-17 09:04:39 
14.5000  12.0000  77  1028  2021-07-17 10:04:41 
15.0000  14.3000  103  1028  2021-07-17 11:04:40 
16.5000  16.0000  107  1029  2021-07-17 12:04:42 
16.5000  17.0000  105  1027  2021-07-17 13:04:40 
17.0000  18.1000  103  1027  2021-07-17 14:04:38 
18.1000  17.6000  103  1026  2021-07-17 15:04:41 
18.1000  17.2000  102  1027  2021-07-17 16:04:39 
18.1000  16.3000  105  1027  2021-07-17 17:04:41 
20.8000  15.0000  103  1028  2021-07-17 18:04:39 
22.1000  14.5000  100  1028  2021-07-17 19:04:42 
21.1000  14.0000  100  1027  2021-07-17 20:04:40 
21.6000  13.5000  100  1028  2021-07-17 21:04:39 
20.9000  13.5000  100  1027  2021-07-17 22:04:41 
17.6000  13.0000  103  1027  2021-07-17 23:04:39 
17.0000  12.9000  105  1028  2021-07-18 00:04:42 
16.5000  11.7000  105  1026  2021-07-18 01:04:40 
16.0000  10.5000  105  1026  2021-07-18 02:04:38 
15.5000  10.5000  105  1026  2021-07-18 03:04:40 
15.5000  9.5000  105  1026  2021-07-18 04:04:38 
15.0000  8.5000  105  1024  2021-07-18 05:04:40 
14.5000  8.5000  105  1024  2021-07-18 06:04:38 
14.1000  8.0000  105  1024  2021-07-18 07:04:40 
14.0000  7.5000  104  1024  2021-07-18 08:04:38 
13.9000  8.1000  105  1024  2021-07-18 09:04:41 
14.4000  10.7000  106  1024  2021-07-18 10:04:38 
15.4000  13.6000  111  1023  2021-07-18 11:04:41 
21.3000  20.1000  63  1019  2021-07-18 18:04:41 
22.4000  19.7000  62  1019  2021-07-18 19:04:39 
23.4000  19.6000  63  1019  2021-07-18 20:04:42 
23.1000  17.6000  63  1019  2021-07-18 21:04:40 
24.0000  17.6000  64  1020  2021-07-18 22:04:38 
21.6000  16.8000  64  1020  2021-07-18 23:04:41 
19.6000  15.5000  67  1020  2021-07-19 00:04:39 
18.6000  15.5000  71  1021  2021-07-19 01:04:41 
18.1000  13.5000  73  1018  2021-07-19 02:04:40 
17.6000  12.5000  74  1019  2021-07-19 03:04:42 
17.0000  12.0000  74  1019  2021-07-19 04:04:40 
16.5000  11.0000  75  1018  2021-07-19 05:04:38 
16.5000  10.5000  75  1019  2021-07-19 06:04:42 
16.0000  10.5000  76  1019  2021-07-19 07:04:40 
18.1000  10.3000  75  1020  2021-07-19 08:04:42 
20.6000  12.0000  73  1021  2021-07-19 09:04:40 
18.6000  14.0000  75  1021  2021-07-19 10:04:39 
18.6000  14.9000  76  1021  2021-07-19 11:04:41 
19.1000  16.5000  76  1020  2021-07-19 12:04:39 
22.6000  16.0000  72  1021  2021-07-19 13:04:42 
22.6000  14.5000  71  1022  2021-07-19 14:04:40 
23.1000  13.9000  72  1021  2021-07-19 15:04:38 
22.6000  13.5000  72  1020  2021-07-19 16:04:41 
23.1000  13.4000  71  1021  2021-07-19 17:04:39 
22.3000  12.5000  70  1021  2021-07-19 18:04:42 
22.6000  12.0000  70  1022  2021-07-19 19:04:40 
23.2000  11.7000  67  1023  2021-07-19 20:04:39 
23.0000  11.0000  66  1024  2021-07-19 21:04:41 
23.4000  11.5000  67  1024  2021-07-19 22:04:39 
20.4000  11.5000  71  1023  2021-07-19 23:04:42 
18.7000  11.5000  74  1022  2021-07-20 00:04:40 
18.1000  11.5000  75  1023  2021-07-20 01:04:39 
17.6000  11.5000  76  1022  2021-07-20 02:04:41 
17.5000  11.5000  77  1022  2021-07-20 03:04:39 
16.8000  11.0000  100  1022  2021-07-20 04:04:42 
16.5000  10.5000  100  1021  2021-07-20 05:04:40 
16.2000  11.0000  77  1022  2021-07-20 06:04:42 
16.0000  11.0000  100  1023  2021-07-20 07:04:40 
16.0000  10.5000  100  1025  2021-07-20 08:04:42 
15.7000  10.1000  101  1024  2021-07-20 09:04:41 
20.3000  10.0000  75  1025  2021-07-20 10:04:39 
21.1000  11.5000  72  1026  2021-07-20 11:04:41 
21.1000  12.0000  70  1025  2021-07-20 12:04:40 
21.8000  13.8000  66  1026  2021-07-20 13:04:42 
22.1000  13.0000  63  1026  2021-07-20 14:04:40 
21.8000  13.0000  63  1026  2021-07-20 15:04:39 
21.5000  12.5000  63  1027  2021-07-20 16:04:41 
20.6000  10.7000  66  1026  2021-07-20 17:04:39 
21.1000  9.6000  67  1025  2021-07-20 18:04:42 
21.6000  9.1000  70  1026  2021-07-20 19:04:40 
21.6000  8.9000  70  1027  2021-07-20 20:04:42 
19.6000  8.0000  72  1028  2021-07-20 21:04:40 
18.6000  7.7000  74  1028  2021-07-20 22:04:42 
16.3000  7.9000  74  1029  2021-07-20 23:04:40 
15.6000  8.0000  75  1028  2021-07-21 00:04:42 
15.5000  8.1000  76  1028  2021-07-21 01:04:41 
15.0000  8.5000  77  1027  2021-07-21 02:04:41 
15.0000  9.0000  76  1028  2021-07-21 03:04:41 
14.8000  9.5000  76  1027  2021-07-21 04:04:39 
14.5000  9.1000  75  1027  2021-07-21 05:04:41 
14.5000  11.0000  76  1027  2021-07-21 07:04:42 
19.1000  11.5000  72  1027  2021-07-21 10:04:42 
20.1000  11.5000  70  1027  2021-07-21 12:04:39 
20.6000  11.0000  67  1028  2021-07-21 13:04:41 
20.3000  10.5000  70  1028  2021-07-21 14:04:40 
20.6000  10.0000  66  1027  2021-07-21 15:04:42 
20.4000  9.5000  65  1027  2021-07-21 16:04:40 
19.6000  9.5000  64  1030  2021-07-21 17:04:42 
16.9000  9.5000  67  1030  2021-07-21 18:04:40 
16.5000  8.4000  70  1031  2021-07-21 19:04:42 
16.0000  8.0000  71  1031  2021-07-21 20:04:40 
20.9000  8.5000  66  1032  2021-07-21 21:04:42 
18.6000  8.0000  65  1033  2021-07-21 22:04:41 
16.0000  7.5000  72  1033  2021-07-21 23:04:39 
15.2000  7.5000  74  1034  2021-07-22 00:04:41 
14.5000  7.5000  75  1034  2021-07-22 01:04:39 
14.2000  7.0000  76  1035  2021-07-22 02:04:41 
14.0000  6.8000  76  1036  2021-07-22 03:04:39 
13.5000  6.5000  76  1035  2021-07-22 04:04:41 
13.5000  7.0000  77  1035  2021-07-22 05:04:39 
13.2000  7.0000  77  1035  2021-07-22 06:04:41 
13.0000  7.0000  100  1035  2021-07-22 07:04:39 
13.0000  6.5000  100  1037  2021-07-22 08:04:41 
17.6000  7.0000  72  1038  2021-07-22 09:04:39 
19.6000  9.0000  66  1037  2021-07-22 10:04:41 
19.0000  10.4000  70  1038  2021-07-22 11:04:39 
19.1000  10.5000  67  1037  2021-07-22 12:04:42 
20.6000  11.5000  65  1037  2021-07-22 13:04:40 
20.8000  12.5000  63  1038  2021-07-22 14:04:42 
21.6000  13.0000  61  1037  2021-07-22 15:04:40 
21.1000  12.0000  63  1037  2021-07-22 16:04:43 
19.6000  11.0000  64  1038  2021-07-22 17:04:41 
19.9000  10.5000  64  1037  2021-07-22 18:04:39 
20.6000  9.5000  66  1037  2021-07-22 19:04:41 
20.5000  9.5000  67  1039  2021-07-22 20:04:39 
19.6000  9.0000  70  1038  2021-07-22 21:04:41 
19.6000  8.4000  70  1038  2021-07-22 22:04:39 
15.5000  7.5000  73  1038  2021-07-22 23:04:41 
14.5000  7.0000  74  1039  2021-07-23 00:04:39 
13.9000  6.0000  75  1039  2021-07-23 01:04:41 
13.5000  5.5000  75  1038  2021-07-23 02:04:39 
13.0000  5.3000  76  1038  2021-07-23 03:04:41 
12.5000  5.2000  76  1038  2021-07-23 04:04:39 
12.5000  7.0000  76  1038  2021-07-23 05:04:41 
12.0000  7.5000  77  1038  2021-07-23 07:04:42 
12.0000  7.5000  100  1038  2021-07-23 08:04:40 
12.2000  8.5000  100  1038  2021-07-23 09:04:42 
12.5000  9.5000  100  1038  2021-07-23 10:04:40 
13.0000  10.5000  100  1037  2021-07-23 11:04:42 
14.0000  11.2000  77  1037  2021-07-23 12:04:40 
14.5000  13.4000  67  1036  2021-07-23 13:04:43 
15.5000  14.0000  64  1036  2021-07-23 14:04:41 
19.1000  14.0000  60  1034  2021-07-23 15:04:43 
21.0000  14.1000  56  1034  2021-07-23 16:04:41 
20.1000  14.0000  55  1034  2021-07-23 17:04:39 
20.6000  12.5000  60  1034  2021-07-23 18:04:42 
20.7000  11.5000  62  1034  2021-07-23 19:04:40 
20.7000  10.5000  62  1033  2021-07-23 20:04:42 
16.5000  9.0000  63  1034  2021-07-23 21:04:40 
15.1000  8.5000  70  1033  2021-07-23 22:04:42 
14.5000  8.0000  71  1032  2021-07-23 23:04:40 
14.0000  7.1000  72  1032  2021-07-24 00:04:42 
13.5000  6.5000  72  1032  2021-07-24 01:04:40 
13.0000  5.5000  73  1032  2021-07-24 02:04:42 
12.5000  5.5000  73  1033  2021-07-24 03:04:40 
12.5000  5.0000  75  1033  2021-07-24 04:04:42 
12.5000  4.5000  75  1031  2021-07-24 05:04:40 
11.8000  4.0000  74  1032  2021-07-24 06:04:42 
11.5000  3.5000  74  1032  2021-07-24 07:04:40 
11.0000  3.5000  74  1031  2021-07-24 08:04:42 
11.1000  4.5000  76  1030  2021-07-24 09:04:40 
16.5000  9.0000  72  1031  2021-07-24 10:04:42 
19.1000  12.2000  65  1030  2021-07-24 11:04:40 
15.8000  15.0000  66  1030  2021-07-24 12:04:42 
16.0000  16.5000  65  1029  2021-07-24 13:04:40 
16.3000  17.0000  64  1029  2021-07-24 14:04:43 
16.1000  17.0000  65  1028  2021-07-24 15:04:41 
16.5000  16.5000  66  1027  2021-07-24 16:04:43 
16.0000  15.5000  70  1028  2021-07-24 17:04:41 
17.0000  14.0000  70  1028  2021-07-24 18:04:43 
19.8000  11.5000  65  1029  2021-07-24 19:04:41 
20.7000  10.0000  63  1028  2021-07-24 20:04:39 
20.1000  8.5000  64  1029  2021-07-24 21:04:41 
21.0000  8.0000  63  1028  2021-07-24 22:04:40 
15.0000  6.0000  66  1029  2021-07-25 01:04:43 
14.0000  5.5000  70  1028  2021-07-25 02:04:42 
13.5000  5.5000  70  1027  2021-07-25 03:04:43 
13.0000  5.0000  71  1027  2021-07-25 04:04:41 
12.5000  4.5000  71  1026  2021-07-25 05:04:43 
12.1000  4.5000  71  1026  2021-07-25 06:04:40 
11.5000  4.5000  72  1026  2021-07-25 08:04:42 
12.0000  6.3000  74  1027  2021-07-25 09:04:40 
12.5000  10.5000  74  1027  2021-07-25 10:04:42 
13.5000  13.8000  75  1027  2021-07-25 11:04:40 
15.3000  16.0000  60  1026  2021-07-25 12:04:42 
16.1000  18.1000  60  1025  2021-07-25 13:04:40 
18.1000  18.8000  63  1025  2021-07-25 14:04:42 
17.0000  19.1000  62  1023  2021-07-25 15:04:40 
17.0000  18.6000  64  1022  2021-07-25 16:04:42 
16.9000  17.8000  65  1023  2021-07-25 17:04:41 
16.5000  15.6000  67  1023  2021-07-25 18:04:43 
16.5000  14.0000  71  1023  2021-07-25 19:04:41 
17.3000  12.5000  72  1023  2021-07-25 20:04:43 
21.7000  11.5000  65  1022  2021-07-25 21:04:41 
21.9000  10.5000  63  1024  2021-07-25 22:04:39 
18.9000  10.2000  66  1022  2021-07-25 23:04:42 
16.0000  9.5000  70  1021  2021-07-26 00:04:40 
15.1000  9.0000  71  1021  2021-07-26 01:04:42 
14.8000  8.5000  72  1020  2021-07-26 02:04:40 
15.0000  12.1000  71  1019  2021-07-26 03:04:42 
15.0000  14.0000  67  1019  2021-07-26 04:04:40 
15.0000  15.5000  66  1018  2021-07-26 05:04:42 
15.0000  16.0000  65  1018  2021-07-26 06:04:40 
15.5000  16.5000  65  1019  2021-07-26 07:04:42 
15.5000  16.7000  64  1019  2021-07-26 08:04:40 
16.1000  17.2000  64  1019  2021-07-26 09:04:43 
19.1000  18.1000  55  1020  2021-07-26 10:04:41 
19.6000  20.1000  47  1017  2021-07-26 11:04:43 
18.6000  21.1000  53  1017  2021-07-26 12:04:41 
19.1000  22.4000  55  1017  2021-07-26 13:04:43 
21.6000  23.6000  45  1017  2021-07-26 14:04:42 
22.6000  23.8000  37  1014  2021-07-26 15:04:40 
22.6000  23.6000  40  1013  2021-07-26 16:04:42 
22.5000  23.3000  37  1013  2021-07-26 17:04:41 
21.6000  22.1000  37  1013  2021-07-26 18:04:43 
21.4000  21.6000  47  1013  2021-07-26 19:04:41 
21.6000  21.0000  51  1013  2021-07-26 20:04:40 
21.6000  19.8000  52  1013  2021-07-26 21:04:42 
21.6000  18.6000  53  1014  2021-07-26 22:04:41 
19.6000  17.0000  52  1013  2021-07-26 23:04:43 
19.1000  16.0000  55  1015  2021-07-27 00:04:41 
18.8000  15.0000  57  1015  2021-07-27 01:04:40 
18.6000  14.7000  60  1013  2021-07-27 02:04:44 
18.2000  14.3000  61  1014  2021-07-27 03:04:40 
18.1000  14.0000  62  1014  2021-07-27 04:04:43 
17.9000  14.6000  63  1014  2021-07-27 05:04:41 
17.6000  14.7000  63  1014  2021-07-27 06:04:43 
17.6000  14.5000  70  1016  2021-07-27 09:04:43 
19.6000  14.2000  70  1016  2021-07-27 10:04:41 
21.3000  15.5000  63  1016  2021-07-27 11:04:43 
22.1000  16.9000  60  1017  2021-07-27 12:04:41 
22.1000  17.4000  57  1014  2021-07-27 13:04:45 
21.6000  18.1000  57  1014  2021-07-27 14:04:43 
23.1000  17.7000  57  1014  2021-07-27 15:04:41 
22.6000  17.0000  60  1014  2021-07-27 16:04:43 
22.2000  16.5000  61  1014  2021-07-27 17:04:42 
21.1000  14.0000  65  1017  2021-07-27 18:04:40 
21.6000  13.0000  67  1017  2021-07-27 19:04:43 
22.1000  12.5000  70  1017  2021-07-27 20:04:41 
22.4000  12.5000  66  1019  2021-07-27 21:04:43 
22.4000  12.0000  67  1019  2021-07-27 22:04:42 
21.8000  11.5000  66  1019  2021-07-27 23:04:40 
18.6000  11.0000  67  1020  2021-07-28 00:04:43 
18.1000  11.0000  71  1020  2021-07-28 01:04:41 
17.6000  10.5000  72  1021  2021-07-28 02:04:43 
17.0000  10.2000  72  1021  2021-07-28 03:04:41 
16.5000  9.5000  73  1020  2021-07-28 04:04:44 
16.2000  9.3000  73  1019  2021-07-28 05:04:41 
16.0000  9.0000  73  1021  2021-07-28 06:04:43 
15.7000  8.5000  76  1022  2021-07-28 07:04:41 
15.5000  8.5000  76  1021  2021-07-28 08:04:43 
15.5000  9.5000  76  1022  2021-07-28 09:04:41 
16.2000  11.5000  75  1022  2021-07-28 10:04:44 
20.5000  12.0000  67  1023  2021-07-28 11:04:42 
22.4000  12.5000  61  1021  2021-07-28 14:04:41 
23.6000  14.0000  57  1022  2021-07-28 15:04:44 
23.1000  14.0000  56  1021  2021-07-28 16:04:42 
21.9000  13.1000  56  1022  2021-07-28 17:04:40 
21.9000  12.9000  60  1021  2021-07-28 18:04:43 
21.2000  12.5000  60  1022  2021-07-28 19:04:41 
21.5000  12.2000  64  1022  2021-07-28 20:04:43 
22.4000  12.0000  64  1022  2021-07-28 21:04:42 
22.1000  12.5000  63  1023  2021-07-28 22:04:40 
18.6000  12.5000  65  1023  2021-07-28 23:04:42 
18.1000  12.6000  67  1023  2021-07-29 00:04:40 
17.6000  13.0000  70  1023  2021-07-29 01:04:43 
17.0000  13.0000  71  1024  2021-07-29 02:04:42 
17.0000  12.9000  72  1024  2021-07-29 03:04:40 
17.0000  12.5000  73  1023  2021-07-29 04:04:42 
16.5000  12.5000  74  1023  2021-07-29 05:04:41 
16.5000  12.5000  75  1023  2021-07-29 06:04:43 
19.1000  12.5000  72  1026  2021-07-29 09:04:43 
19.6000  13.0000  71  1027  2021-07-29 10:04:41 
19.1000  13.7000  72  1028  2021-07-29 11:04:44 
20.6000  14.0000  71  1028  2021-07-29 12:04:42 
22.5000  14.8000  67  1028  2021-07-29 13:04:40 
22.6000  15.3000  66  1028  2021-07-29 14:04:43 
23.6000  15.0000  66  1028  2021-07-29 15:04:41 
23.1000  15.0000  64  1029  2021-07-29 16:04:43 
22.1000  14.2000  66  1029  2021-07-29 17:04:42 
20.6000  13.5000  67  1029  2021-07-29 18:04:40 
20.6000  13.1000  70  1029  2021-07-29 19:04:43 
21.4000  13.0000  72  1031  2021-07-29 20:04:41 
21.6000  13.0000  72  1031  2021-07-29 21:04:43 
21.8000  12.5000  72  1032  2021-07-29 22:04:42 
18.9000  11.4000  74  1031  2021-07-29 23:04:40 
18.1000  11.5000  75  1030  2021-07-30 00:04:43 
17.3000  10.5000  76  1032  2021-07-30 01:04:41 
16.9000  10.0000  76  1030  2021-07-30 02:04:44 
16.5000  9.5000  76  1031  2021-07-30 03:04:42 
16.0000  8.9000  76  1031  2021-07-30 04:04:40 
15.5000  8.5000  76  1031  2021-07-30 05:04:42 
15.4000  8.0000  76  1031  2021-07-30 06:04:40 
14.7000  7.8000  76  1032  2021-07-30 07:04:43 
14.5000  7.5000  76  1031  2021-07-30 08:04:41 
14.5000  8.5000  100  1032  2021-07-30 09:04:43 
15.1000  11.0000  103  1031  2021-07-30 10:04:41 
15.5000  14.0000  102  1031  2021-07-30 11:04:43 
16.5000  16.0000  104  1031  2021-07-30 12:04:41 
17.6000  17.0000  102  1031  2021-07-30 13:04:44 
18.6000  18.0000  101  1030  2021-07-30 14:04:42 
18.9000  18.1000  100  1030  2021-07-30 15:04:40 
19.1000  17.6000  100  1030  2021-07-30 16:04:43 
18.6000  17.0000  101  1030  2021-07-30 17:04:41 
18.9000  16.0000  103  1030  2021-07-30 18:04:43 
21.6000  14.5000  77  1030  2021-07-30 19:04:42 
22.1000  13.5000  74  1030  2021-07-30 20:04:44 
22.1000  12.4000  74  1030  2021-07-30 21:04:42 
19.2000  11.5000  74  1030  2021-07-30 22:04:41 
17.8000  11.0000  77  1029  2021-07-30 23:04:43 
17.0000  10.3000  100  1028  2021-07-31 00:04:41 
16.5000  10.0000  100  1028  2021-07-31 01:04:44 
16.0000  9.5000  100  1029  2021-07-31 02:04:42 
15.5000  9.0000  100  1028  2021-07-31 03:04:44 
15.5000  8.9000  101  1027  2021-07-31 04:04:42 
15.0000  8.5000  101  1026  2021-07-31 05:04:44 
14.5000  8.0000  100  1026  2021-07-31 06:04:42 
15.0000  12.5000  103  1027  2021-07-31 10:04:43 
16.2000  14.7000  110  1028  2021-07-31 11:04:41 
17.0000  16.5000  111  1027  2021-07-31 12:04:43 
18.3000  18.1000  106  1026  2021-07-31 13:04:42 
18.6000  18.3000  104  1025  2021-07-31 14:04:44 
19.7000  19.1000  103  1024  2021-07-31 15:04:42 
19.4000  18.1000  103  1024  2021-07-31 16:04:41 
18.6000  17.0000  105  1024  2021-07-31 17:04:43 
18.1000  15.5000  106  1024  2021-07-31 18:04:41 
19.6000  14.5000  106  1024  2021-07-31 19:04:44 
22.1000  13.5000  101  1025  2021-07-31 20:04:42 
22.2000  14.5000  76  1025  2021-07-31 21:04:44 
19.6000  14.0000  100  1025  2021-07-31 22:04:57 
18.6000  14.0000  103  1024  2021-07-31 23:04:41 
18.1000  13.5000  104  1024  2021-08-01 00:04:43 
17.6000  12.9000  104  1025  2021-08-01 01:04:42 
17.3000  12.5000  105  1025  2021-08-01 02:04:44 
17.0000  12.0000  105  1023  2021-08-01 03:04:42 
16.5000  11.0000  105  1023  2021-08-01 04:04:41 
16.0000  11.0000  105  1025  2021-08-01 05:04:43 
16.0000  10.5000  105  1025  2021-08-01 06:04:41 
15.5000  9.5000  104  1024  2021-08-01 07:04:43 
15.5000  10.0000  105  1025  2021-08-01 08:04:41 
15.5000  11.0000  105  1025  2021-08-01 09:04:43 
15.8000  12.4000  111  1026  2021-08-01 10:04:42 
16.5000  14.0000  107  1026  2021-08-01 11:04:44 
17.6000  16.0000  102  1026  2021-08-01 12:04:42 
18.3000  16.5000  102  1026  2021-08-01 13:04:44 
19.2000  17.3000  76  1025  2021-08-01 14:04:43 
20.1000  17.6000  72  1025  2021-08-01 15:04:41 
19.6000  17.6000  74  1025  2021-08-01 16:04:43 
19.1000  16.5000  76  1025  2021-08-01 17:04:41 
21.1000  15.7000  77  1025  2021-08-01 18:04:44 
22.1000  14.6000  72  1026  2021-08-01 19:04:42 
22.6000  13.2000  72  1027  2021-08-01 20:04:44 
22.6000  14.0000  72  1028  2021-08-01 21:04:43 
21.2000  13.5000  74  1028  2021-08-01 22:04:41 
18.9000  14.0000  76  1028  2021-08-01 23:04:43 
18.2000  13.5000  77  1027  2021-08-02 00:04:42 
18.1000  13.5000  100  1026  2021-08-02 01:04:44 
17.6000  12.5000  101  1026  2021-08-02 02:04:42 
17.2000  12.0000  101  1026  2021-08-02 03:04:41 
17.0000  12.5000  101  1025  2021-08-02 04:04:43 
17.0000  14.0000  102  1024  2021-08-02 05:04:41 
17.0000  13.6000  103  1024  2021-08-02 06:04:44 
18.5000  16.5000  105  1025  2021-08-02 11:04:44 
18.6000  17.8000  104  1025  2021-08-02 12:04:42 
19.1000  18.6000  103  1023  2021-08-02 13:04:44 
19.6000  18.1000  101  1023  2021-08-02 14:04:43 
20.0000  18.1000  100  1022  2021-08-02 15:04:41 
20.1000  18.1000  77  1022  2021-08-02 16:04:43 
19.6000  17.0000  100  1021  2021-08-02 17:04:43 
19.6000  15.7000  103  1021  2021-08-02 18:04:41 
19.6000  15.0000  104  1021  2021-08-02 19:04:43 
19.6000  14.0000  104  1021  2021-08-02 20:04:42 
19.6000  13.0000  104  1020  2021-08-02 21:04:44 
18.3000  11.5000  103  1019  2021-08-02 22:04:42 
17.6000  11.0000  103  1020  2021-08-02 23:04:45 
17.0000  10.0000  103  1019  2021-08-03 00:04:43 
16.7000  9.5000  102  1018  2021-08-03 01:04:45 
16.4000  9.5000  102  1018  2021-08-03 02:04:43 
16.0000  8.5000  102  1017  2021-08-03 03:04:45 
15.5000  8.0000  102  1016  2021-08-03 04:04:43 
15.5000  7.5000  102  1015  2021-08-03 05:04:41 
15.1000  7.5000  102  1016  2021-08-03 06:04:43 
15.0000  7.0000  104  1016  2021-08-03 07:04:41 
20.1000  7.0000  75  1016  2021-08-03 08:04:44 
17.0000  9.0000  74  1016  19  2021-08-03 09:04:42 
18.1000  12.5000  76  1018  2021-08-03 10:04:44 
17.0000  15.5000  77  1017  2021-08-03 11:04:43 
17.6000  17.0000  101  1017  2021-08-03 12:04:45 
18.3000  17.6000  104  1017  2021-08-03 13:04:43 
18.6000  18.6000  102  1016  2021-08-03 14:04:42 
19.1000  17.6000  101  1017  2021-08-03 15:04:44 
19.1000  17.3000  102  1016  2021-08-03 16:04:43 
18.6000  16.2000  103  1016  2021-08-03 17:04:41 
18.6000  15.2000  103  1018  2021-08-03 18:04:43 
21.1000  15.5000  102  1019  2021-08-03 19:04:42 
22.1000  14.8000  77  1020  2021-08-03 20:04:44 
20.6000  14.4000  100  1020  2021-08-03 21:04:43 
20.1000  13.9000  101  1019  2021-08-03 22:04:41 
18.1000  13.0000  102  1020  2021-08-03 23:04:44 
17.9000  13.0000  103  1021  2021-08-04 00:04:42 
17.5000  12.3000  103  1020  2021-08-04 01:04:44 
17.0000  12.0000  103  1020  2021-08-04 02:04:43 
16.6000  12.0000  104  1019  2021-08-04 03:04:45 
16.5000  12.0000  104  1019  2021-08-04 04:04:43 
16.3000  12.0000  104  1020  2021-08-04 05:04:41 
16.3000  11.5000  105  1021  2021-08-04 06:04:44 
16.0000  12.2000  106  1021  2021-08-04 07:04:42 
18.6000  15.0000  100  1022  2021-08-04 11:04:44 
19.6000  15.0000  100  1022  2021-08-04 12:04:42 
18.7000  15.7000  100  1022  2021-08-04 13:04:44 
21.1000  16.0000  77  1021  2021-08-04 14:04:43 
21.1000  16.5000  74  1021  2021-08-04 15:04:41 
20.5000  16.0000  75  1020  2021-08-04 16:04:43 
20.6000  15.5000  77  1022  2021-08-04 17:04:42 
20.1000  15.2000  77  1022  2021-08-04 18:04:44 
21.1000  14.8000  77  1022  2021-08-04 19:04:42 
20.6000  14.5000  77  1022  2021-08-04 20:04:45 
20.7000  14.3000  100  1023  2021-08-04 21:04:43 
21.3000  14.2000  77  1023  2021-08-04 22:04:42 
20.6000  14.0000  76  1024  2021-08-04 23:04:44 
18.2000  14.0000  104  1023  2021-08-05 00:04:42 
17.6000  13.9000  105  1023  2021-08-05 01:04:45 
17.6000  14.0000  106  1023  2021-08-05 02:04:43 
17.6000  14.5000  106  1023  2021-08-05 03:04:41 
17.3000  14.3000  107  1022  2021-08-05 04:04:44 
17.3000  14.5000  107  1022  2021-08-05 05:04:42 
17.6000  14.3000  107  1022  2021-08-05 06:04:44 
17.0000  13.3000  107  1023  2021-08-05 07:04:43 
17.0000  13.0000  110  1023  2021-08-05 08:04:45 
17.0000  13.4000  110  1023  2021-08-05 09:04:43 
17.6000  14.0000  111  1023  2021-08-05 10:04:41 
18.1000  15.0000  110  1024  2021-08-05 11:04:44 
18.2000  16.7000  106  1024  2021-08-05 12:04:42 
19.6000  17.6000  104  1023  2021-08-05 13:04:44 
20.1000  18.6000  76  1023  2021-08-05 14:04:43 
20.1000  18.9000  77  1022  2021-08-05 15:04:45 
20.3000  18.4000  75  1022  2021-08-05 16:04:43 
19.5000  16.5000  100  1022  2021-08-05 17:04:42 
18.9000  15.5000  103  1022  2021-08-05 18:04:44 
18.9000  15.0000  103  1023  2021-08-05 19:04:42 
18.6000  14.4000  104  1022  2021-08-05 20:04:45 
18.6000  14.0000  104  1022  2021-08-05 21:04:43 
18.6000  13.1000  106  1022  2021-08-05 22:04:41 
17.6000  12.5000  105  1022  2021-08-05 23:04:44 
17.6000  11.5000  104  1022  2021-08-06 00:04:42 
17.0000  11.0000  104  1021  2021-08-06 01:04:44 
16.5000  10.5000  104  1021  2021-08-06 02:04:42 
16.5000  10.0000  104  1022  2021-08-06 03:04:45 
16.0000  9.3000  103  1021  2021-08-06 04:04:43 
15.5000  8.6000  103  1021  2021-08-06 05:04:44 
15.5000  8.5000  103  1020  2021-08-06 06:04:42 
15.0000  8.0000  103  1021  2021-08-06 07:04:45 
17.6000  16.5000  106  1022  2021-08-06 12:04:44 
18.6000  18.1000  105  1021  2021-08-06 13:04:43 
19.3000  18.6000  102  1021  2021-08-06 14:04:45 
19.6000  18.8000  77  1020  2021-08-06 15:04:43 
20.2000  19.4000  76  1020  2021-08-06 16:04:41 
20.1000  19.1000  76  1021  2021-08-06 17:04:44 
19.6000  17.6000  100  1022  2021-08-06 18:04:42 
19.7000  16.5000  102  1022  2021-08-06 19:04:45 
19.6000  14.0000  103  1021  2021-08-06 20:04:43 
19.1000  13.0000  103  1022  2021-08-06 21:04:45 
18.7000  12.0000  104  1022  2021-08-06 22:04:43 
17.6000  11.0000  103  1022  2021-08-06 23:04:41 
17.0000  11.4000  102  1021  2021-08-07 00:04:44 
16.0000  10.0000  103  1023  2021-08-07 03:04:43 
16.0000  9.5000  103  1021  2021-08-07 04:04:45 
15.5000  9.5000  103  1021  2021-08-07 05:04:43 
15.5000  9.5000  104  1021  2021-08-07 06:04:45 
15.4000  9.0000  104  1021  2021-08-07 07:04:43 
15.3000  8.5000  104  1023  2021-08-07 08:04:45 
15.4000  9.0000  104  1023  2021-08-07 09:04:43 
15.0000  9.7000  104  1023  2021-08-07 10:04:45 
14.7000  10.3000  104  1022  2021-08-07 11:04:43 
16.5000  12.5000  104  1021  2021-08-07 12:04:45 
17.0000  14.5000  104  1021  2021-08-07 13:04:43 
18.4000  16.0000  105  1019  2021-08-07 14:04:42 
19.0000  15.5000  103  1019  2021-08-07 15:04:44 
18.8000  14.0000  102  1018  2021-08-07 16:04:42 
18.4000  13.5000  103  1017  2021-08-07 17:04:45 
20.1000  12.5000  102  1018  2021-08-07 18:04:43 
22.1000  12.0000  76  1019  2021-08-07 19:04:45 
22.1000  11.5000  75  1018  2021-08-07 20:04:44 
22.8000  11.5000  74  1018  2021-08-07 21:04:42 
22.1000  11.5000  74  1018  2021-08-07 22:04:44 
18.6000  11.0000  75  1018  2021-08-07 23:04:43 
18.1000  11.0000  77  1016  2021-08-08 00:04:45 
17.6000  10.0000  100  1016  2021-08-08 01:04:43 
17.3000  10.0000  100  1016  2021-08-08 02:04:42 
17.1000  9.5000  100  1015  2021-08-08 03:04:44 
17.0000  9.5000  100  1014  2021-08-08 04:04:42 
16.5000  8.5000  100  1015  2021-08-08 05:04:44 
16.5000  8.5000  77  1014  2021-08-08 06:04:42 
16.1000  8.0000  77  1014  2021-08-08 07:04:44 
17.0000  14.2000  101  1015  2021-08-08 13:04:46 
17.0000  14.8000  100  1014  2021-08-08 14:04:44 
19.1000  16.2000  100  1015  2021-08-08 15:04:42 
19.6000  17.0000  74  1015  2021-08-08 16:04:45 
21.3000  16.0000  75  1015  2021-08-08 17:04:43 
22.6000  15.5000  71  1014  2021-08-08 18:04:45 
21.7000  15.0000  71  1014  2021-08-08 19:04:44 
22.0000  14.5000  73  1016  2021-08-08 20:04:42 
21.6000  13.0000  73  1016  15  2021-08-08 21:04:45 
21.3000  12.8000  74  1018  2021-08-08 22:04:43 
18.6000  12.0000  77  1019  2021-08-08 23:04:42 
18.0000  11.5000  100  1020  2021-08-09 00:04:44 
17.6000  11.5000  101  1020  2021-08-09 01:04:43 
17.0000  11.0000  101  1022  2021-08-09 02:04:45 
16.8000  10.8000  102  1023  2021-08-09 03:04:43 
16.5000  10.5000  102  1023  2021-08-09 04:04:46 
16.4000  9.9000  102  1025  2021-08-09 05:04:44 
16.0000  9.5000  102  1026  2021-08-09 06:04:42 
15.8000  9.0000  102  1027  2021-08-09 07:04:44 
15.5000  8.2000  102  1028  2021-08-09 08:04:42 
15.5000  9.5000  102  1029  2021-08-09 09:04:44 
15.6000  11.0000  102  1030  2021-08-09 10:04:42 
16.0000  12.0000  100  1031  2021-08-09 11:04:45 
16.5000  12.5000  77  1032  2021-08-09 12:04:43 
17.0000  12.6000  76  1032  2021-08-09 13:04:45 
17.9000  13.5000  73  1031  2021-08-09 14:04:43 
18.4000  13.0000  71  1031  2021-08-09 15:04:46 
18.1000  13.5000  67  1032  2021-08-09 16:04:44 
17.8000  13.0000  66  1031  2021-08-09 17:04:42 
20.8000  12.0000  72  1032  2021-08-09 18:04:44 
20.5000  11.3000  70  1033  2021-08-09 19:04:42 
20.9000  10.5000  70  1033  2021-08-09 20:04:45 
20.6000  10.0000  67  1033  2021-08-09 21:04:43 
20.6000  9.0000  67  1034  2021-08-09 22:04:45 
18.1000  8.5000  64  1034  2021-08-09 23:04:43 
16.3000  8.0000  71  1033  2021-08-10 00:04:45 
15.7000  8.0000  72  1034  2021-08-10 01:04:43 
15.2000  7.5000  73  1032  2021-08-10 02:04:46 
14.9000  7.0000  73  1031  2021-08-10 03:04:44 
14.5000  7.0000  74  1031  2021-08-10 04:04:42 
14.0000  6.5000  74  1030  2021-08-10 05:04:44 
13.9000  6.0000  74  1030  2021-08-10 06:04:42 
13.5000  5.5000  75  1030  2021-08-10 07:04:44 
17.3000  15.0000  71  1028  2021-08-10 13:04:46 
18.1000  15.5000  70  1026  2021-08-10 14:04:44 
18.3000  15.5000  66  1026  2021-08-10 15:04:42 
18.1000  15.0000  66  1025  2021-08-10 16:04:45 
17.6000  14.5000  67  1024  2021-08-10 17:04:43 
17.0000  13.0000  72  1024  2021-08-10 18:04:45 
19.6000  12.4000  72  1022  2021-08-10 19:04:44 
20.6000  11.0000  71  1023  2021-08-10 20:04:46 
20.6000  10.0000  70  1022  2021-08-10 21:04:44 
21.1000  9.5000  67  1022  2021-08-10 22:04:42 
16.5000  8.5000  71  1020  2021-08-10 23:04:44 
16.0000  8.0000  72  1020  2021-08-11 00:04:42 
15.4000  7.5000  73  1018  2021-08-11 01:04:44 
15.0000  7.0000  73  1017  2021-08-11 02:04:42 
14.5000  6.5000  74  1017  2021-08-11 03:04:44 
14.0000  6.2000  74  1016  2021-08-11 04:04:42 
13.9000  6.3000  74  1015  2021-08-11 05:04:44 
13.5000  5.5000  75  1015  2021-08-11 06:04:43 
13.2000  6.0000  75  1015  2021-08-11 07:04:45 
15.0000  6.0000  76  1016  2021-08-11 08:04:42 
15.9000  8.5000  74  1015  2021-08-11 09:04:45 
16.5000  10.5000  73  1015  2021-08-11 10:04:42 
17.0000  12.8000  72  1017  2021-08-11 11:04:45 
17.6000  14.0000  71  1015  2021-08-11 12:04:43 
18.1000  14.6000  71  1015  2021-08-11 13:04:45 
18.6000  14.5000  70  1015  2021-08-11 14:04:43 
17.6000  14.5000  71  1015  2021-08-11 15:04:45 
17.5000  14.5000  72  1014  2021-08-11 16:04:44 
20.6000  14.7000  71  1015  2021-08-11 17:04:46 
19.1000  14.4000  70  1017  2021-08-11 18:04:44 
21.1000  14.0000  72  1017  2021-08-11 19:04:42 
21.1000  14.0000  71  1016  2021-08-11 20:04:45 
21.9000  13.5000  71  1016  2021-08-11 21:04:43 
21.6000  12.4000  71  1018  2021-08-11 22:04:45 
19.1000  10.6000  72  1019  2021-08-11 23:04:44 
17.8000  10.6000  74  1020  2021-08-12 00:04:46 
17.0000  10.0000  76  1020  2021-08-12 01:04:45 
16.5000  9.5000  76  1022  2021-08-12 02:04:43 
16.2000  9.7000  77  1022  2021-08-12 03:04:45 
16.0000  10.0000  77  1023  2021-08-12 04:04:43 
15.5000  9.5000  100  1023  2021-08-12 05:04:45 
15.5000  9.5000  100  1023  2021-08-12 06:04:43 
15.0000  9.5000  77  1024  2021-08-12 07:04:45 
15.1000  9.5000  77  1025  2021-08-12 08:04:43 
19.6000  14.2000  60  1028  2021-08-12 14:04:45 
18.6000  14.0000  61  1029  2021-08-12 15:04:44 
18.1000  13.3000  64  1029  2021-08-12 16:04:46 
17.5000  12.9000  63  1030  2021-08-12 17:04:44 
16.5000  11.5000  66  1029  2021-08-12 18:04:42 
20.1000  11.5000  65  1031  2021-08-12 19:04:45 
20.6000  11.0000  64  1031  2021-08-12 20:04:43 
20.4000  11.0000  64  1032  2021-08-12 21:04:45 
21.1000  10.5000  64  1034  2021-08-12 22:04:44 
17.6000  10.5000  65  1033  2021-08-12 23:04:46 
16.5000  10.0000  67  1033  2021-08-13 00:04:44 
16.0000  9.5000  70  1034  2021-08-13 01:04:46 
15.5000  9.5000  71  1034  2021-08-13 02:04:54 
15.4000  9.7000  71  1034  2021-08-13 03:04:46 
15.0000  10.0000  72  1035  2021-08-13 04:04:44 
14.8000  9.3000  72  1037  2021-08-13 05:04:46 
14.4000  8.8000  72  1036  2021-08-13 06:04:44 
16.7000  10.0000  71  1037  2021-08-13 07:04:45 
17.6000  10.5000  66  1038  2021-08-13 08:04:43 
18.7000  11.9000  66  1037  2021-08-13 09:04:46 
18.6000  13.0000  63  1038  2021-08-13 10:04:44 
16.5000  14.5000  65  1037  2021-08-13 11:04:46 
17.0000  15.0000  66  1037  2021-08-13 12:04:44 
17.6000  16.0000  66  1035  2021-08-13 13:04:42 
18.0000  16.4000  64  1035  2021-08-13 14:04:45 
18.5000  16.5000  61  1035  2021-08-13 15:04:43 
18.8000  16.5000  60  1035  2021-08-13 16:04:45 
18.2000  16.0000  62  1034  2021-08-13 17:04:43 
21.6000  14.5000  63  1034  2021-08-13 18:04:46 
21.1000  13.5000  60  1036  2021-08-13 19:04:44 
21.7000  13.0000  60  1036  2021-08-13 20:04:46 
20.6000  12.5000  62  1036  2021-08-13 21:04:44 
17.6000  12.4000  62  1035  2021-08-13 22:04:47 
17.0000  12.0000  64  1036  2021-08-13 23:04:45 
16.5000  11.7000  64  1035  2021-08-14 00:04:43 
16.0000  11.5000  65  1035  2021-08-14 01:04:45 
15.9000  11.0000  66  1034  2021-08-14 02:04:43 
15.5000  11.0000  66  1033  2021-08-14 03:04:45 
15.0000  11.0000  66  1032  2021-08-14 04:04:43 
15.0000  10.5000  67  1031  2021-08-14 05:04:46 
14.8000  10.0000  70  1032  2021-08-14 06:04:44 
14.5000  9.5000  70  1030  2021-08-14 07:04:45 
14.1000  9.5000  71  1032  2021-08-14 08:04:43 
18.1000  18.1000  57  1027  2021-08-14 15:04:44 
18.6000  17.9000  57  1027  2021-08-14 16:04:46 
18.6000  17.0000  61  1025  2021-08-14 17:04:45 
22.1000  16.0000  62  1026  2021-08-14 18:04:43 
21.1000  14.8000  63  1027  2021-08-14 19:04:45 
21.6000  14.0000  64  1025  2021-08-14 20:04:44 
21.3000  14.0000  63  1026  2021-08-14 21:04:46 
21.6000  13.0000  62  1025  2021-08-14 22:04:44 
20.1000  12.5000  62  1025  2021-08-14 23:04:46 
17.7000  11.0000  64  1024  2021-08-15 00:04:45 
16.5000  10.0000  65  1025  2021-08-15 01:04:43 
16.0000  9.0000  66  1024  2021-08-15 02:04:45 
15.5000  8.5000  66  1025  2021-08-15 03:04:44 
15.0000  8.1000  67  1023  2021-08-15 04:04:46 
15.0000  8.0000  67  1023  2021-08-15 05:04:44 
14.5000  7.2000  70  1023  2021-08-15 06:04:46 
14.0000  6.5000  70  1023  2021-08-15 07:04:44 
13.8000  6.5000  70  1022  2021-08-15 08:04:46 
13.8000  9.0000  71  1023  2021-08-15 09:04:44 
14.0000  12.2000  70  1024  2021-08-15 10:04:46 
15.5000  15.0000  71  1024  2021-08-15 11:04:44 
17.0000  17.6000  65  1023  2021-08-15 12:04:46 
18.1000  19.1000  66  1022  2021-08-15 13:04:44 
19.4000  19.9000  63  1021  2021-08-15 14:04:47 
20.1000  19.6000  61  1021  2021-08-15 15:04:45 
20.1000  19.1000  57  1021  2021-08-15 16:04:43 
20.1000  18.6000  56  1020  2021-08-15 17:04:45 
19.5000  16.5000  61  1020  2021-08-15 18:04:43 
20.3000  15.4000  63  1020  2021-08-15 19:04:46 
21.8000  13.5000  64  1019  2021-08-15 20:04:44 
22.1000  12.5000  63  1020  2021-08-15 21:04:46 
21.6000  12.0000  62  1020  2021-08-15 22:04:44 
19.6000  11.0000  62  1019  2021-08-15 23:04:47 
17.9000  10.0000  65  1019  2021-08-16 00:04:45 
17.0000  9.3000  66  1018  2021-08-16 01:04:47 
16.5000  9.0000  66  1017  2021-08-16 02:04:45 
16.0000  8.5000  67  1017  2021-08-16 03:04:47 
15.5000  8.5000  67  1016  2021-08-16 04:04:45 
15.2000  8.5000  70  1015  2021-08-16 05:04:47 
15.0000  8.2000  70  1015  2021-08-16 06:04:45 
14.9000  8.0000  73  1014  2021-08-16 07:04:47 
16.5000  8.5000  72  1015  2021-08-16 08:04:45 
23.1000  23.3000  60  1011  2021-08-16 16:04:47 
22.1000  22.5000  53  1011  2021-08-16 17:04:45 
20.1000  19.1000  66  1011  2021-08-16 18:04:44 
23.5000  18.0000  66  1012  2021-08-16 19:04:46 
23.5000  16.3000  65  1013  2021-08-16 20:04:44 
22.5000  15.5000  63  1013  2021-08-16 21:04:47 
20.1000  15.2000  65  1014  2021-08-16 22:04:45 
19.3000  15.0000  67  1015  2021-08-16 23:04:43 
18.8000  14.5000  71  1014  2021-08-17 00:04:45 
18.6000  13.9000  71  1014  2021-08-17 01:04:44 
18.1000  13.5000  71  1015  2021-08-17 02:04:46 
18.1000  13.4000  71  1014  2021-08-17 03:04:44 
17.8000  13.0000  71  1015  2021-08-17 04:04:47 
17.6000  13.1000  72  1014  2021-08-17 05:04:45 
17.6000  13.2000  72  1015  2021-08-17 06:04:47 
17.5000  13.5000  73  1015  2021-08-17 07:04:45 
17.3000  13.5000  75  1016  2021-08-17 08:04:43 
17.4000  13.9000  75  1017  2021-08-17 09:04:46 
17.6000  14.7000  77  1018  2021-08-17 10:04:44 
18.5000  16.5000  75  1018  2021-08-17 11:04:46 
19.1000  17.6000  73  1017  2021-08-17 12:04:45 
18.7000  17.0000  74  1017  2021-08-17 13:04:47 
18.6000  16.5000  72  1017  2021-08-17 14:04:45 
18.9000  17.7000  72  1017  2021-08-17 15:04:44 
21.6000  17.8000  72  1017  2021-08-17 16:04:46 
22.1000  17.0000  70  1018  2021-08-17 17:04:44 
22.3000  16.0000  67  1018  2021-08-17 18:04:47 
22.1000  15.0000  72  1018  2021-08-17 19:04:45 
22.6000  15.2000  72  1018  2021-08-17 20:04:44 
20.8000  15.3000  67  1018  2021-08-17 21:04:46 
19.1000  15.0000  72  1019  2021-08-17 22:04:44 
18.7000  15.0000  74  1018  2021-08-17 23:04:47 
18.1000  14.5000  75  1017  2021-08-18 00:04:45 
18.1000  14.4000  75  1018  2021-08-18 01:04:44 
18.1000  14.3000  75  1017  2021-08-18 02:04:46 
17.9000  14.0000  76  1017  2021-08-18 03:04:44 
17.6000  14.1000  76  1015  2021-08-18 04:04:46 
17.6000  14.0000  77  1016  2021-08-18 05:04:45 
17.5000  13.7000  100  1015  2021-08-18 06:04:47 
17.3000  13.7000  102  1015  2021-08-18 07:04:45 
17.1000  12.5000  102  1015  2021-08-18 08:04:44 
23.5000  14.5000  66  1016  2021-08-18 16:04:47 
22.6000  14.0000  66  1017  2021-08-18 17:04:46 
22.6000  12.7000  66  1018  2021-08-18 18:04:44 
22.1000  12.0000  70  1019  2021-08-18 19:04:47 
22.1000  12.5000  70  1020  2021-08-18 20:04:45 
20.6000  12.7000  66  1021  2021-08-18 21:04:47 
22.3000  12.5000  66  1021  2021-08-18 22:04:46 
20.2000  12.5000  67  1021  2021-08-18 23:04:44 
18.1000  12.0000  71  1020  2021-08-19 00:04:46 
17.6000  12.0000  72  1021  2021-08-19 01:04:45 
17.6000  11.5000  73  1020  2021-08-19 02:04:47 
17.0000  12.1000  73  1019  2021-08-19 03:04:45 
17.0000  12.5000  73  1019  2021-08-19 04:04:43 
16.5000  12.0000  74  1020  2021-08-19 05:04:46 
16.5000  12.0000  74  1020  2021-08-19 06:04:44 
16.5000  12.0000  75  1021  2021-08-19 07:04:46 
16.3000  11.0000  75  1022  2021-08-19 08:04:44 
16.5000  13.0000  75  1023  2021-08-19 09:04:47 
17.2000  14.2000  73  1023  2021-08-19 10:04:45 
17.6000  14.9000  70  1021  2021-08-19 11:04:47 
17.9000  15.1000  67  1023  2021-08-19 12:04:45 
18.3000  15.5000  67  1022  2021-08-19 13:04:44 
18.6000  15.6000  67  1021  2021-08-19 14:04:46 
19.2000  16.0000  67  1022  2021-08-19 15:04:44 
19.6000  15.5000  66  1021  2021-08-19 16:04:46 
19.5000  15.0000  66  1022  2021-08-19 17:04:45 
18.6000  13.8000  67  1022  2021-08-19 18:04:47 
18.6000  13.5000  71  1022  2021-08-19 19:04:45 
19.2000  13.1000  73  1022  2021-08-19 20:04:47 
18.7000  13.0000  72  1023  2021-08-19 21:04:46 
18.6000  12.5000  73  1023  2021-08-19 22:04:44 
17.7000  12.0000  73  1024  2021-08-19 23:04:46 
17.1000  11.5000  73  1022  2021-08-20 00:04:45 
16.5000  11.0000  74  1023  2021-08-20 01:04:47 
16.0000  10.2000  74  1023  2021-08-20 02:04:45 
15.8000  9.9000  74  1022  2021-08-20 03:04:49 
15.5000  9.3000  74  1020  2021-08-20 04:04:45 
15.0000  9.0000  74  1021  2021-08-20 05:04:47 
14.7000  8.5000  74  1021  2021-08-20 06:04:45 
14.5000  8.0000  74  1022  2021-08-20 07:04:47 
14.5000  8.3000  76  1024  2021-08-20 08:04:45 
18.1000  15.0000  67  1021  2021-08-20 17:04:46 
17.6000  14.0000  71  1021  2021-08-20 18:04:44 
18.6000  13.4000  73  1021  2021-08-20 19:04:46 
20.6000  12.5000  72  1022  2021-08-20 20:04:44 
21.1000  12.0000  67  1023  2021-08-20 21:04:47 
19.1000  11.5000  70  1024  2021-08-20 22:04:45 
18.5000  11.5000  71  1022  2021-08-20 23:04:47 
16.8000  11.1000  72  1022  2021-08-21 00:04:45 
16.3000  10.5000  72  1022  2021-08-21 01:04:48 
16.0000  10.5000  73  1023  2021-08-21 02:04:46 
15.5000  9.5000  73  1021  2021-08-21 03:04:48 
15.1000  9.4000  74  1021  2021-08-21 04:04:45 
15.0000  9.0000  74  1023  2021-08-21 05:04:47 
14.8000  9.4000  74  1022  2021-08-21 06:04:45 
14.5000  9.0000  75  1024  2021-08-21 07:04:47 
14.5000  9.5000  75  1024  2021-08-21 08:04:45 
14.5000  11.5000  75  1024  2021-08-21 09:04:47 
15.2000  13.5000  72  1025  2021-08-21 10:04:45 
16.3000  15.0000  71  1026  2021-08-21 11:04:47 
17.0000  16.0000  67  1026  2021-08-21 12:04:45 
17.6000  16.3000  66  1025  2021-08-21 13:04:48 
20.5000  17.0000  64  1024  2021-08-21 14:04:46 
21.8000  16.5000  57  1025  2021-08-21 15:04:44 
22.1000  16.5000  54  1026  2021-08-21 16:04:46 
20.6000  16.3000  56  1026  2021-08-21 17:04:45 
21.5000  14.5000  56  1025  2021-08-21 18:04:47 
21.1000  12.9000  61  1026  2021-08-21 19:04:45 
21.6000  12.6000  60  1026  2021-08-21 20:04:48 
22.2000  12.0000  61  1026  2021-08-21 21:04:46 
20.8000  10.5000  61  1028  2021-08-21 22:04:44 
21.1000  10.0000  62  1027  2021-08-21 23:04:46 
18.1000  9.4000  63  1028  2021-08-22 00:04:44 
16.8000  8.5000  65  1028  2021-08-22 01:04:46 
16.3000  8.5000  66  1027  2021-08-22 02:04:44 
15.6000  7.5000  67  1026  2021-08-22 03:04:46 
15.4000  7.5000  67  1026  2021-08-22 04:04:44 
14.8000  6.7000  70  1026  2021-08-22 05:04:46 
14.4000  6.5000  70  1026  2021-08-22 06:04:44 
14.0000  6.1000  70  1026  2021-08-22 07:04:46 
14.4000  6.5000  73  1027  2021-08-22 08:04:44 
15.0000  9.0000  74  1027  2021-08-22 09:04:46 
19.6000  16.0000  66  1023  2021-08-22 18:04:47 
21.6000  14.5000  65  1023  2021-08-22 19:04:45 
21.1000  13.5000  65  1024  2021-08-22 20:04:47 
21.4000  12.0000  64  1024  2021-08-22 21:04:46 
21.1000  11.5000  64  1023  2021-08-22 22:04:48 
17.9000  10.5000  66  1022  2021-08-22 23:04:46 
17.0000  9.0000  67  1021  2021-08-23 00:04:44 
16.5000  9.0000  70  1022  2021-08-23 01:04:46 
16.0000  8.5000  70  1021  2021-08-23 02:04:48 
15.5000  8.4000  70  1020  2021-08-23 03:04:46 
15.2000  8.0000  71  1020  2021-08-23 04:04:48 
15.0000  8.0000  71  1019  2021-08-23 05:04:46 
14.7000  7.9000  71  1018  2021-08-23 06:04:48 
14.5000  7.5000  73  1019  2021-08-23 07:04:46 
14.4000  7.6000  73  1019  2021-08-23 08:04:48 
14.5000  11.0000  75  1018  2021-08-23 09:04:46 
15.5000  13.5000  77  1018  2021-08-23 10:04:44 
16.5000  16.0000  101  1018  2021-08-23 11:04:46 
18.1000  17.6000  100  1017  2021-08-23 12:04:45 
19.1000  19.2000  76  1017  2021-08-23 13:04:47 
19.1000  19.1000  75  1016  2021-08-23 14:04:45 
19.1000  19.6000  73  1015  2021-08-23 15:04:47 
20.6000  20.0000  72  1016  2021-08-23 16:04:46 
19.8000  19.2000  70  1017  2021-08-23 17:04:48 
19.6000  17.0000  73  1015  2021-08-23 18:04:46 
19.1000  16.2000  74  1016  2021-08-23 19:04:44 
19.4000  15.8000  75  1016  2021-08-23 20:04:47 
21.3000  14.5000  73  1017  2021-08-23 21:04:46 
21.8000  14.0000  72  1018  2021-08-23 22:04:48 
21.6000  14.3000  72  1018  2021-08-23 23:04:46 
18.6000  14.2000  73  1017  2021-08-24 00:04:48 
17.7000  14.0000  74  1017  2021-08-24 01:04:46 
17.6000  13.1000  75  1016  2021-08-24 02:04:45 
17.0000  13.4000  75  1017  2021-08-24 03:04:47 
17.1000  13.5000  75  1017  2021-08-24 04:04:45 
17.0000  13.7000  75  1018  2021-08-24 05:04:48 
16.9000  13.7000  76  1018  2021-08-24 06:04:46 
16.6000  13.9000  77  1019  2021-08-24 07:04:48 
17.0000  13.9000  100  1019  2021-08-24 08:04:46 
17.8000  14.8000  101  1019  2021-08-24 09:04:45 
19.1000  16.0000  77  1019  2021-08-24 18:04:47 
22.5000  15.9000  75  1019  2021-08-24 19:04:45 
22.8000  15.5000  73  1021  2021-08-24 20:04:47 
23.6000  15.0000  72  1020  2021-08-24 21:04:46 
19.5000  15.0000  72  1020  2021-08-24 22:04:48 
18.6000  15.0000  75  1019  2021-08-24 23:04:46 
18.2000  15.0000  76  1020  2021-08-25 00:04:45 
18.0000  14.7000  77  1019  2021-08-25 01:04:47 
17.6000  14.0000  100  1019  2021-08-25 02:04:46 
17.6000  13.9000  100  1019  2021-08-25 03:04:48 
17.1000  13.5000  100  1018  2021-08-25 04:04:46 
17.0000  12.5000  100  1018  2021-08-25 05:04:48 
17.0000  13.0000  100  1018  2021-08-25 06:04:46 
16.7000  12.9000  101  1017  2021-08-25 07:04:45 
16.5000  12.5000  101  1017  2021-08-25 08:04:47 
17.4000  13.5000  101  1017  2021-08-25 09:04:45 
18.6000  15.5000  100  1016  2021-08-25 10:04:48 
19.1000  16.0000  100  1016  2021-08-25 11:04:46 
19.6000  17.0000  77  1015  2021-08-25 12:04:48 
20.1000  18.2000  75  1013  2021-08-25 13:04:46 
20.8000  19.6000  66  1012  2021-08-25 14:04:45 
21.5000  19.9000  63  1011  2021-08-25 15:04:47 
21.6000  19.7000  61  1010  2021-08-25 16:04:45 
20.6000  18.6000  63  1010  2021-08-25 17:04:48 
20.7000  16.0000  66  1010  2021-08-25 18:04:46 
21.3000  15.4000  71  1010  2021-08-25 19:04:48 
23.4000  14.5000  66  1010  2021-08-25 20:04:46 
22.1000  14.5000  64  1012  2021-08-25 21:04:45 
21.6000  15.0000  71  1009  2021-08-25 22:04:47 
19.2000  14.0000  71  1010  2021-08-25 23:04:45 
19.1000  15.0000  72  1010  2021-08-26 00:04:48 
18.6000  15.3000  73  1010  2021-08-26 01:04:46 
18.5000  15.3000  73  1010  2021-08-26 02:04:50 
18.4000  15.5000  73  1010  2021-08-26 03:04:47 
18.1000  15.5000  74  1009  2021-08-26 04:04:45 
18.1000  15.0000  74  1010  2021-08-26 05:04:47 
18.0000  15.0000  74  1010  2021-08-26 06:04:46 
17.6000  15.0000  74  1009  2021-08-26 07:04:48 
17.8000  15.0000  74  1009  2021-08-26 08:04:46 
17.8000  15.5000  74  1009  2021-08-26 09:04:45 
21.6000  9.5000  65  1008  2021-08-26 19:04:46 
21.2000  9.5000  70  1009  2021-08-26 20:04:48 
21.2000  9.5000  70  1009  2021-08-26 21:04:46 
22.1000  9.5000  70  1010  2021-08-26 22:04:48 
18.1000  9.0000  71  1011  2021-08-26 23:04:46 
17.2000  8.5000  73  1010  2021-08-27 00:04:48 
16.6000  9.0000  74  1010  2021-08-27 01:04:46 
16.5000  8.5000  75  1012  2021-08-27 02:04:49 
16.0000  8.5000  75  1012  2021-08-27 03:04:47 
15.8000  8.0000  76  1011  2021-08-27 04:04:45 
15.5000  7.4000  75  1011  2021-08-27 05:04:47 
15.0000  7.5000  74  1013  2021-08-27 06:04:45 
15.0000  7.0000  75  1014  2021-08-27 07:04:47 
17.0000  7.0000  72  1014  2021-08-27 08:04:45 
17.6000  7.5000  70  1016  2021-08-27 09:04:47 
19.1000  7.5000  64  1016  2021-08-27 10:04:46 
18.6000  9.0000  60  1017  2021-08-27 11:04:48 
20.1000  9.5000  60  1017  2021-08-27 12:04:46 
18.3000  10.4000  60  1018  2021-08-27 13:04:48 
20.7000  11.0000  56  1018  2021-08-27 14:04:46 
20.1000  12.5000  54  1018  2021-08-27 15:04:49 
21.1000  13.0000  55  1018  2021-08-27 16:04:47 
21.6000  11.6000  53  1019  2021-08-27 17:04:45 
22.1000  11.0000  57  1020  2021-08-27 18:04:48 
21.6000  8.5000  57  1021  2021-08-27 19:04:46 
21.6000  7.5000  57  1021  2021-08-27 20:04:49 
20.6000  8.0000  57  1022  2021-08-27 21:04:47 
21.1000  8.5000  57  1023  2021-08-27 22:04:45 
17.0000  7.5000  63  1024  2021-08-27 23:04:47 
16.0000  7.5000  65  1024  2021-08-28 00:04:45 
15.5000  7.5000  66  1025  2021-08-28 01:04:48 
15.3000  7.0000  67  1027  2021-08-28 02:04:46 
15.0000  7.0000  70  1026  2021-08-28 03:04:49 
14.5000  6.7000  71  1028  2021-08-28 04:04:46 
14.5000  6.8000  71  1028  2021-08-28 05:04:49 
14.0000  6.5000  72  1029  2021-08-28 06:04:47 
13.6000  6.0000  72  1030  2021-08-28 07:04:49 
13.0000  6.5000  74  1031  2021-08-28 08:04:47 
13.6000  7.5000  75  1034  2021-08-28 09:04:49 
19.6000  8.0000  62  1032  2021-08-28 20:04:49 
20.6000  7.1000  61  1032  2021-08-28 21:04:47 
20.6000  6.5000  60  1031  2021-08-28 22:04:45 
18.1000  5.5000  61  1031  2021-08-28 23:04:47 
15.5000  5.5000  64  1029  2021-08-29 00:04:45 
14.5000  4.8000  65  1029  2021-08-29 01:04:47 
13.6000  4.3000  66  1030  2021-08-29 02:04:45 
13.3000  4.0000  67  1028  2021-08-29 03:04:47 
13.0000  3.5000  70  1027  2021-08-29 04:04:45 
12.5000  3.0000  70  1027  2021-08-29 05:04:47 
12.0000  3.0000  70  1027  2021-08-29 06:04:49 
11.5000  3.5000  71  1026  2021-08-29 07:04:47 
11.5000  4.5000  72  1026  2021-08-29 08:04:49 
12.0000  7.0000  73  1025  2021-08-29 09:04:47 
12.7000  9.5000  72  1025  2021-08-29 10:04:49 
13.5000  11.0000  70  1025  2021-08-29 11:04:47 
14.5000  12.0000  67  1024  2021-08-29 12:04:49 
15.4000  13.0000  54  1022  2021-08-29 13:04:47 
16.2000  14.5000  52  1021  2021-08-29 14:04:49 
17.6000  15.5000  55  1020  2021-08-29 15:04:47 
17.6000  15.1000  55  1020  2021-08-29 16:04:45 
19.8000  15.5000  50  1019  2021-08-29 17:04:48 
20.0000  13.5000  54  1019  2021-08-29 18:04:46 
20.1000  12.5000  56  1019  2021-08-29 19:04:48 
20.8000  12.1000  57  1018  2021-08-29 20:04:47 
20.6000  11.7000  60  1018  2021-08-29 21:04:49 
19.3000  11.5000  60  1018  2021-08-29 22:04:47 
16.6000  11.5000  62  1018  2021-08-29 23:04:45 
15.9000  11.0000  64  1018  2021-08-30 00:04:48 
15.5000  11.1000  65  1016  2021-08-30 01:04:46 
15.1000  11.0000  66  1016  2021-08-30 02:04:48 
15.0000  10.5000  66  1016  2021-08-30 03:04:46 
14.6000  10.5000  67  1016  2021-08-30 04:04:48 
14.5000  10.4000  70  1015  2021-08-30 05:04:46 
14.5000  10.5000  70  1015  2021-08-30 06:04:48 
14.5000  11.0000  71  1015  2021-08-30 07:04:46 
14.5000  11.0000  73  1017  2021-08-30 08:04:49 
17.0000  11.0000  70  1015  2021-08-30 09:04:47 
21.4000  13.0000  70  1016  2021-08-30 20:04:49 
21.4000  12.5000  67  1017  2021-08-30 21:04:47 
21.1000  12.5000  67  1017  2021-08-30 22:04:46 
19.6000  11.5000  71  1019  2021-08-30 23:04:48 
17.0000  10.5000  73  1018  2021-08-31 00:04:46 
16.3000  10.0000  75  1018  2021-08-31 01:04:49 
15.9000  9.7000  75  1019  2021-08-31 02:04:50 
15.5000  9.5000  75  1018  2021-08-31 03:04:49 
15.4000  10.5000  76  1018  2021-08-31 04:04:47 
15.2000  9.5000  76  1019  2021-08-31 05:04:49 
15.0000  9.5000  75  1019  2021-08-31 06:04:47 
15.0000  9.0000  76  1020  2021-08-31 07:04:49 
15.0000  10.0000  77  1022  2021-08-31 08:04:47 
15.5000  10.8000  76  1022  2021-08-31 09:04:49 
16.0000  11.5000  76  1022  2021-08-31 10:04:47 
18.1000  11.5000  71  1023  2021-08-31 11:04:46 
19.2000  13.0000  65  1024  2021-08-31 12:04:48 
20.8000  13.8000  63  1024  2021-08-31 13:04:46 
21.6000  14.3000  62  1024  2021-08-31 14:04:48 
22.0000  14.6000  61  1023  2021-08-31 15:04:46 
20.1000  14.0000  61  1024  2021-08-31 16:04:49 
20.4000  13.0000  62  1024  2021-08-31 17:04:47 
21.1000  12.2000  60  1025  2021-08-31 18:04:49 
20.6000  11.5000  62  1025  2021-08-31 19:04:47 
21.6000  11.0000  64  1025  2021-08-31 20:04:46 
21.0000  11.0000  63  1025  2021-08-31 21:04:48 
19.1000  10.6000  65  1026  2021-08-31 22:04:46 
17.4000  10.7000  65  1026  2021-08-31 23:04:48 
16.5000  10.0000  66  1025  2021-09-01 00:04:47 
16.0000  10.0000  67  1025  2021-09-01 01:04:49 
15.5000  10.0000  67  1025  2021-09-01 02:04:47 
15.4000  10.0000  67  1024  2021-09-01 03:04:49 
15.1000  9.5000  67  1023  2021-09-01 04:04:47 
15.0000  10.0000  67  1024  2021-09-01 05:04:49 
14.5000  9.5000  67  1024  2021-09-01 06:04:47 
14.5000  9.5000  67  1023  2021-09-01 07:04:49 
17.6000  10.0000  65  1023  2021-09-01 08:04:46 
16.0000  11.5000  64  1023  2021-09-01 09:04:49 
16.0000  12.5000  65  1023  2021-09-01 10:04:47 
20.6000  11.7000  62  1019  2021-09-01 21:04:48 
17.6000  11.0000  64  1016  2021-09-01 22:04:46 
16.9000  10.5000  66  1016  2021-09-01 23:04:49 
16.4000  10.5000  66  1015  2021-09-02 00:04:47 
16.0000  9.5000  67  1015  2021-09-02 01:04:49 
15.5000  9.4000  67  1013  2021-09-02 02:04:47 
15.1000  9.5000  70  1012  2021-09-02 03:04:48 
14.7000  8.5000  70  1012  2021-09-02 04:04:46 
14.5000  8.0000  70  1012  2021-09-02 05:04:48 
14.0000  7.5000  70  1012  2021-09-02 06:04:46 
13.6000  7.0000  71  1011  2021-09-02 07:04:48 
16.9000  8.0000  72  1012  2021-09-02 08:04:46 
17.6000  10.0000  67  1012  2021-09-02 09:04:48 
18.2000  13.1000  66  1012  2021-09-02 10:04:46 
17.4000  16.0000  66  1012  2021-09-02 11:04:48 
17.0000  18.6000  66  1011  2021-09-02 12:04:46 
17.8000  18.6000  66  1011  2021-09-02 13:04:48 
19.1000  20.3000  62  1010  2021-09-02 14:04:47 
20.2000  21.0000  56  1010  2021-09-02 15:04:49 
20.6000  21.1000  56  1010  2021-09-02 16:04:47 
20.1000  19.1000  61  1010  2021-09-02 17:04:49 
19.6000  16.5000  66  1011  2021-09-02 18:04:48 
21.1000  15.5000  67  1011  2021-09-02 19:04:46 
22.6000  15.5000  65  1012  2021-09-02 20:04:48 
22.1000  15.0000  64  1013  2021-09-02 21:04:46 
19.6000  15.1000  62  1013  2021-09-02 22:04:49 
18.4000  14.5000  67  1014  2021-09-02 23:04:47 
17.8000  14.5000  70  1014  2021-09-03 00:04:49 
17.6000  14.0000  71  1014  2021-09-03 01:04:48 
17.2000  13.5000  72  1014  2021-09-03 02:04:50 
17.0000  13.5000  72  1014  2021-09-03 03:04:48 
17.0000  13.5000  72  1014  2021-09-03 04:04:46 
17.0000  13.5000  72  1014  2021-09-03 05:04:48 
16.8000  13.5000  73  1014  2021-09-03 06:04:47 
16.5000  13.4000  73  1014  2021-09-03 07:04:49 
16.9000  13.5000  74  1014  2021-09-03 08:04:47 
17.0000  13.0000  75  1016  2021-09-03 09:04:50 
20.1000  13.0000  72  1015  2021-09-03 10:04:48 
23.2000  13.1000  64  1019  2021-09-03 22:04:49 
19.1000  13.0000  66  1021  2021-09-03 23:04:48 
18.4000  13.0000  70  1019  2021-09-04 00:04:50 
17.7000  12.8000  72  1019  2021-09-04 01:04:48 
17.6000  12.6000  73  1020  2021-09-04 02:04:46 
17.1000  12.5000  73  1019  2021-09-04 03:04:49 
17.0000  12.5000  74  1019  2021-09-04 04:04:47 
17.0000  12.1000  74  1018  2021-09-04 05:04:49 
16.5000  12.0000  75  1018  2021-09-04 06:04:47 
16.5000  12.0000  75  1018  2021-09-04 07:04:50 
16.5000  12.0000  76  1020  2021-09-04 08:04:48 
16.9000  12.3000  77  1018  2021-09-04 09:04:46 
17.0000  13.0000  76  1018  2021-09-04 10:04:48 
17.4000  13.6000  75  1018  2021-09-04 11:04:47 
18.1000  14.0000  72  1018  2021-09-04 12:04:49 
18.6000  15.0000  72  1017  2021-09-04 13:04:47 
19.1000  14.5000  70  1017  2021-09-04 14:04:50 
19.4000  16.0000  67  1018  2021-09-04 15:04:48 
19.1000  17.0000  67  1016  2021-09-04 16:04:50 
18.6000  15.9000  71  1017  2021-09-04 17:04:48 
19.1000  15.1000  71  1017  2021-09-04 18:04:46 
19.8000  14.5000  72  1017  2021-09-04 19:04:49 
21.6000  14.5000  72  1017  2021-09-04 20:04:47 
22.6000  14.5000  66  1018  2021-09-04 21:04:49 
19.1000  14.0000  66  1019  2021-09-04 22:04:48 
18.0000  13.5000  71  1018  2021-09-04 23:04:50 
17.6000  13.5000  72  1017  2021-09-05 00:04:48 
17.0000  13.0000  72  1018  2021-09-05 01:04:46 
17.0000  13.0000  73  1018  2021-09-05 02:04:49 
16.5000  13.0000  74  1018  2021-09-05 03:04:47 
16.7000  13.0000  74  1017  2021-09-05 04:04:47 
16.7000  12.5000  75  1018  2021-09-05 05:04:49 
16.5000  12.7000  75  1018  2021-09-05 06:04:48 
16.5000  12.5000  76  1018  2021-09-05 07:04:50 
16.5000  13.0000  76  1019  2021-09-05 08:04:48 
16.8000  13.9000  77  1020  2021-09-05 09:04:46 
17.3000  15.5000  76  1020  2021-09-05 10:04:49 
17.6000  11.5000  70  1025  2021-09-05 22:04:49 
17.0000  10.5000  71  1025  2021-09-05 23:04:47 
16.5000  9.5000  72  1025  2021-09-06 00:04:49 
16.0000  9.0000  72  1026  2021-09-06 01:04:47 
15.8000  9.5000  73  1026  2021-09-06 02:04:49 
15.5000  9.5000  73  1026  2021-09-06 03:04:48 
15.5000  8.5000  73  1026  2021-09-06 04:04:50 
15.0000  8.5000  73  1026  2021-09-06 05:04:48 
14.5000  8.5000  74  1026  2021-09-06 06:04:50 
14.5000  8.6000  74  1027  2021-09-06 07:04:48 
14.5000  9.5000  75  1028  2021-09-06 08:04:50 
15.0000  11.0000  75  1029  2021-09-06 09:04:48 
15.9000  12.0000  75  1029  2021-09-06 10:04:50 
16.5000  12.0000  74  1029  2021-09-06 11:04:49 
16.0000  14.0000  72  1028  2021-09-06 12:04:47 
17.0000  14.6000  71  1029  2021-09-06 13:04:49 
17.0000  15.1000  71  1028  2021-09-06 14:04:47 
17.5000  14.6000  70  1029  2021-09-06 15:04:49 
17.2000  14.5000  70  1028  2021-09-06 16:04:47 
17.0000  13.4000  70  1029  2021-09-06 17:04:50 
17.0000  12.9000  72  1030  2021-09-06 18:04:48 
19.6000  12.1000  73  1030  2021-09-06 19:04:50 
20.6000  12.0000  70  1031  2021-09-06 20:04:48 
20.7000  12.0000  65  1031  2021-09-06 21:04:51 
20.1000  12.0000  64  1031  2021-09-06 22:04:49 
17.6000  11.5000  65  1031  2021-09-06 23:04:47 
16.5000  11.0000  70  1031  2021-09-07 00:04:49 
16.0000  10.3000  71  1032  2021-09-07 01:04:47 
15.5000  10.0000  72  1031  2021-09-07 02:04:50 
15.0000  9.8000  72  1030  2021-09-07 03:04:47 
15.0000  10.0000  72  1029  2021-09-07 04:04:49 
14.5000  10.0000  72  1030  2021-09-07 05:04:48 
14.5000  9.5000  72  1029  2021-09-07 06:04:50 
14.0000  9.0000  74  1029  2021-09-07 07:04:47 
14.0000  9.0000  74  1029  2021-09-07 08:04:49 
14.5000  11.5000  73  1029  2021-09-07 09:04:48 
15.0000  13.0000  72  1029  2021-09-07 10:04:50 
18.6000  11.0000  61  1026  2021-09-07 23:04:52 
17.3000  10.0000  64  1024  2021-09-08 00:04:50 
16.5000  10.0000  65  1024  2021-09-08 01:04:48 
16.1000  9.5000  66  1023  2021-09-08 02:04:51 
16.0000  8.5000  66  1023  2021-09-08 03:04:49 
15.4000  8.2000  66  1023  2021-09-08 04:04:47 
14.6000  8.0000  67  1023  2021-09-08 05:04:49 
14.5000  7.5000  67  1023  2021-09-08 06:04:47 
14.3000  7.5000  70  1025  2021-09-08 07:04:49 
14.2000  8.4000  71  1024  2021-09-08 08:04:47 
14.5000  12.5000  71  1024  2021-09-08 09:04:49 
16.0000  15.0000  100  1024  2021-09-08 10:04:47 
17.0000  16.0000  100  1023  2021-09-08 11:04:49 
18.0000  17.6000  75  1024  2021-09-08 12:04:47 
18.6000  17.0000  73  1024  2021-09-08 13:04:50 
19.1000  17.6000  71  1023  2021-09-08 14:04:48 
19.1000  17.0000  67  1023  2021-09-08 15:04:50 
19.6000  16.5000  65  1023  2021-09-08 16:04:48 
19.5000  15.5000  64  1023  2021-09-08 17:04:51 
18.6000  14.5000  67  1023  2021-09-08 18:04:49 
18.1000  13.6000  70  1023  2021-09-08 19:04:47 
18.6000  13.5000  71  1023  2021-09-08 20:04:49 
18.9000  13.0000  72  1023  2021-09-08 21:04:48 
18.6000  13.5000  73  1023  2021-09-08 22:04:50 
18.1000  13.5000  73  1021  2021-09-08 23:04:49 
17.1000  13.3000  74  1020  2021-09-09 00:04:48 
16.7000  12.6000  74  1020  2021-09-09 01:04:50 
16.5000  12.5000  74  1020  2021-09-09 02:04:48 
16.5000  12.0000  74  1018  2021-09-09 03:04:51 
16.0000  10.0000  75  1018  2021-09-09 04:04:49 
15.5000  9.5000  75  1018  2021-09-09 05:04:51 
15.2000  9.0000  75  1018  2021-09-09 06:04:48 
15.0000  8.5000  75  1018  2021-09-09 07:04:50 
15.0000  10.5000  75  1018  2021-09-09 08:04:48 
15.8000  14.0000  76  1018  2021-09-09 09:04:51 
17.0000  16.5000  75  1017  2021-09-09 10:04:49 
18.1000  19.6000  75  1017  2021-09-09 11:04:48 
18.7000  23.0000  74  1016  2021-09-09 12:04:50 
21.2000  25.1000  66  1016  2021-09-09 13:04:49 
22.6000  26.1000  60  1014  2021-09-09 14:04:51 
21.9000  26.6000  55  1013  2021-09-09 15:04:49 
22.9000  26.1000  56  1011  2021-09-09 16:04:47 
23.1000  25.6000  52  1011  2021-09-09 17:04:50 
21.9000  23.9000  56  1012  2021-09-09 18:04:48 
22.1000  22.2000  62  1011  2021-09-09 19:04:51 
22.1000  20.6000  63  1011  2021-09-09 20:04:49 
21.6000  18.6000  63  1012  2021-09-09 21:04:47 
20.6000  18.3000  63  1012  2021-09-09 22:04:50 
20.1000  18.1000  61  1014  2021-09-09 23:04:48 
19.6000  17.6000  62  1015  2021-09-10 00:04:50 
19.6000  17.0000  66  1015  2021-09-10 01:04:48 
19.3000  16.0000  67  1016  2021-09-10 02:04:52 
19.1000  15.5000  70  1017  2021-09-10 03:04:50 
18.9000  15.5000  71  1017  2021-09-10 04:04:48 
18.7000  15.3000  72  1016  2021-09-10 05:04:50 
18.6000  15.0000  72  1016  2021-09-10 06:04:48 
18.6000  14.5000  72  1016  2021-09-10 07:04:51 
18.1000  14.1000  72  1017  2021-09-10 08:04:49 
18.6000  15.0000  72  1018  2021-09-10 09:04:47 
19.3000  16.0000  71  1017  2021-09-10 10:04:50 
19.5000  17.0000  66  1019  2021-09-10 11:04:48 
20.0000  18.6000  65  1019  2021-09-10 12:04:50 
20.6000  19.1000  63  1018  2021-09-10 13:04:48 
21.1000  19.7000  63  1018  2021-09-10 14:04:50 
21.6000  19.6000  61  1018  2021-09-10 15:04:49 
21.6000  19.2000  60  1017  2021-09-10 16:04:51 
21.6000  18.6000  61  1018  2021-09-10 17:04:49 
21.9000  17.0000  62  1017  2021-09-10 18:04:48 
21.6000  16.5000  64  1018  2021-09-10 19:04:50 
21.1000  16.0000  64  1018  2021-09-10 20:04:48 
21.6000  15.3000  66  1019  2021-09-10 21:04:51 
21.5000  14.5000  66  1019  2021-09-10 22:04:49 
19.6000  14.0000  65  1019  2021-09-10 23:04:47 
19.1000  13.0000  66  1018  2021-09-11 00:04:50 
18.6000  13.2000  67  1018  2021-09-11 01:04:48 
18.3000  13.2000  67  1019  2021-09-11 02:04:52 
18.0000  13.0000  70  1018  2021-09-11 03:04:50 
17.6000  12.5000  70  1017  2021-09-11 04:04:48 
17.6000  11.5000  71  1018  2021-09-11 05:04:50 
17.1000  11.5000  71  1018  2021-09-11 06:04:48 
17.0000  11.5000  72  1018  2021-09-11 07:04:50 
17.3000  12.0000  75  1019  2021-09-11 08:04:49 
17.8000  14.0000  76  1018  2021-09-11 09:04:51 
18.3000  15.0000  75  1018  2021-09-11 10:04:49 
18.6000  16.1000  74  1018  2021-09-11 11:04:47 
19.1000  17.0000  74  1017  2021-09-11 12:04:51 
19.8000  18.6000  71  1016  2021-09-11 13:04:49 
20.6000  20.5000  70  1017  2021-09-11 14:04:47 
21.1000  20.0000  67  1017  2021-09-11 15:04:50 
21.6000  19.5000  67  1016  2021-09-11 16:04:48 
21.1000  18.2000  70  1017  2021-09-11 17:04:50 
20.8000  17.2000  72  1018  2021-09-11 18:04:49 
21.1000  17.0000  73  1018  2021-09-11 19:04:51 
21.1000  16.0000  72  1018  2021-09-11 20:04:49 
20.6000  16.0000  72  1019  2021-09-11 21:04:48 
20.6000  15.8000  72  1019  2021-09-11 22:04:50 
20.6000  15.8000  73  1019  2021-09-11 23:04:48 
20.0000  15.5000  74  1019  2021-09-12 00:04:51 
19.6000  15.2000  74  1018  2021-09-12 01:04:49 
19.1000  15.3000  75  1018  2021-09-12 02:04:47 
19.1000  15.4000  75  1018  2021-09-12 03:04:50 
18.7000  15.0000  75  1018  2021-09-12 04:04:48 
18.7000  15.0000  75  1018  2021-09-12 05:04:50 
18.6000  14.5000  76  1019  2021-09-12 06:04:48 
18.4000  14.5000  76  1020  2021-09-12 07:04:51 
18.5000  14.5000  76  1020  2021-09-12 08:04:49 
18.6000  14.9000  100  1020  2021-09-12 09:04:51 
18.8000  15.0000  102  1021  2021-09-12 10:04:50 
19.6000  15.7000  103  1020  2021-09-12 11:04:48 
19.6000  16.0000  103  1021  2021-09-12 12:04:50 
20.6000  16.0000  101  1020  2021-09-12 13:04:48 
19.9000  16.0000  75  1020  2021-09-12 14:04:51 
21.1000  16.5000  74  1020  2021-09-12 15:04:49 
20.9000  16.0000  71  1020  2021-09-12 16:04:47 
21.1000  16.5000  64  1020  2021-09-12 17:04:50 
19.7000  15.4000  65  1020  2021-09-12 18:04:48 
19.8000  14.2000  70  1022  2021-09-12 19:04:50 
19.6000  13.1000  71  1022  2021-09-12 20:04:49 
18.9000  12.5000  72  1023  2021-09-12 21:04:51 
18.3000  12.0000  72  1022  2021-09-12 22:04:49 
17.9000  11.5000  73  1023  2021-09-12 23:04:52 
17.6000  11.4000  73  1021  2021-09-13 00:04:50 
17.2000  11.0000  74  1022  2021-09-13 01:04:48 
16.5000  10.5000  74  1021  2021-09-13 02:04:50 
16.5000  10.5000  74  1022  2021-09-13 03:04:48 
16.5000  10.3000  74  1022  2021-09-13 04:04:51 
16.0000  10.0000  74  1022  2021-09-13 05:04:49 
16.0000  9.5000  74  1021  2021-09-13 06:04:51 
15.6000  9.2000  75  1021  2021-09-13 07:04:49 
15.5000  10.2000  75  1022  2021-09-13 08:04:51 
16.0000  13.3000  72  1022  2021-09-13 09:04:49 
16.5000  15.0000  72  1022  2021-09-13 10:04:51 
17.9000  15.5000  72  1022  2021-09-13 11:04:49 
18.6000  16.5000  66  1020  2021-09-13 13:04:50 
18.8000  16.0000  64  1020  2021-09-13 14:04:49 
19.2000  15.7000  64  1020  2021-09-13 15:04:51 
19.3000  15.5000  62  1019  2021-09-13 16:04:49 
18.6000  14.5000  63  1020  2021-09-13 17:04:51 
18.9000  14.2000  65  1020  2021-09-13 18:04:49 
21.8000  14.0000  63  1019  2021-09-13 19:04:52 
22.7000  13.5000  62  1019  2021-09-13 20:04:50 
20.1000  13.5000  60  1020  2021-09-13 21:04:48 
18.5000  13.2000  65  1020  2021-09-13 22:04:50 
17.8000  13.0000  66  1020  2021-09-13 23:04:48 
17.6000  12.5000  67  1020  2021-09-14 00:04:51 
17.2000  12.5000  70  1018  2021-09-14 01:04:49 
17.0000  12.0000  70  1018  2021-09-14 02:04:52 
16.5000  11.6000  71  1018  2021-09-14 03:04:50 
16.3000  12.0000  72  1017  2021-09-14 04:04:48 
16.0000  11.5000  72  1017  2021-09-14 05:04:50 
16.0000  11.5000  72  1017  2021-09-14 06:04:48 
15.9000  12.6000  73  1018  2021-09-14 07:04:51 
16.0000  13.5000  74  1018  2021-09-14 08:04:49 
16.5000  14.0000  74  1019  2021-09-14 09:04:51 
17.7000  15.0000  73  1019  2021-09-14 10:04:49 
18.1000  16.0000  72  1019  2021-09-14 11:04:52 
19.1000  16.0000  73  1020  2021-09-14 12:04:50 
19.1000  16.5000  71  1019  2021-09-14 13:04:48 
19.3000  16.0000  70  1018  2021-09-14 14:04:50 
19.5000  15.5000  66  1019  2021-09-14 15:04:49 
19.4000  15.7000  64  1019  2021-09-14 16:04:51 
22.3000  14.5000  62  1020  2021-09-14 17:04:49 
22.2000  14.0000  64  1020  2021-09-14 18:04:51 
22.3000  13.5000  62  1020  2021-09-14 19:04:50 
22.0000  13.3000  62  1021  2021-09-14 20:04:48 
20.6000  13.4000  63  1022  2021-09-14 21:04:50 
19.1000  13.0000  64  1022  2021-09-14 22:04:49 
18.1000  12.0000  66  1022  2021-09-14 23:04:51 
17.6000  12.0000  67  1021  2021-09-15 00:04:49 
17.0000  11.5000  67  1022  2021-09-15 01:04:51 
16.5000  10.5000  67  1023  2021-09-15 02:04:49 
16.5000  10.3000  70  1023  2021-09-15 03:04:52 
16.0000  10.0000  70  1022  2021-09-15 04:04:50 
15.8000  9.5000  71  1021  2021-09-15 05:04:52 
15.4000  8.5000  71  1023  2021-09-15 06:04:49 
15.0000  8.5000  71  1023  2021-09-15 07:04:51 
15.0000  10.0000  72  1024  2021-09-15 08:04:49 
16.0000  13.0000  71  1024  2021-09-15 09:04:51 
17.0000  15.5000  66  1025  2021-09-15 10:04:50 
18.0000  16.5000  66  1025  2021-09-15 11:04:52 
18.1000  16.3000  66  1024  2021-09-15 13:04:49 
19.2000  16.9000  65  1024  2021-09-15 14:04:51 
19.2000  17.0000  64  1023  2021-09-15 15:04:50 
20.1000  17.0000  61  1023  2021-09-15 16:04:52 
19.8000  16.0000  61  1024  2021-09-15 17:04:50 
19.6000  15.0000  64  1024  2021-09-15 18:04:48 
19.7000  14.5000  67  1025  2021-09-15 19:04:50 
19.9000  14.0000  66  1026  2021-09-15 20:04:49 
19.1000  13.7000  67  1026  2021-09-15 21:04:51 
18.9000  13.5000  70  1027  2021-09-15 22:04:49 
18.1000  13.0000  70  1026  2021-09-15 23:04:51 
17.7000  13.0000  71  1026  2021-09-16 00:04:49 
17.6000  12.5000  71  1026  2021-09-16 01:04:52 
17.0000  12.0000  72  1026  2021-09-16 02:04:50 
16.9000  11.5000  72  1026  2021-09-16 03:04:52 
16.5000  12.5000  73  1026  2021-09-16 04:04:50 
16.5000  12.5000  73  1027  2021-09-16 05:04:48 
16.0000  12.5000  74  1027  2021-09-16 06:04:51 
16.0000  13.0000  74  1027  2021-09-16 07:04:49 
17.6000  15.0000  74  1029  2021-09-16 10:04:48 
18.1000  16.0000  72  1029  2021-09-16 11:04:51 
18.8000  17.0000  70  1029  2021-09-16 12:04:49 
19.1000  17.0000  64  1029  2021-09-16 13:04:51 
19.6000  17.3000  61  1029  2021-09-16 14:04:49 
20.1000  17.6000  61  1028  2021-09-16 15:04:52 
20.6000  16.5000  62  1029  2021-09-16 16:04:50 
20.1000  15.5000  61  1029  2021-09-16 17:04:52 
19.6000  14.5000  62  1029  2021-09-16 18:04:50 
20.1000  13.6000  64  1029  2021-09-16 19:04:48 
19.6000  13.5000  64  1029  2021-09-16 20:04:51 
19.6000  13.5000  64  1030  2021-09-16 21:04:49 
18.5000  13.5000  63  1030  2021-09-16 22:04:51 
17.9000  13.5000  64  1030  2021-09-16 23:04:50 
17.6000  13.0000  65  1029  2021-09-17 00:04:52 
17.3000  13.5000  66  1029  2021-09-17 01:04:50 
17.0000  12.8000  67  1029  2021-09-17 02:04:52 
17.0000  13.0000  67  1028  2021-09-17 03:04:50 
16.5000  13.0000  67  1027  2021-09-17 04:04:48 
16.5000  13.3000  70  1028  2021-09-17 05:04:50 
16.5000  13.0000  71  1028  2021-09-17 06:04:48 
16.4000  12.5000  72  1027  2021-09-17 07:04:51 
16.3000  14.0000  72  1028  2021-09-17 08:04:49 
17.0000  15.5000  73  1029  2021-09-17 09:04:51 
18.1000  16.7000  72  1028  2021-09-17 10:04:49 
18.9000  18.1000  70  1027  2021-09-17 11:04:51 
20.6000  19.7000  67  1026  2021-09-17 14:04:51 
21.6000  20.3000  64  1025  2021-09-17 15:04:49 
22.0000  20.1000  64  1025  2021-09-17 16:04:52 
21.8000  19.1000  64  1024  2021-09-17 17:04:50 
21.1000  17.7000  66  1023  2021-09-17 18:04:48 
20.6000  16.5000  70  1024  2021-09-17 19:04:51 
20.6000  15.5000  66  1025  2021-09-17 20:04:49 
20.1000  14.5000  66  1024  2021-09-17 21:04:51 
19.6000  14.0000  66  1023  2021-09-17 22:04:49 
19.1000  13.5000  67  1023  2021-09-17 23:04:52 
18.6000  13.4000  70  1023  2021-09-18 00:04:50 
18.6000  13.0000  70  1022  2021-09-18 01:04:52 
18.1000  12.5000  71  1021  2021-09-18 02:04:50 
17.8000  12.5000  71  1020  2021-09-18 03:04:49 
17.6000  12.0000  71  1019  2021-09-18 04:04:51 
17.0000  11.5000  72  1018  2021-09-18 05:04:49 
17.0000  11.0000  72  1018  2021-09-18 06:04:51 
16.5000  10.5000  72  1017  2021-09-18 07:04:49 
16.5000  12.5000  72  1017  2021-09-18 08:04:51 
17.0000  15.4000  71  1016  2021-09-18 09:04:50 
18.1000  18.1000  64  1017  2021-09-18 10:04:52 
19.6000  20.1000  63  1015  2021-09-18 11:04:50 
20.8000  21.6000  56  1014  2021-09-18 12:04:52 
21.6000  22.6000  51  1014  2021-09-18 13:04:51 
22.6000  23.6000  53  1012  2021-09-18 14:04:49 
23.6000  24.1000  47  1012  2021-09-18 15:04:51 
23.5000  23.6000  51  1011  2021-09-18 16:04:50 
23.5000  23.6000  50  1011  2021-09-18 17:04:52 
23.0000  22.6000  51  1011  2021-09-18 18:04:51 
22.6000  21.3000  60  1012  2021-09-18 19:04:49 
23.1000  19.7000  60  1012  2021-09-18 20:04:52 
22.8000  17.6000  61  1013  2021-09-18 21:04:50 
21.2000  16.6000  62  1013  2021-09-18 22:04:52 
20.6000  15.5000  63  1014  2021-09-18 23:04:50 
20.1000  14.8000  64  1013  2021-09-19 00:04:49 
20.1000  14.5000  64  1015  2021-09-19 01:04:51 
19.6000  14.0000  65  1014  2021-09-19 02:04:49 
19.3000  14.1000  65  1013  2021-09-19 03:04:51 
19.1000  14.3000  66  1013  2021-09-19 04:04:49 
19.1000  14.0000  67  1014  2021-09-19 05:04:52 
19.1000  14.0000  70  1013  2021-09-19 06:04:50 
18.6000  14.0000  72  1014  2021-09-19 07:04:52 
18.6000  14.5000  72  1015  2021-09-19 08:04:51 
18.7000  14.6000  74  1016  2021-09-19 09:04:49 
18.8000  15.5000  76  1015  2021-09-19 10:04:51 
19.1000  16.5000  75  1016  2021-09-19 11:04:50 
21.1000  20.6000  64  1015  2021-09-19 15:04:52 
22.1000  20.8000  63  1015  2021-09-19 16:04:50 
22.1000  20.6000  63  1015  2021-09-19 17:04:52 
21.6000  19.1000  66  1014  2021-09-19 18:04:51 
21.1000  17.0000  67  1015  2021-09-19 19:04:49 
21.1000  16.2000  67  1016  2021-09-19 20:04:51 
20.8000  15.5000  70  1017  2021-09-19 21:04:49 
20.5000  14.9000  70  1018  2021-09-19 22:04:52 
19.6000  15.0000  71  1018  2021-09-19 23:04:50 
19.5000  15.0000  71  1017  2021-09-20 00:04:52 
19.1000  15.0000  71  1018  2021-09-20 01:04:50 
19.1000  15.3000  71  1018  2021-09-20 02:04:49 
19.0000  15.0000  72  1018  2021-09-20 03:04:51 
19.0000  15.3000  72  1018  2021-09-20 04:04:49 
18.7000  15.0000  73  1018  2021-09-20 05:04:52 
18.6000  14.8000  73  1020  2021-09-20 06:04:50 
18.4000  14.1000  73  1020  2021-09-20 07:04:52 
18.6000  12.5000  75  1021  2021-09-20 08:04:51 
18.6000  12.5000  74  1022  2021-09-20 09:04:49 
19.2000  13.4000  72  1023  2021-09-20 10:04:51 
20.1000  15.9000  66  1024  2021-09-20 11:04:50 
19.9000  17.0000  63  1024  2021-09-20 12:04:52 
20.3000  17.0000  62  1024  2021-09-20 13:04:50 
20.6000  17.0000  55  1025  2021-09-20 14:04:52 
20.6000  16.4000  56  1025  2021-09-20 15:04:51 
20.7000  15.5000  57  1026  2021-09-20 16:04:49 
20.7000  15.0000  56  1025  2021-09-20 17:04:51 
20.1000  14.2000  57  1026  2021-09-20 18:04:50 
20.3000  13.7000  61  1028  2021-09-20 19:04:52 
20.0000  13.0000  61  1028  2021-09-20 20:04:50 
19.8000  12.5000  62  1029  2021-09-20 21:04:52 
19.1000  12.3000  63  1029  2021-09-20 22:04:51 
18.1000  11.5000  64  1029  2021-09-20 23:04:53 
17.8000  11.5000  65  1029  2021-09-21 00:04:51 
17.6000  12.0000  64  1029  2021-09-21 01:04:49 
17.6000  12.5000  64  1029  2021-09-21 02:04:53 
17.0000  12.0000  64  1029  2021-09-21 03:04:49 
17.0000  12.5000  65  1029  2021-09-21 04:04:51 
16.8000  12.5000  66  1028  2021-09-21 05:04:49 
16.5000  12.0000  66  1029  2021-09-21 06:04:52 
16.5000  12.4000  66  1028  2021-09-21 07:04:50 
16.8000  13.5000  66  1029  2021-09-21 08:04:52 
17.6000  14.5000  65  1029  2021-09-21 09:04:50 
18.2000  16.0000  63  1028  2021-09-21 10:04:53 
18.9000  17.0000  61  1029  2021-09-21 11:04:51 
19.3000  18.9000  60  1028  2021-09-21 12:04:49 
21.1000  17.6000  57  1026  2021-09-21 16:04:51 
21.3000  17.0000  60  1026  2021-09-21 17:04:49 
20.8000  15.5000  62  1026  2021-09-21 18:04:51 
20.6000  14.5000  64  1026  2021-09-21 19:04:49 
20.6000  14.5000  64  1026  2021-09-21 20:04:52 
20.5000  14.1000  65  1026  2021-09-21 21:04:50 
20.2000  13.9000  65  1026  2021-09-21 22:04:52 
19.1000  13.5000  65  1025  2021-09-21 23:04:51 
18.6000  12.5000  65  1024  2021-09-22 00:04:53 
18.3000  12.6000  66  1024  2021-09-22 01:04:51 
18.1000  11.2000  66  1023  2021-09-22 02:04:49 
17.6000  10.5000  66  1021  2021-09-22 03:04:52 
16.4000  8.2000  67  1022  2021-09-22 06:04:50 
16.0000  8.0000  70  1021  2021-09-22 07:04:52 
16.1000  10.0000  71  1020  2021-09-22 08:04:50 
17.0000  14.3000  71  1020  2021-09-22 09:04:52 
18.1000  18.6000  65  1020  2021-09-22 10:04:51 
19.1000  20.6000  62  1019  2021-09-22 11:04:53 
20.7000  23.0000  63  1018  2021-09-22 12:04:51 
21.4000  24.3000  60  1018  2021-09-22 13:04:49 
21.6000  24.6000  57  1017  2021-09-22 14:04:51 
22.2000  23.2000  56  1015  2021-09-22 15:04:50 
22.6000  22.9000  57  1015  2021-09-22 16:04:52 
22.3000  21.6000  61  1015  2021-09-22 17:04:50 
22.1000  21.1000  62  1014  2021-09-22 18:04:52 
22.6000  20.6000  66  1013  2021-09-22 19:04:51 
22.2000  19.1000  65  1012  2021-09-22 20:04:49 
22.0000  18.1000  65  1012  2021-09-22 21:04:52 
20.6000  16.5000  66  1011  2021-09-22 22:04:50 
20.1000  14.7000  66  1011  2021-09-22 23:04:52 
19.8000  13.5000  66  1010  2021-09-23 00:04:50 
19.4000  13.0000  66  1010  2021-09-23 01:04:53 
19.1000  12.5000  65  1010  2021-09-23 02:04:51 
18.6000  12.0000  65  1010  2021-09-23 03:04:49 
18.1000  12.0000  65  1010  2021-09-23 04:04:51 
18.1000  14.3000  63  1011  2021-09-23 05:04:50 
18.0000  14.0000  63  1011  2021-09-23 06:04:52 
18.1000  14.2000  66  1012  2021-09-23 07:04:50 
18.1000  15.3000  67  1014  2021-09-23 08:04:52 
18.6000  16.6000  65  1013  2021-09-23 09:04:50 
20.0000  18.3000  67  1012  2021-09-23 10:04:53 
20.6000  19.1000  66  1014  2021-09-23 11:04:51 
21.6000  20.1000  67  1015  2021-09-23 12:04:49 
22.4000  21.5000  65  1016  2021-09-23 16:04:52 
21.6000  21.6000  66  1015  2021-09-23 17:04:50 
20.9000  20.1000  71  1017  2021-09-23 18:04:53 
21.7000  18.6000  72  1017  2021-09-23 19:04:51 
21.6000  18.1000  71  1017  2021-09-23 20:04:49 
21.6000  17.6000  71  1018  2021-09-23 21:04:52 
21.4000  17.0000  71  1019  2021-09-23 22:04:50 
20.5000  17.0000  72  1019  2021-09-23 23:04:52 
20.1000  16.0000  72  1019  2021-09-24 00:04:51 
19.6000  15.1000  72  1018  2021-09-24 01:04:53 
19.6000  14.5000  73  1018  2021-09-24 02:04:51 
19.1000  14.5000  73  1019  2021-09-24 03:04:50 
19.1000  15.4000  73  1019  2021-09-24 04:04:52 
19.1000  15.5000  74  1019  2021-09-24 05:04:50 
19.1000  15.2000  74  1020  2021-09-24 06:04:52 
18.5000  15.0000  77  1021  2021-09-24 07:04:51 
18.8000  15.9000  76  1021  2021-09-24 08:04:53 
19.6000  17.0000  75  1022  2021-09-24 09:04:51 
20.4000  18.1000  74  1021  2021-09-24 10:04:50 
20.6000  18.8000  72  1021  2021-09-24 11:04:52 
21.1000  20.1000  71  1022  2021-09-24 12:04:50 
21.6000  20.7000  70  1020  2021-09-24 13:04:53 
22.1000  22.5000  67  1020  2021-09-24 14:04:51 
22.7000  23.1000  65  1019  2021-09-24 15:04:53 
23.4000  23.6000  63  1019  2021-09-24 16:04:52 
23.2000  23.1000  63  1018  2021-09-24 17:04:50 
22.6000  21.6000  64  1019  2021-09-24 18:04:52 
22.0000  19.6000  64  1019  2021-09-24 19:04:51 
21.6000  17.0000  64  1019  2021-09-24 20:04:53 
21.1000  16.5000  64  1020  2021-09-24 21:04:52 
20.8000  15.0000  64  1020  2021-09-24 22:04:50 
20.4000  13.5000  65  1019  2021-09-24 23:04:52 
20.0000  13.0000  65  1019  2021-09-25 00:04:51 
19.6000  12.2000  66  1019  2021-09-25 01:04:53 
19.3000  11.5000  66  1018  2021-09-25 02:04:51 
19.0000  11.0000  66  1018  2021-09-25 03:04:53 
18.6000  10.5000  66  1018  2021-09-25 04:04:52 
18.1000  10.0000  67  1017  2021-09-25 05:04:50 
18.1000  11.0000  70  1017  2021-09-25 06:04:53 
17.6000  10.5000  70  1017  2021-09-25 07:04:51 
18.1000  13.0000  70  1018  2021-09-25 08:04:50 
18.6000  15.0000  70  1017  2021-09-25 09:04:52 
19.3000  17.0000  67  1018  2021-09-25 10:04:50 
20.1000  19.1000  67  1017  2021-09-25 11:04:52 
20.7000  20.6000  65  1018  2021-09-25 12:04:51 
21.1000  21.2000  62  1018  2021-09-25 13:04:53 
22.1000  22.1000  62  1016  2021-09-25 14:04:51 
22.3000  22.1000  62  1018  2021-09-25 15:04:54 
22.1000  20.1000  65  1018  2021-09-25 16:04:52 
22.1000  20.1000  66  1018  2021-09-25 17:04:50 
22.1000  18.3000  66  1018  2021-09-25 18:04:53 
22.6000  18.0000  67  1019  2021-09-25 19:04:51 
22.1000  18.1000  70  1019  2021-09-25 20:04:53 
22.1000  17.6000  70  1019  2021-09-25 21:04:52 
21.3000  17.2000  71  1019  2021-09-25 22:04:50 
20.7000  17.0000  72  1018  2021-09-25 23:04:52 
20.6000  16.5000  72  1019  2021-09-26 00:04:51 
20.1000  15.5000  73  1019  2021-09-26 01:04:53 
20.1000  16.0000  73  1019  2021-09-26 02:04:51 
19.6000  16.0000  73  1018  2021-09-26 03:04:50 
19.6000  15.2000  74  1018  2021-09-26 04:04:52 
19.6000  15.0000  74  1019  2021-09-26 05:04:50 
19.3000  15.5000  75  1019  2021-09-26 06:04:53 
19.1000  15.4000  75  1018  2021-09-26 07:04:51 
19.1000  16.0000  75  1019  2021-09-26 08:04:53 
19.6000  16.7000  77  1019  2021-09-26 09:04:51 
20.1000  17.6000  76  1019  2021-09-26 10:04:53 
20.7000  19.2000  75  1019  2021-09-26 11:04:52 
21.1000  20.7000  74  1019  2021-09-26 12:04:50 
21.8000  20.7000  73  1018  2021-09-26 13:04:52 
22.7000  22.1000  70  1018  2021-09-26 14:04:51 
23.0000  21.9000  67  1016  2021-09-26 15:04:53 
23.4000  22.3000  66  1014  2021-09-26 16:04:52 
23.2000  21.1000  66  1013  2021-09-26 17:04:50 
22.7000  18.6000  70  1013  2021-09-26 18:04:53 
22.3000  17.3000  70  1014  2021-09-26 19:04:51 
22.6000  17.0000  70  1014  2021-09-26 20:04:53 
22.6000  16.5000  70  1014  2021-09-26 21:04:52 
22.1000  16.2000  70  1015  2021-09-26 22:04:50 
21.6000  16.0000  71  1013  2021-09-26 23:04:52 
21.1000  15.9000  72  1014  2021-09-27 00:04:51 
20.7000  15.5000  72  1014  2021-09-27 01:04:53 
20.4000  15.0000  72  1014  2021-09-27 02:04:51 
20.1000  14.5000  72  1013  2021-09-27 03:04:54 
19.8000  14.5000  72  1012  2021-09-27 04:04:52 
19.6000  14.1000  73  1013  2021-09-27 05:04:50 
19.2000  15.3000  74  1014  2021-09-27 07:04:52 
19.4000  15.7000  74  1015  2021-09-27 08:04:50 
19.6000  16.5000  73  1016  2021-09-27 09:04:53 
20.1000  18.1000  70  1017  2021-09-27 10:04:51 
21.1000  18.6000  67  1017  2021-09-27 11:04:53 
21.1000  18.1000  70  1016  2021-09-27 12:04:51 
21.1000  16.9000  67  1017  2021-09-27 13:04:54 
20.6000  17.5000  65  1017  2021-09-27 14:04:52 
20.6000  17.6000  62  1017  2021-09-27 15:04:50 
20.6000  17.2000  64  1017  2021-09-27 16:04:52 
21.1000  17.6000  62  1017  2021-09-27 17:04:51 
20.9000  16.5000  65  1018  2021-09-27 18:04:53 
21.1000  15.9000  70  1019  2021-09-27 19:04:51 
21.1000  15.0000  67  1020  2021-09-27 20:04:53 
21.6000  14.5000  67  1020  2021-09-27 21:04:52 
21.1000  14.0000  67  1019  2021-09-27 22:04:54 
19.7000  13.9000  70  1020  2021-09-27 23:04:52 
19.1000  13.5000  70  1019  2021-09-28 00:04:50 
19.0000  12.5000  70  1020  2021-09-28 01:04:53 
18.3000  12.4000  71  1019  2021-09-28 02:04:51 
18.1000  12.0000  71  1018  2021-09-28 03:04:53 
17.8000  11.5000  71  1019  2021-09-28 04:04:52 
17.6000  10.7000  71  1019  2021-09-28 05:04:54 
17.0000  10.0000  71  1019  2021-09-28 06:04:52 
16.9000  10.0000  72  1020  2021-09-28 07:04:54 
17.0000  12.3000  72  1020  2021-09-28 08:04:52 
18.1000  14.5000  73  1019  2021-09-28 09:04:50 
18.6000  16.2000  67  1020  2021-09-28 10:04:53 
19.9000  18.4000  66  1020  2021-09-28 11:04:51 
20.6000  20.0000  65  1020  2021-09-28 12:04:53 
21.1000  19.3000  64  1019  2021-09-28 13:04:52 
21.0000  19.6000  64  1019  2021-09-28 14:04:54 
22.1000  20.5000  61  1019  2021-09-28 15:04:52 
21.1000  18.6000  64  1019  2021-09-28 16:04:51 
21.0000  17.6000  65  1019  2021-09-28 17:04:53 
20.8000  17.4000  65  1019  2021-09-28 18:04:51 
21.2000  16.6000  70  1020  2021-09-28 19:04:54 
20.6000  16.0000  70  1019  2021-09-28 20:04:52 
20.6000  15.7000  71  1020  2021-09-28 21:04:54 
20.1000  15.5000  71  1021  2021-09-28 22:04:52 
19.8000  15.2000  72  1021  2021-09-28 23:04:51 
19.6000  15.0000  73  1021  2021-09-29 00:04:53 
19.3000  15.0000  73  1022  2021-09-29 01:04:51 
19.1000  15.0000  73  1021  2021-09-29 02:04:59 
18.6000  15.0000  73  1021  2021-09-29 03:04:53 
18.6000  14.6000  74  1021  2021-09-29 04:04:51 
18.4000  15.0000  74  1021  2021-09-29 05:04:54 
18.1000  15.0000  76  1022  2021-09-29 07:04:51 
18.6000  16.0000  75  1023  2021-09-29 08:04:54 
19.2000  17.0000  74  1023  2021-09-29 09:04:52 
19.8000  17.6000  73  1023  2021-09-29 10:04:54 
20.1000  18.1000  74  1023  2021-09-29 11:04:52 
20.1000  18.1000  74  1023  2021-09-29 12:04:51 
21.1000  18.1000  72  1022  2021-09-29 13:04:53 
21.1000  17.6000  71  1022  2021-09-29 14:04:51 
22.1000  18.1000  67  1021  2021-09-29 15:04:54 
21.6000  17.6000  66  1021  2021-09-29 16:04:52 
21.4000  17.1000  66  1021  2021-09-29 17:04:54 
21.1000  16.5000  67  1022  2021-09-29 18:04:53 
20.1000  15.5000  67  1022  2021-09-29 19:04:51 
19.6000  15.0000  70  1023  2021-09-29 20:04:53 
20.1000  15.0000  71  1022  2021-09-29 21:04:51 
19.5000  15.0000  71  1023  2021-09-29 22:04:54 
19.3000  15.0000  71  1022  2021-09-29 23:04:52 
19.1000  15.0000  72  1022  2021-09-30 00:04:54 
19.1000  15.0000  72  1021  2021-09-30 01:04:52 
18.6000  14.5000  72  1021  2021-09-30 02:04:53 
18.6000  14.0000  72  1021  2021-09-30 03:04:53 
18.1000  14.0000  72  1020  2021-09-30 04:04:51 
18.1000  14.0000  73  1019  2021-09-30 05:04:54 
17.9000  13.5000  73  1020  2021-09-30 06:04:52 
18.1000  13.5000  75  1019  2021-09-30 07:04:54 
18.1000  15.5000  74  1019  2021-09-30 08:04:53 
18.6000  17.6000  73  1019  2021-09-30 09:04:51 
20.1000  19.1000  73  1018  2021-09-30 10:04:53 
20.3000  20.2000  71  1018  2021-09-30 11:04:51 
20.9000  20.6000  70  1018  2021-09-30 12:04:54 
22.1000  21.6000  67  1017  2021-09-30 13:04:52 
22.3000  22.1000  65  1016  2021-09-30 14:04:55 
23.1000  21.7000  63  1016  2021-09-30 15:04:53 
23.1000  21.3000  65  1016  2021-09-30 16:04:51 
22.5000  21.0000  67  1016  2021-09-30 17:04:54 
22.1000  18.1000  70  1016  2021-09-30 18:04:52 
22.3000  17.2000  71  1016  2021-09-30 19:04:54 
22.1000  16.5000  71  1017  2021-09-30 20:04:53 
21.8000  16.2000  71  1017  2021-09-30 21:04:51 
21.1000  15.9000  71  1017  2021-09-30 22:04:54 
20.9000  15.5000  72  1017  2021-09-30 23:04:52 
20.4000  15.4000  72  1016  2021-10-01 00:04:54 
20.1000  15.0000  73  1017  2021-10-01 01:04:53 
19.7000  14.7000  74  1016  2021-10-01 02:04:51 
19.6000  14.5000  74  1016  2021-10-01 03:04:55 
19.1000  14.5000  76  1016  2021-10-01 04:04:53 
19.1000  14.5000  77  1016  2021-10-01 05:04:51 
19.1000  14.5000  77  1016  2021-10-01 06:04:53 
19.7000  16.0000  100  1018  2021-10-01 08:04:55 
20.1000  16.5000  77  1018  2021-10-01 09:04:53 
20.6000  17.0000  75  1018  2021-10-01 10:04:51 
20.7000  18.6000  75  1018  2021-10-01 11:04:53 
21.1000  18.6000  75  1018  2021-10-01 12:04:52 
21.1000  18.6000  73  1017  2021-10-01 13:04:54 
21.6000  18.3000  71  1017  2021-10-01 14:04:52 
21.1000  17.0000  72  1017  2021-10-01 15:04:51 
21.1000  16.1000  72  1017  2021-10-01 16:04:53 
20.8000  15.8000  72  1017  2021-10-01 17:04:51 
20.6000  15.5000  73  1018  2021-10-01 18:04:54 
21.0000  15.5000  73  1017  2021-10-01 19:04:52 
21.1000  15.5000  73  1018  2021-10-01 20:04:55 
21.0000  15.4000  73  1019  2021-10-01 21:04:53 
20.6000  15.0000  72  1019  2021-10-01 22:04:51 
20.6000  14.0000  72  1019  2021-10-01 23:04:54 
19.6000  13.5000  72  1018  2021-10-02 00:04:52 
19.1000  13.0000  73  1018  2021-10-02 01:04:54 
19.0000  13.4000  72  1017  2021-10-02 02:04:53 
18.6000  13.5000  72  1018  2021-10-02 03:04:51 
18.6000  13.4000  73  1017  2021-10-02 04:04:53 
18.3000  13.5000  74  1018  2021-10-02 05:04:51 
18.2000  13.5000  75  1018  2021-10-02 06:04:54 
18.1000  13.3000  76  1019  2021-10-02 07:04:52 
17.9000  13.0000  76  1020  2021-10-02 08:04:54 
18.5000  14.0000  74  1020  2021-10-02 09:04:53 
19.1000  15.0000  73  1021  2021-10-02 10:04:51 
18.8000  14.5000  72  1021  2021-10-02 11:04:53 
18.8000  14.0000  71  1021  2021-10-02 12:04:52 
19.1000  15.4000  65  1021  2021-10-02 13:04:54 
19.4000  15.0000  61  1021  2021-10-02 14:04:52 
19.6000  14.5000  60  1022  2021-10-02 15:04:54 
19.9000  14.0000  61  1022  2021-10-02 16:04:53 
19.6000  13.5000  61  1022  2021-10-02 17:04:51 
19.6000  13.0000  62  1022  2021-10-02 18:04:53 
19.6000  12.5000  63  1023  2021-10-02 19:04:51 
19.4000  12.2000  63  1022  2021-10-02 20:04:53 
19.2000  12.0000  65  1024  2021-10-02 21:04:52 
19.1000  12.5000  65  1023  2021-10-02 22:04:54 
18.6000  12.0000  65  1024  2021-10-02 23:04:52 
18.1000  12.0000  66  1024  2021-10-03 00:04:54 
17.6000  11.5000  67  1024  2021-10-03 01:04:53 
17.3000  11.0000  67  1024  2021-10-03 02:04:55 
16.7000  10.5000  67  1024  2021-10-03 03:04:53 
16.5000  10.5000  70  1023  2021-10-03 04:04:51 
16.5000  10.5000  70  1023  2021-10-03 05:04:53 
16.2000  10.5000  70  1023  2021-10-03 06:04:51 
16.9000  13.0000  71  1024  2021-10-03 09:04:55 
18.0000  15.5000  70  1024  2021-10-03 10:04:53 
18.1000  15.5000  67  1024  2021-10-03 11:04:51 
19.1000  15.5000  65  1024  2021-10-03 12:04:53 
19.4000  17.0000  62  1024  2021-10-03 13:04:52 
20.0000  16.5000  62  1024  2021-10-03 14:04:54 
20.1000  16.3000  60  1023  2021-10-03 15:04:52 
20.6000  16.0000  57  1023  2021-10-03 16:04:54 
20.1000  16.0000  60  1023  2021-10-03 17:04:53 
19.6000  14.6000  61  1024  2021-10-03 18:04:55 
19.6000  14.0000  64  1024  2021-10-03 19:04:53 
20.1000  14.0000  64  1025  2021-10-03 20:04:51 
19.6000  13.5000  63  1026  2021-10-03 21:04:53 
19.1000  13.0000  63  1026  2021-10-03 22:04:51 
18.6000  12.6000  63  1026  2021-10-03 23:04:54 
18.1000  12.5000  64  1026  2021-10-04 00:04:52 
17.6000  12.5000  63  1026  2021-10-04 01:04:54 
17.6000  12.5000  64  1026  2021-10-04 02:04:52 
17.0000  12.5000  64  1026  2021-10-04 03:04:54 
17.0000  12.0000  64  1025  2021-10-04 04:04:52 
16.5000  12.0000  64  1025  2021-10-04 05:04:55 
16.2000  12.0000  64  1024  2021-10-04 06:04:53 
16.4000  12.0000  65  1024  2021-10-04 07:04:55 
16.5000  13.5000  65  1025  2021-10-04 08:04:53 
17.6000  15.0000  64  1024  2021-10-04 09:04:55 
17.6000  16.2000  61  1025  2021-10-04 10:04:53 
18.2000  17.6000  61  1025  2021-10-04 11:04:51 
19.1000  18.9000  56  1025  2021-10-04 12:04:54 
19.7000  18.1000  61  1024  2021-10-04 13:04:52 
20.1000  18.6000  62  1022  2021-10-04 14:04:54 
20.8000  18.9000  61  1023  2021-10-04 15:04:52 
21.1000  17.6000  60  1021  2021-10-04 16:04:55 
20.9000  17.3000  62  1021  2021-10-04 17:04:53 
20.1000  16.5000  64  1021  2021-10-04 18:04:55 
20.6000  16.0000  66  1021  2021-10-04 19:04:53 
21.0000  15.5000  65  1022  2021-10-04 20:04:52 
20.6000  15.0000  64  1021  2021-10-04 21:04:54 
20.6000  14.4000  65  1022  2021-10-04 22:04:52 
19.1000  14.0000  64  1022  2021-10-04 23:04:55 
18.7000  14.0000  65  1021  2021-10-05 00:04:53 
18.4000  13.8000  65  1021  2021-10-05 01:04:55 
18.1000  13.5000  65  1019  2021-10-05 02:04:53 
17.9000  13.0000  66  1019  2021-10-05 03:04:51 
17.6000  12.5000  66  1019  2021-10-05 04:04:54 
17.2000  12.5000  66  1018  2021-10-05 05:04:52 
17.0000  11.7000  66  1018  2021-10-05 06:04:54 
17.6000  16.2000  67  1020  2021-10-05 09:04:54 
18.6000  19.1000  66  1019  2021-10-05 10:04:52 
19.6000  21.1000  63  1020  2021-10-05 11:04:54 
20.6000  22.2000  60  1019  2021-10-05 12:04:52 
21.1000  23.0000  61  1018  2021-10-05 13:04:55 
21.6000  22.1000  62  1019  2021-10-05 14:04:53 
22.2000  21.6000  61  1017  2021-10-05 15:04:55 
22.6000  21.1000  60  1017  2021-10-05 16:04:53 
22.3000  20.1000  63  1018  2021-10-05 17:04:52 
21.8000  18.6000  64  1018  2021-10-05 18:04:54 
22.1000  17.6000  65  1019  2021-10-05 19:04:53 
22.6000  17.6000  66  1019  2021-10-05 20:04:55 
22.1000  16.5000  65  1018  2021-10-05 21:04:53 
21.6000  16.0000  64  1019  2021-10-05 22:04:52 
20.4000  14.5000  66  1019  2021-10-05 23:04:54 
19.7000  13.5000  66  1018  2021-10-06 00:04:52 
19.3000  13.4000  66  1017  2021-10-06 01:04:55 
18.9000  12.5000  66  1017  2021-10-06 02:04:53 
18.6000  12.0000  66  1017  2021-10-06 03:04:55 
18.4000  13.5000  67  1017  2021-10-06 04:04:54 
18.3000  13.8000  70  1017  2021-10-06 05:04:52 
18.1000  13.3000  71  1017  2021-10-06 06:04:54 
18.1000  14.9000  71  1018  2021-10-06 07:04:52 
18.3000  16.5000  71  1018  2021-10-06 08:04:54 
19.2000  18.6000  70  1018  2021-10-06 09:04:53 
20.2000  20.2000  67  1018  2021-10-06 10:04:55 
21.5000  21.6000  66  1019  2021-10-06 11:04:53 
22.4000  22.4000  70  1017  2021-10-06 12:04:55 
23.1000  23.9000  66  1016  2021-10-06 13:04:54 
23.7000  24.0000  64  1016  2021-10-06 14:04:52 
24.6000  23.6000  62  1014  2021-10-06 15:04:54 
24.1000  21.9000  61  1014  2021-10-06 16:04:53 
23.6000  21.1000  63  1014  2021-10-06 17:04:55 
23.1000  19.6000  66  1014  2021-10-06 18:04:54 
22.6000  18.7000  67  1014  2021-10-06 19:04:52 
22.2000  18.2000  67  1015  2021-10-06 20:04:55 
22.3000  18.1000  66  1015  2021-10-06 21:04:53 
21.7000  18.1000  66  1014  2021-10-06 22:04:55 
21.4000  17.6000  66  1013  2021-10-06 23:04:54 
21.2000  17.3000  66  1011  2021-10-07 00:04:52 
21.1000  16.4000  66  1012  2021-10-07 01:04:54 
20.6000  15.5000  66  1011  2021-10-07 02:04:53 
20.1000  15.5000  66  1010  2021-10-07 03:04:56 
19.9000  14.6000  66  1009  2021-10-07 04:04:54 
19.6000  14.0000  66  1008  2021-10-07 05:04:52 
19.4000  13.5000  67  1008  2021-10-07 06:04:55 
21.6000  23.6000  65  1010  2021-10-07 10:04:57 
22.1000  25.1000  65  1010  2021-10-07 11:04:55 
23.1000  25.2000  62  1010  2021-10-07 12:04:53 
25.0000  26.1000  51  1009  2021-10-07 13:04:56 
25.1000  26.9000  55  1010  2021-10-07 14:04:54 
24.6000  24.9000  56  1010  2021-10-07 15:04:53 
24.6000  25.1000  55  1011  2021-10-07 16:04:55 
23.8000  24.7000  54  1011  2021-10-07 17:04:53 
23.8000  22.6000  54  1011  2021-10-07 18:04:56 
24.1000  22.1000  57  1013  2021-10-07 19:04:54 
23.6000  19.6000  60  1014  2021-10-07 20:04:52 
23.5000  18.1000  61  1013  2021-10-07 21:04:55 
23.1000  17.0000  60  1013  2021-10-07 22:04:53 
22.0000  16.5000  61  1013  2021-10-07 23:04:56 
21.6000  15.8000  62  1014  2021-10-08 00:04:54 
21.1000  15.4000  62  1014  2021-10-08 01:04:52 
20.9000  15.0000  63  1014  2021-10-08 02:04:54 
20.6000  14.5000  63  1013  2021-10-08 03:04:53 
20.4000  14.5000  64  1013  2021-10-08 04:04:56 
20.1000  14.5000  64  1013  2021-10-08 05:04:54 
20.0000  14.3000  65  1014  2021-10-08 06:04:52 
19.8000  14.6000  66  1014  2021-10-08 07:04:55 
20.1000  15.4000  65  1014  2021-10-08 08:04:53 
20.6000  16.0000  64  1015  2021-10-08 09:04:55 
20.9000  17.0000  64  1014  2021-10-08 10:04:53 
21.4000  18.1000  63  1014  2021-10-08 11:04:56 
21.4000  19.2000  62  1014  2021-10-08 12:04:54 
21.9000  20.1000  62  1013  2021-10-08 13:04:52 
21.5000  18.6000  64  1014  2021-10-08 14:04:54 
21.6000  19.1000  65  1014  2021-10-08 15:04:53 
22.0000  18.1000  65  1014  2021-10-08 16:04:55 
21.4000  18.1000  67  1014  2021-10-08 17:04:53 
21.8000  18.1000  70  1014  2021-10-08 18:04:56 
22.1000  17.6000  71  1014  2021-10-08 19:04:54 
22.6000  17.6000  71  1015  2021-10-08 20:04:52 
22.4000  17.4000  72  1016  2021-10-08 21:04:55 
21.7000  17.0000  70  1016  2021-10-08 22:04:53 
20.8000  17.0000  71  1016  2021-10-08 23:04:56 
20.6000  17.0000  72  1017  2021-10-09 00:04:54 
20.1000  16.5000  72  1018  2021-10-09 01:04:53 
19.9000  16.3000  73  1018  2021-10-09 02:04:55 
19.8000  16.4000  73  1018  2021-10-09 03:04:53 
19.6000  16.1000  73  1017  2021-10-09 04:04:55 
19.6000  16.0000  74  1018  266  2021-10-09 05:04:55 
19.6000  16.0000  74  1019  295  2021-10-09 06:04:54 
21.6000  19.7000  74  1022  513  2021-10-09 11:04:54 
21.8000  20.5000  73  1021  310  2021-10-09 12:04:54 
22.6000  22.0000  67  1022  2021-10-09 13:04:53 
23.1000  21.6000  64  1023  2021-10-09 14:04:56 
23.6000  21.1000  62  1023  2021-10-09 15:04:55 
23.6000  20.6000  61  1023  2021-10-09 16:04:54 
23.5000  20.1000  60  1024  2021-10-09 17:04:53 
22.6000  18.6000  62  1023  2021-10-09 18:04:56 
22.5000  17.6000  64  1024  2021-10-09 19:04:55 
22.1000  17.0000  65  1025  2021-10-09 20:04:54 
22.1000  16.6000  65  1026  2021-10-09 21:04:53 
21.5000  15.6000  65  1026  2021-10-09 22:04:56 
21.6000  15.6000  66  1025  2021-10-09 23:04:55 
20.8000  15.2000  66  1026  2021-10-10 00:04:54 
20.3000  15.0000  66  1025  2021-10-10 01:04:56 
20.1000  14.1000  67  1025  2021-10-10 02:04:54 
19.6000  13.5000  67  1024  2021-10-10 03:04:53 
19.3000  13.0000  67  1023  2021-10-10 04:04:55 
19.0000  12.5000  67  1023  2021-10-10 05:04:53 
18.6000  12.5000  67  1023  2021-10-10 06:04:55 
18.6000  12.5000  67  1023  2021-10-10 07:04:54 
18.6000  14.5000  67  1023  2021-10-10 08:04:56 
19.1000  16.5000  66  1023  2021-10-10 09:04:54 
20.8000  20.2000  62  1023  2021-10-10 10:04:53 
21.6000  22.6000  55  1023  2021-10-10 11:04:55 
22.8000  23.6000  45  1022  2021-10-10 12:04:53 
23.6000  23.6000  44  1021  2021-10-10 13:04:56 
24.0000  23.1000  50  1022  2021-10-10 14:04:54 
24.6000  23.1000  45  1021  2021-10-10 15:04:52 
25.0000  23.6000  51  1021  2021-10-10 16:04:55 
24.6000  22.6000  53  1020  2021-10-10 17:04:54 
23.6000  21.2000  55  1020  2021-10-10 18:04:56 
23.6000  20.6000  61  1020  2021-10-10 19:04:54 
22.6000  19.2000  63  1020  2021-10-10 20:04:53 
23.1000  18.0000  62  1019  2021-10-10 21:04:55 
23.1000  16.2000  62  1019  2021-10-10 22:04:54 
22.1000  15.6000  62  1019  2021-10-10 23:04:56 
21.1000  14.4000  62  1018  2021-10-11 00:04:54 
20.7000  13.9000  62  1018  2021-10-11 01:04:52 
20.3000  13.0000  62  1018  2021-10-11 02:04:55 
20.0000  12.2000  63  1016  2021-10-11 03:04:53 
19.6000  11.5000  63  1016  2021-10-11 04:04:55 
19.1000  11.0000  63  1017  2021-10-11 05:04:53 
18.9000  11.0000  63  1016  2021-10-11 06:04:55 
18.6000  11.5000  65  1016  2021-10-11 07:04:53 
23.1000  26.1000  63  1016  2021-10-11 11:04:56 
23.6000  28.6000  56  1014  2021-10-11 12:04:54 
25.2000  29.4000  54  1014  2021-10-11 13:04:56 
26.2000  29.1000  51  1015  2021-10-11 14:04:55 
26.6000  29.1000  50  1014  2021-10-11 15:04:53 
27.1000  29.6000  53  1014  2021-10-11 16:04:56 
25.8000  24.3000  60  1015  2021-10-11 17:04:54 
24.2000  21.6000  65  1014  2021-10-11 18:04:56 
24.7000  20.5000  67  1016  2021-10-11 19:04:55 
24.6000  19.9000  67  1016  2021-10-11 20:04:53 
24.1000  19.1000  67  1016  2021-10-11 21:04:56 
24.0000  18.1000  67  1016  2021-10-11 22:04:54 
23.6000  18.1000  67  1016  2021-10-11 23:04:53 
22.8000  18.1000  70  1016  2021-10-12 00:04:55 
22.5000  17.6000  70  1016  2021-10-12 01:04:54 
22.1000  17.4000  71  1016  2021-10-12 02:04:57 
22.0000  17.4000  72  1016  2021-10-12 03:04:56 
21.8000  16.5000  72  1015  2021-10-12 04:04:54 
21.3000  16.0000  72  1015  2021-10-12 05:04:56 
21.1000  16.5000  72  1015  2021-10-12 06:04:55 
21.1000  16.5000  73  1016  2021-10-12 07:04:53 
21.2000  18.6000  75  1017  2021-10-12 08:04:55 
21.7000  19.6000  74  1017  2021-10-12 09:04:54 
22.4000  20.4000  73  1017  2021-10-12 10:04:56 
23.1000  21.1000  72  1016  30  2021-10-12 11:04:55 
24.0000  21.7000  70  1015  2021-10-12 12:04:53 
24.1000  22.1000  67  1015  2021-10-12 13:04:56 
24.5000  23.1000  65  1015  2021-10-12 14:04:54 
24.6000  22.5000  63  1014  2021-10-12 15:04:53 
24.7000  22.1000  62  1013  2021-10-12 16:04:55 
24.6000  21.1000  63  1014  2021-10-12 17:04:54 
23.9000  20.2000  66  1015  2021-10-12 18:04:56 
24.0000  19.8000  71  1015  2021-10-12 19:04:55 
23.9000  19.1000  73  1015  2021-10-12 20:04:53 
24.1000  18.6000  72  1015  2021-10-12 21:04:56 
24.1000  18.4000  72  1015  2021-10-12 22:04:55 
23.3000  18.1000  72  1014  2021-10-12 23:04:53 
22.8000  17.6000  72  1014  2021-10-13 00:04:56 
22.5000  17.6000  72  1013  2021-10-13 01:04:54 
22.1000  17.6000  73  1012  2021-10-13 02:04:57 
22.1000  16.7000  73  1011  2021-10-13 03:04:56 
21.6000  16.0000  73  1011  2021-10-13 04:04:54 
21.5000  15.5000  73  1010  2021-10-13 05:04:56 
21.1000  15.0000  73  1010  2021-10-13 06:04:54 
21.1000  15.4000  74  1010  2021-10-13 07:04:57 
24.6000  24.7000  67  1009  2021-10-13 12:04:58 
25.6000  25.6000  63  1008  2021-10-13 13:04:56 
25.2000  26.1000  63  1006  2021-10-13 14:04:55 
26.1000  26.6000  56  1005  2021-10-13 15:04:57 
26.0000  25.4000  60  1005  2021-10-13 16:04:55 
24.6000  22.6000  47  1005  2021-10-13 17:04:54 
24.1000  21.6000  56  1006  2021-10-13 18:04:56 
24.4000  20.1000  47  1006  2021-10-13 19:04:54 
24.1000  19.1000  56  1006  2021-10-13 20:04:57 
23.7000  18.6000  60  1008  2021-10-13 21:04:55 
22.9000  17.6000  63  1007  2021-10-13 22:04:54 
22.6000  17.5000  65  1007  2021-10-13 23:04:56 
22.5000  17.0000  67  1008  2021-10-14 00:04:55 
22.1000  16.5000  71  1008  2021-10-14 01:04:57 
21.7000  16.0000  71  1008  2021-10-14 02:04:55 
21.6000  15.5000  71  1008  2021-10-14 03:04:54 
21.2000  16.0000  71  1010  2021-10-14 04:04:56 
21.1000  15.5000  72  1010  2021-10-14 05:04:55 
21.0000  15.1000  73  1011  2021-10-14 06:04:53 
21.0000  15.5000  74  1012  2021-10-14 07:04:56 
20.2000  16.5000  77  1013  2021-10-14 08:04:54 
20.6000  16.0000  100  1014  14  2021-10-14 09:04:56 
21.5000  17.6000  76  1014  2021-10-14 10:04:55 
21.6000  16.5000  74  1014  2021-10-14 11:04:53 
22.1000  18.1000  71  1013  2021-10-14 12:04:56 
22.3000  17.0000  70  1013  2021-10-14 13:04:54 
22.6000  18.1000  70  1014  2021-10-14 14:04:57 
22.1000  17.0000  71  1013  2021-10-14 15:04:55 
21.9000  17.3000  66  1013  2021-10-14 16:04:54 
21.5000  16.8000  67  1013  2021-10-14 17:04:56 
21.8000  16.0000  70  1013  2021-10-14 18:04:55 
22.4000  15.5000  70  1013  2021-10-14 19:04:57 
22.4000  15.5000  70  1013  2021-10-14 20:04:55 
22.1000  15.3000  70  1015  2021-10-14 21:04:54 
21.9000  15.0000  70  1015  2021-10-14 22:04:56 
21.1000  14.5000  71  1015  2021-10-14 23:04:55 
20.6000  14.3000  71  1014  2021-10-15 00:04:57 
20.6000  14.3000  72  1014  2021-10-15 01:04:56 
20.1000  14.0000  72  1014  2021-10-15 02:04:54 
20.1000  14.0000  72  1014  2021-10-15 03:04:58 
19.6000  13.5000  73  1013  2021-10-15 04:04:54 
19.6000  14.0000  72  1014  2021-10-15 05:04:57 
19.1000  13.5000  72  1015  2021-10-15 06:04:55 
19.1000  14.0000  72  1016  2021-10-15 07:04:57 
21.6000  18.6000  55  1016  2021-10-15 13:04:56 
22.1000  19.6000  54  1015  2021-10-15 14:04:54 
22.8000  20.3000  50  1014  2021-10-15 15:04:57 
22.6000  19.6000  53  1014  2021-10-15 16:04:55 
21.0000  17.7000  62  1016  2021-10-15 17:04:57 
20.6000  16.5000  64  1015  2021-10-15 18:04:56 
21.2000  15.0000  66  1016  2021-10-15 19:04:54 
21.6000  14.5000  65  1017  2021-10-15 20:04:56 
21.2000  13.5000  65  1018  2021-10-15 21:04:55 
20.1000  13.5000  64  1018  2021-10-15 22:04:57 
19.6000  13.1000  63  1018  2021-10-15 23:04:55 
19.4000  13.0000  63  1019  2021-10-16 00:04:57 
19.1000  12.9000  63  1018  2021-10-16 01:04:56 
18.6000  12.5000  63  1019  2021-10-16 02:04:54 
18.6000  12.5000  62  1019  2021-10-16 03:04:57 
18.1000  12.5000  62  1018  2021-10-16 04:04:55 
18.0000  12.3000  61  1018  2021-10-16 05:04:54 
17.7000  12.0000  61  1020  2021-10-16 06:04:56 
17.5000  12.8000  62  1020  2021-10-16 07:04:54 
17.6000  12.7000  63  1020  2021-10-16 08:04:57 
17.7000  13.5000  65  1021  12  2021-10-16 09:04:55 
18.6000  13.7000  65  1021  2021-10-16 10:04:57 
19.1000  15.0000  65  1021  2021-10-16 11:04:55 
19.6000  15.0000  65  1020  2021-10-16 12:04:54 
19.6000  14.0000  67  1021  2021-10-16 13:04:56 
19.6000  14.0000  67  1021  2021-10-16 14:04:54 
19.6000  14.5000  67  1021  2021-10-16 15:04:57 
19.6000  14.5000  66  1022  2021-10-16 16:04:55 
19.6000  14.0000  65  1022  2021-10-16 17:04:57 
18.8000  13.9000  61  1022  2021-10-16 18:04:56 
19.1000  13.0000  62  1022  2021-10-16 19:04:54 
19.4000  12.5000  65  1022  2021-10-16 20:04:56 
19.1000  12.8000  64  1024  2021-10-16 21:04:54 
19.1000  12.0000  65  1023  2021-10-16 22:04:57 
18.6000  12.0000  64  1023  2021-10-16 23:04:55 
18.1000  12.0000  65  1024  2021-10-17 00:04:57 
17.6000  11.9000  65  1025  2021-10-17 01:04:55 
17.2000  12.5000  66  1024  2021-10-17 02:04:57 
17.0000  12.1000  66  1024  2021-10-17 03:04:56 
17.0000  11.5000  67  1024  2021-10-17 04:04:54 
16.7000  11.0000  70  1024  2021-10-17 05:04:56 
16.5000  11.5000  71  1024  2021-10-17 06:04:54 
16.5000  12.0000  71  1025  2021-10-17 07:04:56 
19.5000  16.0000  73  1026  2021-10-17 13:04:55 
19.6000  16.2000  74  1027  2021-10-17 14:04:57 
20.1000  17.0000  67  1027  2021-10-17 15:04:55 
19.6000  17.0000  70  1027  2021-10-17 16:04:58 
19.6000  16.5000  70  1027  2021-10-17 17:04:56 
19.1000  15.5000  67  1027  2021-10-17 18:04:54 
19.1000  14.5000  71  1027  2021-10-17 19:04:56 
19.1000  14.0000  71  1029  2021-10-17 20:04:54 
19.4000  13.7000  70  1029  2021-10-17 21:04:57 
18.6000  13.5000  70  1029  2021-10-17 22:04:55 
18.1000  13.5000  70  1030  2021-10-17 23:04:57 
17.9000  13.0000  70  1030  2021-10-18 00:04:55 
17.4000  12.5000  70  1030  2021-10-18 01:04:57 
17.0000  11.8000  71  1030  2021-10-18 02:04:56 
17.0000  11.0000  71  1029  2021-10-18 03:04:58 
16.5000  10.5000  71  1029  2021-10-18 04:04:56 
16.3000  10.4000  71  1029  2021-10-18 05:04:54 
16.0000  10.0000  71  1029  2021-10-18 06:04:56 
16.0000  10.5000  72  1030  2021-10-18 07:04:54 
16.1000  14.0000  73  1030  2021-10-18 08:04:56 
17.3000  16.3000  70  1029  2021-10-18 09:04:54 
18.6000  17.1000  64  1029  2021-10-18 10:04:56 
19.1000  18.1000  63  1029  2021-10-18 11:04:55 
19.6000  18.5000  63  1029  2021-10-18 12:04:57 
20.1000  18.6000  63  1029  2021-10-18 13:04:55 
20.7000  18.5000  61  1029  2021-10-18 14:04:57 
21.1000  18.1000  60  1027  2021-10-18 15:04:55 
21.1000  18.1000  57  1027  2021-10-18 16:04:58 
20.7000  17.6000  57  1026  2021-10-18 17:04:56 
20.6000  17.0000  62  1026  2021-10-18 18:04:54 
20.2000  15.9000  63  1026  2021-10-18 19:04:57 
20.1000  15.5000  64  1027  2021-10-18 20:04:55 
20.1000  15.2000  65  1027  2021-10-18 21:04:57 
19.6000  15.0000  65  1027  2021-10-18 22:04:55 
19.1000  14.7000  65  1027  2021-10-18 23:04:57 
18.7000  14.1000  66  1026  2021-10-19 00:04:56 
18.6000  13.5000  66  1025  2021-10-19 01:04:58 
18.1000  13.0000  66  1024  2021-10-19 02:04:56 
18.1000  12.9000  67  1023  2021-10-19 03:04:54 
17.6000  12.5000  67  1023  2021-10-19 04:04:57 
17.6000  12.5000  67  1023  2021-10-19 05:04:55 
17.1000  12.0000  67  1022  2021-10-19 06:04:57 
17.0000  13.0000  70  1022  2021-10-19 07:04:55 
22.6000  21.3000  64  1021  2021-10-19 14:04:56 
22.6000  20.7000  64  1020  2021-10-19 15:04:58 
23.1000  20.5000  63  1020  2021-10-19 16:04:56 
22.6000  20.1000  65  1019  2021-10-19 17:04:55 
22.6000  19.7000  67  1018  2021-10-19 18:04:57 
22.6000  19.1000  67  1019  2021-10-19 19:04:55 
22.6000  18.6000  67  1019  2021-10-19 20:04:58 
22.1000  17.5000  67  1019  2021-10-19 21:04:56 
21.1000  16.0000  67  1018  2021-10-19 22:04:55 
20.6000  15.2000  70  1017  2021-10-19 23:04:57 
20.2000  15.0000  70  1017  2021-10-20 00:04:55 
20.1000  14.5000  70  1016  2021-10-20 01:04:58 
19.6000  14.5000  71  1015  2021-10-20 02:04:56 
19.5000  13.6000  71  1014  2021-10-20 03:04:57 
18.7000  12.8000  71  1014  2021-10-20 04:04:56 
18.5000  12.0000  71  1014  2021-10-20 05:04:55 
18.1000  11.1000  71  1014  2021-10-20 06:04:57 
18.1000  12.5000  71  1014  2021-10-20 07:04:55 
18.7000  16.0000  75  1014  2021-10-20 08:04:58 
20.2000  19.7000  73  1013  2021-10-20 09:04:56 
21.7000  23.1000  70  1013  2021-10-20 10:04:58 
23.1000  23.9000  66  1013  2021-10-20 11:04:56 
23.4000  23.1000  66  1013  2021-10-20 12:04:55 
23.4000  22.4000  67  1012  2021-10-20 13:04:57 
24.1000  22.2000  67  1012  2021-10-20 14:04:56 
23.3000  20.1000  70  1009  2021-10-20 17:04:56 
23.2000  20.1000  72  1010  2021-10-20 18:04:54 
23.6000  19.6000  72  1009  2021-10-20 19:04:57 
23.1000  19.6000  71  1009  2021-10-20 20:04:55 
23.1000  19.1000  71  1009  2021-10-20 21:04:58 
22.6000  18.6000  71  1009  2021-10-20 22:04:56 
21.9000  18.2000  72  1010  2021-10-20 23:04:54 
21.6000  17.0000  72  1011  2021-10-21 00:04:57 
21.1000  17.0000  72  1012  2021-10-21 01:04:55 
21.1000  16.5000  72  1011  2021-10-21 02:04:58 
20.7000  16.5000  72  1011  2021-10-21 03:04:56 
20.6000  16.5000  71  1010  2021-10-21 04:04:58 
20.6000  16.5000  71  1010  2021-10-21 05:04:57 
20.4000  16.0000  71  1011  2021-10-21 06:04:55 
20.4000  16.4000  72  1012  2021-10-21 07:04:57 
21.0000  17.3000  71  1011  2021-10-21 08:04:55 
23.1000  21.9000  64  1010  2021-10-21 15:04:57 
23.1000  21.4000  63  1009  2021-10-21 16:04:55 
23.1000  21.6000  64  1009  2021-10-21 17:04:58 
22.6000  20.2000  64  1009  2021-10-21 18:04:56 
23.1000  19.2000  66  1009  2021-10-21 19:04:55 
22.7000  18.5000  66  1008  2021-10-21 20:04:57 
22.6000  18.1000  65  1009  2021-10-21 21:04:56 
22.1000  18.0000  62  1009  2021-10-21 22:04:58 
21.6000  17.7000  62  1008  2021-10-21 23:04:56 
21.1000  17.6000  64  1009  2021-10-22 00:04:59 
20.8000  17.4000  64  1009  2021-10-22 01:04:57 
20.6000  17.3000  65  1010  2021-10-22 02:04:55 
20.6000  17.0000  66  1010  2021-10-22 03:04:57 
20.6000  17.0000  67  1008  2021-10-22 04:04:56 
20.3000  16.5000  70  1008  2021-10-22 05:04:58 
20.1000  16.4000  71  1008  2021-10-22 06:04:56 
20.1000  16.0000  72  1008  2021-10-22 07:04:59 
20.1000  16.5000  73  1008  2021-10-22 08:04:57 
20.6000  17.5000  72  1008  2021-10-22 09:04:55 
20.6000  17.6000  71  1009  2021-10-22 10:04:58 
21.1000  18.1000  72  1008  2021-10-22 11:04:56 
21.1000  18.6000  71  1008  2021-10-22 12:04:58 
21.1000  18.6000  70  1008  2021-10-22 13:04:56 
21.6000  19.7000  70  1008  2021-10-22 14:04:55 
21.4000  19.1000  66  1008  2021-10-22 15:04:57 
21.6000  18.3000  67  1008  2021-10-22 16:04:55 
21.1000  17.4000  67  1008  2021-10-22 17:04:58 
21.2000  17.0000  71  1008  2021-10-22 18:04:56 
21.1000  16.5000  71  1007  2021-10-22 19:04:58 
21.1000  16.5000  70  1007  2021-10-22 20:04:57 
20.8000  14.2000  71  1008  2021-10-22 21:04:55 
20.1000  13.6000  73  1007  10  2021-10-22 22:04:58 
19.6000  14.0000  75  1006  12  2021-10-22 23:04:56 
19.1000  13.2000  76  1007  14  2021-10-23 00:04:59 
19.0000  13.0000  76  1007  2021-10-23 01:04:57 
18.7000  13.0000  76  1007  2021-10-23 02:04:55 
18.6000  13.0000  76  1006  2021-10-23 03:04:58 
18.6000  13.1000  76  1006  2021-10-23 04:04:56 
18.3000  13.0000  77  1008  2021-10-23 05:04:58 
18.1000  12.8000  77  1010  2021-10-23 06:04:57 
18.1000  13.0000  76  1011  2021-10-23 07:04:55 
18.6000  13.5000  75  1013  2021-10-23 08:04:57 
21.6000  18.1000  64  1020  2021-10-23 15:04:59 
22.1000  19.1000  63  1020  2021-10-23 16:04:57 
21.5000  19.1000  63  1021  2021-10-23 17:04:55 
21.8000  17.3000  64  1021  2021-10-23 18:04:58 
21.9000  16.9000  65  1022  2021-10-23 19:04:56 
21.6000  15.6000  66  1024  2021-10-23 20:04:58 
21.4000  15.5000  66  1025  2021-10-23 21:04:57 
20.6000  15.2000  67  1026  2021-10-23 22:04:55 
20.2000  14.2000  67  1025  2021-10-23 23:04:57 
19.7000  14.0000  70  1025  2021-10-24 00:04:56 
19.1000  13.0000  67  1025  2021-10-24 01:04:58 
18.8000  11.5000  67  1026  2021-10-24 02:04:56 
18.6000  11.7000  67  1026  2021-10-24 03:04:58 
18.2000  11.6000  70  1025  2021-10-24 04:04:56 
18.1000  11.4000  70  1025  2021-10-24 05:04:58 
17.6000  11.0000  70  1026  2021-10-24 06:04:56 
17.6000  11.5000  71  1026  2021-10-24 07:04:59 
17.6000  13.5000  72  1028  2021-10-24 08:04:57 
18.6000  16.8000  71  1027  2021-10-24 09:04:55 
19.3000  18.1000  65  1027  2021-10-24 10:04:57 
20.1000  19.1000  62  1027  2021-10-24 11:04:55 
20.6000  20.1000  61  1027  2021-10-24 12:04:58 
21.1000  19.6000  57  1026  2021-10-24 13:04:56 
21.6000  19.6000  55  1025  2021-10-24 14:04:58 
22.3000  20.4000  53  1024  2021-10-24 15:04:57 
22.1000  19.1000  54  1024  2021-10-24 16:04:55 
22.3000  18.1000  57  1024  2021-10-24 17:04:57 
22.6000  18.1000  60  1024  2021-10-24 18:04:56 
21.7000  16.5000  62  1024  2021-10-24 19:04:58 
21.1000  15.0000  65  1024  2021-10-24 22:04:58 
20.6000  14.5000  65  1024  2021-10-24 23:04:56 
20.1000  14.5000  66  1024  2021-10-25 00:04:58 
19.6000  14.0000  66  1023  2021-10-25 01:04:57 
19.1000  13.5000  67  1022  2021-10-25 02:04:59 
19.0000  14.0000  67  1022  2021-10-25 03:04:57 
18.6000  13.8000  70  1022  2021-10-25 04:04:55 
18.6000  13.5000  70  1022  2021-10-25 05:04:57 
18.3000  13.5000  71  1021  2021-10-25 06:04:56 
18.6000  14.2000  71  1022  2021-10-25 07:04:58 
23.1000  19.6000  64  1019  2021-10-25 16:04:57 
23.0000  19.1000  65  1018  2021-10-25 17:04:55 
22.4000  18.1000  67  1019  2021-10-25 18:04:58 
22.1000  17.0000  67  1020  2021-10-25 19:04:56 
21.7000  16.7000  67  1021  2021-10-25 20:04:58 
21.9000  16.5000  70  1020  2021-10-25 21:04:57 
21.6000  16.4000  70  1021  2021-10-25 22:04:59 
20.9000  15.5000  70  1021  2021-10-25 23:04:57 
20.6000  16.0000  70  1020  2021-10-26 00:04:55 
20.3000  16.0000  71  1020  2021-10-26 01:04:58 
20.1000  15.9000  71  1019  2021-10-26 02:04:57 
20.0000  16.0000  71  1018  2021-10-26 03:04:59 
20.1000  16.0000  71  1018  2021-10-26 04:04:57 
19.8000  15.2000  71  1017  2021-10-26 05:04:56 
19.6000  15.4000  73  1017  2021-10-26 06:04:58 
19.6000  16.0000  73  1017  2021-10-26 07:04:56 
20.1000  18.1000  74  1018  2021-10-26 08:04:59 
20.8000  20.1000  72  1017  2021-10-26 09:04:57 
22.1000  22.1000  70  1017  2021-10-26 10:04:59 
23.6000  24.1000  63  1017  2021-10-26 11:04:58 
24.3000  25.1000  60  1017  2021-10-26 12:04:56 
24.5000  23.6000  64  1016  2021-10-26 13:04:58 
24.7000  23.6000  64  1016  2021-10-26 14:04:57 
24.6000  22.6000  66  1015  2021-10-26 15:04:59 
24.6000  22.7000  64  1015  2021-10-26 16:04:58 
24.8000  23.3000  65  1015  2021-10-26 17:04:56 
24.6000  21.8000  65  1016  2021-10-26 18:04:59 
24.2000  21.1000  66  1016  2021-10-26 19:04:57 
24.2000  20.6000  67  1016  2021-10-26 20:04:56 
24.1000  20.1000  67  1017  2021-10-26 21:04:58 
23.1000  19.6000  67  1017  2021-10-26 22:04:57 
22.6000  19.1000  70  1016  2021-10-26 23:04:59 
22.6000  19.4000  70  1015  2021-10-27 00:04:57 
22.1000  18.2000  70  1016  2021-10-27 01:04:56 
22.1000  18.1000  71  1014  2021-10-27 02:04:58 
21.6000  17.4000  71  1013  2021-10-27 03:04:56 
21.4000  17.0000  72  1013  2021-10-27 04:04:59 
21.1000  16.5000  72  1012  2021-10-27 05:04:57 
21.1000  16.7000  72  1012  2021-10-27 06:04:56 
20.7000  17.5000  75  1012  2021-10-27 07:04:58 
21.6000  20.1000  74  1012  2021-10-27 08:04:56 
25.8000  22.6000  70  1012  2021-10-27 17:05:00 
25.5000  22.1000  73  1013  2021-10-27 18:04:58 
25.6000  21.7000  71  1012  2021-10-27 19:04:56 
24.7000  21.1000  71  1013  2021-10-27 20:04:59 
24.6000  20.0000  71  1013  2021-10-27 21:04:57 
24.6000  19.9000  72  1015  2021-10-27 22:04:56 
24.0000  19.1000  72  1016  2021-10-27 23:04:58 
23.6000  18.4000  72  1015  2021-10-28 00:04:57 
23.1000  18.1000  73  1014  2021-10-28 01:04:59 
22.8000  18.1000  73  1012  2021-10-28 02:04:58 
22.7000  17.6000  74  1012  2021-10-28 03:04:56 
22.4000  17.0000  74  1013  2021-10-28 04:04:59 
22.1000  16.4000  74  1012  2021-10-28 05:04:57 
21.6000  16.2000  74  1013  2021-10-28 06:05:00 
22.0000  16.5000  75  1013  2021-10-28 07:04:58 
22.1000  18.1000  74  1014  2021-10-28 08:04:56 
22.3000  18.6000  73  1013  2021-10-28 09:04:59 
23.1000  20.0000  71  1014  2021-10-28 10:04:57 
23.4000  20.6000  66  1013  103  2021-10-28 11:04:56 
24.4000  22.4000  64  1013  2021-10-28 12:04:59 
25.1000  24.1000  61  1011  2021-10-28 13:04:57 
26.3000  25.1000  56  1012  2021-10-28 14:05:00 
26.0000  25.2000  55  1010  2021-10-28 15:04:58 
25.2000  24.6000  57  1010  2021-10-28 16:04:57 
24.9000  24.1000  61  1010  2021-10-28 17:04:59 
25.1000  23.3000  61  1011  2021-10-28 18:04:58 
24.7000  21.6000  62  1011  2021-10-28 19:04:56 
24.6000  20.1000  63  1011  2021-10-28 20:04:59 

 

Home